<?xml version="1.0" encoding="UTF-8"?>
<gpx version="1.1" creator="https://www.youtrack.es" xsi:schemaLocation="http://www.topografix.com/GPX/1/1 http://www.topografix.com/GPX/1/1/gpx.xsd http://www.garmin.com/xmlschemas/GpxExtensions/v3 http://www.garmin.com/xmlschemas/GpxExtensionsv3.xsd http://www.garmin.com/xmlschemas/TrackPointExtension/v1 http://www.garmin.com/xmlschemas/TrackPointExtensionv1.xsd" xmlns:gpxtpx="http://www.garmin.com/xmlschemas/TrackPointExtension/v1" xmlns:gpxx="http://www.garmin.com/xmlschemas/GpxExtensions/v3" xmlns:xsi="http://www.w3.org/2001/XMLSchema-instance">
  <metadata>
    <link href="https://www.youtrack.es">
      <text>YouTrack.es</text>
    </link>
    <time>2026-05-08T14:28:53Z</time>
  </metadata>
  <trk>
    <src>https://www.youtrack.es</src>
    <link href="https://www.youtrack.es/ruta/7791-ruta-2020">
      <text>YouTrack.es</text>
    </link>
    <trkseg>
      <trkpt lat="38.690685" lon="-3.018322">
        <ele>832.919</ele>
        <time>2019-08-06T20:13:36Z</time>
      </trkpt>
      <trkpt lat="38.691221" lon="-3.017635">
        <ele>830.709</ele>
        <time>2019-08-06T20:13:56Z</time>
      </trkpt>
      <trkpt lat="38.690869" lon="-3.017507">
        <ele>829.219</ele>
        <time>2019-08-06T20:14:16Z</time>
      </trkpt>
      <trkpt lat="38.690174" lon="-3.017560">
        <ele>824.208</ele>
        <time>2019-08-06T20:14:36Z</time>
      </trkpt>
      <trkpt lat="38.688407" lon="-3.017399">
        <ele>822.244</ele>
        <time>2019-08-06T20:14:56Z</time>
      </trkpt>
      <trkpt lat="38.687754" lon="-3.017346">
        <ele>821.040</ele>
        <time>2019-08-06T20:15:16Z</time>
      </trkpt>
      <trkpt lat="38.686825" lon="-3.017313">
        <ele>819.546</ele>
        <time>2019-08-06T20:15:36Z</time>
      </trkpt>
      <trkpt lat="38.685970" lon="-3.017507">
        <ele>819.589</ele>
        <time>2019-08-06T20:15:56Z</time>
      </trkpt>
      <trkpt lat="38.685753" lon="-3.017442">
        <ele>819.168</ele>
        <time>2019-08-06T20:16:16Z</time>
      </trkpt>
      <trkpt lat="38.684965" lon="-3.017517">
        <ele>820.380</ele>
        <time>2019-08-06T20:16:36Z</time>
      </trkpt>
      <trkpt lat="38.684656" lon="-3.017732">
        <ele>822.091</ele>
        <time>2019-08-06T20:16:56Z</time>
      </trkpt>
      <trkpt lat="38.682646" lon="-3.018805">
        <ele>827.045</ele>
        <time>2019-08-06T20:17:16Z</time>
      </trkpt>
      <trkpt lat="38.682017" lon="-3.019148">
        <ele>828.769</ele>
        <time>2019-08-06T20:17:36Z</time>
      </trkpt>
      <trkpt lat="38.679999" lon="-3.019964">
        <ele>827.904</ele>
        <time>2019-08-06T20:17:56Z</time>
      </trkpt>
      <trkpt lat="38.679111" lon="-3.020414">
        <ele>829.624</ele>
        <time>2019-08-06T20:18:16Z</time>
      </trkpt>
      <trkpt lat="38.678114" lon="-3.020747">
        <ele>832.208</ele>
        <time>2019-08-06T20:18:36Z</time>
      </trkpt>
      <trkpt lat="38.677679" lon="-3.020961">
        <ele>833.389</ele>
        <time>2019-08-06T20:18:56Z</time>
      </trkpt>
      <trkpt lat="38.677042" lon="-3.021444">
        <ele>833.675</ele>
        <time>2019-08-06T20:19:16Z</time>
      </trkpt>
      <trkpt lat="38.676724" lon="-3.021476">
        <ele>833.711</ele>
        <time>2019-08-06T20:19:36Z</time>
      </trkpt>
      <trkpt lat="38.676230" lon="-3.021380">
        <ele>832.624</ele>
        <time>2019-08-06T20:19:56Z</time>
      </trkpt>
      <trkpt lat="38.674161" lon="-3.021723">
        <ele>838.233</ele>
        <time>2019-08-06T20:20:16Z</time>
      </trkpt>
      <trkpt lat="38.672678" lon="-3.021938">
        <ele>847.575</ele>
        <time>2019-08-06T20:20:36Z</time>
      </trkpt>
      <trkpt lat="38.672293" lon="-3.022099">
        <ele>851.286</ele>
        <time>2019-08-06T20:20:56Z</time>
      </trkpt>
      <trkpt lat="38.670258" lon="-3.022238">
        <ele>858.170</ele>
        <time>2019-08-06T20:21:16Z</time>
      </trkpt>
      <trkpt lat="38.669680" lon="-3.021669">
        <ele>864.844</ele>
        <time>2019-08-06T20:21:36Z</time>
      </trkpt>
      <trkpt lat="38.669286" lon="-3.021412">
        <ele>863.805</ele>
        <time>2019-08-06T20:21:56Z</time>
      </trkpt>
      <trkpt lat="38.668892" lon="-3.021412">
        <ele>862.915</ele>
        <time>2019-08-06T20:22:16Z</time>
      </trkpt>
      <trkpt lat="38.668256" lon="-3.021541">
        <ele>865.208</ele>
        <time>2019-08-06T20:22:36Z</time>
      </trkpt>
      <trkpt lat="38.668180" lon="-3.021444">
        <ele>866.037</ele>
        <time>2019-08-06T20:22:56Z</time>
      </trkpt>
      <trkpt lat="38.668205" lon="-3.020983">
        <ele>866.923</ele>
        <time>2019-08-06T20:23:16Z</time>
      </trkpt>
      <trkpt lat="38.668080" lon="-3.020607">
        <ele>867.139</ele>
        <time>2019-08-06T20:23:36Z</time>
      </trkpt>
      <trkpt lat="38.667678" lon="-3.020575">
        <ele>869.422</ele>
        <time>2019-08-06T20:23:56Z</time>
      </trkpt>
      <trkpt lat="38.667326" lon="-3.020414">
        <ele>871.171</ele>
        <time>2019-08-06T20:24:16Z</time>
      </trkpt>
      <trkpt lat="38.665969" lon="-3.018665">
        <ele>871.053</ele>
        <time>2019-08-06T20:24:36Z</time>
      </trkpt>
      <trkpt lat="38.664922" lon="-3.018054">
        <ele>869.774</ele>
        <time>2019-08-06T20:24:56Z</time>
      </trkpt>
      <trkpt lat="38.664595" lon="-3.017957">
        <ele>868.778</ele>
        <time>2019-08-06T20:25:16Z</time>
      </trkpt>
      <trkpt lat="38.664109" lon="-3.017968">
        <ele>868.033</ele>
        <time>2019-08-06T20:25:36Z</time>
      </trkpt>
      <trkpt lat="38.663305" lon="-3.017625">
        <ele>865.223</ele>
        <time>2019-08-06T20:25:56Z</time>
      </trkpt>
      <trkpt lat="38.662651" lon="-3.017657">
        <ele>861.715</ele>
        <time>2019-08-06T20:26:16Z</time>
      </trkpt>
      <trkpt lat="38.661847" lon="-3.017238">
        <ele>855.408</ele>
        <time>2019-08-06T20:26:36Z</time>
      </trkpt>
      <trkpt lat="38.660607" lon="-3.016906">
        <ele>852.656</ele>
        <time>2019-08-06T20:26:56Z</time>
      </trkpt>
      <trkpt lat="38.659970" lon="-3.016305">
        <ele>856.682</ele>
        <time>2019-08-06T20:27:16Z</time>
      </trkpt>
      <trkpt lat="38.659066" lon="-3.015339">
        <ele>868.548</ele>
        <time>2019-08-06T20:27:36Z</time>
      </trkpt>
      <trkpt lat="38.658152" lon="-3.014621">
        <ele>869.331</ele>
        <time>2019-08-06T20:27:56Z</time>
      </trkpt>
      <trkpt lat="38.657398" lon="-3.014299">
        <ele>866.210</ele>
        <time>2019-08-06T20:28:16Z</time>
      </trkpt>
      <trkpt lat="38.656510" lon="-3.014191">
        <ele>869.192</ele>
        <time>2019-08-06T20:28:36Z</time>
      </trkpt>
      <trkpt lat="38.656301" lon="-3.014470">
        <ele>870.953</ele>
        <time>2019-08-06T20:28:56Z</time>
      </trkpt>
      <trkpt lat="38.656108" lon="-3.014663">
        <ele>872.227</ele>
        <time>2019-08-06T20:29:16Z</time>
      </trkpt>
      <trkpt lat="38.653938" lon="-3.014921">
        <ele>878.542</ele>
        <time>2019-08-06T20:29:36Z</time>
      </trkpt>
      <trkpt lat="38.653167" lon="-3.014910">
        <ele>877.522</ele>
        <time>2019-08-06T20:29:56Z</time>
      </trkpt>
      <trkpt lat="38.653000" lon="-3.014631">
        <ele>877.514</ele>
        <time>2019-08-06T20:30:16Z</time>
      </trkpt>
      <trkpt lat="38.651911" lon="-3.014535">
        <ele>880.708</ele>
        <time>2019-08-06T20:30:36Z</time>
      </trkpt>
      <trkpt lat="38.649807" lon="-3.014234">
        <ele>881.037</ele>
        <time>2019-08-06T20:30:56Z</time>
      </trkpt>
      <trkpt lat="38.647637" lon="-3.013837">
        <ele>879.463</ele>
        <time>2019-08-06T20:31:16Z</time>
      </trkpt>
      <trkpt lat="38.645836" lon="-3.013344">
        <ele>879.939</ele>
        <time>2019-08-06T20:31:36Z</time>
      </trkpt>
      <trkpt lat="38.643791" lon="-3.012561">
        <ele>877.712</ele>
        <time>2019-08-06T20:31:56Z</time>
      </trkpt>
      <trkpt lat="38.641730" lon="-3.011971">
        <ele>879.061</ele>
        <time>2019-08-06T20:32:16Z</time>
      </trkpt>
      <trkpt lat="38.640607" lon="-3.011810">
        <ele>879.643</ele>
        <time>2019-08-06T20:32:36Z</time>
      </trkpt>
      <trkpt lat="38.639920" lon="-3.011659">
        <ele>878.014</ele>
        <time>2019-08-06T20:32:56Z</time>
      </trkpt>
      <trkpt lat="38.639626" lon="-3.011574">
        <ele>877.858</ele>
        <time>2019-08-06T20:33:16Z</time>
      </trkpt>
      <trkpt lat="38.638830" lon="-3.010930">
        <ele>878.969</ele>
        <time>2019-08-06T20:33:36Z</time>
      </trkpt>
      <trkpt lat="38.638235" lon="-3.010587">
        <ele>878.004</ele>
        <time>2019-08-06T20:33:56Z</time>
      </trkpt>
      <trkpt lat="38.637405" lon="-3.010415">
        <ele>882.024</ele>
        <time>2019-08-06T20:34:16Z</time>
      </trkpt>
      <trkpt lat="38.636852" lon="-3.010222">
        <ele>883.308</ele>
        <time>2019-08-06T20:34:36Z</time>
      </trkpt>
      <trkpt lat="38.636718" lon="-3.009964">
        <ele>883.729</ele>
        <time>2019-08-06T20:34:56Z</time>
      </trkpt>
      <trkpt lat="38.636752" lon="-3.009621">
        <ele>882.775</ele>
        <time>2019-08-06T20:35:16Z</time>
      </trkpt>
      <trkpt lat="38.635620" lon="-3.009084">
        <ele>885.891</ele>
        <time>2019-08-06T20:35:36Z</time>
      </trkpt>
      <trkpt lat="38.634070" lon="-3.008280">
        <ele>887.034</ele>
        <time>2019-08-06T20:35:56Z</time>
      </trkpt>
      <trkpt lat="38.632888" lon="-3.007765">
        <ele>889.233</ele>
        <time>2019-08-06T20:36:16Z</time>
      </trkpt>
      <trkpt lat="38.631639" lon="-3.007550">
        <ele>888.085</ele>
        <time>2019-08-06T20:36:36Z</time>
      </trkpt>
      <trkpt lat="38.630374" lon="-3.007325">
        <ele>884.886</ele>
        <time>2019-08-06T20:36:56Z</time>
      </trkpt>
      <trkpt lat="38.629804" lon="-3.007185">
        <ele>881.520</ele>
        <time>2019-08-06T20:37:16Z</time>
      </trkpt>
      <trkpt lat="38.629025" lon="-3.006638">
        <ele>885.529</ele>
        <time>2019-08-06T20:37:36Z</time>
      </trkpt>
      <trkpt lat="38.628446" lon="-3.006027">
        <ele>886.200</ele>
        <time>2019-08-06T20:37:56Z</time>
      </trkpt>
      <trkpt lat="38.627474" lon="-3.005512">
        <ele>888.020</ele>
        <time>2019-08-06T20:38:16Z</time>
      </trkpt>
      <trkpt lat="38.626259" lon="-3.004503">
        <ele>889.308</ele>
        <time>2019-08-06T20:38:36Z</time>
      </trkpt>
      <trkpt lat="38.625219" lon="-3.003752">
        <ele>889.295</ele>
        <time>2019-08-06T20:38:56Z</time>
      </trkpt>
      <trkpt lat="38.624607" lon="-3.003387">
        <ele>890.081</ele>
        <time>2019-08-06T20:39:16Z</time>
      </trkpt>
      <trkpt lat="38.624381" lon="-3.003409">
        <ele>889.587</ele>
        <time>2019-08-06T20:39:36Z</time>
      </trkpt>
      <trkpt lat="38.623845" lon="-3.003377">
        <ele>886.110</ele>
        <time>2019-08-06T20:39:56Z</time>
      </trkpt>
      <trkpt lat="38.623367" lon="-3.003119">
        <ele>885.229</ele>
        <time>2019-08-06T20:40:16Z</time>
      </trkpt>
      <trkpt lat="38.622596" lon="-3.002518">
        <ele>884.771</ele>
        <time>2019-08-06T20:40:36Z</time>
      </trkpt>
      <trkpt lat="38.622026" lon="-3.004407">
        <ele>883.952</ele>
        <time>2019-08-06T20:40:56Z</time>
      </trkpt>
      <trkpt lat="38.621900" lon="-3.005018">
        <ele>883.166</ele>
        <time>2019-08-06T20:41:16Z</time>
      </trkpt>
      <trkpt lat="38.621816" lon="-3.005673">
        <ele>881.329</ele>
        <time>2019-08-06T20:41:36Z</time>
      </trkpt>
      <trkpt lat="38.621841" lon="-3.005952">
        <ele>880.700</ele>
        <time>2019-08-06T20:41:56Z</time>
      </trkpt>
      <trkpt lat="38.622026" lon="-3.006563">
        <ele>880.020</ele>
        <time>2019-08-06T20:42:16Z</time>
      </trkpt>
      <trkpt lat="38.622084" lon="-3.007164">
        <ele>880.508</ele>
        <time>2019-08-06T20:42:36Z</time>
      </trkpt>
      <trkpt lat="38.622143" lon="-3.007754">
        <ele>879.115</ele>
        <time>2019-08-06T20:42:56Z</time>
      </trkpt>
      <trkpt lat="38.622110" lon="-3.008409">
        <ele>877.071</ele>
        <time>2019-08-06T20:43:16Z</time>
      </trkpt>
      <trkpt lat="38.622009" lon="-3.008891">
        <ele>876.237</ele>
        <time>2019-08-06T20:43:36Z</time>
      </trkpt>
      <trkpt lat="38.621581" lon="-3.009181">
        <ele>876.350</ele>
        <time>2019-08-06T20:43:56Z</time>
      </trkpt>
      <trkpt lat="38.621146" lon="-3.009760">
        <ele>876.979</ele>
        <time>2019-08-06T20:44:16Z</time>
      </trkpt>
      <trkpt lat="38.621079" lon="-3.009911">
        <ele>876.211</ele>
        <time>2019-08-06T20:44:36Z</time>
      </trkpt>
      <trkpt lat="38.620450" lon="-3.010383">
        <ele>874.282</ele>
        <time>2019-08-06T20:44:56Z</time>
      </trkpt>
      <trkpt lat="38.620215" lon="-3.010855">
        <ele>873.556</ele>
        <time>2019-08-06T20:45:16Z</time>
      </trkpt>
      <trkpt lat="38.620089" lon="-3.011295">
        <ele>871.962</ele>
        <time>2019-08-06T20:45:36Z</time>
      </trkpt>
      <trkpt lat="38.620047" lon="-3.011692">
        <ele>871.483</ele>
        <time>2019-08-06T20:45:56Z</time>
      </trkpt>
      <trkpt lat="38.620006" lon="-3.011981">
        <ele>870.111</ele>
        <time>2019-08-06T20:46:16Z</time>
      </trkpt>
      <trkpt lat="38.620006" lon="-3.012432">
        <ele>869.408</ele>
        <time>2019-08-06T20:46:36Z</time>
      </trkpt>
      <trkpt lat="38.619427" lon="-3.013666">
        <ele>866.079</ele>
        <time>2019-08-06T20:46:56Z</time>
      </trkpt>
      <trkpt lat="38.619260" lon="-3.013998">
        <ele>866.285</ele>
        <time>2019-08-06T20:47:16Z</time>
      </trkpt>
      <trkpt lat="38.619184" lon="-3.014299">
        <ele>865.651</ele>
        <time>2019-08-06T20:47:36Z</time>
      </trkpt>
      <trkpt lat="38.618832" lon="-3.014878">
        <ele>863.214</ele>
        <time>2019-08-06T20:47:56Z</time>
      </trkpt>
      <trkpt lat="38.618690" lon="-3.015254">
        <ele>861.643</ele>
        <time>2019-08-06T20:48:16Z</time>
      </trkpt>
      <trkpt lat="38.617424" lon="-3.016208">
        <ele>856.845</ele>
        <time>2019-08-06T20:48:36Z</time>
      </trkpt>
      <trkpt lat="38.617038" lon="-3.016369">
        <ele>857.666</ele>
        <time>2019-08-06T20:48:56Z</time>
      </trkpt>
      <trkpt lat="38.616284" lon="-3.016992">
        <ele>853.670</ele>
        <time>2019-08-06T20:49:16Z</time>
      </trkpt>
      <trkpt lat="38.615831" lon="-3.017657">
        <ele>852.053</ele>
        <time>2019-08-06T20:49:36Z</time>
      </trkpt>
      <trkpt lat="38.615135" lon="-3.018644">
        <ele>848.004</ele>
        <time>2019-08-06T20:49:56Z</time>
      </trkpt>
      <trkpt lat="38.615009" lon="-3.018816">
        <ele>847.314</ele>
        <time>2019-08-06T20:50:16Z</time>
      </trkpt>
      <trkpt lat="38.615043" lon="-3.019009">
        <ele>846.108</ele>
        <time>2019-08-06T20:50:36Z</time>
      </trkpt>
      <trkpt lat="38.615102" lon="-3.019427">
        <ele>842.728</ele>
        <time>2019-08-06T20:50:56Z</time>
      </trkpt>
      <trkpt lat="38.615093" lon="-3.019663">
        <ele>840.574</ele>
        <time>2019-08-06T20:51:16Z</time>
      </trkpt>
      <trkpt lat="38.614859" lon="-3.019878">
        <ele>837.410</ele>
        <time>2019-08-06T20:51:36Z</time>
      </trkpt>
      <trkpt lat="38.614129" lon="-3.020103">
        <ele>832.523</ele>
        <time>2019-08-06T20:51:56Z</time>
      </trkpt>
      <trkpt lat="38.613651" lon="-3.020457">
        <ele>830.142</ele>
        <time>2019-08-06T20:52:16Z</time>
      </trkpt>
      <trkpt lat="38.613157" lon="-3.020682">
        <ele>830.244</ele>
        <time>2019-08-06T20:52:36Z</time>
      </trkpt>
      <trkpt lat="38.612478" lon="-3.021616">
        <ele>826.025</ele>
        <time>2019-08-06T20:52:56Z</time>
      </trkpt>
      <trkpt lat="38.612092" lon="-3.021777">
        <ele>825.139</ele>
        <time>2019-08-06T20:53:16Z</time>
      </trkpt>
      <trkpt lat="38.611774" lon="-3.022023">
        <ele>823.492</ele>
        <time>2019-08-06T20:53:36Z</time>
      </trkpt>
      <trkpt lat="38.610600" lon="-3.023472">
        <ele>824.673</ele>
        <time>2019-08-06T20:53:56Z</time>
      </trkpt>
      <trkpt lat="38.609149" lon="-3.024641">
        <ele>823.320</ele>
        <time>2019-08-06T20:54:16Z</time>
      </trkpt>
      <trkpt lat="38.608177" lon="-3.025918">
        <ele>818.008</ele>
        <time>2019-08-06T20:54:36Z</time>
      </trkpt>
      <trkpt lat="38.607682" lon="-3.026369">
        <ele>817.642</ele>
        <time>2019-08-06T20:54:56Z</time>
      </trkpt>
      <trkpt lat="38.607481" lon="-3.027002">
        <ele>817.728</ele>
        <time>2019-08-06T20:55:16Z</time>
      </trkpt>
      <trkpt lat="38.607154" lon="-3.027570">
        <ele>815.844</ele>
        <time>2019-08-06T20:55:36Z</time>
      </trkpt>
      <trkpt lat="38.606274" lon="-3.028182">
        <ele>818.347</ele>
        <time>2019-08-06T20:55:56Z</time>
      </trkpt>
      <trkpt lat="38.605544" lon="-3.029169">
        <ele>814.026</ele>
        <time>2019-08-06T20:56:16Z</time>
      </trkpt>
      <trkpt lat="38.604899" lon="-3.029909">
        <ele>812.218</ele>
        <time>2019-08-06T20:56:36Z</time>
      </trkpt>
      <trkpt lat="38.604387" lon="-3.030167">
        <ele>811.819</ele>
        <time>2019-08-06T20:56:56Z</time>
      </trkpt>
      <trkpt lat="38.603608" lon="-3.030875">
        <ele>811.353</ele>
        <time>2019-08-06T20:57:16Z</time>
      </trkpt>
      <trkpt lat="38.603071" lon="-3.031132">
        <ele>811.228</ele>
        <time>2019-08-06T20:57:36Z</time>
      </trkpt>
      <trkpt lat="38.602350" lon="-3.031293">
        <ele>809.089</ele>
        <time>2019-08-06T20:57:56Z</time>
      </trkpt>
      <trkpt lat="38.601755" lon="-3.031658">
        <ele>807.317</ele>
        <time>2019-08-06T20:58:16Z</time>
      </trkpt>
      <trkpt lat="38.601277" lon="-3.032119">
        <ele>808.408</ele>
        <time>2019-08-06T20:58:36Z</time>
      </trkpt>
      <trkpt lat="38.600648" lon="-3.032495">
        <ele>805.355</ele>
        <time>2019-08-06T20:58:56Z</time>
      </trkpt>
      <trkpt lat="38.599935" lon="-3.032892">
        <ele>805.761</ele>
        <time>2019-08-06T20:59:16Z</time>
      </trkpt>
      <trkpt lat="38.599692" lon="-3.033214">
        <ele>804.567</ele>
        <time>2019-08-06T20:59:36Z</time>
      </trkpt>
      <trkpt lat="38.599373" lon="-3.033653">
        <ele>805.220</ele>
        <time>2019-08-06T20:59:56Z</time>
      </trkpt>
      <trkpt lat="38.599046" lon="-3.033965">
        <ele>805.229</ele>
        <time>2019-08-06T21:00:16Z</time>
      </trkpt>
      <trkpt lat="38.598795" lon="-3.034383">
        <ele>805.891</ele>
        <time>2019-08-06T21:00:36Z</time>
      </trkpt>
      <trkpt lat="38.598376" lon="-3.034694">
        <ele>805.982</ele>
        <time>2019-08-06T21:00:56Z</time>
      </trkpt>
      <trkpt lat="38.597311" lon="-3.036089">
        <ele>803.766</ele>
        <time>2019-08-06T21:01:16Z</time>
      </trkpt>
      <trkpt lat="38.596128" lon="-3.038117">
        <ele>798.514</ele>
        <time>2019-08-06T21:01:36Z</time>
      </trkpt>
      <trkpt lat="38.595852" lon="-3.038857">
        <ele>802.054</ele>
        <time>2019-08-06T21:01:56Z</time>
      </trkpt>
      <trkpt lat="38.595340" lon="-3.039619">
        <ele>801.809</ele>
        <time>2019-08-06T21:02:16Z</time>
      </trkpt>
      <trkpt lat="38.594854" lon="-3.040220">
        <ele>803.208</ele>
        <time>2019-08-06T21:02:36Z</time>
      </trkpt>
      <trkpt lat="38.593973" lon="-3.041067">
        <ele>804.834</ele>
        <time>2019-08-06T21:02:56Z</time>
      </trkpt>
      <trkpt lat="38.593252" lon="-3.041668">
        <ele>802.780</ele>
        <time>2019-08-06T21:03:16Z</time>
      </trkpt>
      <trkpt lat="38.592757" lon="-3.042365">
        <ele>801.596</ele>
        <time>2019-08-06T21:03:36Z</time>
      </trkpt>
      <trkpt lat="38.592313" lon="-3.043288">
        <ele>800.929</ele>
        <time>2019-08-06T21:03:56Z</time>
      </trkpt>
      <trkpt lat="38.591835" lon="-3.044479">
        <ele>799.148</ele>
        <time>2019-08-06T21:04:16Z</time>
      </trkpt>
      <trkpt lat="38.591525" lon="-3.045359">
        <ele>802.660</ele>
        <time>2019-08-06T21:04:36Z</time>
      </trkpt>
      <trkpt lat="38.590820" lon="-3.046775">
        <ele>799.611</ele>
        <time>2019-08-06T21:04:56Z</time>
      </trkpt>
      <trkpt lat="38.590351" lon="-3.047504">
        <ele>799.025</ele>
        <time>2019-08-06T21:05:16Z</time>
      </trkpt>
      <trkpt lat="38.590015" lon="-3.048062">
        <ele>803.145</ele>
        <time>2019-08-06T21:05:36Z</time>
      </trkpt>
      <trkpt lat="38.589831" lon="-3.048599">
        <ele>803.747</ele>
        <time>2019-08-06T21:05:56Z</time>
      </trkpt>
      <trkpt lat="38.589738" lon="-3.049114">
        <ele>805.711</ele>
        <time>2019-08-06T21:06:16Z</time>
      </trkpt>
      <trkpt lat="38.589428" lon="-3.049779">
        <ele>805.008</ele>
        <time>2019-08-06T21:06:36Z</time>
      </trkpt>
      <trkpt lat="38.588523" lon="-3.050712">
        <ele>805.537</ele>
        <time>2019-08-06T21:06:56Z</time>
      </trkpt>
      <trkpt lat="38.587357" lon="-3.052129">
        <ele>808.393</ele>
        <time>2019-08-06T21:07:16Z</time>
      </trkpt>
      <trkpt lat="38.586686" lon="-3.053287">
        <ele>808.919</ele>
        <time>2019-08-06T21:07:36Z</time>
      </trkpt>
      <trkpt lat="38.585965" lon="-3.054360">
        <ele>810.492</ele>
        <time>2019-08-06T21:07:56Z</time>
      </trkpt>
      <trkpt lat="38.585285" lon="-3.055851">
        <ele>809.251</ele>
        <time>2019-08-06T21:08:16Z</time>
      </trkpt>
      <trkpt lat="38.584933" lon="-3.056581">
        <ele>815.213</ele>
        <time>2019-08-06T21:08:36Z</time>
      </trkpt>
      <trkpt lat="38.584522" lon="-3.057439">
        <ele>818.874</ele>
        <time>2019-08-06T21:08:56Z</time>
      </trkpt>
      <trkpt lat="38.584363" lon="-3.057590">
        <ele>819.688</ele>
        <time>2019-08-06T21:09:16Z</time>
      </trkpt>
      <trkpt lat="38.584296" lon="-3.057514">
        <ele>819.657</ele>
        <time>2019-08-06T21:09:36Z</time>
      </trkpt>
      <trkpt lat="38.584522" lon="-3.056034">
        <ele>814.200</ele>
        <time>2019-08-06T21:09:56Z</time>
      </trkpt>
      <trkpt lat="38.584380" lon="-3.055111">
        <ele>810.420</ele>
        <time>2019-08-06T21:10:16Z</time>
      </trkpt>
      <trkpt lat="38.584229" lon="-3.052322">
        <ele>802.508</ele>
        <time>2019-08-06T21:10:36Z</time>
      </trkpt>
      <trkpt lat="38.584061" lon="-3.049757">
        <ele>798.148</ele>
        <time>2019-08-06T21:10:56Z</time>
      </trkpt>
      <trkpt lat="38.583843" lon="-3.047065">
        <ele>796.464</ele>
        <time>2019-08-06T21:11:16Z</time>
      </trkpt>
      <trkpt lat="38.583734" lon="-3.045520">
        <ele>798.820</ele>
        <time>2019-08-06T21:11:36Z</time>
      </trkpt>
      <trkpt lat="38.583742" lon="-3.045198">
        <ele>801.133</ele>
        <time>2019-08-06T21:11:56Z</time>
      </trkpt>
      <trkpt lat="38.583910" lon="-3.045048">
        <ele>801.772</ele>
        <time>2019-08-06T21:12:16Z</time>
      </trkpt>
      <trkpt lat="38.583918" lon="-3.044769">
        <ele>805.494</ele>
        <time>2019-08-06T21:12:36Z</time>
      </trkpt>
      <trkpt lat="38.583675" lon="-3.044533">
        <ele>807.345</ele>
        <time>2019-08-06T21:12:56Z</time>
      </trkpt>
      <trkpt lat="38.583398" lon="-3.044050">
        <ele>812.139</ele>
        <time>2019-08-06T21:13:16Z</time>
      </trkpt>
      <trkpt lat="38.582727" lon="-3.042752">
        <ele>823.346</ele>
        <time>2019-08-06T21:13:36Z</time>
      </trkpt>
      <trkpt lat="38.582535" lon="-3.041861">
        <ele>835.888</ele>
        <time>2019-08-06T21:13:56Z</time>
      </trkpt>
      <trkpt lat="38.582543" lon="-3.041346">
        <ele>840.516</ele>
        <time>2019-08-06T21:14:16Z</time>
      </trkpt>
      <trkpt lat="38.582375" lon="-3.040702">
        <ele>842.408</ele>
        <time>2019-08-06T21:14:36Z</time>
      </trkpt>
      <trkpt lat="38.582426" lon="-3.040295">
        <ele>842.337</ele>
        <time>2019-08-06T21:14:56Z</time>
      </trkpt>
      <trkpt lat="38.582627" lon="-3.039383">
        <ele>840.353</ele>
        <time>2019-08-06T21:15:16Z</time>
      </trkpt>
      <trkpt lat="38.582920" lon="-3.038417">
        <ele>843.289</ele>
        <time>2019-08-06T21:15:36Z</time>
      </trkpt>
      <trkpt lat="38.583239" lon="-3.037709">
        <ele>847.242</ele>
        <time>2019-08-06T21:15:56Z</time>
      </trkpt>
      <trkpt lat="38.583382" lon="-3.036894">
        <ele>851.341</ele>
        <time>2019-08-06T21:16:16Z</time>
      </trkpt>
      <trkpt lat="38.583331" lon="-3.036282">
        <ele>847.293</ele>
        <time>2019-08-06T21:16:36Z</time>
      </trkpt>
      <trkpt lat="38.583709" lon="-3.034705">
        <ele>841.544</ele>
        <time>2019-08-06T21:16:56Z</time>
      </trkpt>
      <trkpt lat="38.583944" lon="-3.033278">
        <ele>846.098</ele>
        <time>2019-08-06T21:17:16Z</time>
      </trkpt>
      <trkpt lat="38.584363" lon="-3.031089">
        <ele>848.035</ele>
        <time>2019-08-06T21:17:36Z</time>
      </trkpt>
      <trkpt lat="38.584925" lon="-3.029383">
        <ele>850.486</ele>
        <time>2019-08-06T21:17:56Z</time>
      </trkpt>
      <trkpt lat="38.585302" lon="-3.028471">
        <ele>851.014</ele>
        <time>2019-08-06T21:18:16Z</time>
      </trkpt>
      <trkpt lat="38.585721" lon="-3.027560">
        <ele>854.308</ele>
        <time>2019-08-06T21:18:36Z</time>
      </trkpt>
      <trkpt lat="38.586132" lon="-3.027055">
        <ele>860.856</ele>
        <time>2019-08-06T21:18:56Z</time>
      </trkpt>
      <trkpt lat="38.586392" lon="-3.025929">
        <ele>866.712</ele>
        <time>2019-08-06T21:19:16Z</time>
      </trkpt>
      <trkpt lat="38.586535" lon="-3.025382">
        <ele>869.968</ele>
        <time>2019-08-06T21:19:36Z</time>
      </trkpt>
      <trkpt lat="38.586761" lon="-3.024416">
        <ele>870.711</ele>
        <time>2019-08-06T21:19:56Z</time>
      </trkpt>
      <trkpt lat="38.587080" lon="-3.024137">
        <ele>872.420</ele>
        <time>2019-08-06T21:20:16Z</time>
      </trkpt>
      <trkpt lat="38.587348" lon="-3.023643">
        <ele>870.752</ele>
        <time>2019-08-06T21:20:36Z</time>
      </trkpt>
      <trkpt lat="38.588355" lon="-3.023729">
        <ele>853.373</ele>
        <time>2019-08-06T21:20:56Z</time>
      </trkpt>
      <trkpt lat="38.589084" lon="-3.023579">
        <ele>849.497</ele>
        <time>2019-08-06T21:21:16Z</time>
      </trkpt>
      <trkpt lat="38.589780" lon="-3.024180">
        <ele>839.935</ele>
        <time>2019-08-06T21:21:36Z</time>
      </trkpt>
      <trkpt lat="38.590158" lon="-3.024781">
        <ele>834.886</ele>
        <time>2019-08-06T21:21:56Z</time>
      </trkpt>
      <trkpt lat="38.591726" lon="-3.025231">
        <ele>826.814</ele>
        <time>2019-08-06T21:22:16Z</time>
      </trkpt>
      <trkpt lat="38.593697" lon="-3.025757">
        <ele>815.508</ele>
        <time>2019-08-06T21:22:36Z</time>
      </trkpt>
      <trkpt lat="38.594493" lon="-3.023247">
        <ele>818.176</ele>
        <time>2019-08-06T21:22:56Z</time>
      </trkpt>
      <trkpt lat="38.595256" lon="-3.020704">
        <ele>822.012</ele>
        <time>2019-08-06T21:23:16Z</time>
      </trkpt>
      <trkpt lat="38.595952" lon="-3.018172">
        <ele>813.878</ele>
        <time>2019-08-06T21:23:36Z</time>
      </trkpt>
      <trkpt lat="38.596573" lon="-3.015575">
        <ele>819.451</ele>
        <time>2019-08-06T21:23:56Z</time>
      </trkpt>
      <trkpt lat="38.596623" lon="-3.014170">
        <ele>818.950</ele>
        <time>2019-08-06T21:24:16Z</time>
      </trkpt>
      <trkpt lat="38.596791" lon="-3.011445">
        <ele>820.442</ele>
        <time>2019-08-06T21:24:36Z</time>
      </trkpt>
      <trkpt lat="38.596967" lon="-3.008913">
        <ele>822.813</ele>
        <time>2019-08-06T21:24:56Z</time>
      </trkpt>
      <trkpt lat="38.597084" lon="-3.007303">
        <ele>824.547</ele>
        <time>2019-08-06T21:25:16Z</time>
      </trkpt>
      <trkpt lat="38.597571" lon="-3.004578">
        <ele>825.894</ele>
        <time>2019-08-06T21:25:36Z</time>
      </trkpt>
      <trkpt lat="38.598032" lon="-3.001896">
        <ele>828.057</ele>
        <time>2019-08-06T21:25:56Z</time>
      </trkpt>
      <trkpt lat="38.598417" lon="-3.000458">
        <ele>826.222</ele>
        <time>2019-08-06T21:26:16Z</time>
      </trkpt>
      <trkpt lat="38.599591" lon="-2.998152">
        <ele>818.808</ele>
        <time>2019-08-06T21:26:36Z</time>
      </trkpt>
      <trkpt lat="38.600790" lon="-2.995909">
        <ele>811.512</ele>
        <time>2019-08-06T21:26:56Z</time>
      </trkpt>
      <trkpt lat="38.601243" lon="-2.995030">
        <ele>808.168</ele>
        <time>2019-08-06T21:27:16Z</time>
      </trkpt>
      <trkpt lat="38.600237" lon="-2.994933">
        <ele>808.994</ele>
        <time>2019-08-06T21:27:36Z</time>
      </trkpt>
      <trkpt lat="38.599256" lon="-2.994772">
        <ele>808.737</ele>
        <time>2019-08-06T21:27:56Z</time>
      </trkpt>
      <trkpt lat="38.597420" lon="-2.993774">
        <ele>806.096</ele>
        <time>2019-08-06T21:28:16Z</time>
      </trkpt>
      <trkpt lat="38.596112" lon="-2.993152">
        <ele>805.368</ele>
        <time>2019-08-06T21:28:36Z</time>
      </trkpt>
      <trkpt lat="38.595332" lon="-2.992884">
        <ele>806.239</ele>
        <time>2019-08-06T21:28:56Z</time>
      </trkpt>
      <trkpt lat="38.594963" lon="-2.992959">
        <ele>806.633</ele>
        <time>2019-08-06T21:29:16Z</time>
      </trkpt>
      <trkpt lat="38.594535" lon="-2.993002">
        <ele>805.922</ele>
        <time>2019-08-06T21:29:36Z</time>
      </trkpt>
      <trkpt lat="38.593806" lon="-2.992884">
        <ele>803.962</ele>
        <time>2019-08-06T21:29:56Z</time>
      </trkpt>
      <trkpt lat="38.592766" lon="-2.993302">
        <ele>802.908</ele>
        <time>2019-08-06T21:30:16Z</time>
      </trkpt>
      <trkpt lat="38.591885" lon="-2.993710">
        <ele>805.008</ele>
        <time>2019-08-06T21:30:36Z</time>
      </trkpt>
      <trkpt lat="38.590569" lon="-2.994311">
        <ele>807.595</ele>
        <time>2019-08-06T21:30:56Z</time>
      </trkpt>
      <trkpt lat="38.590049" lon="-2.994472">
        <ele>807.061</ele>
        <time>2019-08-06T21:31:16Z</time>
      </trkpt>
      <trkpt lat="38.589680" lon="-2.994547">
        <ele>807.197</ele>
        <time>2019-08-06T21:31:36Z</time>
      </trkpt>
      <trkpt lat="38.588917" lon="-2.994879">
        <ele>810.950</ele>
        <time>2019-08-06T21:31:56Z</time>
      </trkpt>
      <trkpt lat="38.588447" lon="-2.995341">
        <ele>811.389</ele>
        <time>2019-08-06T21:32:16Z</time>
      </trkpt>
      <trkpt lat="38.587843" lon="-2.996049">
        <ele>815.271</ele>
        <time>2019-08-06T21:32:36Z</time>
      </trkpt>
      <trkpt lat="38.587030" lon="-2.996864">
        <ele>818.162</ele>
        <time>2019-08-06T21:32:56Z</time>
      </trkpt>
      <trkpt lat="38.586225" lon="-2.997755">
        <ele>824.736</ele>
        <time>2019-08-06T21:33:16Z</time>
      </trkpt>
      <trkpt lat="38.585839" lon="-2.998098">
        <ele>826.037</ele>
        <time>2019-08-06T21:33:36Z</time>
      </trkpt>
      <trkpt lat="38.585654" lon="-2.998399">
        <ele>826.549</ele>
        <time>2019-08-06T21:33:56Z</time>
      </trkpt>
      <trkpt lat="38.585151" lon="-2.998849">
        <ele>821.513</ele>
        <time>2019-08-06T21:34:16Z</time>
      </trkpt>
      <trkpt lat="38.584757" lon="-2.998999">
        <ele>819.208</ele>
        <time>2019-08-06T21:34:36Z</time>
      </trkpt>
      <trkpt lat="38.584053" lon="-2.998667">
        <ele>815.056</ele>
        <time>2019-08-06T21:34:56Z</time>
      </trkpt>
      <trkpt lat="38.583465" lon="-2.998399">
        <ele>808.572</ele>
        <time>2019-08-06T21:35:16Z</time>
      </trkpt>
      <trkpt lat="38.583164" lon="-2.998409">
        <ele>806.288</ele>
        <time>2019-08-06T21:35:36Z</time>
      </trkpt>
      <trkpt lat="38.582342" lon="-2.998688">
        <ele>803.431</ele>
        <time>2019-08-06T21:35:56Z</time>
      </trkpt>
      <trkpt lat="38.581654" lon="-2.998581">
        <ele>799.990</ele>
        <time>2019-08-06T21:36:16Z</time>
      </trkpt>
      <trkpt lat="38.581151" lon="-2.998624">
        <ele>799.122</ele>
        <time>2019-08-06T21:36:36Z</time>
      </trkpt>
      <trkpt lat="38.579180" lon="-2.998345">
        <ele>798.073</ele>
        <time>2019-08-06T21:36:56Z</time>
      </trkpt>
      <trkpt lat="38.578903" lon="-2.998195">
        <ele>797.117</ele>
        <time>2019-08-06T21:37:16Z</time>
      </trkpt>
      <trkpt lat="38.578358" lon="-2.998044">
        <ele>793.261</ele>
        <time>2019-08-06T21:37:36Z</time>
      </trkpt>
      <trkpt lat="38.577133" lon="-2.997841">
        <ele>794.621</ele>
        <time>2019-08-06T21:37:56Z</time>
      </trkpt>
      <trkpt lat="38.576680" lon="-2.998087">
        <ele>793.213</ele>
        <time>2019-08-06T21:38:16Z</time>
      </trkpt>
      <trkpt lat="38.576244" lon="-2.998163">
        <ele>791.908</ele>
        <time>2019-08-06T21:38:36Z</time>
      </trkpt>
      <trkpt lat="38.575749" lon="-2.998399">
        <ele>790.089</ele>
        <time>2019-08-06T21:38:56Z</time>
      </trkpt>
      <trkpt lat="38.575187" lon="-2.998774">
        <ele>787.865</ele>
        <time>2019-08-06T21:39:16Z</time>
      </trkpt>
      <trkpt lat="38.574760" lon="-2.998999">
        <ele>787.541</ele>
        <time>2019-08-06T21:39:36Z</time>
      </trkpt>
      <trkpt lat="38.574172" lon="-2.999171">
        <ele>787.024</ele>
        <time>2019-08-06T21:39:56Z</time>
      </trkpt>
      <trkpt lat="38.573376" lon="-2.999300">
        <ele>788.013</ele>
        <time>2019-08-06T21:40:16Z</time>
      </trkpt>
      <trkpt lat="38.572545" lon="-2.999632">
        <ele>789.585</ele>
        <time>2019-08-06T21:40:36Z</time>
      </trkpt>
      <trkpt lat="38.571614" lon="-3.000094">
        <ele>786.676</ele>
        <time>2019-08-06T21:40:56Z</time>
      </trkpt>
      <trkpt lat="38.571446" lon="-3.001660">
        <ele>788.060</ele>
        <time>2019-08-06T21:41:16Z</time>
      </trkpt>
      <trkpt lat="38.571471" lon="-3.001982">
        <ele>788.042</ele>
        <time>2019-08-06T21:41:36Z</time>
      </trkpt>
      <trkpt lat="38.571589" lon="-3.003141">
        <ele>785.722</ele>
        <time>2019-08-06T21:41:56Z</time>
      </trkpt>
      <trkpt lat="38.571765" lon="-3.004310">
        <ele>785.814</ele>
        <time>2019-08-06T21:42:16Z</time>
      </trkpt>
      <trkpt lat="38.571941" lon="-3.004793">
        <ele>784.808</ele>
        <time>2019-08-06T21:42:36Z</time>
      </trkpt>
      <trkpt lat="38.572210" lon="-3.005083">
        <ele>785.067</ele>
        <time>2019-08-06T21:42:56Z</time>
      </trkpt>
      <trkpt lat="38.572394" lon="-3.005308">
        <ele>786.213</ele>
        <time>2019-08-06T21:43:16Z</time>
      </trkpt>
      <trkpt lat="38.572411" lon="-3.005598">
        <ele>785.759</ele>
        <time>2019-08-06T21:43:36Z</time>
      </trkpt>
      <trkpt lat="38.572327" lon="-3.005866">
        <ele>785.572</ele>
        <time>2019-08-06T21:43:56Z</time>
      </trkpt>
      <trkpt lat="38.572377" lon="-3.006531">
        <ele>785.651</ele>
        <time>2019-08-06T21:44:16Z</time>
      </trkpt>
      <trkpt lat="38.572520" lon="-3.007282">
        <ele>785.153</ele>
        <time>2019-08-06T21:44:36Z</time>
      </trkpt>
      <trkpt lat="38.572537" lon="-3.007947">
        <ele>784.454</ele>
        <time>2019-08-06T21:44:56Z</time>
      </trkpt>
      <trkpt lat="38.572595" lon="-3.008355">
        <ele>784.168</ele>
        <time>2019-08-06T21:45:16Z</time>
      </trkpt>
      <trkpt lat="38.572738" lon="-3.008891">
        <ele>784.154</ele>
        <time>2019-08-06T21:45:36Z</time>
      </trkpt>
      <trkpt lat="38.572704" lon="-3.009235">
        <ele>784.356</ele>
        <time>2019-08-06T21:45:56Z</time>
      </trkpt>
      <trkpt lat="38.572570" lon="-3.009492">
        <ele>784.711</ele>
        <time>2019-08-06T21:46:16Z</time>
      </trkpt>
      <trkpt lat="38.572134" lon="-3.009342">
        <ele>785.808</ele>
        <time>2019-08-06T21:46:36Z</time>
      </trkpt>
      <trkpt lat="38.571832" lon="-3.009363">
        <ele>785.338</ele>
        <time>2019-08-06T21:46:56Z</time>
      </trkpt>
      <trkpt lat="38.570431" lon="-3.009138">
        <ele>782.074</ele>
        <time>2019-08-06T21:47:16Z</time>
      </trkpt>
      <trkpt lat="38.569576" lon="-3.008140">
        <ele>783.350</ele>
        <time>2019-08-06T21:47:36Z</time>
      </trkpt>
      <trkpt lat="38.569290" lon="-3.008215">
        <ele>784.113</ele>
        <time>2019-08-06T21:47:56Z</time>
      </trkpt>
      <trkpt lat="38.568754" lon="-3.008548">
        <ele>788.242</ele>
        <time>2019-08-06T21:48:16Z</time>
      </trkpt>
      <trkpt lat="38.568368" lon="-3.008612">
        <ele>789.014</ele>
        <time>2019-08-06T21:48:36Z</time>
      </trkpt>
      <trkpt lat="38.566833" lon="-3.008194">
        <ele>788.855</ele>
        <time>2019-08-06T21:48:56Z</time>
      </trkpt>
      <trkpt lat="38.564794" lon="-3.007100">
        <ele>792.949</ele>
        <time>2019-08-06T21:49:16Z</time>
      </trkpt>
      <trkpt lat="38.562940" lon="-3.005952">
        <ele>797.048</ele>
        <time>2019-08-06T21:49:36Z</time>
      </trkpt>
      <trkpt lat="38.561631" lon="-3.005168">
        <ele>797.961</ele>
        <time>2019-08-06T21:49:56Z</time>
      </trkpt>
      <trkpt lat="38.559694" lon="-3.004214">
        <ele>802.217</ele>
        <time>2019-08-06T21:50:16Z</time>
      </trkpt>
      <trkpt lat="38.557831" lon="-3.002969">
        <ele>804.608</ele>
        <time>2019-08-06T21:50:36Z</time>
      </trkpt>
      <trkpt lat="38.556531" lon="-3.001950">
        <ele>808.527</ele>
        <time>2019-08-06T21:50:56Z</time>
      </trkpt>
      <trkpt lat="38.555339" lon="-3.000995">
        <ele>809.973</ele>
        <time>2019-08-06T21:51:16Z</time>
      </trkpt>
      <trkpt lat="38.555121" lon="-3.000909">
        <ele>811.169</ele>
        <time>2019-08-06T21:51:36Z</time>
      </trkpt>
      <trkpt lat="38.554425" lon="-3.000737">
        <ele>813.382</ele>
        <time>2019-08-06T21:51:56Z</time>
      </trkpt>
      <trkpt lat="38.553670" lon="-3.000770">
        <ele>814.091</ele>
        <time>2019-08-06T21:52:16Z</time>
      </trkpt>
      <trkpt lat="38.552839" lon="-3.000941">
        <ele>821.673</ele>
        <time>2019-08-06T21:52:36Z</time>
      </trkpt>
      <trkpt lat="38.552319" lon="-3.000920">
        <ele>823.894</ele>
        <time>2019-08-06T21:52:56Z</time>
      </trkpt>
      <trkpt lat="38.550708" lon="-3.000373">
        <ele>824.858</ele>
        <time>2019-08-06T21:53:16Z</time>
      </trkpt>
      <trkpt lat="38.550649" lon="-3.000458">
        <ele>824.836</ele>
        <time>2019-08-06T21:53:36Z</time>
      </trkpt>
      <trkpt lat="38.551102" lon="-3.000866">
        <ele>823.917</ele>
        <time>2019-08-06T21:53:56Z</time>
      </trkpt>
      <trkpt lat="38.551715" lon="-3.001864">
        <ele>822.218</ele>
        <time>2019-08-06T21:54:16Z</time>
      </trkpt>
      <trkpt lat="38.552587" lon="-3.003044">
        <ele>820.408</ele>
        <time>2019-08-06T21:54:36Z</time>
      </trkpt>
      <trkpt lat="38.553804" lon="-3.004761">
        <ele>810.366</ele>
        <time>2019-08-06T21:54:56Z</time>
      </trkpt>
      <trkpt lat="38.554123" lon="-3.005254">
        <ele>809.252</ele>
        <time>2019-08-06T21:55:16Z</time>
      </trkpt>
      <trkpt lat="38.554903" lon="-3.006660">
        <ele>807.328</ele>
        <time>2019-08-06T21:55:36Z</time>
      </trkpt>
      <trkpt lat="38.556606" lon="-3.008194">
        <ele>804.111</ele>
        <time>2019-08-06T21:55:56Z</time>
      </trkpt>
      <trkpt lat="38.557789" lon="-3.009224">
        <ele>801.080</ele>
        <time>2019-08-06T21:56:16Z</time>
      </trkpt>
      <trkpt lat="38.558611" lon="-3.009664">
        <ele>801.242</ele>
        <time>2019-08-06T21:56:36Z</time>
      </trkpt>
      <trkpt lat="38.559559" lon="-3.010554">
        <ele>799.623</ele>
        <time>2019-08-06T21:56:56Z</time>
      </trkpt>
      <trkpt lat="38.560239" lon="-3.011134">
        <ele>798.027</ele>
        <time>2019-08-06T21:57:16Z</time>
      </trkpt>
      <trkpt lat="38.560566" lon="-3.011262">
        <ele>797.959</ele>
        <time>2019-08-06T21:57:36Z</time>
      </trkpt>
      <trkpt lat="38.561925" lon="-3.011466">
        <ele>796.703</ele>
        <time>2019-08-06T21:57:56Z</time>
      </trkpt>
      <trkpt lat="38.563511" lon="-3.013054">
        <ele>787.023</ele>
        <time>2019-08-06T21:58:16Z</time>
      </trkpt>
      <trkpt lat="38.564048" lon="-3.013794">
        <ele>784.608</ele>
        <time>2019-08-06T21:58:36Z</time>
      </trkpt>
      <trkpt lat="38.564190" lon="-3.014245">
        <ele>784.068</ele>
        <time>2019-08-06T21:58:56Z</time>
      </trkpt>
      <trkpt lat="38.565096" lon="-3.016498">
        <ele>781.834</ele>
        <time>2019-08-06T21:59:16Z</time>
      </trkpt>
      <trkpt lat="38.565969" lon="-3.017260">
        <ele>782.380</ele>
        <time>2019-08-06T21:59:36Z</time>
      </trkpt>
      <trkpt lat="38.566606" lon="-3.017839">
        <ele>782.883</ele>
        <time>2019-08-06T21:59:56Z</time>
      </trkpt>
      <trkpt lat="38.566992" lon="-3.018258">
        <ele>781.472</ele>
        <time>2019-08-06T22:00:16Z</time>
      </trkpt>
      <trkpt lat="38.567328" lon="-3.018751">
        <ele>781.914</ele>
        <time>2019-08-06T22:00:36Z</time>
      </trkpt>
      <trkpt lat="38.567479" lon="-3.019073">
        <ele>781.885</ele>
        <time>2019-08-06T22:00:56Z</time>
      </trkpt>
      <trkpt lat="38.567697" lon="-3.019341">
        <ele>780.059</ele>
        <time>2019-08-06T22:01:16Z</time>
      </trkpt>
      <trkpt lat="38.568091" lon="-3.019953">
        <ele>780.533</ele>
        <time>2019-08-06T22:01:36Z</time>
      </trkpt>
      <trkpt lat="38.568284" lon="-3.020457">
        <ele>783.023</ele>
        <time>2019-08-06T22:01:56Z</time>
      </trkpt>
      <trkpt lat="38.568544" lon="-3.021165">
        <ele>782.515</ele>
        <time>2019-08-06T22:02:16Z</time>
      </trkpt>
      <trkpt lat="38.568703" lon="-3.021444">
        <ele>783.208</ele>
        <time>2019-08-06T22:02:36Z</time>
      </trkpt>
      <trkpt lat="38.568838" lon="-3.022367">
        <ele>783.476</ele>
        <time>2019-08-06T22:02:56Z</time>
      </trkpt>
      <trkpt lat="38.568980" lon="-3.023998">
        <ele>781.472</ele>
        <time>2019-08-06T22:03:16Z</time>
      </trkpt>
      <trkpt lat="38.568997" lon="-3.024502">
        <ele>782.698</ele>
        <time>2019-08-06T22:03:36Z</time>
      </trkpt>
      <trkpt lat="38.569257" lon="-3.025435">
        <ele>782.061</ele>
        <time>2019-08-06T22:03:56Z</time>
      </trkpt>
      <trkpt lat="38.569374" lon="-3.026444">
        <ele>783.550</ele>
        <time>2019-08-06T22:04:16Z</time>
      </trkpt>
      <trkpt lat="38.569257" lon="-3.027678">
        <ele>784.872</ele>
        <time>2019-08-06T22:04:36Z</time>
      </trkpt>
      <trkpt lat="38.569232" lon="-3.028042">
        <ele>784.083</ele>
        <time>2019-08-06T22:04:56Z</time>
      </trkpt>
      <trkpt lat="38.569156" lon="-3.029319">
        <ele>787.637</ele>
        <time>2019-08-06T22:05:16Z</time>
      </trkpt>
      <trkpt lat="38.568854" lon="-3.031143">
        <ele>790.878</ele>
        <time>2019-08-06T22:05:36Z</time>
      </trkpt>
      <trkpt lat="38.568536" lon="-3.032774">
        <ele>785.333</ele>
        <time>2019-08-06T22:05:56Z</time>
      </trkpt>
      <trkpt lat="38.568225" lon="-3.033181">
        <ele>784.126</ele>
        <time>2019-08-06T22:06:16Z</time>
      </trkpt>
      <trkpt lat="38.567982" lon="-3.033375">
        <ele>783.208</ele>
        <time>2019-08-06T22:06:36Z</time>
      </trkpt>
      <trkpt lat="38.567764" lon="-3.033675">
        <ele>783.140</ele>
        <time>2019-08-06T22:06:56Z</time>
      </trkpt>
      <trkpt lat="38.566799" lon="-3.034812">
        <ele>783.076</ele>
        <time>2019-08-06T22:07:16Z</time>
      </trkpt>
      <trkpt lat="38.566355" lon="-3.035102">
        <ele>783.322</ele>
        <time>2019-08-06T22:07:36Z</time>
      </trkpt>
      <trkpt lat="38.565742" lon="-3.035123">
        <ele>784.875</ele>
        <time>2019-08-06T22:07:56Z</time>
      </trkpt>
      <trkpt lat="38.565256" lon="-3.035316">
        <ele>783.014</ele>
        <time>2019-08-06T22:08:16Z</time>
      </trkpt>
      <trkpt lat="38.565004" lon="-3.035306">
        <ele>784.726</ele>
        <time>2019-08-06T22:08:36Z</time>
      </trkpt>
      <trkpt lat="38.564727" lon="-3.035585">
        <ele>781.947</ele>
        <time>2019-08-06T22:08:56Z</time>
      </trkpt>
      <trkpt lat="38.565188" lon="-3.036003">
        <ele>784.251</ele>
        <time>2019-08-06T22:09:16Z</time>
      </trkpt>
      <trkpt lat="38.565541" lon="-3.036314">
        <ele>785.038</ele>
        <time>2019-08-06T22:09:36Z</time>
      </trkpt>
      <trkpt lat="38.565767" lon="-3.036776">
        <ele>785.170</ele>
        <time>2019-08-06T22:09:56Z</time>
      </trkpt>
      <trkpt lat="38.566011" lon="-3.037183">
        <ele>786.317</ele>
        <time>2019-08-06T22:10:16Z</time>
      </trkpt>
      <trkpt lat="38.566338" lon="-3.037409">
        <ele>784.508</ele>
        <time>2019-08-06T22:10:36Z</time>
      </trkpt>
      <trkpt lat="38.566195" lon="-3.037516">
        <ele>786.186</ele>
        <time>2019-08-06T22:10:56Z</time>
      </trkpt>
      <trkpt lat="38.565868" lon="-3.037698">
        <ele>788.852</ele>
        <time>2019-08-06T22:11:16Z</time>
      </trkpt>
      <trkpt lat="38.565608" lon="-3.037988">
        <ele>790.778</ele>
        <time>2019-08-06T22:11:36Z</time>
      </trkpt>
      <trkpt lat="38.565566" lon="-3.038235">
        <ele>791.561</ele>
        <time>2019-08-06T22:11:56Z</time>
      </trkpt>
      <trkpt lat="38.565247" lon="-3.040863">
        <ele>795.930</ele>
        <time>2019-08-06T22:12:16Z</time>
      </trkpt>
      <trkpt lat="38.565096" lon="-3.042805">
        <ele>794.062</ele>
        <time>2019-08-06T22:12:36Z</time>
      </trkpt>
      <trkpt lat="38.564878" lon="-3.044672">
        <ele>791.263</ele>
        <time>2019-08-06T22:12:56Z</time>
      </trkpt>
      <trkpt lat="38.564727" lon="-3.045241">
        <ele>792.057</ele>
        <time>2019-08-06T22:13:16Z</time>
      </trkpt>
      <trkpt lat="38.564836" lon="-3.046056">
        <ele>793.544</ele>
        <time>2019-08-06T22:13:36Z</time>
      </trkpt>
      <trkpt lat="38.564819" lon="-3.046442">
        <ele>796.205</ele>
        <time>2019-08-06T22:13:56Z</time>
      </trkpt>
      <trkpt lat="38.564861" lon="-3.046700">
        <ele>797.015</ele>
        <time>2019-08-06T22:14:16Z</time>
      </trkpt>
      <trkpt lat="38.565113" lon="-3.047065">
        <ele>797.408</ele>
        <time>2019-08-06T22:14:36Z</time>
      </trkpt>
      <trkpt lat="38.564945" lon="-3.047451">
        <ele>802.377</ele>
        <time>2019-08-06T22:14:56Z</time>
      </trkpt>
      <trkpt lat="38.564803" lon="-3.048148">
        <ele>810.233</ele>
        <time>2019-08-06T22:15:16Z</time>
      </trkpt>
      <trkpt lat="38.564845" lon="-3.049200">
        <ele>805.499</ele>
        <time>2019-08-06T22:15:36Z</time>
      </trkpt>
      <trkpt lat="38.564895" lon="-3.051249">
        <ele>799.822</ele>
        <time>2019-08-06T22:15:56Z</time>
      </trkpt>
      <trkpt lat="38.565163" lon="-3.051957">
        <ele>798.031</ele>
        <time>2019-08-06T22:16:16Z</time>
      </trkpt>
      <trkpt lat="38.565180" lon="-3.052515">
        <ele>800.373</ele>
        <time>2019-08-06T22:16:36Z</time>
      </trkpt>
      <trkpt lat="38.565272" lon="-3.052697">
        <ele>801.954</ele>
        <time>2019-08-06T22:16:56Z</time>
      </trkpt>
      <trkpt lat="38.565264" lon="-3.053341">
        <ele>808.118</ele>
        <time>2019-08-06T22:17:16Z</time>
      </trkpt>
      <trkpt lat="38.565264" lon="-3.053845">
        <ele>808.484</ele>
        <time>2019-08-06T22:17:36Z</time>
      </trkpt>
      <trkpt lat="38.565264" lon="-3.054156">
        <ele>810.107</ele>
        <time>2019-08-06T22:17:56Z</time>
      </trkpt>
      <trkpt lat="38.565432" lon="-3.054553">
        <ele>811.017</ele>
        <time>2019-08-06T22:18:16Z</time>
      </trkpt>
      <trkpt lat="38.565591" lon="-3.055068">
        <ele>813.808</ele>
        <time>2019-08-06T22:18:36Z</time>
      </trkpt>
      <trkpt lat="38.565709" lon="-3.055379">
        <ele>813.291</ele>
        <time>2019-08-06T22:18:56Z</time>
      </trkpt>
      <trkpt lat="38.565717" lon="-3.056270">
        <ele>812.087</ele>
        <time>2019-08-06T22:19:16Z</time>
      </trkpt>
      <trkpt lat="38.565742" lon="-3.056452">
        <ele>811.453</ele>
        <time>2019-08-06T22:19:36Z</time>
      </trkpt>
      <trkpt lat="38.565566" lon="-3.057010">
        <ele>811.996</ele>
        <time>2019-08-06T22:19:56Z</time>
      </trkpt>
      <trkpt lat="38.565474" lon="-3.057579">
        <ele>813.255</ele>
        <time>2019-08-06T22:20:16Z</time>
      </trkpt>
      <trkpt lat="38.565188" lon="-3.058373">
        <ele>816.747</ele>
        <time>2019-08-06T22:20:36Z</time>
      </trkpt>
      <trkpt lat="38.565230" lon="-3.058856">
        <ele>817.228</ele>
        <time>2019-08-06T22:20:56Z</time>
      </trkpt>
      <trkpt lat="38.565256" lon="-3.059274">
        <ele>816.132</ele>
        <time>2019-08-06T22:21:16Z</time>
      </trkpt>
      <trkpt lat="38.565264" lon="-3.059800">
        <ele>813.454</ele>
        <time>2019-08-06T22:21:36Z</time>
      </trkpt>
      <trkpt lat="38.565314" lon="-3.060111">
        <ele>810.956</ele>
        <time>2019-08-06T22:21:56Z</time>
      </trkpt>
      <trkpt lat="38.565440" lon="-3.060304">
        <ele>808.711</ele>
        <time>2019-08-06T22:22:16Z</time>
      </trkpt>
      <trkpt lat="38.565499" lon="-3.061205">
        <ele>805.508</ele>
        <time>2019-08-06T22:22:36Z</time>
      </trkpt>
      <trkpt lat="38.564962" lon="-3.061388">
        <ele>803.128</ele>
        <time>2019-08-06T22:22:56Z</time>
      </trkpt>
      <trkpt lat="38.563972" lon="-3.062010">
        <ele>800.044</ele>
        <time>2019-08-06T22:23:16Z</time>
      </trkpt>
      <trkpt lat="38.562529" lon="-3.063061">
        <ele>791.090</ele>
        <time>2019-08-06T22:23:36Z</time>
      </trkpt>
      <trkpt lat="38.562085" lon="-3.063351">
        <ele>790.553</ele>
        <time>2019-08-06T22:23:56Z</time>
      </trkpt>
      <trkpt lat="38.561464" lon="-3.063394">
        <ele>790.792</ele>
        <time>2019-08-06T22:24:16Z</time>
      </trkpt>
      <trkpt lat="38.561078" lon="-3.063630">
        <ele>792.024</ele>
        <time>2019-08-06T22:24:36Z</time>
      </trkpt>
      <trkpt lat="38.560306" lon="-3.064113">
        <ele>792.115</ele>
        <time>2019-08-06T22:24:56Z</time>
      </trkpt>
      <trkpt lat="38.560071" lon="-3.064349">
        <ele>792.969</ele>
        <time>2019-08-06T22:25:16Z</time>
      </trkpt>
      <trkpt lat="38.560289" lon="-3.065486">
        <ele>792.885</ele>
        <time>2019-08-06T22:25:36Z</time>
      </trkpt>
      <trkpt lat="38.560407" lon="-3.065808">
        <ele>793.489</ele>
        <time>2019-08-06T22:25:56Z</time>
      </trkpt>
      <trkpt lat="38.561254" lon="-3.067267">
        <ele>794.017</ele>
        <time>2019-08-06T22:26:16Z</time>
      </trkpt>
      <trkpt lat="38.561556" lon="-3.068233">
        <ele>795.608</ele>
        <time>2019-08-06T22:26:36Z</time>
      </trkpt>
      <trkpt lat="38.561967" lon="-3.069617">
        <ele>796.051</ele>
        <time>2019-08-06T22:26:56Z</time>
      </trkpt>
      <trkpt lat="38.562512" lon="-3.070432">
        <ele>797.087</ele>
        <time>2019-08-06T22:27:16Z</time>
      </trkpt>
      <trkpt lat="38.563402" lon="-3.071709">
        <ele>796.893</ele>
        <time>2019-08-06T22:27:36Z</time>
      </trkpt>
      <trkpt lat="38.563838" lon="-3.072288">
        <ele>798.066</ele>
        <time>2019-08-06T22:27:56Z</time>
      </trkpt>
      <trkpt lat="38.564366" lon="-3.073254">
        <ele>800.415</ele>
        <time>2019-08-06T22:28:16Z</time>
      </trkpt>
      <trkpt lat="38.563972" lon="-3.073554">
        <ele>798.647</ele>
        <time>2019-08-06T22:28:36Z</time>
      </trkpt>
      <trkpt lat="38.563444" lon="-3.073661">
        <ele>797.958</ele>
        <time>2019-08-06T22:28:56Z</time>
      </trkpt>
      <trkpt lat="38.562730" lon="-3.073640">
        <ele>795.742</ele>
        <time>2019-08-06T22:29:16Z</time>
      </trkpt>
      <trkpt lat="38.562168" lon="-3.073769">
        <ele>792.669</ele>
        <time>2019-08-06T22:29:36Z</time>
      </trkpt>
      <trkpt lat="38.561514" lon="-3.073672">
        <ele>789.104</ele>
        <time>2019-08-06T22:29:56Z</time>
      </trkpt>
      <trkpt lat="38.560952" lon="-3.073554">
        <ele>789.224</ele>
        <time>2019-08-06T22:30:16Z</time>
      </trkpt>
      <trkpt lat="38.560826" lon="-3.073726">
        <ele>789.008</ele>
        <time>2019-08-06T22:30:36Z</time>
      </trkpt>
      <trkpt lat="38.560717" lon="-3.073930">
        <ele>789.529</ele>
        <time>2019-08-06T22:30:56Z</time>
      </trkpt>
      <trkpt lat="38.560407" lon="-3.073994">
        <ele>790.215</ele>
        <time>2019-08-06T22:31:16Z</time>
      </trkpt>
      <trkpt lat="38.560130" lon="-3.073994">
        <ele>790.481</ele>
        <time>2019-08-06T22:31:36Z</time>
      </trkpt>
      <trkpt lat="38.560482" lon="-3.074284">
        <ele>790.394</ele>
        <time>2019-08-06T22:31:56Z</time>
      </trkpt>
      <trkpt lat="38.560969" lon="-3.074841">
        <ele>792.173</ele>
        <time>2019-08-06T22:32:16Z</time>
      </trkpt>
      <trkpt lat="38.561866" lon="-3.075496">
        <ele>793.815</ele>
        <time>2019-08-06T22:32:36Z</time>
      </trkpt>
      <trkpt lat="38.562647" lon="-3.075957">
        <ele>794.716</ele>
        <time>2019-08-06T22:32:56Z</time>
      </trkpt>
      <trkpt lat="38.563209" lon="-3.076622">
        <ele>794.830</ele>
        <time>2019-08-06T22:33:16Z</time>
      </trkpt>
      <trkpt lat="38.563536" lon="-3.076912">
        <ele>795.866</ele>
        <time>2019-08-06T22:33:36Z</time>
      </trkpt>
      <trkpt lat="38.563855" lon="-3.077577">
        <ele>796.329</ele>
        <time>2019-08-06T22:33:56Z</time>
      </trkpt>
      <trkpt lat="38.563871" lon="-3.078275">
        <ele>797.921</ele>
        <time>2019-08-06T22:34:16Z</time>
      </trkpt>
      <trkpt lat="38.564266" lon="-3.079069">
        <ele>795.108</ele>
        <time>2019-08-06T22:34:36Z</time>
      </trkpt>
      <trkpt lat="38.564433" lon="-3.079476">
        <ele>796.329</ele>
        <time>2019-08-06T22:34:56Z</time>
      </trkpt>
      <trkpt lat="38.564618" lon="-3.079895">
        <ele>797.835</ele>
        <time>2019-08-06T22:35:16Z</time>
      </trkpt>
      <trkpt lat="38.564719" lon="-3.080260">
        <ele>799.991</ele>
        <time>2019-08-06T22:35:36Z</time>
      </trkpt>
      <trkpt lat="38.564677" lon="-3.080850">
        <ele>797.244</ele>
        <time>2019-08-06T22:35:56Z</time>
      </trkpt>
      <trkpt lat="38.564534" lon="-3.081354">
        <ele>799.853</ele>
        <time>2019-08-06T22:36:16Z</time>
      </trkpt>
      <trkpt lat="38.564509" lon="-3.081751">
        <ele>800.835</ele>
        <time>2019-08-06T22:36:36Z</time>
      </trkpt>
      <trkpt lat="38.564551" lon="-3.082083">
        <ele>800.476</ele>
        <time>2019-08-06T22:36:56Z</time>
      </trkpt>
      <trkpt lat="38.564576" lon="-3.082480">
        <ele>800.080</ele>
        <time>2019-08-06T22:37:16Z</time>
      </trkpt>
      <trkpt lat="38.564618" lon="-3.083521">
        <ele>800.512</ele>
        <time>2019-08-06T22:37:36Z</time>
      </trkpt>
      <trkpt lat="38.564576" lon="-3.085334">
        <ele>802.132</ele>
        <time>2019-08-06T22:37:56Z</time>
      </trkpt>
      <trkpt lat="38.564484" lon="-3.086675">
        <ele>809.505</ele>
        <time>2019-08-06T22:38:16Z</time>
      </trkpt>
      <trkpt lat="38.564475" lon="-3.087941">
        <ele>810.408</ele>
        <time>2019-08-06T22:38:36Z</time>
      </trkpt>
      <trkpt lat="38.564375" lon="-3.089358">
        <ele>808.274</ele>
        <time>2019-08-06T22:38:56Z</time>
      </trkpt>
      <trkpt lat="38.564039" lon="-3.089443">
        <ele>809.580</ele>
        <time>2019-08-06T22:39:16Z</time>
      </trkpt>
      <trkpt lat="38.563225" lon="-3.089808">
        <ele>815.036</ele>
        <time>2019-08-06T22:39:36Z</time>
      </trkpt>
      <trkpt lat="38.562814" lon="-3.089679">
        <ele>818.639</ele>
        <time>2019-08-06T22:39:56Z</time>
      </trkpt>
      <trkpt lat="38.562370" lon="-3.089465">
        <ele>819.198</ele>
        <time>2019-08-06T22:40:16Z</time>
      </trkpt>
      <trkpt lat="38.561732" lon="-3.089551">
        <ele>817.750</ele>
        <time>2019-08-06T22:40:36Z</time>
      </trkpt>
      <trkpt lat="38.560751" lon="-3.090066">
        <ele>812.841</ele>
        <time>2019-08-06T22:40:56Z</time>
      </trkpt>
      <trkpt lat="38.560356" lon="-3.090141">
        <ele>809.725</ele>
        <time>2019-08-06T22:41:16Z</time>
      </trkpt>
      <trkpt lat="38.559777" lon="-3.090645">
        <ele>809.082</ele>
        <time>2019-08-06T22:41:36Z</time>
      </trkpt>
      <trkpt lat="38.559199" lon="-3.090774">
        <ele>805.043</ele>
        <time>2019-08-06T22:41:56Z</time>
      </trkpt>
      <trkpt lat="38.558947" lon="-3.090645">
        <ele>804.117</ele>
        <time>2019-08-06T22:42:16Z</time>
      </trkpt>
      <trkpt lat="38.558292" lon="-3.090484">
        <ele>802.308</ele>
        <time>2019-08-06T22:42:36Z</time>
      </trkpt>
      <trkpt lat="38.557655" lon="-3.090527">
        <ele>801.131</ele>
        <time>2019-08-06T22:42:56Z</time>
      </trkpt>
      <trkpt lat="38.556925" lon="-3.090860">
        <ele>802.177</ele>
        <time>2019-08-06T22:43:16Z</time>
      </trkpt>
      <trkpt lat="38.556388" lon="-3.091224">
        <ele>802.673</ele>
        <time>2019-08-06T22:43:36Z</time>
      </trkpt>
      <trkpt lat="38.555734" lon="-3.091857">
        <ele>803.386</ele>
        <time>2019-08-06T22:43:56Z</time>
      </trkpt>
      <trkpt lat="38.555432" lon="-3.091589">
        <ele>801.935</ele>
        <time>2019-08-06T22:44:16Z</time>
      </trkpt>
      <trkpt lat="38.554903" lon="-3.090634">
        <ele>798.517</ele>
        <time>2019-08-06T22:44:36Z</time>
      </trkpt>
      <trkpt lat="38.554786" lon="-3.090194">
        <ele>797.288</ele>
        <time>2019-08-06T22:44:56Z</time>
      </trkpt>
      <trkpt lat="38.554685" lon="-3.089658">
        <ele>794.212</ele>
        <time>2019-08-06T22:45:16Z</time>
      </trkpt>
      <trkpt lat="38.554400" lon="-3.089293">
        <ele>794.056</ele>
        <time>2019-08-06T22:45:36Z</time>
      </trkpt>
      <trkpt lat="38.554114" lon="-3.089218">
        <ele>793.859</ele>
        <time>2019-08-06T22:45:56Z</time>
      </trkpt>
      <trkpt lat="38.553628" lon="-3.089325">
        <ele>793.014</ele>
        <time>2019-08-06T22:46:16Z</time>
      </trkpt>
      <trkpt lat="38.552654" lon="-3.088832">
        <ele>790.908</ele>
        <time>2019-08-06T22:46:36Z</time>
      </trkpt>
      <trkpt lat="38.551748" lon="-3.087416">
        <ele>796.548</ele>
        <time>2019-08-06T22:46:56Z</time>
      </trkpt>
      <trkpt lat="38.551547" lon="-3.086901">
        <ele>797.024</ele>
        <time>2019-08-06T22:47:16Z</time>
      </trkpt>
      <trkpt lat="38.551438" lon="-3.086289">
        <ele>796.080</ele>
        <time>2019-08-06T22:47:36Z</time>
      </trkpt>
      <trkpt lat="38.550817" lon="-3.085238">
        <ele>795.143</ele>
        <time>2019-08-06T22:47:56Z</time>
      </trkpt>
      <trkpt lat="38.550255" lon="-3.083543">
        <ele>792.082</ele>
        <time>2019-08-06T22:48:16Z</time>
      </trkpt>
      <trkpt lat="38.550129" lon="-3.082620">
        <ele>791.764</ele>
        <time>2019-08-06T22:48:36Z</time>
      </trkpt>
      <trkpt lat="38.550238" lon="-3.081375">
        <ele>789.855</ele>
        <time>2019-08-06T22:48:56Z</time>
      </trkpt>
      <trkpt lat="38.548090" lon="-3.081150">
        <ele>791.139</ele>
        <time>2019-08-06T22:49:16Z</time>
      </trkpt>
      <trkpt lat="38.546932" lon="-3.081011">
        <ele>790.475</ele>
        <time>2019-08-06T22:49:36Z</time>
      </trkpt>
      <trkpt lat="38.545254" lon="-3.081214">
        <ele>791.128</ele>
        <time>2019-08-06T22:49:56Z</time>
      </trkpt>
      <trkpt lat="38.543777" lon="-3.081440">
        <ele>788.420</ele>
        <time>2019-08-06T22:50:16Z</time>
      </trkpt>
      <trkpt lat="38.542166" lon="-3.081740">
        <ele>782.908</ele>
        <time>2019-08-06T22:50:36Z</time>
      </trkpt>
      <trkpt lat="38.542031" lon="-3.079530">
        <ele>786.010</ele>
        <time>2019-08-06T22:50:56Z</time>
      </trkpt>
      <trkpt lat="38.542073" lon="-3.077652">
        <ele>788.016</ele>
        <time>2019-08-06T22:51:16Z</time>
      </trkpt>
      <trkpt lat="38.542124" lon="-3.076848">
        <ele>787.332</ele>
        <time>2019-08-06T22:51:36Z</time>
      </trkpt>
      <trkpt lat="38.542182" lon="-3.076226">
        <ele>786.975</ele>
        <time>2019-08-06T22:51:56Z</time>
      </trkpt>
      <trkpt lat="38.542006" lon="-3.073372">
        <ele>788.014</ele>
        <time>2019-08-06T22:52:16Z</time>
      </trkpt>
      <trkpt lat="38.541872" lon="-3.071848">
        <ele>790.146</ele>
        <time>2019-08-06T22:52:36Z</time>
      </trkpt>
      <trkpt lat="38.542434" lon="-3.069617">
        <ele>792.337</ele>
        <time>2019-08-06T22:52:56Z</time>
      </trkpt>
      <trkpt lat="38.542913" lon="-3.068436">
        <ele>791.721</ele>
        <time>2019-08-06T22:53:16Z</time>
      </trkpt>
      <trkpt lat="38.543282" lon="-3.066688">
        <ele>789.012</ele>
        <time>2019-08-06T22:53:36Z</time>
      </trkpt>
      <trkpt lat="38.543307" lon="-3.066452">
        <ele>789.032</ele>
        <time>2019-08-06T22:53:56Z</time>
      </trkpt>
      <trkpt lat="38.543424" lon="-3.063791">
        <ele>787.405</ele>
        <time>2019-08-06T22:54:16Z</time>
      </trkpt>
      <trkpt lat="38.543483" lon="-3.062578">
        <ele>787.008</ele>
        <time>2019-08-06T22:54:36Z</time>
      </trkpt>
      <trkpt lat="38.543072" lon="-3.060454">
        <ele>782.654</ele>
        <time>2019-08-06T22:54:56Z</time>
      </trkpt>
      <trkpt lat="38.543097" lon="-3.059875">
        <ele>781.580</ele>
        <time>2019-08-06T22:55:16Z</time>
      </trkpt>
      <trkpt lat="38.542963" lon="-3.059038">
        <ele>779.016</ele>
        <time>2019-08-06T22:55:36Z</time>
      </trkpt>
      <trkpt lat="38.543013" lon="-3.058416">
        <ele>776.459</ele>
        <time>2019-08-06T22:55:56Z</time>
      </trkpt>
      <trkpt lat="38.543223" lon="-3.057879">
        <ele>775.818</ele>
        <time>2019-08-06T22:56:16Z</time>
      </trkpt>
      <trkpt lat="38.543173" lon="-3.057686">
        <ele>775.930</ele>
        <time>2019-08-06T22:56:36Z</time>
      </trkpt>
      <trkpt lat="38.542854" lon="-3.057600">
        <ele>775.161</ele>
        <time>2019-08-06T22:56:56Z</time>
      </trkpt>
      <trkpt lat="38.542552" lon="-3.057386">
        <ele>773.595</ele>
        <time>2019-08-06T22:57:16Z</time>
      </trkpt>
      <trkpt lat="38.542485" lon="-3.057107">
        <ele>773.375</ele>
        <time>2019-08-06T22:57:36Z</time>
      </trkpt>
      <trkpt lat="38.542602" lon="-3.056066">
        <ele>773.928</ele>
        <time>2019-08-06T22:57:56Z</time>
      </trkpt>
      <trkpt lat="38.542652" lon="-3.054135">
        <ele>770.720</ele>
        <time>2019-08-06T22:58:16Z</time>
      </trkpt>
      <trkpt lat="38.542401" lon="-3.051399">
        <ele>771.608</ele>
        <time>2019-08-06T22:58:36Z</time>
      </trkpt>
      <trkpt lat="38.541880" lon="-3.049275">
        <ele>772.060</ele>
        <time>2019-08-06T22:58:56Z</time>
      </trkpt>
      <trkpt lat="38.541024" lon="-3.047204">
        <ele>773.866</ele>
        <time>2019-08-06T22:59:16Z</time>
      </trkpt>
      <trkpt lat="38.540957" lon="-3.046496">
        <ele>776.492</ele>
        <time>2019-08-06T22:59:36Z</time>
      </trkpt>
      <trkpt lat="38.540974" lon="-3.046045">
        <ele>777.425</ele>
        <time>2019-08-06T22:59:56Z</time>
      </trkpt>
      <trkpt lat="38.540823" lon="-3.044779">
        <ele>780.884</ele>
        <time>2019-08-06T23:00:16Z</time>
      </trkpt>
      <trkpt lat="38.541259" lon="-3.042698">
        <ele>776.246</ele>
        <time>2019-08-06T23:00:36Z</time>
      </trkpt>
      <trkpt lat="38.541629" lon="-3.041078">
        <ele>776.627</ele>
        <time>2019-08-06T23:00:56Z</time>
      </trkpt>
      <trkpt lat="38.541645" lon="-3.040498">
        <ele>772.931</ele>
        <time>2019-08-06T23:01:16Z</time>
      </trkpt>
      <trkpt lat="38.541629" lon="-3.040048">
        <ele>769.752</ele>
        <time>2019-08-06T23:01:36Z</time>
      </trkpt>
      <trkpt lat="38.541813" lon="-3.039683">
        <ele>767.553</ele>
        <time>2019-08-06T23:01:56Z</time>
      </trkpt>
      <trkpt lat="38.542057" lon="-3.039211">
        <ele>767.108</ele>
        <time>2019-08-06T23:02:16Z</time>
      </trkpt>
      <trkpt lat="38.542115" lon="-3.037741">
        <ele>767.508</ele>
        <time>2019-08-06T23:02:36Z</time>
      </trkpt>
      <trkpt lat="38.542938" lon="-3.036829">
        <ele>769.028</ele>
        <time>2019-08-06T23:02:56Z</time>
      </trkpt>
      <trkpt lat="38.543248" lon="-3.036304">
        <ele>769.064</ele>
        <time>2019-08-06T23:03:16Z</time>
      </trkpt>
      <trkpt lat="38.543609" lon="-3.036228">
        <ele>768.080</ele>
        <time>2019-08-06T23:03:36Z</time>
      </trkpt>
      <trkpt lat="38.543869" lon="-3.036067">
        <ele>766.973</ele>
        <time>2019-08-06T23:03:56Z</time>
      </trkpt>
      <trkpt lat="38.543928" lon="-3.035713">
        <ele>767.062</ele>
        <time>2019-08-06T23:04:16Z</time>
      </trkpt>
      <trkpt lat="38.543852" lon="-3.035070">
        <ele>770.634</ele>
        <time>2019-08-06T23:04:36Z</time>
      </trkpt>
      <trkpt lat="38.543978" lon="-3.033686">
        <ele>769.065</ele>
        <time>2019-08-06T23:04:56Z</time>
      </trkpt>
      <trkpt lat="38.543961" lon="-3.032420">
        <ele>768.229</ele>
        <time>2019-08-06T23:05:16Z</time>
      </trkpt>
      <trkpt lat="38.543819" lon="-3.031776">
        <ele>769.123</ele>
        <time>2019-08-06T23:05:36Z</time>
      </trkpt>
      <trkpt lat="38.543584" lon="-3.031518">
        <ele>771.183</ele>
        <time>2019-08-06T23:05:56Z</time>
      </trkpt>
      <trkpt lat="38.541629" lon="-3.030274">
        <ele>781.011</ele>
        <time>2019-08-06T23:06:16Z</time>
      </trkpt>
      <trkpt lat="38.541134" lon="-3.030102">
        <ele>782.808</ele>
        <time>2019-08-06T23:06:36Z</time>
      </trkpt>
      <trkpt lat="38.539581" lon="-3.029459">
        <ele>789.575</ele>
        <time>2019-08-06T23:06:56Z</time>
      </trkpt>
      <trkpt lat="38.538482" lon="-3.029147">
        <ele>793.921</ele>
        <time>2019-08-06T23:07:16Z</time>
      </trkpt>
      <trkpt lat="38.537265" lon="-3.028783">
        <ele>799.587</ele>
        <time>2019-08-06T23:07:36Z</time>
      </trkpt>
      <trkpt lat="38.536409" lon="-3.028235">
        <ele>803.670</ele>
        <time>2019-08-06T23:07:56Z</time>
      </trkpt>
      <trkpt lat="38.535889" lon="-3.027924">
        <ele>802.589</ele>
        <time>2019-08-06T23:08:16Z</time>
      </trkpt>
      <trkpt lat="38.535553" lon="-3.027903">
        <ele>803.581</ele>
        <time>2019-08-06T23:08:36Z</time>
      </trkpt>
      <trkpt lat="38.535309" lon="-3.027763">
        <ele>803.982</ele>
        <time>2019-08-06T23:08:56Z</time>
      </trkpt>
      <trkpt lat="38.533992" lon="-3.026347">
        <ele>820.446</ele>
        <time>2019-08-06T23:09:16Z</time>
      </trkpt>
      <trkpt lat="38.533320" lon="-3.025424">
        <ele>827.676</ele>
        <time>2019-08-06T23:09:36Z</time>
      </trkpt>
      <trkpt lat="38.532372" lon="-3.024566">
        <ele>829.190</ele>
        <time>2019-08-06T23:09:56Z</time>
      </trkpt>
      <trkpt lat="38.531625" lon="-3.024169">
        <ele>828.119</ele>
        <time>2019-08-06T23:10:16Z</time>
      </trkpt>
      <trkpt lat="38.531214" lon="-3.024234">
        <ele>829.508</ele>
        <time>2019-08-06T23:10:36Z</time>
      </trkpt>
      <trkpt lat="38.529879" lon="-3.024631">
        <ele>838.680</ele>
        <time>2019-08-06T23:10:56Z</time>
      </trkpt>
      <trkpt lat="38.529334" lon="-3.024781">
        <ele>838.136</ele>
        <time>2019-08-06T23:11:16Z</time>
      </trkpt>
      <trkpt lat="38.528721" lon="-3.024899">
        <ele>836.622</ele>
        <time>2019-08-06T23:11:36Z</time>
      </trkpt>
      <trkpt lat="38.528092" lon="-3.025006">
        <ele>838.035</ele>
        <time>2019-08-06T23:11:56Z</time>
      </trkpt>
      <trkpt lat="38.527731" lon="-3.024974">
        <ele>837.944</ele>
        <time>2019-08-06T23:12:16Z</time>
      </trkpt>
      <trkpt lat="38.526447" lon="-3.024577">
        <ele>831.246</ele>
        <time>2019-08-06T23:12:36Z</time>
      </trkpt>
      <trkpt lat="38.526304" lon="-3.024352">
        <ele>830.687</ele>
        <time>2019-08-06T23:12:56Z</time>
      </trkpt>
      <trkpt lat="38.526262" lon="-3.023890">
        <ele>831.191</ele>
        <time>2019-08-06T23:13:16Z</time>
      </trkpt>
      <trkpt lat="38.526035" lon="-3.023322">
        <ele>831.556</ele>
        <time>2019-08-06T23:13:36Z</time>
      </trkpt>
      <trkpt lat="38.525758" lon="-3.022742">
        <ele>833.859</ele>
        <time>2019-08-06T23:13:56Z</time>
      </trkpt>
      <trkpt lat="38.525087" lon="-3.021991">
        <ele>837.814</ele>
        <time>2019-08-06T23:14:16Z</time>
      </trkpt>
      <trkpt lat="38.524953" lon="-3.021809">
        <ele>837.008</ele>
        <time>2019-08-06T23:14:36Z</time>
      </trkpt>
      <trkpt lat="38.524801" lon="-3.021380">
        <ele>838.948</ele>
        <time>2019-08-06T23:14:56Z</time>
      </trkpt>
      <trkpt lat="38.524734" lon="-3.021154">
        <ele>839.884</ele>
        <time>2019-08-06T23:15:16Z</time>
      </trkpt>
      <trkpt lat="38.524709" lon="-3.020951">
        <ele>840.550</ele>
        <time>2019-08-06T23:15:36Z</time>
      </trkpt>
      <trkpt lat="38.524617" lon="-3.020629">
        <ele>840.943</ele>
        <time>2019-08-06T23:15:56Z</time>
      </trkpt>
      <trkpt lat="38.524457" lon="-3.020468">
        <ele>841.012</ele>
        <time>2019-08-06T23:16:16Z</time>
      </trkpt>
      <trkpt lat="38.524206" lon="-3.020478">
        <ele>843.094</ele>
        <time>2019-08-06T23:16:36Z</time>
      </trkpt>
      <trkpt lat="38.523987" lon="-3.020425">
        <ele>844.545</ele>
        <time>2019-08-06T23:16:56Z</time>
      </trkpt>
      <trkpt lat="38.523652" lon="-3.020253">
        <ele>844.239</ele>
        <time>2019-08-06T23:17:16Z</time>
      </trkpt>
      <trkpt lat="38.523568" lon="-3.019942">
        <ele>844.752</ele>
        <time>2019-08-06T23:17:36Z</time>
      </trkpt>
      <trkpt lat="38.523542" lon="-3.019685">
        <ele>844.653</ele>
        <time>2019-08-06T23:17:56Z</time>
      </trkpt>
      <trkpt lat="38.523584" lon="-3.019309">
        <ele>845.808</ele>
        <time>2019-08-06T23:18:16Z</time>
      </trkpt>
      <trkpt lat="38.523735" lon="-3.017560">
        <ele>848.908</ele>
        <time>2019-08-06T23:18:36Z</time>
      </trkpt>
      <trkpt lat="38.523954" lon="-3.015962">
        <ele>849.848</ele>
        <time>2019-08-06T23:18:56Z</time>
      </trkpt>
      <trkpt lat="38.524147" lon="-3.014846">
        <ele>850.774</ele>
        <time>2019-08-06T23:19:16Z</time>
      </trkpt>
      <trkpt lat="38.524248" lon="-3.014073">
        <ele>851.710</ele>
        <time>2019-08-06T23:19:36Z</time>
      </trkpt>
      <trkpt lat="38.524424" lon="-3.013194">
        <ele>852.643</ele>
        <time>2019-08-06T23:19:56Z</time>
      </trkpt>
      <trkpt lat="38.524642" lon="-3.012561">
        <ele>854.922</ele>
        <time>2019-08-06T23:20:16Z</time>
      </trkpt>
      <trkpt lat="38.525011" lon="-3.011971">
        <ele>857.264</ele>
        <time>2019-08-06T23:20:36Z</time>
      </trkpt>
      <trkpt lat="38.525381" lon="-3.011434">
        <ele>858.355</ele>
        <time>2019-08-06T23:20:56Z</time>
      </trkpt>
      <trkpt lat="38.526883" lon="-3.010447">
        <ele>869.699</ele>
        <time>2019-08-06T23:21:16Z</time>
      </trkpt>
      <trkpt lat="38.527555" lon="-3.009900">
        <ele>876.957</ele>
        <time>2019-08-06T23:21:36Z</time>
      </trkpt>
      <trkpt lat="38.528142" lon="-3.009589">
        <ele>885.900</ele>
        <time>2019-08-06T23:21:56Z</time>
      </trkpt>
      <trkpt lat="38.528268" lon="-3.009396">
        <ele>888.120</ele>
        <time>2019-08-06T23:22:16Z</time>
      </trkpt>
      <trkpt lat="38.528117" lon="-3.009310">
        <ele>888.208</ele>
        <time>2019-08-06T23:22:36Z</time>
      </trkpt>
      <trkpt lat="38.528092" lon="-3.009084">
        <ele>889.878</ele>
        <time>2019-08-06T23:22:56Z</time>
      </trkpt>
      <trkpt lat="38.528293" lon="-3.008752">
        <ele>893.384</ele>
        <time>2019-08-06T23:23:16Z</time>
      </trkpt>
      <trkpt lat="38.528260" lon="-3.008473">
        <ele>893.750</ele>
        <time>2019-08-06T23:23:36Z</time>
      </trkpt>
      <trkpt lat="38.528679" lon="-3.007808">
        <ele>897.943</ele>
        <time>2019-08-06T23:23:56Z</time>
      </trkpt>
      <trkpt lat="38.528772" lon="-3.007400">
        <ele>899.282</ele>
        <time>2019-08-06T23:24:16Z</time>
      </trkpt>
      <trkpt lat="38.528939" lon="-3.007046">
        <ele>899.914</ele>
        <time>2019-08-06T23:24:36Z</time>
      </trkpt>
      <trkpt lat="38.528998" lon="-3.006316">
        <ele>901.675</ele>
        <time>2019-08-06T23:24:56Z</time>
      </trkpt>
      <trkpt lat="38.529116" lon="-3.006048">
        <ele>902.489</ele>
        <time>2019-08-06T23:25:16Z</time>
      </trkpt>
      <trkpt lat="38.529460" lon="-3.005576">
        <ele>903.817</ele>
        <time>2019-08-06T23:25:36Z</time>
      </trkpt>
      <trkpt lat="38.529586" lon="-3.005340">
        <ele>904.287</ele>
        <time>2019-08-06T23:25:56Z</time>
      </trkpt>
      <trkpt lat="38.529745" lon="-3.005190">
        <ele>904.415</ele>
        <time>2019-08-06T23:26:16Z</time>
      </trkpt>
      <trkpt lat="38.529863" lon="-3.004879">
        <ele>905.608</ele>
        <time>2019-08-06T23:26:36Z</time>
      </trkpt>
      <trkpt lat="38.529989" lon="-3.004482">
        <ele>907.814</ele>
        <time>2019-08-06T23:26:56Z</time>
      </trkpt>
      <trkpt lat="38.529989" lon="-3.004203">
        <ele>911.550</ele>
        <time>2019-08-06T23:27:16Z</time>
      </trkpt>
      <trkpt lat="38.529879" lon="-3.004063">
        <ele>913.696</ele>
        <time>2019-08-06T23:27:36Z</time>
      </trkpt>
      <trkpt lat="38.529896" lon="-3.003795">
        <ele>915.979</ele>
        <time>2019-08-06T23:27:56Z</time>
      </trkpt>
      <trkpt lat="38.530005" lon="-3.003237">
        <ele>920.048</ele>
        <time>2019-08-06T23:28:16Z</time>
      </trkpt>
      <trkpt lat="38.530568" lon="-3.002819">
        <ele>917.490</ele>
        <time>2019-08-06T23:28:36Z</time>
      </trkpt>
      <trkpt lat="38.530996" lon="-3.002808">
        <ele>911.411</ele>
        <time>2019-08-06T23:28:56Z</time>
      </trkpt>
      <trkpt lat="38.532347" lon="-3.002336">
        <ele>913.965</ele>
        <time>2019-08-06T23:29:16Z</time>
      </trkpt>
      <trkpt lat="38.532842" lon="-3.002003">
        <ele>920.378</ele>
        <time>2019-08-06T23:29:36Z</time>
      </trkpt>
      <trkpt lat="38.533346" lon="-3.001746">
        <ele>928.133</ele>
        <time>2019-08-06T23:29:56Z</time>
      </trkpt>
      <trkpt lat="38.534059" lon="-3.001703">
        <ele>939.126</ele>
        <time>2019-08-06T23:30:16Z</time>
      </trkpt>
      <trkpt lat="38.534453" lon="-3.001531">
        <ele>943.508</ele>
        <time>2019-08-06T23:30:36Z</time>
      </trkpt>
      <trkpt lat="38.534781" lon="-3.001328">
        <ele>945.510</ele>
        <time>2019-08-06T23:30:56Z</time>
      </trkpt>
      <trkpt lat="38.535293" lon="-3.001370">
        <ele>943.966</ele>
        <time>2019-08-06T23:31:16Z</time>
      </trkpt>
      <trkpt lat="38.536258" lon="-3.000662">
        <ele>934.962</ele>
        <time>2019-08-06T23:31:36Z</time>
      </trkpt>
      <trkpt lat="38.536828" lon="-2.999943">
        <ele>928.865</ele>
        <time>2019-08-06T23:31:56Z</time>
      </trkpt>
      <trkpt lat="38.537231" lon="-2.999504">
        <ele>921.744</ele>
        <time>2019-08-06T23:32:16Z</time>
      </trkpt>
      <trkpt lat="38.538389" lon="-2.998946">
        <ele>908.726</ele>
        <time>2019-08-06T23:32:36Z</time>
      </trkpt>
      <trkpt lat="38.539959" lon="-2.998549">
        <ele>897.117</ele>
        <time>2019-08-06T23:32:56Z</time>
      </trkpt>
      <trkpt lat="38.541083" lon="-2.998452">
        <ele>885.161</ele>
        <time>2019-08-06T23:33:16Z</time>
      </trkpt>
      <trkpt lat="38.542015" lon="-2.998549">
        <ele>868.987</ele>
        <time>2019-08-06T23:33:36Z</time>
      </trkpt>
      <trkpt lat="38.542501" lon="-2.998570">
        <ele>866.142</ele>
        <time>2019-08-06T23:33:56Z</time>
      </trkpt>
      <trkpt lat="38.542845" lon="-2.998495">
        <ele>864.926</ele>
        <time>2019-08-06T23:34:16Z</time>
      </trkpt>
      <trkpt lat="38.543349" lon="-2.998399">
        <ele>861.708</ele>
        <time>2019-08-06T23:34:36Z</time>
      </trkpt>
      <trkpt lat="38.543727" lon="-2.998345">
        <ele>858.751</ele>
        <time>2019-08-06T23:34:56Z</time>
      </trkpt>
      <trkpt lat="38.544213" lon="-2.997508">
        <ele>859.647</ele>
        <time>2019-08-06T23:35:16Z</time>
      </trkpt>
      <trkpt lat="38.545547" lon="-2.995341">
        <ele>861.633</ele>
        <time>2019-08-06T23:35:36Z</time>
      </trkpt>
      <trkpt lat="38.546126" lon="-2.994204">
        <ele>860.776</ele>
        <time>2019-08-06T23:35:56Z</time>
      </trkpt>
      <trkpt lat="38.545749" lon="-2.992433">
        <ele>868.325</ele>
        <time>2019-08-06T23:36:16Z</time>
      </trkpt>
      <trkpt lat="38.545489" lon="-2.991618">
        <ele>871.577</ele>
        <time>2019-08-06T23:36:36Z</time>
      </trkpt>
      <trkpt lat="38.545547" lon="-2.990298">
        <ele>875.258</ele>
        <time>2019-08-06T23:36:56Z</time>
      </trkpt>
      <trkpt lat="38.545254" lon="-2.989429">
        <ele>883.612</ele>
        <time>2019-08-06T23:37:16Z</time>
      </trkpt>
      <trkpt lat="38.544977" lon="-2.988646">
        <ele>887.071</ele>
        <time>2019-08-06T23:37:36Z</time>
      </trkpt>
      <trkpt lat="38.544943" lon="-2.988228">
        <ele>887.841</ele>
        <time>2019-08-06T23:37:56Z</time>
      </trkpt>
      <trkpt lat="38.545103" lon="-2.986479">
        <ele>892.915</ele>
        <time>2019-08-06T23:38:16Z</time>
      </trkpt>
      <trkpt lat="38.544960" lon="-2.984279">
        <ele>901.708</ele>
        <time>2019-08-06T23:38:36Z</time>
      </trkpt>
      <trkpt lat="38.544633" lon="-2.983700">
        <ele>907.550</ele>
        <time>2019-08-06T23:38:56Z</time>
      </trkpt>
      <trkpt lat="38.543282" lon="-2.982391">
        <ele>916.986</ele>
        <time>2019-08-06T23:39:16Z</time>
      </trkpt>
      <trkpt lat="38.542577" lon="-2.982080">
        <ele>919.922</ele>
        <time>2019-08-06T23:39:36Z</time>
      </trkpt>
      <trkpt lat="38.542048" lon="-2.982026">
        <ele>921.535</ele>
        <time>2019-08-06T23:39:56Z</time>
      </trkpt>
      <trkpt lat="38.541385" lon="-2.982187">
        <ele>924.514</ele>
        <time>2019-08-06T23:40:16Z</time>
      </trkpt>
      <trkpt lat="38.540865" lon="-2.982498">
        <ele>928.196</ele>
        <time>2019-08-06T23:40:36Z</time>
      </trkpt>
      <trkpt lat="38.540655" lon="-2.982606">
        <ele>930.437</ele>
        <time>2019-08-06T23:40:56Z</time>
      </trkpt>
      <trkpt lat="38.540546" lon="-2.982402">
        <ele>929.891</ele>
        <time>2019-08-06T23:41:16Z</time>
      </trkpt>
      <trkpt lat="38.540311" lon="-2.980428">
        <ele>939.181</ele>
        <time>2019-08-06T23:41:36Z</time>
      </trkpt>
      <trkpt lat="38.539556" lon="-2.978282">
        <ele>951.261</ele>
        <time>2019-08-06T23:41:56Z</time>
      </trkpt>
      <trkpt lat="38.539052" lon="-2.976490">
        <ele>960.617</ele>
        <time>2019-08-06T23:42:16Z</time>
      </trkpt>
      <trkpt lat="38.538767" lon="-2.975771">
        <ele>966.408</ele>
        <time>2019-08-06T23:42:36Z</time>
      </trkpt>
      <trkpt lat="38.538138" lon="-2.974935">
        <ele>968.031</ele>
        <time>2019-08-06T23:42:56Z</time>
      </trkpt>
      <trkpt lat="38.537173" lon="-2.974108">
        <ele>965.617</ele>
        <time>2019-08-06T23:43:16Z</time>
      </trkpt>
      <trkpt lat="38.536652" lon="-2.973990">
        <ele>963.463</ele>
        <time>2019-08-06T23:43:36Z</time>
      </trkpt>
      <trkpt lat="38.535998" lon="-2.973197">
        <ele>962.396</ele>
        <time>2019-08-06T23:43:56Z</time>
      </trkpt>
      <trkpt lat="38.535444" lon="-2.972478">
        <ele>961.735</ele>
        <time>2019-08-06T23:44:16Z</time>
      </trkpt>
      <trkpt lat="38.535133" lon="-2.972445">
        <ele>961.227</ele>
        <time>2019-08-06T23:44:36Z</time>
      </trkpt>
      <trkpt lat="38.533623" lon="-2.972671">
        <ele>962.448</ele>
        <time>2019-08-06T23:44:56Z</time>
      </trkpt>
      <trkpt lat="38.532716" lon="-2.972789">
        <ele>962.212</ele>
        <time>2019-08-06T23:45:16Z</time>
      </trkpt>
      <trkpt lat="38.532221" lon="-2.973014">
        <ele>964.028</ele>
        <time>2019-08-06T23:45:36Z</time>
      </trkpt>
      <trkpt lat="38.530945" lon="-2.973701">
        <ele>959.589</ele>
        <time>2019-08-06T23:45:56Z</time>
      </trkpt>
      <trkpt lat="38.530417" lon="-2.973797">
        <ele>960.017</ele>
        <time>2019-08-06T23:46:16Z</time>
      </trkpt>
      <trkpt lat="38.529242" lon="-2.973883">
        <ele>957.808</ele>
        <time>2019-08-06T23:46:36Z</time>
      </trkpt>
      <trkpt lat="38.527748" lon="-2.974623">
        <ele>959.085</ele>
        <time>2019-08-06T23:46:56Z</time>
      </trkpt>
      <trkpt lat="38.526531" lon="-2.975868">
        <ele>963.231</ele>
        <time>2019-08-06T23:47:16Z</time>
      </trkpt>
      <trkpt lat="38.525515" lon="-2.977070">
        <ele>967.627</ele>
        <time>2019-08-06T23:47:36Z</time>
      </trkpt>
      <trkpt lat="38.524508" lon="-2.978089">
        <ele>969.030</ele>
        <time>2019-08-06T23:47:56Z</time>
      </trkpt>
      <trkpt lat="38.523878" lon="-2.978411">
        <ele>968.339</ele>
        <time>2019-08-06T23:48:16Z</time>
      </trkpt>
      <trkpt lat="38.523198" lon="-2.978357">
        <ele>962.081</ele>
        <time>2019-08-06T23:48:36Z</time>
      </trkpt>
      <trkpt lat="38.522460" lon="-2.977896">
        <ele>953.412</ele>
        <time>2019-08-06T23:48:56Z</time>
      </trkpt>
      <trkpt lat="38.521108" lon="-2.975868">
        <ele>937.886</ele>
        <time>2019-08-06T23:49:16Z</time>
      </trkpt>
      <trkpt lat="38.520789" lon="-2.975460">
        <ele>932.575</ele>
        <time>2019-08-06T23:49:36Z</time>
      </trkpt>
      <trkpt lat="38.520386" lon="-2.974752">
        <ele>924.528</ele>
        <time>2019-08-06T23:49:56Z</time>
      </trkpt>
      <trkpt lat="38.519715" lon="-2.974409">
        <ele>915.820</ele>
        <time>2019-08-06T23:50:16Z</time>
      </trkpt>
      <trkpt lat="38.519052" lon="-2.974162">
        <ele>908.808</ele>
        <time>2019-08-06T23:50:36Z</time>
      </trkpt>
      <trkpt lat="38.518498" lon="-2.974184">
        <ele>906.580</ele>
        <time>2019-08-06T23:50:56Z</time>
      </trkpt>
      <trkpt lat="38.518028" lon="-2.974463">
        <ele>904.166</ele>
        <time>2019-08-06T23:51:16Z</time>
      </trkpt>
      <trkpt lat="38.517272" lon="-2.974194">
        <ele>909.772</ele>
        <time>2019-08-06T23:51:36Z</time>
      </trkpt>
      <trkpt lat="38.516307" lon="-2.973701">
        <ele>920.255</ele>
        <time>2019-08-06T23:51:56Z</time>
      </trkpt>
      <trkpt lat="38.515291" lon="-2.972982">
        <ele>929.544</ele>
        <time>2019-08-06T23:52:16Z</time>
      </trkpt>
      <trkpt lat="38.514964" lon="-2.972274">
        <ele>932.466</ele>
        <time>2019-08-06T23:52:36Z</time>
      </trkpt>
      <trkpt lat="38.514334" lon="-2.971652">
        <ele>938.727</ele>
        <time>2019-08-06T23:52:56Z</time>
      </trkpt>
      <trkpt lat="38.513956" lon="-2.970986">
        <ele>942.511</ele>
        <time>2019-08-06T23:53:16Z</time>
      </trkpt>
      <trkpt lat="38.513923" lon="-2.970525">
        <ele>942.884</ele>
        <time>2019-08-06T23:53:36Z</time>
      </trkpt>
      <trkpt lat="38.514074" lon="-2.970203">
        <ele>942.007</ele>
        <time>2019-08-06T23:53:56Z</time>
      </trkpt>
      <trkpt lat="38.514426" lon="-2.969463">
        <ele>942.017</ele>
        <time>2019-08-06T23:54:16Z</time>
      </trkpt>
      <trkpt lat="38.514351" lon="-2.969098">
        <ele>943.008</ele>
        <time>2019-08-06T23:54:36Z</time>
      </trkpt>
      <trkpt lat="38.514040" lon="-2.968744">
        <ele>942.181</ele>
        <time>2019-08-06T23:54:56Z</time>
      </trkpt>
      <trkpt lat="38.513167" lon="-2.967886">
        <ele>936.697</ele>
        <time>2019-08-06T23:55:16Z</time>
      </trkpt>
      <trkpt lat="38.513729" lon="-2.966073">
        <ele>951.933</ele>
        <time>2019-08-06T23:55:36Z</time>
      </trkpt>
      <trkpt lat="38.514116" lon="-2.965783">
        <ele>953.856</ele>
        <time>2019-08-06T23:55:56Z</time>
      </trkpt>
      <trkpt lat="38.514317" lon="-2.965332">
        <ele>954.495</ele>
        <time>2019-08-06T23:56:16Z</time>
      </trkpt>
      <trkpt lat="38.514460" lon="-2.964785">
        <ele>954.047</ele>
        <time>2019-08-06T23:56:36Z</time>
      </trkpt>
      <trkpt lat="38.514922" lon="-2.964045">
        <ele>954.338</ele>
        <time>2019-08-06T23:56:56Z</time>
      </trkpt>
      <trkpt lat="38.515316" lon="-2.962704">
        <ele>958.382</ele>
        <time>2019-08-06T23:57:16Z</time>
      </trkpt>
      <trkpt lat="38.515501" lon="-2.962114">
        <ele>960.843</ele>
        <time>2019-08-06T23:57:36Z</time>
      </trkpt>
      <trkpt lat="38.515610" lon="-2.960665">
        <ele>962.364</ele>
        <time>2019-08-06T23:57:56Z</time>
      </trkpt>
      <trkpt lat="38.515627" lon="-2.959346">
        <ele>963.210</ele>
        <time>2019-08-06T23:58:16Z</time>
      </trkpt>
      <trkpt lat="38.515744" lon="-2.958627">
        <ele>963.608</ele>
        <time>2019-08-06T23:58:36Z</time>
      </trkpt>
      <trkpt lat="38.515778" lon="-2.957661">
        <ele>965.987</ele>
        <time>2019-08-06T23:58:56Z</time>
      </trkpt>
      <trkpt lat="38.515602" lon="-2.956449">
        <ele>970.013</ele>
        <time>2019-08-06T23:59:16Z</time>
      </trkpt>
      <trkpt lat="38.515425" lon="-2.955183">
        <ele>966.139</ele>
        <time>2019-08-06T23:59:36Z</time>
      </trkpt>
      <trkpt lat="38.515501" lon="-2.953123">
        <ele>959.092</ele>
        <time>2019-08-06T23:59:56Z</time>
      </trkpt>
      <trkpt lat="38.515408" lon="-2.950966">
        <ele>966.191</ele>
        <time>2019-08-07T00:00:16Z</time>
      </trkpt>
      <trkpt lat="38.515350" lon="-2.949539">
        <ele>971.563</ele>
        <time>2019-08-07T00:00:36Z</time>
      </trkpt>
      <trkpt lat="38.515509" lon="-2.948520">
        <ele>969.824</ele>
        <time>2019-08-07T00:00:56Z</time>
      </trkpt>
      <trkpt lat="38.515904" lon="-2.947769">
        <ele>966.768</ele>
        <time>2019-08-07T00:01:16Z</time>
      </trkpt>
      <trkpt lat="38.516651" lon="-2.947147">
        <ele>960.574</ele>
        <time>2019-08-07T00:01:36Z</time>
      </trkpt>
      <trkpt lat="38.517222" lon="-2.946246">
        <ele>949.556</ele>
        <time>2019-08-07T00:01:56Z</time>
      </trkpt>
      <trkpt lat="38.517599" lon="-2.945656">
        <ele>940.021</ele>
        <time>2019-08-07T00:02:16Z</time>
      </trkpt>
      <trkpt lat="38.518170" lon="-2.944980">
        <ele>932.908</ele>
        <time>2019-08-07T00:02:36Z</time>
      </trkpt>
      <trkpt lat="38.519127" lon="-2.944980">
        <ele>926.060</ele>
        <time>2019-08-07T00:02:56Z</time>
      </trkpt>
      <trkpt lat="38.519698" lon="-2.944561">
        <ele>926.366</ele>
        <time>2019-08-07T00:03:16Z</time>
      </trkpt>
      <trkpt lat="38.520437" lon="-2.943660">
        <ele>932.752</ele>
        <time>2019-08-07T00:03:36Z</time>
      </trkpt>
      <trkpt lat="38.521595" lon="-2.942823">
        <ele>940.535</ele>
        <time>2019-08-07T00:03:56Z</time>
      </trkpt>
      <trkpt lat="38.522057" lon="-2.942694">
        <ele>941.124</ele>
        <time>2019-08-07T00:04:16Z</time>
      </trkpt>
      <trkpt lat="38.523156" lon="-2.941718">
        <ele>944.146</ele>
        <time>2019-08-07T00:04:36Z</time>
      </trkpt>
      <trkpt lat="38.523643" lon="-2.940913">
        <ele>940.787</ele>
        <time>2019-08-07T00:04:56Z</time>
      </trkpt>
      <trkpt lat="38.524373" lon="-2.939808">
        <ele>938.211</ele>
        <time>2019-08-07T00:05:16Z</time>
      </trkpt>
      <trkpt lat="38.524449" lon="-2.939529">
        <ele>939.093</ele>
        <time>2019-08-07T00:05:36Z</time>
      </trkpt>
      <trkpt lat="38.524785" lon="-2.938843">
        <ele>943.365</ele>
        <time>2019-08-07T00:05:56Z</time>
      </trkpt>
      <trkpt lat="38.525146" lon="-2.938553">
        <ele>945.421</ele>
        <time>2019-08-07T00:06:16Z</time>
      </trkpt>
      <trkpt lat="38.525347" lon="-2.938124">
        <ele>943.708</ele>
        <time>2019-08-07T00:06:36Z</time>
      </trkpt>
      <trkpt lat="38.525750" lon="-2.937748">
        <ele>944.432</ele>
        <time>2019-08-07T00:06:56Z</time>
      </trkpt>
      <trkpt lat="38.526312" lon="-2.937319">
        <ele>947.058</ele>
        <time>2019-08-07T00:07:16Z</time>
      </trkpt>
      <trkpt lat="38.527076" lon="-2.936772">
        <ele>948.734</ele>
        <time>2019-08-07T00:07:36Z</time>
      </trkpt>
      <trkpt lat="38.527966" lon="-2.935796">
        <ele>949.097</ele>
        <time>2019-08-07T00:07:56Z</time>
      </trkpt>
      <trkpt lat="38.528612" lon="-2.934948">
        <ele>948.046</ele>
        <time>2019-08-07T00:08:16Z</time>
      </trkpt>
      <trkpt lat="38.529384" lon="-2.933693">
        <ele>943.478</ele>
        <time>2019-08-07T00:08:36Z</time>
      </trkpt>
      <trkpt lat="38.530240" lon="-2.932416">
        <ele>940.549</ele>
        <time>2019-08-07T00:08:56Z</time>
      </trkpt>
      <trkpt lat="38.530576" lon="-2.931783">
        <ele>937.923</ele>
        <time>2019-08-07T00:09:16Z</time>
      </trkpt>
      <trkpt lat="38.530845" lon="-2.931075">
        <ele>934.723</ele>
        <time>2019-08-07T00:09:36Z</time>
      </trkpt>
      <trkpt lat="38.530853" lon="-2.930399">
        <ele>933.483</ele>
        <time>2019-08-07T00:09:56Z</time>
      </trkpt>
      <trkpt lat="38.530861" lon="-2.929541">
        <ele>928.311</ele>
        <time>2019-08-07T00:10:16Z</time>
      </trkpt>
      <trkpt lat="38.530694" lon="-2.928736">
        <ele>927.508</ele>
        <time>2019-08-07T00:10:36Z</time>
      </trkpt>
      <trkpt lat="38.530391" lon="-2.928060">
        <ele>930.025</ele>
        <time>2019-08-07T00:10:56Z</time>
      </trkpt>
      <trkpt lat="38.529544" lon="-2.926998">
        <ele>928.621</ele>
        <time>2019-08-07T00:11:16Z</time>
      </trkpt>
      <trkpt lat="38.528738" lon="-2.926333">
        <ele>924.777</ele>
        <time>2019-08-07T00:11:36Z</time>
      </trkpt>
      <trkpt lat="38.527974" lon="-2.925603">
        <ele>922.060</ele>
        <time>2019-08-07T00:11:56Z</time>
      </trkpt>
      <trkpt lat="38.527278" lon="-2.924895">
        <ele>920.759</ele>
        <time>2019-08-07T00:12:16Z</time>
      </trkpt>
      <trkpt lat="38.526967" lon="-2.924616">
        <ele>918.841</ele>
        <time>2019-08-07T00:12:36Z</time>
      </trkpt>
      <trkpt lat="38.527429" lon="-2.924616">
        <ele>917.812</ele>
        <time>2019-08-07T00:12:56Z</time>
      </trkpt>
      <trkpt lat="38.527832" lon="-2.924842">
        <ele>917.426</ele>
        <time>2019-08-07T00:13:16Z</time>
      </trkpt>
      <trkpt lat="38.529183" lon="-2.924241">
        <ele>924.096</ele>
        <time>2019-08-07T00:13:36Z</time>
      </trkpt>
      <trkpt lat="38.530030" lon="-2.924123">
        <ele>925.031</ele>
        <time>2019-08-07T00:13:56Z</time>
      </trkpt>
      <trkpt lat="38.530996" lon="-2.923801">
        <ele>926.624</ele>
        <time>2019-08-07T00:14:16Z</time>
      </trkpt>
      <trkpt lat="38.531768" lon="-2.923565">
        <ele>928.408</ele>
        <time>2019-08-07T00:14:36Z</time>
      </trkpt>
      <trkpt lat="38.532565" lon="-2.922900">
        <ele>929.272</ele>
        <time>2019-08-07T00:14:56Z</time>
      </trkpt>
      <trkpt lat="38.533606" lon="-2.922256">
        <ele>936.148</ele>
        <time>2019-08-07T00:15:16Z</time>
      </trkpt>
      <trkpt lat="38.534940" lon="-2.921966">
        <ele>931.434</ele>
        <time>2019-08-07T00:15:36Z</time>
      </trkpt>
      <trkpt lat="38.536275" lon="-2.921441">
        <ele>925.547</ele>
        <time>2019-08-07T00:15:56Z</time>
      </trkpt>
      <trkpt lat="38.536736" lon="-2.921505">
        <ele>925.086</ele>
        <time>2019-08-07T00:16:16Z</time>
      </trkpt>
      <trkpt lat="38.537324" lon="-2.921280">
        <ele>927.158</ele>
        <time>2019-08-07T00:16:36Z</time>
      </trkpt>
      <trkpt lat="38.538071" lon="-2.921140">
        <ele>932.279</ele>
        <time>2019-08-07T00:16:56Z</time>
      </trkpt>
      <trkpt lat="38.538717" lon="-2.921462">
        <ele>936.293</ele>
        <time>2019-08-07T00:17:16Z</time>
      </trkpt>
      <trkpt lat="38.540051" lon="-2.921709">
        <ele>935.282</ele>
        <time>2019-08-07T00:17:36Z</time>
      </trkpt>
      <trkpt lat="38.540412" lon="-2.921644">
        <ele>934.543</ele>
        <time>2019-08-07T00:17:56Z</time>
      </trkpt>
      <trkpt lat="38.542392" lon="-2.922267">
        <ele>928.717</ele>
        <time>2019-08-07T00:18:16Z</time>
      </trkpt>
      <trkpt lat="38.543810" lon="-2.922213">
        <ele>926.008</ele>
        <time>2019-08-07T00:18:36Z</time>
      </trkpt>
      <trkpt lat="38.545413" lon="-2.922149">
        <ele>925.771</ele>
        <time>2019-08-07T00:18:56Z</time>
      </trkpt>
      <trkpt lat="38.546277" lon="-2.922224">
        <ele>921.467</ele>
        <time>2019-08-07T00:19:16Z</time>
      </trkpt>
      <trkpt lat="38.546865" lon="-2.922256">
        <ele>922.113</ele>
        <time>2019-08-07T00:19:36Z</time>
      </trkpt>
      <trkpt lat="38.547679" lon="-2.922471">
        <ele>920.956</ele>
        <time>2019-08-07T00:19:56Z</time>
      </trkpt>
      <trkpt lat="38.548241" lon="-2.922374">
        <ele>922.795</ele>
        <time>2019-08-07T00:20:16Z</time>
      </trkpt>
      <trkpt lat="38.549734" lon="-2.922138">
        <ele>925.727</ele>
        <time>2019-08-07T00:20:36Z</time>
      </trkpt>
      <trkpt lat="38.550750" lon="-2.922277">
        <ele>921.758</ele>
        <time>2019-08-07T00:20:56Z</time>
      </trkpt>
      <trkpt lat="38.551497" lon="-2.922202">
        <ele>922.682</ele>
        <time>2019-08-07T00:21:16Z</time>
      </trkpt>
      <trkpt lat="38.552008" lon="-2.922020">
        <ele>921.514</ele>
        <time>2019-08-07T00:21:36Z</time>
      </trkpt>
      <trkpt lat="38.552554" lon="-2.921999">
        <ele>924.854</ele>
        <time>2019-08-07T00:21:56Z</time>
      </trkpt>
      <trkpt lat="38.553384" lon="-2.921655">
        <ele>933.009</ele>
        <time>2019-08-07T00:22:16Z</time>
      </trkpt>
      <trkpt lat="38.553879" lon="-2.921365">
        <ele>931.908</ele>
        <time>2019-08-07T00:22:36Z</time>
      </trkpt>
      <trkpt lat="38.554358" lon="-2.921044">
        <ele>933.454</ele>
        <time>2019-08-07T00:22:56Z</time>
      </trkpt>
      <trkpt lat="38.554676" lon="-2.921054">
        <ele>934.060</ele>
        <time>2019-08-07T00:23:16Z</time>
      </trkpt>
      <trkpt lat="38.556036" lon="-2.921494">
        <ele>917.536</ele>
        <time>2019-08-07T00:23:36Z</time>
      </trkpt>
      <trkpt lat="38.557965" lon="-2.922696">
        <ele>904.169</ele>
        <time>2019-08-07T00:23:56Z</time>
      </trkpt>
      <trkpt lat="38.558653" lon="-2.923265">
        <ele>899.098</ele>
        <time>2019-08-07T00:24:16Z</time>
      </trkpt>
      <trkpt lat="38.559266" lon="-2.923790">
        <ele>899.760</ele>
        <time>2019-08-07T00:24:36Z</time>
      </trkpt>
      <trkpt lat="38.559819" lon="-2.924284">
        <ele>902.191</ele>
        <time>2019-08-07T00:24:56Z</time>
      </trkpt>
      <trkpt lat="38.560667" lon="-2.924927">
        <ele>911.265</ele>
        <time>2019-08-07T00:25:16Z</time>
      </trkpt>
      <trkpt lat="38.561279" lon="-2.925174">
        <ele>914.375</ele>
        <time>2019-08-07T00:25:36Z</time>
      </trkpt>
      <trkpt lat="38.561615" lon="-2.925464">
        <ele>917.528</ele>
        <time>2019-08-07T00:25:56Z</time>
      </trkpt>
      <trkpt lat="38.561799" lon="-2.925625">
        <ele>918.420</ele>
        <time>2019-08-07T00:26:16Z</time>
      </trkpt>
      <trkpt lat="38.562160" lon="-2.925518">
        <ele>923.208</ele>
        <time>2019-08-07T00:26:36Z</time>
      </trkpt>
      <trkpt lat="38.563326" lon="-2.925389">
        <ele>932.980</ele>
        <time>2019-08-07T00:26:56Z</time>
      </trkpt>
      <trkpt lat="38.564073" lon="-2.925496">
        <ele>936.166</ele>
        <time>2019-08-07T00:27:16Z</time>
      </trkpt>
      <trkpt lat="38.564643" lon="-2.923565">
        <ele>929.212</ele>
        <time>2019-08-07T00:27:36Z</time>
      </trkpt>
      <trkpt lat="38.565205" lon="-2.921709">
        <ele>921.995</ele>
        <time>2019-08-07T00:27:56Z</time>
      </trkpt>
      <trkpt lat="38.565633" lon="-2.921591">
        <ele>923.084</ele>
        <time>2019-08-07T00:28:16Z</time>
      </trkpt>
      <trkpt lat="38.565574" lon="-2.921387">
        <ele>922.166</ele>
        <time>2019-08-07T00:28:36Z</time>
      </trkpt>
      <trkpt lat="38.565566" lon="-2.921591">
        <ele>922.895</ele>
        <time>2019-06-22T18:21:20Z</time>
      </trkpt>
      <trkpt lat="38.565130" lon="-2.920078">
        <ele>908.649</ele>
        <time>2019-06-22T18:21:40Z</time>
      </trkpt>
      <trkpt lat="38.565281" lon="-2.919177">
        <ele>900.123</ele>
        <time>2019-06-22T18:22:00Z</time>
      </trkpt>
      <trkpt lat="38.565423" lon="-2.916409">
        <ele>887.108</ele>
        <time>2019-06-22T18:22:20Z</time>
      </trkpt>
      <trkpt lat="38.565591" lon="-2.914628">
        <ele>882.542</ele>
        <time>2019-06-22T18:22:40Z</time>
      </trkpt>
      <trkpt lat="38.566069" lon="-2.912160">
        <ele>879.746</ele>
        <time>2019-06-22T18:23:00Z</time>
      </trkpt>
      <trkpt lat="38.566061" lon="-2.911656">
        <ele>877.278</ele>
        <time>2019-06-22T18:23:20Z</time>
      </trkpt>
      <trkpt lat="38.566120" lon="-2.910626">
        <ele>875.339</ele>
        <time>2019-06-22T18:23:40Z</time>
      </trkpt>
      <trkpt lat="38.566078" lon="-2.909660">
        <ele>873.283</ele>
        <time>2019-06-22T18:24:00Z</time>
      </trkpt>
      <trkpt lat="38.565876" lon="-2.909038">
        <ele>871.163</ele>
        <time>2019-06-22T18:24:20Z</time>
      </trkpt>
      <trkpt lat="38.565633" lon="-2.907590">
        <ele>872.866</ele>
        <time>2019-06-22T18:24:40Z</time>
      </trkpt>
      <trkpt lat="38.565247" lon="-2.906592">
        <ele>874.061</ele>
        <time>2019-06-22T18:25:00Z</time>
      </trkpt>
      <trkpt lat="38.564593" lon="-2.903963">
        <ele>869.344</ele>
        <time>2019-06-22T18:25:20Z</time>
      </trkpt>
      <trkpt lat="38.564375" lon="-2.902869">
        <ele>868.505</ele>
        <time>2019-06-22T18:25:40Z</time>
      </trkpt>
      <trkpt lat="38.564048" lon="-2.901903">
        <ele>868.315</ele>
        <time>2019-06-22T18:26:00Z</time>
      </trkpt>
      <trkpt lat="38.563687" lon="-2.901206">
        <ele>867.308</ele>
        <time>2019-06-22T18:26:20Z</time>
      </trkpt>
      <trkpt lat="38.563385" lon="-2.900809">
        <ele>865.987</ele>
        <time>2019-06-22T18:26:40Z</time>
      </trkpt>
      <trkpt lat="38.563133" lon="-2.900369">
        <ele>864.331</ele>
        <time>2019-06-22T18:27:00Z</time>
      </trkpt>
      <trkpt lat="38.563108" lon="-2.899961">
        <ele>864.853</ele>
        <time>2019-06-22T18:27:20Z</time>
      </trkpt>
      <trkpt lat="38.563032" lon="-2.899446">
        <ele>864.124</ele>
        <time>2019-06-22T18:27:40Z</time>
      </trkpt>
      <trkpt lat="38.562881" lon="-2.898706">
        <ele>866.448</ele>
        <time>2019-06-22T18:28:00Z</time>
      </trkpt>
      <trkpt lat="38.562571" lon="-2.898266">
        <ele>870.628</ele>
        <time>2019-06-22T18:28:20Z</time>
      </trkpt>
      <trkpt lat="38.562370" lon="-2.897633">
        <ele>867.261</ele>
        <time>2019-06-22T18:28:40Z</time>
      </trkpt>
      <trkpt lat="38.562261" lon="-2.896947">
        <ele>864.976</ele>
        <time>2019-06-22T18:29:00Z</time>
      </trkpt>
      <trkpt lat="38.562219" lon="-2.896807">
        <ele>865.068</ele>
        <time>2019-06-22T18:29:20Z</time>
      </trkpt>
      <trkpt lat="38.562311" lon="-2.896346">
        <ele>864.842</ele>
        <time>2019-06-22T18:29:40Z</time>
      </trkpt>
      <trkpt lat="38.562445" lon="-2.895788">
        <ele>864.426</ele>
        <time>2019-06-22T18:30:00Z</time>
      </trkpt>
      <trkpt lat="38.562529" lon="-2.895337">
        <ele>867.308</ele>
        <time>2019-06-22T18:30:20Z</time>
      </trkpt>
      <trkpt lat="38.562714" lon="-2.894747">
        <ele>870.169</ele>
        <time>2019-06-22T18:30:40Z</time>
      </trkpt>
      <trkpt lat="38.562840" lon="-2.894447">
        <ele>869.223</ele>
        <time>2019-06-22T18:31:00Z</time>
      </trkpt>
      <trkpt lat="38.562840" lon="-2.893975">
        <ele>871.915</ele>
        <time>2019-06-22T18:31:20Z</time>
      </trkpt>
      <trkpt lat="38.562672" lon="-2.893556">
        <ele>875.636</ele>
        <time>2019-06-22T18:31:40Z</time>
      </trkpt>
      <trkpt lat="38.562487" lon="-2.893267">
        <ele>877.390</ele>
        <time>2019-06-22T18:32:00Z</time>
      </trkpt>
      <trkpt lat="38.562252" lon="-2.892977">
        <ele>880.490</ele>
        <time>2019-06-22T18:32:20Z</time>
      </trkpt>
      <trkpt lat="38.562135" lon="-2.892591">
        <ele>883.883</ele>
        <time>2019-06-22T18:32:40Z</time>
      </trkpt>
      <trkpt lat="38.562034" lon="-2.891818">
        <ele>887.188</ele>
        <time>2019-06-22T18:33:00Z</time>
      </trkpt>
      <trkpt lat="38.561816" lon="-2.890863">
        <ele>890.062</ele>
        <time>2019-06-22T18:33:20Z</time>
      </trkpt>
      <trkpt lat="38.561715" lon="-2.890488">
        <ele>891.683</ele>
        <time>2019-06-22T18:33:40Z</time>
      </trkpt>
      <trkpt lat="38.561506" lon="-2.890123">
        <ele>892.011</ele>
        <time>2019-06-22T18:34:00Z</time>
      </trkpt>
      <trkpt lat="38.561480" lon="-2.889576">
        <ele>895.908</ele>
        <time>2019-06-22T18:34:20Z</time>
      </trkpt>
      <trkpt lat="38.561690" lon="-2.888771">
        <ele>898.529</ele>
        <time>2019-06-22T18:34:40Z</time>
      </trkpt>
      <trkpt lat="38.562059" lon="-2.887344">
        <ele>895.853</ele>
        <time>2019-06-22T18:35:00Z</time>
      </trkpt>
      <trkpt lat="38.562496" lon="-2.887312">
        <ele>892.775</ele>
        <time>2019-06-22T18:35:20Z</time>
      </trkpt>
      <trkpt lat="38.562722" lon="-2.887108">
        <ele>893.096</ele>
        <time>2019-06-22T18:35:40Z</time>
      </trkpt>
      <trkpt lat="38.562881" lon="-2.886765">
        <ele>892.420</ele>
        <time>2019-06-22T18:36:00Z</time>
      </trkpt>
      <trkpt lat="38.562982" lon="-2.886304">
        <ele>890.630</ele>
        <time>2019-06-22T18:36:20Z</time>
      </trkpt>
      <trkpt lat="38.563142" lon="-2.885896">
        <ele>890.353</ele>
        <time>2019-06-22T18:36:40Z</time>
      </trkpt>
      <trkpt lat="38.563628" lon="-2.885081">
        <ele>892.278</ele>
        <time>2019-06-22T18:37:00Z</time>
      </trkpt>
      <trkpt lat="38.564559" lon="-2.884512">
        <ele>883.196</ele>
        <time>2019-06-22T18:37:20Z</time>
      </trkpt>
      <trkpt lat="38.565021" lon="-2.883911">
        <ele>875.131</ele>
        <time>2019-06-22T18:37:40Z</time>
      </trkpt>
      <trkpt lat="38.565566" lon="-2.883600">
        <ele>873.924</ele>
        <time>2019-06-22T18:38:00Z</time>
      </trkpt>
      <trkpt lat="38.566598" lon="-2.883021">
        <ele>869.508</ele>
        <time>2019-06-22T18:38:20Z</time>
      </trkpt>
      <trkpt lat="38.566690" lon="-2.882806">
        <ele>868.892</ele>
        <time>2019-06-22T18:38:40Z</time>
      </trkpt>
      <trkpt lat="38.566615" lon="-2.882677">
        <ele>868.826</ele>
        <time>2019-06-22T18:39:00Z</time>
      </trkpt>
      <trkpt lat="38.566036" lon="-2.881958">
        <ele>866.178</ele>
        <time>2019-06-22T18:39:20Z</time>
      </trkpt>
      <trkpt lat="38.566019" lon="-2.881851">
        <ele>865.899</ele>
        <time>2019-06-22T18:39:40Z</time>
      </trkpt>
      <trkpt lat="38.566204" lon="-2.881454">
        <ele>865.813</ele>
        <time>2019-06-22T18:40:00Z</time>
      </trkpt>
      <trkpt lat="38.566472" lon="-2.881218">
        <ele>864.983</ele>
        <time>2019-06-22T18:40:20Z</time>
      </trkpt>
      <trkpt lat="38.566749" lon="-2.880585">
        <ele>862.746</ele>
        <time>2019-06-22T18:40:40Z</time>
      </trkpt>
      <trkpt lat="38.566992" lon="-2.879995">
        <ele>858.831</ele>
        <time>2019-06-22T18:41:00Z</time>
      </trkpt>
      <trkpt lat="38.567193" lon="-2.879620">
        <ele>857.675</ele>
        <time>2019-06-22T18:41:20Z</time>
      </trkpt>
      <trkpt lat="38.567336" lon="-2.879244">
        <ele>859.028</ele>
        <time>2019-06-22T18:41:40Z</time>
      </trkpt>
      <trkpt lat="38.567260" lon="-2.878729">
        <ele>858.620</ele>
        <time>2019-06-22T18:42:00Z</time>
      </trkpt>
      <trkpt lat="38.567151" lon="-2.878418">
        <ele>859.408</ele>
        <time>2019-06-22T18:42:20Z</time>
      </trkpt>
      <trkpt lat="38.567311" lon="-2.878085">
        <ele>857.930</ele>
        <time>2019-06-22T18:42:40Z</time>
      </trkpt>
      <trkpt lat="38.568267" lon="-2.875639">
        <ele>848.094</ele>
        <time>2019-06-22T18:43:00Z</time>
      </trkpt>
      <trkpt lat="38.568619" lon="-2.874663">
        <ele>846.886</ele>
        <time>2019-06-22T18:43:20Z</time>
      </trkpt>
      <trkpt lat="38.568519" lon="-2.874362">
        <ele>845.497</ele>
        <time>2019-06-22T18:43:40Z</time>
      </trkpt>
      <trkpt lat="38.568284" lon="-2.874212">
        <ele>844.331</ele>
        <time>2019-06-22T18:44:00Z</time>
      </trkpt>
      <trkpt lat="38.567932" lon="-2.873880">
        <ele>845.491</ele>
        <time>2019-06-22T18:44:20Z</time>
      </trkpt>
      <trkpt lat="38.567646" lon="-2.873654">
        <ele>844.724</ele>
        <time>2019-06-22T18:44:40Z</time>
      </trkpt>
      <trkpt lat="38.567286" lon="-2.873504">
        <ele>845.479</ele>
        <time>2019-06-22T18:45:00Z</time>
      </trkpt>
      <trkpt lat="38.567353" lon="-2.873182">
        <ele>847.326</ele>
        <time>2019-06-22T18:45:20Z</time>
      </trkpt>
      <trkpt lat="38.567697" lon="-2.873107">
        <ele>846.347</ele>
        <time>2019-06-22T18:45:40Z</time>
      </trkpt>
      <trkpt lat="38.568015" lon="-2.872893">
        <ele>850.011</ele>
        <time>2019-06-22T18:46:00Z</time>
      </trkpt>
      <trkpt lat="38.568158" lon="-2.872753">
        <ele>851.608</ele>
        <time>2019-06-22T18:46:20Z</time>
      </trkpt>
      <trkpt lat="38.568410" lon="-2.872603">
        <ele>851.535</ele>
        <time>2019-06-22T18:46:40Z</time>
      </trkpt>
      <trkpt lat="38.568687" lon="-2.872260">
        <ele>851.119</ele>
        <time>2019-06-22T18:47:00Z</time>
      </trkpt>
      <trkpt lat="38.569140" lon="-2.871884">
        <ele>852.561</ele>
        <time>2019-06-22T18:47:20Z</time>
      </trkpt>
      <trkpt lat="38.569475" lon="-2.871637">
        <ele>854.182</ele>
        <time>2019-06-22T18:47:40Z</time>
      </trkpt>
      <trkpt lat="38.569869" lon="-2.871004">
        <ele>856.596</ele>
        <time>2019-06-22T18:48:00Z</time>
      </trkpt>
      <trkpt lat="38.570356" lon="-2.870532">
        <ele>854.336</ele>
        <time>2019-06-22T18:48:20Z</time>
      </trkpt>
      <trkpt lat="38.570616" lon="-2.870307">
        <ele>854.099</ele>
        <time>2019-06-22T18:48:40Z</time>
      </trkpt>
      <trkpt lat="38.571388" lon="-2.870178">
        <ele>855.434</ele>
        <time>2019-06-22T18:49:00Z</time>
      </trkpt>
      <trkpt lat="38.571731" lon="-2.870039">
        <ele>855.419</ele>
        <time>2019-06-22T18:49:20Z</time>
      </trkpt>
      <trkpt lat="38.571983" lon="-2.869642">
        <ele>857.409</ele>
        <time>2019-06-22T18:49:40Z</time>
      </trkpt>
      <trkpt lat="38.572335" lon="-2.868977">
        <ele>860.719</ele>
        <time>2019-06-22T18:50:00Z</time>
      </trkpt>
      <trkpt lat="38.572704" lon="-2.868268">
        <ele>862.008</ele>
        <time>2019-06-22T18:50:20Z</time>
      </trkpt>
      <trkpt lat="38.573023" lon="-2.867850">
        <ele>863.164</ele>
        <time>2019-06-22T18:50:40Z</time>
      </trkpt>
      <trkpt lat="38.573434" lon="-2.867507">
        <ele>860.668</ele>
        <time>2019-06-22T18:51:00Z</time>
      </trkpt>
      <trkpt lat="38.573770" lon="-2.867303">
        <ele>860.010</ele>
        <time>2019-06-22T18:51:20Z</time>
      </trkpt>
      <trkpt lat="38.574273" lon="-2.866874">
        <ele>856.441</ele>
        <time>2019-06-22T18:51:40Z</time>
      </trkpt>
      <trkpt lat="38.574734" lon="-2.866316">
        <ele>855.345</ele>
        <time>2019-06-22T18:52:00Z</time>
      </trkpt>
      <trkpt lat="38.575003" lon="-2.866133">
        <ele>856.085</ele>
        <time>2019-06-22T18:52:20Z</time>
      </trkpt>
      <trkpt lat="38.574491" lon="-2.864825">
        <ele>864.288</ele>
        <time>2019-06-22T18:52:40Z</time>
      </trkpt>
      <trkpt lat="38.573996" lon="-2.864127">
        <ele>866.643</ele>
        <time>2019-06-22T18:53:00Z</time>
      </trkpt>
      <trkpt lat="38.573459" lon="-2.863312">
        <ele>872.253</ele>
        <time>2019-06-22T18:53:20Z</time>
      </trkpt>
      <trkpt lat="38.573023" lon="-2.862797">
        <ele>875.504</ele>
        <time>2019-06-22T18:53:40Z</time>
      </trkpt>
      <trkpt lat="38.572554" lon="-2.862368">
        <ele>880.214</ele>
        <time>2019-06-22T18:54:00Z</time>
      </trkpt>
      <trkpt lat="38.572243" lon="-2.861885">
        <ele>886.408</ele>
        <time>2019-06-22T18:54:20Z</time>
      </trkpt>
      <trkpt lat="38.571924" lon="-2.861252">
        <ele>895.288</ele>
        <time>2019-06-22T18:54:40Z</time>
      </trkpt>
      <trkpt lat="38.571530" lon="-2.860769">
        <ele>899.042</ele>
        <time>2019-06-22T18:55:00Z</time>
      </trkpt>
      <trkpt lat="38.571312" lon="-2.860243">
        <ele>897.334</ele>
        <time>2019-06-22T18:55:20Z</time>
      </trkpt>
      <trkpt lat="38.571027" lon="-2.859803">
        <ele>895.835</ele>
        <time>2019-06-22T18:55:40Z</time>
      </trkpt>
      <trkpt lat="38.570826" lon="-2.859117">
        <ele>899.519</ele>
        <time>2019-06-22T18:56:00Z</time>
      </trkpt>
      <trkpt lat="38.570641" lon="-2.858226">
        <ele>902.329</ele>
        <time>2019-06-22T18:56:20Z</time>
      </trkpt>
      <trkpt lat="38.570507" lon="-2.857679">
        <ele>901.262</ele>
        <time>2019-06-22T18:56:40Z</time>
      </trkpt>
      <trkpt lat="38.570364" lon="-2.856928">
        <ele>901.117</ele>
        <time>2019-06-22T18:57:00Z</time>
      </trkpt>
      <trkpt lat="38.570255" lon="-2.856714">
        <ele>902.473</ele>
        <time>2019-06-22T18:57:20Z</time>
      </trkpt>
      <trkpt lat="38.569819" lon="-2.856596">
        <ele>901.185</ele>
        <time>2019-06-22T18:57:40Z</time>
      </trkpt>
      <trkpt lat="38.569425" lon="-2.856467">
        <ele>900.413</ele>
        <time>2019-06-22T18:58:00Z</time>
      </trkpt>
      <trkpt lat="38.568376" lon="-2.856499">
        <ele>896.908</ele>
        <time>2019-06-22T18:58:20Z</time>
      </trkpt>
      <trkpt lat="38.567764" lon="-2.856542">
        <ele>891.960</ele>
        <time>2019-06-22T18:58:40Z</time>
      </trkpt>
      <trkpt lat="38.567252" lon="-2.856563">
        <ele>889.784</ele>
        <time>2019-06-22T18:59:00Z</time>
      </trkpt>
      <trkpt lat="38.566640" lon="-2.856327">
        <ele>887.746</ele>
        <time>2019-06-22T18:59:20Z</time>
      </trkpt>
      <trkpt lat="38.565851" lon="-2.855909">
        <ele>883.397</ele>
        <time>2019-06-22T18:59:40Z</time>
      </trkpt>
      <trkpt lat="38.565214" lon="-2.855630">
        <ele>878.471</ele>
        <time>2019-06-22T19:00:00Z</time>
      </trkpt>
      <trkpt lat="38.564744" lon="-2.855372">
        <ele>877.791</ele>
        <time>2019-06-22T19:00:20Z</time>
      </trkpt>
      <trkpt lat="38.564241" lon="-2.855287">
        <ele>874.584</ele>
        <time>2019-06-22T19:00:40Z</time>
      </trkpt>
      <trkpt lat="38.563771" lon="-2.855383">
        <ele>871.919</ele>
        <time>2019-06-22T19:01:00Z</time>
      </trkpt>
      <trkpt lat="38.563402" lon="-2.855523">
        <ele>869.432</ele>
        <time>2019-06-22T19:01:20Z</time>
      </trkpt>
      <trkpt lat="38.563058" lon="-2.855394">
        <ele>866.492</ele>
        <time>2019-06-22T19:01:40Z</time>
      </trkpt>
      <trkpt lat="38.562831" lon="-2.855136">
        <ele>865.411</ele>
        <time>2019-06-22T19:02:00Z</time>
      </trkpt>
      <trkpt lat="38.562772" lon="-2.854890">
        <ele>864.608</ele>
        <time>2019-06-22T19:02:20Z</time>
      </trkpt>
      <trkpt lat="38.562730" lon="-2.854106">
        <ele>864.636</ele>
        <time>2019-06-22T19:02:40Z</time>
      </trkpt>
      <trkpt lat="38.562546" lon="-2.853452">
        <ele>868.230</ele>
        <time>2019-06-22T19:03:00Z</time>
      </trkpt>
      <trkpt lat="38.562269" lon="-2.852808">
        <ele>868.982</ele>
        <time>2019-06-22T19:03:20Z</time>
      </trkpt>
      <trkpt lat="38.561975" lon="-2.852197">
        <ele>868.053</ele>
        <time>2019-06-22T19:03:40Z</time>
      </trkpt>
      <trkpt lat="38.561791" lon="-2.851746">
        <ele>867.767</ele>
        <time>2019-06-22T19:04:00Z</time>
      </trkpt>
      <trkpt lat="38.561506" lon="-2.851596">
        <ele>867.417</ele>
        <time>2019-06-22T19:04:20Z</time>
      </trkpt>
      <trkpt lat="38.561145" lon="-2.851800">
        <ele>864.350</ele>
        <time>2019-06-22T19:04:40Z</time>
      </trkpt>
      <trkpt lat="38.560809" lon="-2.851928">
        <ele>863.925</ele>
        <time>2019-06-22T19:05:00Z</time>
      </trkpt>
      <trkpt lat="38.559786" lon="-2.851982">
        <ele>858.725</ele>
        <time>2019-06-22T19:05:20Z</time>
      </trkpt>
      <trkpt lat="38.559501" lon="-2.852100">
        <ele>854.726</ele>
        <time>2019-06-22T19:05:40Z</time>
      </trkpt>
      <trkpt lat="38.559157" lon="-2.852486">
        <ele>851.808</ele>
        <time>2019-06-22T19:06:00Z</time>
      </trkpt>
      <trkpt lat="38.558880" lon="-2.852798">
        <ele>847.908</ele>
        <time>2019-06-22T19:06:20Z</time>
      </trkpt>
      <trkpt lat="38.558595" lon="-2.852894">
        <ele>845.295</ele>
        <time>2019-06-22T19:06:40Z</time>
      </trkpt>
      <trkpt lat="38.558427" lon="-2.852894">
        <ele>845.289</ele>
        <time>2019-06-22T19:07:00Z</time>
      </trkpt>
      <trkpt lat="38.558536" lon="-2.852519">
        <ele>846.931</ele>
        <time>2019-06-22T19:07:20Z</time>
      </trkpt>
      <trkpt lat="38.558410" lon="-2.852057">
        <ele>844.962</ele>
        <time>2019-06-22T19:07:40Z</time>
      </trkpt>
      <trkpt lat="38.558402" lon="-2.851456">
        <ele>842.056</ele>
        <time>2019-06-22T19:08:00Z</time>
      </trkpt>
      <trkpt lat="38.558477" lon="-2.850920">
        <ele>841.556</ele>
        <time>2019-06-22T19:08:20Z</time>
      </trkpt>
      <trkpt lat="38.558569" lon="-2.849482">
        <ele>831.199</ele>
        <time>2019-06-22T19:08:40Z</time>
      </trkpt>
      <trkpt lat="38.558712" lon="-2.848517">
        <ele>827.784</ele>
        <time>2019-06-22T19:09:00Z</time>
      </trkpt>
      <trkpt lat="38.558938" lon="-2.847433">
        <ele>823.882</ele>
        <time>2019-06-22T19:09:20Z</time>
      </trkpt>
      <trkpt lat="38.559073" lon="-2.846414">
        <ele>823.543</ele>
        <time>2019-06-22T19:09:40Z</time>
      </trkpt>
      <trkpt lat="38.559266" lon="-2.845738">
        <ele>821.117</ele>
        <time>2019-06-22T19:10:00Z</time>
      </trkpt>
      <trkpt lat="38.559475" lon="-2.845298">
        <ele>821.108</ele>
        <time>2019-06-22T19:10:20Z</time>
      </trkpt>
      <trkpt lat="38.559517" lon="-2.845030">
        <ele>822.241</ele>
        <time>2019-06-22T19:10:40Z</time>
      </trkpt>
      <trkpt lat="38.559526" lon="-2.844558">
        <ele>821.855</ele>
        <time>2019-06-22T19:11:00Z</time>
      </trkpt>
      <trkpt lat="38.559534" lon="-2.844311">
        <ele>820.917</ele>
        <time>2019-06-22T19:11:20Z</time>
      </trkpt>
      <trkpt lat="38.559618" lon="-2.843732">
        <ele>820.028</ele>
        <time>2019-06-22T19:11:40Z</time>
      </trkpt>
      <trkpt lat="38.559635" lon="-2.843260">
        <ele>820.652</ele>
        <time>2019-06-22T19:12:00Z</time>
      </trkpt>
      <trkpt lat="38.559635" lon="-2.842755">
        <ele>817.232</ele>
        <time>2019-06-22T19:12:20Z</time>
      </trkpt>
      <trkpt lat="38.559777" lon="-2.842187">
        <ele>814.195</ele>
        <time>2019-06-22T19:12:40Z</time>
      </trkpt>
      <trkpt lat="38.560180" lon="-2.841253">
        <ele>809.740</ele>
        <time>2019-06-22T19:13:00Z</time>
      </trkpt>
      <trkpt lat="38.560423" lon="-2.840717">
        <ele>808.078</ele>
        <time>2019-06-22T19:13:20Z</time>
      </trkpt>
      <trkpt lat="38.560507" lon="-2.840223">
        <ele>808.533</ele>
        <time>2019-06-22T19:13:40Z</time>
      </trkpt>
      <trkpt lat="38.560457" lon="-2.839880">
        <ele>806.126</ele>
        <time>2019-06-22T19:14:00Z</time>
      </trkpt>
      <trkpt lat="38.560298" lon="-2.839526">
        <ele>804.008</ele>
        <time>2019-06-22T19:14:20Z</time>
      </trkpt>
      <trkpt lat="38.560205" lon="-2.839311">
        <ele>804.570</ele>
        <time>2019-06-22T19:14:40Z</time>
      </trkpt>
      <trkpt lat="38.560205" lon="-2.838871">
        <ele>803.794</ele>
        <time>2019-06-22T19:15:00Z</time>
      </trkpt>
      <trkpt lat="38.559962" lon="-2.838292">
        <ele>801.086</ele>
        <time>2019-06-22T19:15:20Z</time>
      </trkpt>
      <trkpt lat="38.559828" lon="-2.837852">
        <ele>801.297</ele>
        <time>2019-06-22T19:15:40Z</time>
      </trkpt>
      <trkpt lat="38.559828" lon="-2.837327">
        <ele>800.211</ele>
        <time>2019-06-22T19:16:00Z</time>
      </trkpt>
      <trkpt lat="38.559979" lon="-2.836940">
        <ele>803.591</ele>
        <time>2019-06-22T19:16:20Z</time>
      </trkpt>
      <trkpt lat="38.560096" lon="-2.836694">
        <ele>803.714</ele>
        <time>2019-06-22T19:16:40Z</time>
      </trkpt>
      <trkpt lat="38.560054" lon="-2.836275">
        <ele>799.719</ele>
        <time>2019-06-22T19:17:00Z</time>
      </trkpt>
      <trkpt lat="38.560096" lon="-2.835749">
        <ele>801.359</ele>
        <time>2019-06-22T19:17:20Z</time>
      </trkpt>
      <trkpt lat="38.560180" lon="-2.835299">
        <ele>799.503</ele>
        <time>2019-06-22T19:17:40Z</time>
      </trkpt>
      <trkpt lat="38.560365" lon="-2.834880">
        <ele>797.223</ele>
        <time>2019-06-22T19:18:00Z</time>
      </trkpt>
      <trkpt lat="38.560398" lon="-2.834462">
        <ele>795.108</ele>
        <time>2019-06-22T19:18:20Z</time>
      </trkpt>
      <trkpt lat="38.560432" lon="-2.833700">
        <ele>796.988</ele>
        <time>2019-06-22T19:18:40Z</time>
      </trkpt>
      <trkpt lat="38.560516" lon="-2.832981">
        <ele>797.992</ele>
        <time>2019-06-22T19:19:00Z</time>
      </trkpt>
      <trkpt lat="38.560591" lon="-2.832230">
        <ele>793.964</ele>
        <time>2019-06-22T19:19:20Z</time>
      </trkpt>
      <trkpt lat="38.560507" lon="-2.832069">
        <ele>792.475</ele>
        <time>2019-06-22T19:19:40Z</time>
      </trkpt>
      <trkpt lat="38.560449" lon="-2.831790">
        <ele>791.669</ele>
        <time>2019-06-22T19:20:00Z</time>
      </trkpt>
      <trkpt lat="38.560482" lon="-2.831479">
        <ele>791.659</ele>
        <time>2019-06-22T19:20:20Z</time>
      </trkpt>
      <trkpt lat="38.560683" lon="-2.830814">
        <ele>789.532</ele>
        <time>2019-06-22T19:20:40Z</time>
      </trkpt>
      <trkpt lat="38.560843" lon="-2.830224">
        <ele>789.957</ele>
        <time>2019-06-22T19:21:00Z</time>
      </trkpt>
      <trkpt lat="38.561095" lon="-2.829752">
        <ele>789.049</ele>
        <time>2019-06-22T19:21:20Z</time>
      </trkpt>
      <trkpt lat="38.561699" lon="-2.829183">
        <ele>788.302</ele>
        <time>2019-06-22T19:21:40Z</time>
      </trkpt>
      <trkpt lat="38.562479" lon="-2.828829">
        <ele>790.022</ele>
        <time>2019-06-22T19:22:00Z</time>
      </trkpt>
      <trkpt lat="38.562781" lon="-2.828379">
        <ele>786.308</ele>
        <time>2019-06-22T19:22:20Z</time>
      </trkpt>
      <trkpt lat="38.563125" lon="-2.828057">
        <ele>782.877</ele>
        <time>2019-06-22T19:22:40Z</time>
      </trkpt>
      <trkpt lat="38.563603" lon="-2.827971">
        <ele>779.861</ele>
        <time>2019-06-22T19:23:00Z</time>
      </trkpt>
      <trkpt lat="38.564056" lon="-2.827660">
        <ele>779.153</ele>
        <time>2019-06-22T19:23:20Z</time>
      </trkpt>
      <trkpt lat="38.564215" lon="-2.827359">
        <ele>777.454</ele>
        <time>2019-06-22T19:23:40Z</time>
      </trkpt>
      <trkpt lat="38.564316" lon="-2.827113">
        <ele>776.518</ele>
        <time>2019-06-22T19:24:00Z</time>
      </trkpt>
      <trkpt lat="38.564408" lon="-2.826694">
        <ele>775.238</ele>
        <time>2019-06-22T19:24:20Z</time>
      </trkpt>
      <trkpt lat="38.564501" lon="-2.826394">
        <ele>774.621</ele>
        <time>2019-06-22T19:24:40Z</time>
      </trkpt>
      <trkpt lat="38.564677" lon="-2.826222">
        <ele>775.986</ele>
        <time>2019-06-22T19:25:00Z</time>
      </trkpt>
      <trkpt lat="38.564996" lon="-2.826340">
        <ele>780.484</ele>
        <time>2019-06-22T19:25:20Z</time>
      </trkpt>
      <trkpt lat="38.565063" lon="-2.826458">
        <ele>782.007</ele>
        <time>2019-06-22T19:25:40Z</time>
      </trkpt>
      <trkpt lat="38.565197" lon="-2.826748">
        <ele>785.217</ele>
        <time>2019-06-22T19:26:00Z</time>
      </trkpt>
      <trkpt lat="38.565373" lon="-2.827048">
        <ele>787.208</ele>
        <time>2019-06-22T19:26:20Z</time>
      </trkpt>
      <trkpt lat="38.565658" lon="-2.827274">
        <ele>789.161</ele>
        <time>2019-06-22T19:26:40Z</time>
      </trkpt>
      <trkpt lat="38.566220" lon="-2.827842">
        <ele>791.675</ele>
        <time>2019-06-22T19:27:00Z</time>
      </trkpt>
      <trkpt lat="38.567093" lon="-2.828518">
        <ele>802.277</ele>
        <time>2019-06-22T19:27:20Z</time>
      </trkpt>
      <trkpt lat="38.568150" lon="-2.829291">
        <ele>811.648</ele>
        <time>2019-06-22T19:27:40Z</time>
      </trkpt>
      <trkpt lat="38.569274" lon="-2.830085">
        <ele>811.932</ele>
        <time>2019-06-22T19:28:00Z</time>
      </trkpt>
      <trkpt lat="38.569483" lon="-2.829527">
        <ele>808.332</ele>
        <time>2019-06-22T19:28:20Z</time>
      </trkpt>
      <trkpt lat="38.569735" lon="-2.829205">
        <ele>805.415</ele>
        <time>2019-06-22T19:28:40Z</time>
      </trkpt>
      <trkpt lat="38.570154" lon="-2.828937">
        <ele>805.770</ele>
        <time>2019-06-22T19:29:00Z</time>
      </trkpt>
      <trkpt lat="38.570247" lon="-2.828561">
        <ele>806.526</ele>
        <time>2019-06-22T19:29:20Z</time>
      </trkpt>
      <trkpt lat="38.570490" lon="-2.828432">
        <ele>807.947</ele>
        <time>2019-06-22T19:29:40Z</time>
      </trkpt>
      <trkpt lat="38.570918" lon="-2.828346">
        <ele>810.611</ele>
        <time>2019-06-22T19:30:00Z</time>
      </trkpt>
      <trkpt lat="38.571262" lon="-2.828250">
        <ele>812.708</ele>
        <time>2019-06-22T19:30:20Z</time>
      </trkpt>
      <trkpt lat="38.571748" lon="-2.827992">
        <ele>817.425</ele>
        <time>2019-06-22T19:30:40Z</time>
      </trkpt>
      <trkpt lat="38.572948" lon="-2.828143">
        <ele>826.219</ele>
        <time>2019-06-22T19:31:00Z</time>
      </trkpt>
      <trkpt lat="38.573652" lon="-2.828143">
        <ele>826.591</ele>
        <time>2019-06-22T19:31:20Z</time>
      </trkpt>
      <trkpt lat="38.574047" lon="-2.828250">
        <ele>827.782</ele>
        <time>2019-06-22T19:31:40Z</time>
      </trkpt>
      <trkpt lat="38.575137" lon="-2.828003">
        <ele>831.666</ele>
        <time>2019-06-22T19:32:00Z</time>
      </trkpt>
      <trkpt lat="38.575556" lon="-2.828121">
        <ele>831.096</ele>
        <time>2019-06-22T19:32:20Z</time>
      </trkpt>
      <trkpt lat="38.575942" lon="-2.828228">
        <ele>829.659</ele>
        <time>2019-06-22T19:32:40Z</time>
      </trkpt>
      <trkpt lat="38.576613" lon="-2.828218">
        <ele>833.174</ele>
        <time>2019-06-22T19:33:00Z</time>
      </trkpt>
      <trkpt lat="38.577536" lon="-2.828679">
        <ele>838.196</ele>
        <time>2019-06-22T19:33:20Z</time>
      </trkpt>
      <trkpt lat="38.578534" lon="-2.828990">
        <ele>840.431</ele>
        <time>2019-06-22T19:33:40Z</time>
      </trkpt>
      <trkpt lat="38.579062" lon="-2.829237">
        <ele>840.324</ele>
        <time>2019-06-22T19:34:00Z</time>
      </trkpt>
      <trkpt lat="38.579238" lon="-2.829452">
        <ele>839.808</ele>
        <time>2019-06-22T19:34:20Z</time>
      </trkpt>
      <trkpt lat="38.579415" lon="-2.829752">
        <ele>838.882</ele>
        <time>2019-06-22T19:34:40Z</time>
      </trkpt>
      <trkpt lat="38.579574" lon="-2.829913">
        <ele>838.156</ele>
        <time>2019-06-22T19:35:00Z</time>
      </trkpt>
      <trkpt lat="38.580052" lon="-2.830031">
        <ele>830.638</ele>
        <time>2019-06-22T19:35:20Z</time>
      </trkpt>
      <trkpt lat="38.580387" lon="-2.830256">
        <ele>830.419</ele>
        <time>2019-06-22T19:35:40Z</time>
      </trkpt>
      <trkpt lat="38.581469" lon="-2.830074">
        <ele>810.973</ele>
        <time>2019-06-22T19:36:00Z</time>
      </trkpt>
      <trkpt lat="38.581780" lon="-2.830310">
        <ele>811.513</ele>
        <time>2019-06-22T19:36:20Z</time>
      </trkpt>
      <trkpt lat="38.582107" lon="-2.830385">
        <ele>809.246</ele>
        <time>2019-06-22T19:36:40Z</time>
      </trkpt>
      <trkpt lat="38.582417" lon="-2.830203">
        <ele>807.791</ele>
        <time>2019-06-22T19:37:00Z</time>
      </trkpt>
      <trkpt lat="38.582660" lon="-2.829849">
        <ele>809.844</ele>
        <time>2019-06-22T19:37:20Z</time>
      </trkpt>
      <trkpt lat="38.582954" lon="-2.830031">
        <ele>810.005</ele>
        <time>2019-06-22T19:37:40Z</time>
      </trkpt>
      <trkpt lat="38.583340" lon="-2.830213">
        <ele>812.015</ele>
        <time>2019-06-22T19:38:00Z</time>
      </trkpt>
      <trkpt lat="38.583700" lon="-2.830245">
        <ele>817.008</ele>
        <time>2019-06-22T19:38:20Z</time>
      </trkpt>
      <trkpt lat="38.584002" lon="-2.830460">
        <ele>819.437</ele>
        <time>2019-06-22T19:38:40Z</time>
      </trkpt>
      <trkpt lat="38.584422" lon="-2.830235">
        <ele>826.681</ele>
        <time>2019-06-22T19:39:00Z</time>
      </trkpt>
      <trkpt lat="38.584950" lon="-2.829924">
        <ele>834.053</ele>
        <time>2019-06-22T19:39:20Z</time>
      </trkpt>
      <trkpt lat="38.585596" lon="-2.829087">
        <ele>848.294</ele>
        <time>2019-06-22T19:39:40Z</time>
      </trkpt>
      <trkpt lat="38.585705" lon="-2.828733">
        <ele>851.778</ele>
        <time>2019-06-22T19:40:00Z</time>
      </trkpt>
      <trkpt lat="38.585872" lon="-2.828454">
        <ele>853.388</ele>
        <time>2019-06-22T19:40:20Z</time>
      </trkpt>
      <trkpt lat="38.586493" lon="-2.828196">
        <ele>856.341</ele>
        <time>2019-06-22T19:40:40Z</time>
      </trkpt>
      <trkpt lat="38.587793" lon="-2.827746">
        <ele>868.416</ele>
        <time>2019-06-22T19:41:00Z</time>
      </trkpt>
      <trkpt lat="38.588103" lon="-2.827842">
        <ele>870.866</ele>
        <time>2019-06-22T19:41:20Z</time>
      </trkpt>
      <trkpt lat="38.588506" lon="-2.827799">
        <ele>872.829</ele>
        <time>2019-06-22T19:41:40Z</time>
      </trkpt>
      <trkpt lat="38.588875" lon="-2.827928">
        <ele>880.021</ele>
        <time>2019-06-22T19:42:00Z</time>
      </trkpt>
      <trkpt lat="38.589235" lon="-2.827907">
        <ele>882.608</ele>
        <time>2019-06-22T19:42:20Z</time>
      </trkpt>
      <trkpt lat="38.589663" lon="-2.828110">
        <ele>886.919</ele>
        <time>2019-06-22T19:42:40Z</time>
      </trkpt>
      <trkpt lat="38.590342" lon="-2.828153">
        <ele>889.533</ele>
        <time>2019-06-22T19:43:00Z</time>
      </trkpt>
      <trkpt lat="38.590954" lon="-2.828186">
        <ele>893.595</ele>
        <time>2019-06-22T19:43:20Z</time>
      </trkpt>
      <trkpt lat="38.591659" lon="-2.828400">
        <ele>894.596</ele>
        <time>2019-06-22T19:43:40Z</time>
      </trkpt>
      <trkpt lat="38.591944" lon="-2.828690">
        <ele>894.610</ele>
        <time>2019-06-22T19:44:00Z</time>
      </trkpt>
      <trkpt lat="38.592355" lon="-2.828701">
        <ele>892.070</ele>
        <time>2019-06-22T19:44:20Z</time>
      </trkpt>
      <trkpt lat="38.592699" lon="-2.828658">
        <ele>888.063</ele>
        <time>2019-06-22T19:44:40Z</time>
      </trkpt>
      <trkpt lat="38.593017" lon="-2.828904">
        <ele>880.858</ele>
        <time>2019-06-22T19:45:00Z</time>
      </trkpt>
      <trkpt lat="38.593235" lon="-2.829226">
        <ele>877.147</ele>
        <time>2019-06-22T19:45:20Z</time>
      </trkpt>
      <trkpt lat="38.593495" lon="-2.829484">
        <ele>874.329</ele>
        <time>2019-06-22T19:45:40Z</time>
      </trkpt>
      <trkpt lat="38.595499" lon="-2.830492">
        <ele>859.221</ele>
        <time>2019-06-22T19:46:00Z</time>
      </trkpt>
      <trkpt lat="38.596246" lon="-2.828647">
        <ele>858.708</ele>
        <time>2019-06-22T19:46:20Z</time>
      </trkpt>
      <trkpt lat="38.596539" lon="-2.827638">
        <ele>867.037</ele>
        <time>2019-06-22T19:46:40Z</time>
      </trkpt>
      <trkpt lat="38.596481" lon="-2.827188">
        <ele>867.991</ele>
        <time>2019-06-22T19:47:00Z</time>
      </trkpt>
      <trkpt lat="38.596665" lon="-2.826394">
        <ele>870.063</ele>
        <time>2019-06-22T19:47:20Z</time>
      </trkpt>
      <trkpt lat="38.597017" lon="-2.825793">
        <ele>869.194</ele>
        <time>2019-06-22T19:47:40Z</time>
      </trkpt>
      <trkpt lat="38.597353" lon="-2.824795">
        <ele>867.518</ele>
        <time>2019-06-22T19:48:00Z</time>
      </trkpt>
      <trkpt lat="38.597151" lon="-2.824173">
        <ele>867.328</ele>
        <time>2019-06-22T19:48:20Z</time>
      </trkpt>
      <trkpt lat="38.596900" lon="-2.823561">
        <ele>863.811</ele>
        <time>2019-06-22T19:48:40Z</time>
      </trkpt>
      <trkpt lat="38.596782" lon="-2.822853">
        <ele>858.486</ele>
        <time>2019-06-22T19:49:00Z</time>
      </trkpt>
      <trkpt lat="38.596539" lon="-2.822306">
        <ele>857.219</ele>
        <time>2019-06-22T19:49:20Z</time>
      </trkpt>
      <trkpt lat="38.596044" lon="-2.821748">
        <ele>856.709</ele>
        <time>2019-06-22T19:49:40Z</time>
      </trkpt>
      <trkpt lat="38.595458" lon="-2.821008">
        <ele>848.719</ele>
        <time>2019-06-22T19:50:00Z</time>
      </trkpt>
      <trkpt lat="38.595130" lon="-2.820761">
        <ele>846.008</ele>
        <time>2019-06-22T19:50:20Z</time>
      </trkpt>
      <trkpt lat="38.594183" lon="-2.820311">
        <ele>844.564</ele>
        <time>2019-06-22T19:50:40Z</time>
      </trkpt>
      <trkpt lat="38.593571" lon="-2.820075">
        <ele>844.888</ele>
        <time>2019-06-22T19:51:00Z</time>
      </trkpt>
      <trkpt lat="38.593219" lon="-2.820032">
        <ele>845.360</ele>
        <time>2019-06-22T19:51:20Z</time>
      </trkpt>
      <trkpt lat="38.592816" lon="-2.819935">
        <ele>845.731</ele>
        <time>2019-06-22T19:51:40Z</time>
      </trkpt>
      <trkpt lat="38.592019" lon="-2.819999">
        <ele>847.735</ele>
        <time>2019-06-22T19:52:00Z</time>
      </trkpt>
      <trkpt lat="38.591558" lon="-2.820032">
        <ele>846.815</ele>
        <time>2019-06-22T19:52:20Z</time>
      </trkpt>
      <trkpt lat="38.591357" lon="-2.820171">
        <ele>846.248</ele>
        <time>2019-06-22T19:52:40Z</time>
      </trkpt>
      <trkpt lat="38.591214" lon="-2.820396">
        <ele>848.483</ele>
        <time>2019-06-22T19:53:00Z</time>
      </trkpt>
      <trkpt lat="38.590913" lon="-2.820514">
        <ele>848.085</ele>
        <time>2019-06-22T19:53:20Z</time>
      </trkpt>
      <trkpt lat="38.590585" lon="-2.820493">
        <ele>846.689</ele>
        <time>2019-06-22T19:53:40Z</time>
      </trkpt>
      <trkpt lat="38.589948" lon="-2.820847">
        <ele>843.517</ele>
        <time>2019-06-22T19:54:00Z</time>
      </trkpt>
      <trkpt lat="38.589755" lon="-2.821126">
        <ele>843.308</ele>
        <time>2019-06-22T19:54:20Z</time>
      </trkpt>
      <trkpt lat="38.589579" lon="-2.821169">
        <ele>844.481</ele>
        <time>2019-06-22T19:54:40Z</time>
      </trkpt>
      <trkpt lat="38.589126" lon="-2.821083">
        <ele>845.445</ele>
        <time>2019-06-22T19:55:00Z</time>
      </trkpt>
      <trkpt lat="38.588858" lon="-2.821083">
        <ele>843.557</ele>
        <time>2019-06-22T19:55:20Z</time>
      </trkpt>
      <trkpt lat="38.588145" lon="-2.821566">
        <ele>843.928</ele>
        <time>2019-06-22T19:55:40Z</time>
      </trkpt>
      <trkpt lat="38.587734" lon="-2.821673">
        <ele>843.822</ele>
        <time>2019-06-22T19:56:00Z</time>
      </trkpt>
      <trkpt lat="38.587256" lon="-2.821984">
        <ele>842.542</ele>
        <time>2019-06-22T19:56:20Z</time>
      </trkpt>
      <trkpt lat="38.586812" lon="-2.822006">
        <ele>837.985</ele>
        <time>2019-06-22T19:56:40Z</time>
      </trkpt>
      <trkpt lat="38.586191" lon="-2.821791">
        <ele>834.070</ele>
        <time>2019-06-22T19:57:00Z</time>
      </trkpt>
      <trkpt lat="38.585361" lon="-2.821512">
        <ele>833.357</ele>
        <time>2019-06-22T19:57:20Z</time>
      </trkpt>
      <trkpt lat="38.584958" lon="-2.821190">
        <ele>830.000</ele>
        <time>2019-06-22T19:57:40Z</time>
      </trkpt>
      <trkpt lat="38.584514" lon="-2.821019">
        <ele>829.320</ele>
        <time>2019-06-22T19:58:00Z</time>
      </trkpt>
      <trkpt lat="38.583935" lon="-2.820826">
        <ele>828.208</ele>
        <time>2019-06-22T19:58:20Z</time>
      </trkpt>
      <trkpt lat="38.583340" lon="-2.820439">
        <ele>826.518</ele>
        <time>2019-06-22T19:58:40Z</time>
      </trkpt>
      <trkpt lat="38.583063" lon="-2.820364">
        <ele>825.742</ele>
        <time>2019-06-22T19:59:00Z</time>
      </trkpt>
      <trkpt lat="38.582677" lon="-2.820107">
        <ele>824.134</ele>
        <time>2019-06-22T19:59:20Z</time>
      </trkpt>
      <trkpt lat="38.582191" lon="-2.819903">
        <ele>818.765</ele>
        <time>2019-06-22T19:59:40Z</time>
      </trkpt>
      <trkpt lat="38.581771" lon="-2.819871">
        <ele>814.919</ele>
        <time>2019-06-22T20:00:00Z</time>
      </trkpt>
      <trkpt lat="38.581503" lon="-2.819774">
        <ele>813.999</ele>
        <time>2019-06-22T20:00:20Z</time>
      </trkpt>
      <trkpt lat="38.580748" lon="-2.819806">
        <ele>813.142</ele>
        <time>2019-06-22T20:00:40Z</time>
      </trkpt>
      <trkpt lat="38.580270" lon="-2.819828">
        <ele>816.027</ele>
        <time>2019-06-22T20:01:00Z</time>
      </trkpt>
      <trkpt lat="38.579490" lon="-2.820042">
        <ele>812.471</ele>
        <time>2019-06-22T20:01:20Z</time>
      </trkpt>
      <trkpt lat="38.578878" lon="-2.820096">
        <ele>808.941</ele>
        <time>2019-06-22T20:01:40Z</time>
      </trkpt>
      <trkpt lat="38.578467" lon="-2.820128">
        <ele>804.915</ele>
        <time>2019-06-22T20:02:00Z</time>
      </trkpt>
      <trkpt lat="38.577964" lon="-2.820171">
        <ele>798.308</ele>
        <time>2019-06-22T20:02:20Z</time>
      </trkpt>
      <trkpt lat="38.577452" lon="-2.820171">
        <ele>793.720</ele>
        <time>2019-06-22T20:02:40Z</time>
      </trkpt>
      <trkpt lat="38.577133" lon="-2.820160">
        <ele>791.884</ele>
        <time>2019-06-22T20:03:00Z</time>
      </trkpt>
      <trkpt lat="38.576999" lon="-2.820160">
        <ele>790.316</ele>
        <time>2019-06-22T20:03:20Z</time>
      </trkpt>
      <trkpt lat="38.576705" lon="-2.819935">
        <ele>783.847</ele>
        <time>2019-06-22T20:03:40Z</time>
      </trkpt>
      <trkpt lat="38.576521" lon="-2.819774">
        <ele>779.461</ele>
        <time>2019-06-22T20:04:00Z</time>
      </trkpt>
      <trkpt lat="38.576454" lon="-2.819517">
        <ele>776.381</ele>
        <time>2019-06-22T20:04:20Z</time>
      </trkpt>
      <trkpt lat="38.576362" lon="-2.819431">
        <ele>775.334</ele>
        <time>2019-06-22T20:04:40Z</time>
      </trkpt>
      <trkpt lat="38.576261" lon="-2.819366">
        <ele>776.599</ele>
        <time>2019-06-22T20:05:00Z</time>
      </trkpt>
      <trkpt lat="38.576118" lon="-2.819088">
        <ele>778.621</ele>
        <time>2019-06-22T20:05:20Z</time>
      </trkpt>
      <trkpt lat="38.575825" lon="-2.818787">
        <ele>780.441</ele>
        <time>2019-06-22T20:05:40Z</time>
      </trkpt>
      <trkpt lat="38.575456" lon="-2.818422">
        <ele>782.405</ele>
        <time>2019-06-22T20:06:00Z</time>
      </trkpt>
      <trkpt lat="38.575187" lon="-2.818294">
        <ele>781.608</ele>
        <time>2019-06-22T20:06:20Z</time>
      </trkpt>
      <trkpt lat="38.574969" lon="-2.818068">
        <ele>779.795</ele>
        <time>2019-06-22T20:06:40Z</time>
      </trkpt>
      <trkpt lat="38.574692" lon="-2.817972">
        <ele>777.899</ele>
        <time>2019-06-22T20:07:00Z</time>
      </trkpt>
      <trkpt lat="38.574533" lon="-2.817875">
        <ele>777.861</ele>
        <time>2019-06-22T20:07:20Z</time>
      </trkpt>
      <trkpt lat="38.574416" lon="-2.818015">
        <ele>776.042</ele>
        <time>2019-06-22T20:07:40Z</time>
      </trkpt>
      <trkpt lat="38.574323" lon="-2.818240">
        <ele>774.376</ele>
        <time>2019-06-22T20:08:00Z</time>
      </trkpt>
      <trkpt lat="38.574181" lon="-2.818326">
        <ele>773.196</ele>
        <time>2019-06-22T20:08:20Z</time>
      </trkpt>
      <trkpt lat="38.574080" lon="-2.818444">
        <ele>774.739</ele>
        <time>2019-06-22T20:08:40Z</time>
      </trkpt>
      <trkpt lat="38.574097" lon="-2.818766">
        <ele>780.594</ele>
        <time>2019-06-22T20:09:00Z</time>
      </trkpt>
      <trkpt lat="38.574307" lon="-2.819012">
        <ele>783.017</ele>
        <time>2019-06-22T20:09:20Z</time>
      </trkpt>
      <trkpt lat="38.574718" lon="-2.819463">
        <ele>786.487</ele>
        <time>2019-06-22T20:09:40Z</time>
      </trkpt>
      <trkpt lat="38.574776" lon="-2.819688">
        <ele>790.415</ele>
        <time>2019-06-22T20:10:00Z</time>
      </trkpt>
      <trkpt lat="38.574726" lon="-2.819892">
        <ele>794.408</ele>
        <time>2019-06-22T20:10:20Z</time>
      </trkpt>
      <trkpt lat="38.574634" lon="-2.820096">
        <ele>797.574</ele>
        <time>2019-06-22T20:10:40Z</time>
      </trkpt>
      <trkpt lat="38.574541" lon="-2.820343">
        <ele>800.738</ele>
        <time>2019-06-22T20:11:00Z</time>
      </trkpt>
      <trkpt lat="38.574432" lon="-2.820514">
        <ele>803.040</ele>
        <time>2019-06-22T20:11:20Z</time>
      </trkpt>
      <trkpt lat="38.573996" lon="-2.820718">
        <ele>809.221</ele>
        <time>2019-06-22T20:11:40Z</time>
      </trkpt>
      <trkpt lat="38.573644" lon="-2.820729">
        <ele>812.895</ele>
        <time>2019-06-22T20:12:00Z</time>
      </trkpt>
      <trkpt lat="38.573468" lon="-2.820611">
        <ele>813.715</ele>
        <time>2019-06-22T20:12:20Z</time>
      </trkpt>
      <trkpt lat="38.573266" lon="-2.820439">
        <ele>812.298</ele>
        <time>2019-06-22T20:12:40Z</time>
      </trkpt>
      <trkpt lat="38.572948" lon="-2.820525">
        <ele>815.673</ele>
        <time>2019-06-22T20:13:00Z</time>
      </trkpt>
      <trkpt lat="38.572537" lon="-2.820675">
        <ele>821.595</ele>
        <time>2019-06-22T20:13:20Z</time>
      </trkpt>
      <trkpt lat="38.572310" lon="-2.820643">
        <ele>823.049</ele>
        <time>2019-06-22T20:13:40Z</time>
      </trkpt>
      <trkpt lat="38.572040" lon="-2.820549">
        <ele>823.623</ele>
        <time>2019-06-22T20:14:00Z</time>
      </trkpt>
      <trkpt lat="38.571782" lon="-2.820533">
        <ele>824.008</ele>
        <time>2019-06-22T20:14:20Z</time>
      </trkpt>
      <trkpt lat="38.571463" lon="-2.820257">
        <ele>824.352</ele>
        <time>2019-06-22T20:14:40Z</time>
      </trkpt>
      <trkpt lat="38.571018" lon="-2.820053">
        <ele>824.936</ele>
        <time>2019-06-22T20:15:00Z</time>
      </trkpt>
      <trkpt lat="38.570373" lon="-2.819881">
        <ele>822.628</ele>
        <time>2019-06-22T20:15:20Z</time>
      </trkpt>
      <trkpt lat="38.569978" lon="-2.819699">
        <ele>822.849</ele>
        <time>2019-06-22T20:15:40Z</time>
      </trkpt>
      <trkpt lat="38.569542" lon="-2.819495">
        <ele>823.643</ele>
        <time>2019-06-22T20:16:00Z</time>
      </trkpt>
      <trkpt lat="38.568879" lon="-2.818884">
        <ele>825.023</ele>
        <time>2019-06-22T20:16:20Z</time>
      </trkpt>
      <trkpt lat="38.568611" lon="-2.818530">
        <ele>824.746</ele>
        <time>2019-06-22T20:16:40Z</time>
      </trkpt>
      <trkpt lat="38.568452" lon="-2.818047">
        <ele>824.061</ele>
        <time>2019-06-22T20:17:00Z</time>
      </trkpt>
      <trkpt lat="38.568074" lon="-2.817349">
        <ele>824.095</ele>
        <time>2019-06-22T20:17:20Z</time>
      </trkpt>
      <trkpt lat="38.567697" lon="-2.816695">
        <ele>822.449</ele>
        <time>2019-06-22T20:17:40Z</time>
      </trkpt>
      <trkpt lat="38.567118" lon="-2.815890">
        <ele>819.523</ele>
        <time>2019-06-22T20:18:00Z</time>
      </trkpt>
      <trkpt lat="38.566757" lon="-2.815493">
        <ele>818.708</ele>
        <time>2019-06-22T20:18:20Z</time>
      </trkpt>
      <trkpt lat="38.566698" lon="-2.815365">
        <ele>818.942</ele>
        <time>2019-06-22T20:18:40Z</time>
      </trkpt>
      <trkpt lat="38.566740" lon="-2.814935">
        <ele>817.446</ele>
        <time>2019-06-22T20:19:00Z</time>
      </trkpt>
      <trkpt lat="38.567021" lon="-2.814340">
        <ele>804.178</ele>
        <time>2019-06-22T20:19:20Z</time>
      </trkpt>
      <trkpt lat="38.567156" lon="-2.813986">
        <ele>802.099</ele>
        <time>2019-06-22T20:19:40Z</time>
      </trkpt>
      <trkpt lat="38.567177" lon="-2.813734">
        <ele>800.173</ele>
        <time>2019-06-22T20:20:00Z</time>
      </trkpt>
      <trkpt lat="38.567286" lon="-2.813466">
        <ele>796.243</ele>
        <time>2019-06-22T20:20:20Z</time>
      </trkpt>
      <trkpt lat="38.567277" lon="-2.813278">
        <ele>795.926</ele>
        <time>2019-06-22T20:20:40Z</time>
      </trkpt>
      <trkpt lat="38.567449" lon="-2.812994">
        <ele>793.461</ele>
        <time>2019-06-22T20:21:00Z</time>
      </trkpt>
      <trkpt lat="38.567630" lon="-2.812607">
        <ele>787.983</ele>
        <time>2019-06-22T20:21:20Z</time>
      </trkpt>
      <trkpt lat="38.567852" lon="-2.812318">
        <ele>783.425</ele>
        <time>2019-06-22T20:21:40Z</time>
      </trkpt>
      <trkpt lat="38.567940" lon="-2.812092">
        <ele>781.817</ele>
        <time>2019-06-22T20:22:00Z</time>
      </trkpt>
      <trkpt lat="38.568137" lon="-2.811829">
        <ele>778.008</ele>
        <time>2019-06-22T20:22:20Z</time>
      </trkpt>
      <trkpt lat="38.568229" lon="-2.811647">
        <ele>776.491</ele>
        <time>2019-06-22T20:22:40Z</time>
      </trkpt>
      <trkpt lat="38.568234" lon="-2.811470">
        <ele>775.965</ele>
        <time>2019-06-22T20:23:00Z</time>
      </trkpt>
      <trkpt lat="38.568141" lon="-2.811266">
        <ele>775.487</ele>
        <time>2019-06-22T20:23:20Z</time>
      </trkpt>
      <trkpt lat="38.568125" lon="-2.811111">
        <ele>774.278</ele>
        <time>2019-06-22T20:23:40Z</time>
      </trkpt>
      <trkpt lat="38.568015" lon="-2.810563">
        <ele>766.592</ele>
        <time>2019-06-22T20:24:00Z</time>
      </trkpt>
      <trkpt lat="38.567978" lon="-2.810231">
        <ele>765.142</ele>
        <time>2019-06-22T20:24:20Z</time>
      </trkpt>
      <trkpt lat="38.568007" lon="-2.810006">
        <ele>763.145</ele>
        <time>2019-06-22T20:24:40Z</time>
      </trkpt>
      <trkpt lat="38.568095" lon="-2.809877">
        <ele>761.390</ele>
        <time>2019-06-22T20:25:00Z</time>
      </trkpt>
      <trkpt lat="38.568347" lon="-2.809920">
        <ele>759.079</ele>
        <time>2019-06-22T20:25:20Z</time>
      </trkpt>
      <trkpt lat="38.568603" lon="-2.809930">
        <ele>758.805</ele>
        <time>2019-06-22T20:25:40Z</time>
      </trkpt>
      <trkpt lat="38.568858" lon="-2.809930">
        <ele>759.925</ele>
        <time>2019-06-22T20:26:00Z</time>
      </trkpt>
      <trkpt lat="38.569039" lon="-2.810048">
        <ele>762.008</ele>
        <time>2019-06-22T20:26:20Z</time>
      </trkpt>
      <trkpt lat="38.569253" lon="-2.810118">
        <ele>764.610</ele>
        <time>2019-06-22T20:26:40Z</time>
      </trkpt>
      <trkpt lat="38.569383" lon="-2.810322">
        <ele>768.574</ele>
        <time>2019-06-22T20:27:00Z</time>
      </trkpt>
      <trkpt lat="38.569588" lon="-2.810563">
        <ele>773.096</ele>
        <time>2019-06-22T20:27:20Z</time>
      </trkpt>
      <trkpt lat="38.569764" lon="-2.810778">
        <ele>775.237</ele>
        <time>2019-06-22T20:27:40Z</time>
      </trkpt>
      <trkpt lat="38.569936" lon="-2.810987">
        <ele>777.791</ele>
        <time>2019-06-22T20:28:00Z</time>
      </trkpt>
      <trkpt lat="38.570100" lon="-2.811239">
        <ele>780.321</ele>
        <time>2019-06-22T20:28:20Z</time>
      </trkpt>
      <trkpt lat="38.570184" lon="-2.811475">
        <ele>782.344</ele>
        <time>2019-06-22T20:28:40Z</time>
      </trkpt>
      <trkpt lat="38.570326" lon="-2.811658">
        <ele>784.029</ele>
        <time>2019-06-22T20:29:00Z</time>
      </trkpt>
      <trkpt lat="38.570448" lon="-2.811760">
        <ele>783.955</ele>
        <time>2019-06-22T20:29:20Z</time>
      </trkpt>
      <trkpt lat="38.570528" lon="-2.811883">
        <ele>784.507</ele>
        <time>2019-06-22T20:29:40Z</time>
      </trkpt>
      <trkpt lat="38.570603" lon="-2.812135">
        <ele>786.817</ele>
        <time>2019-06-22T20:30:00Z</time>
      </trkpt>
      <trkpt lat="38.570675" lon="-2.812339">
        <ele>789.408</ele>
        <time>2019-06-22T20:30:20Z</time>
      </trkpt>
      <trkpt lat="38.570758" lon="-2.812462">
        <ele>791.188</ele>
        <time>2019-06-22T20:30:40Z</time>
      </trkpt>
      <trkpt lat="38.571035" lon="-2.812639">
        <ele>792.022</ele>
        <time>2019-06-22T20:31:00Z</time>
      </trkpt>
      <trkpt lat="38.571262" lon="-2.812774">
        <ele>793.684</ele>
        <time>2019-06-22T20:31:20Z</time>
      </trkpt>
      <trkpt lat="38.571421" lon="-2.812876">
        <ele>795.355</ele>
        <time>2019-06-22T20:31:40Z</time>
      </trkpt>
      <trkpt lat="38.571652" lon="-2.812951">
        <ele>797.899</ele>
        <time>2019-06-22T20:32:00Z</time>
      </trkpt>
      <trkpt lat="38.571786" lon="-2.813053">
        <ele>798.089</ele>
        <time>2019-06-22T20:32:20Z</time>
      </trkpt>
      <trkpt lat="38.572193" lon="-2.813203">
        <ele>799.982</ele>
        <time>2019-06-22T20:32:40Z</time>
      </trkpt>
      <trkpt lat="38.572788" lon="-2.813637">
        <ele>804.357</ele>
        <time>2019-06-22T20:33:00Z</time>
      </trkpt>
      <trkpt lat="38.572876" lon="-2.813873">
        <ele>807.315</ele>
        <time>2019-06-22T20:33:20Z</time>
      </trkpt>
      <trkpt lat="38.573082" lon="-2.814238">
        <ele>811.965</ele>
        <time>2019-06-22T20:33:40Z</time>
      </trkpt>
      <trkpt lat="38.573527" lon="-2.814372">
        <ele>812.111</ele>
        <time>2019-06-22T20:34:00Z</time>
      </trkpt>
      <trkpt lat="38.574072" lon="-2.814345">
        <ele>810.608</ele>
        <time>2019-06-22T20:34:20Z</time>
      </trkpt>
      <trkpt lat="38.574885" lon="-2.814517">
        <ele>822.684</ele>
        <time>2019-06-22T20:34:40Z</time>
      </trkpt>
      <trkpt lat="38.575380" lon="-2.814378">
        <ele>830.668</ele>
        <time>2019-06-22T20:35:00Z</time>
      </trkpt>
      <trkpt lat="38.575791" lon="-2.814324">
        <ele>838.710</ele>
        <time>2019-06-22T20:35:20Z</time>
      </trkpt>
      <trkpt lat="38.576244" lon="-2.814474">
        <ele>842.841</ele>
        <time>2019-06-22T20:35:40Z</time>
      </trkpt>
      <trkpt lat="38.576563" lon="-2.814635">
        <ele>841.465</ele>
        <time>2019-06-22T20:36:00Z</time>
      </trkpt>
      <trkpt lat="38.577184" lon="-2.814732">
        <ele>842.045</ele>
        <time>2019-06-22T20:36:20Z</time>
      </trkpt>
      <trkpt lat="38.578366" lon="-2.814882">
        <ele>835.388</ele>
        <time>2019-06-22T20:36:40Z</time>
      </trkpt>
      <trkpt lat="38.579087" lon="-2.814968">
        <ele>828.653</ele>
        <time>2019-06-22T20:37:00Z</time>
      </trkpt>
      <trkpt lat="38.579641" lon="-2.815032">
        <ele>832.095</ele>
        <time>2019-06-22T20:37:20Z</time>
      </trkpt>
      <trkpt lat="38.580119" lon="-2.815225">
        <ele>833.149</ele>
        <time>2019-06-22T20:37:40Z</time>
      </trkpt>
      <trkpt lat="38.581805" lon="-2.814807">
        <ele>834.223</ele>
        <time>2019-06-22T20:38:00Z</time>
      </trkpt>
      <trkpt lat="38.582484" lon="-2.814420">
        <ele>836.008</ele>
        <time>2019-06-22T20:38:20Z</time>
      </trkpt>
      <trkpt lat="38.583013" lon="-2.813970">
        <ele>837.882</ele>
        <time>2019-06-22T20:38:40Z</time>
      </trkpt>
      <trkpt lat="38.583424" lon="-2.813637">
        <ele>838.426</ele>
        <time>2019-06-22T20:39:00Z</time>
      </trkpt>
      <trkpt lat="38.584531" lon="-2.812672">
        <ele>835.338</ele>
        <time>2019-06-22T20:39:20Z</time>
      </trkpt>
      <trkpt lat="38.585352" lon="-2.812479">
        <ele>839.749</ele>
        <time>2019-06-22T20:39:40Z</time>
      </trkpt>
      <trkpt lat="38.586250" lon="-2.812843">
        <ele>843.443</ele>
        <time>2019-06-22T20:40:00Z</time>
      </trkpt>
      <trkpt lat="38.586585" lon="-2.812865">
        <ele>845.613</ele>
        <time>2019-06-22T20:40:20Z</time>
      </trkpt>
      <trkpt lat="38.586812" lon="-2.813058">
        <ele>846.586</ele>
        <time>2019-06-22T20:40:40Z</time>
      </trkpt>
      <trkpt lat="38.588011" lon="-2.812951">
        <ele>852.131</ele>
        <time>2019-06-22T20:41:00Z</time>
      </trkpt>
      <trkpt lat="38.588405" lon="-2.813230">
        <ele>856.366</ele>
        <time>2019-06-22T20:41:20Z</time>
      </trkpt>
      <trkpt lat="38.590585" lon="-2.813455">
        <ele>856.029</ele>
        <time>2019-06-22T20:41:40Z</time>
      </trkpt>
      <trkpt lat="38.592196" lon="-2.814217">
        <ele>857.721</ele>
        <time>2019-06-22T20:42:00Z</time>
      </trkpt>
      <trkpt lat="38.594401" lon="-2.814249">
        <ele>857.808</ele>
        <time>2019-06-22T20:42:20Z</time>
      </trkpt>
      <trkpt lat="38.595290" lon="-2.814066">
        <ele>859.459</ele>
        <time>2019-06-22T20:42:40Z</time>
      </trkpt>
      <trkpt lat="38.597118" lon="-2.813315">
        <ele>864.983</ele>
        <time>2019-06-22T20:43:00Z</time>
      </trkpt>
      <trkpt lat="38.597738" lon="-2.813423">
        <ele>862.285</ele>
        <time>2019-06-22T20:43:20Z</time>
      </trkpt>
      <trkpt lat="38.599248" lon="-2.813101">
        <ele>862.666</ele>
        <time>2019-06-22T20:43:40Z</time>
      </trkpt>
      <trkpt lat="38.599876" lon="-2.813090">
        <ele>865.940</ele>
        <time>2019-06-22T20:44:00Z</time>
      </trkpt>
      <trkpt lat="38.600396" lon="-2.813208">
        <ele>867.070</ele>
        <time>2019-06-22T20:44:20Z</time>
      </trkpt>
      <trkpt lat="38.600849" lon="-2.813315">
        <ele>867.123</ele>
        <time>2019-06-22T20:44:40Z</time>
      </trkpt>
      <trkpt lat="38.601805" lon="-2.813133">
        <ele>872.028</ele>
        <time>2019-06-22T20:45:00Z</time>
      </trkpt>
      <trkpt lat="38.603046" lon="-2.812436">
        <ele>867.616</ele>
        <time>2019-06-22T20:45:20Z</time>
      </trkpt>
      <trkpt lat="38.603968" lon="-2.811974">
        <ele>865.776</ele>
        <time>2019-06-22T20:45:40Z</time>
      </trkpt>
      <trkpt lat="38.604874" lon="-2.812028">
        <ele>866.813</ele>
        <time>2019-06-22T20:46:00Z</time>
      </trkpt>
      <trkpt lat="38.605419" lon="-2.811888">
        <ele>865.408</ele>
        <time>2019-06-22T20:46:20Z</time>
      </trkpt>
      <trkpt lat="38.605687" lon="-2.811695">
        <ele>865.014</ele>
        <time>2019-06-22T20:46:40Z</time>
      </trkpt>
      <trkpt lat="38.605712" lon="-2.811213">
        <ele>867.338</ele>
        <time>2019-06-22T20:47:00Z</time>
      </trkpt>
      <trkpt lat="38.605729" lon="-2.810633">
        <ele>866.950</ele>
        <time>2019-06-22T20:47:20Z</time>
      </trkpt>
      <trkpt lat="38.605905" lon="-2.810193">
        <ele>864.841</ele>
        <time>2019-06-22T20:47:40Z</time>
      </trkpt>
      <trkpt lat="38.606483" lon="-2.809893">
        <ele>864.595</ele>
        <time>2019-06-22T20:48:00Z</time>
      </trkpt>
      <trkpt lat="38.607095" lon="-2.809753">
        <ele>863.285</ele>
        <time>2019-06-22T20:48:20Z</time>
      </trkpt>
      <trkpt lat="38.607640" lon="-2.809936">
        <ele>863.968</ele>
        <time>2019-06-22T20:48:40Z</time>
      </trkpt>
      <trkpt lat="38.608605" lon="-2.809700">
        <ele>869.043</ele>
        <time>2019-06-22T20:49:00Z</time>
      </trkpt>
      <trkpt lat="38.609359" lon="-2.809389">
        <ele>871.414</ele>
        <time>2019-06-22T20:49:20Z</time>
      </trkpt>
      <trkpt lat="38.610223" lon="-2.809346">
        <ele>874.554</ele>
        <time>2019-06-22T20:49:40Z</time>
      </trkpt>
      <trkpt lat="38.610633" lon="-2.809217">
        <ele>876.309</ele>
        <time>2019-06-22T20:50:00Z</time>
      </trkpt>
      <trkpt lat="38.611212" lon="-2.809442">
        <ele>877.708</ele>
        <time>2019-06-22T20:50:20Z</time>
      </trkpt>
      <trkpt lat="38.611371" lon="-2.808949">
        <ele>883.484</ele>
        <time>2019-06-22T20:50:40Z</time>
      </trkpt>
      <trkpt lat="38.611572" lon="-2.808584">
        <ele>882.638</ele>
        <time>2019-06-22T20:51:00Z</time>
      </trkpt>
      <trkpt lat="38.611606" lon="-2.807811">
        <ele>874.110</ele>
        <time>2019-06-22T20:51:20Z</time>
      </trkpt>
      <trkpt lat="38.612142" lon="-2.806610">
        <ele>864.831</ele>
        <time>2019-06-22T20:51:40Z</time>
      </trkpt>
      <trkpt lat="38.613383" lon="-2.804829">
        <ele>865.515</ele>
        <time>2019-06-22T20:52:00Z</time>
      </trkpt>
      <trkpt lat="38.613710" lon="-2.804078">
        <ele>864.015</ele>
        <time>2019-06-22T20:52:20Z</time>
      </trkpt>
      <trkpt lat="38.614791" lon="-2.802093">
        <ele>865.058</ele>
        <time>2019-06-22T20:52:40Z</time>
      </trkpt>
      <trkpt lat="38.615839" lon="-2.799711">
        <ele>863.063</ele>
        <time>2019-06-22T20:53:00Z</time>
      </trkpt>
      <trkpt lat="38.616787" lon="-2.797683">
        <ele>865.767</ele>
        <time>2019-06-22T20:53:20Z</time>
      </trkpt>
      <trkpt lat="38.617323" lon="-2.796739">
        <ele>863.481</ele>
        <time>2019-06-22T20:53:40Z</time>
      </trkpt>
      <trkpt lat="38.617742" lon="-2.795752">
        <ele>865.919</ele>
        <time>2019-06-22T20:54:00Z</time>
      </trkpt>
      <trkpt lat="38.617927" lon="-2.795205">
        <ele>867.008</ele>
        <time>2019-06-22T20:54:20Z</time>
      </trkpt>
      <trkpt lat="38.618069" lon="-2.794336">
        <ele>865.159</ele>
        <time>2019-06-22T20:54:40Z</time>
      </trkpt>
      <trkpt lat="38.618379" lon="-2.793778">
        <ele>868.113</ele>
        <time>2019-06-22T20:55:00Z</time>
      </trkpt>
      <trkpt lat="38.618941" lon="-2.792008">
        <ele>866.525</ele>
        <time>2019-06-22T20:55:20Z</time>
      </trkpt>
      <trkpt lat="38.618891" lon="-2.790817">
        <ele>865.086</ele>
        <time>2019-06-22T20:55:40Z</time>
      </trkpt>
      <trkpt lat="38.619125" lon="-2.790635">
        <ele>866.050</ele>
        <time>2019-06-22T20:56:00Z</time>
      </trkpt>
      <trkpt lat="38.619318" lon="-2.789347">
        <ele>866.510</ele>
        <time>2019-06-22T20:56:20Z</time>
      </trkpt>
      <trkpt lat="38.619528" lon="-2.788371">
        <ele>866.763</ele>
        <time>2019-06-22T20:56:40Z</time>
      </trkpt>
      <trkpt lat="38.619888" lon="-2.787502">
        <ele>870.898</ele>
        <time>2019-06-22T20:57:00Z</time>
      </trkpt>
      <trkpt lat="38.620198" lon="-2.786000">
        <ele>870.446</ele>
        <time>2019-06-22T20:57:20Z</time>
      </trkpt>
      <trkpt lat="38.620525" lon="-2.785131">
        <ele>870.388</ele>
        <time>2019-06-22T20:57:40Z</time>
      </trkpt>
      <trkpt lat="38.620953" lon="-2.783618">
        <ele>871.016</ele>
        <time>2019-06-22T20:58:00Z</time>
      </trkpt>
      <trkpt lat="38.621338" lon="-2.783017">
        <ele>870.908</ele>
        <time>2019-06-22T20:58:20Z</time>
      </trkpt>
      <trkpt lat="38.621967" lon="-2.782062">
        <ele>874.127</ele>
        <time>2019-06-22T20:58:40Z</time>
      </trkpt>
      <trkpt lat="38.622780" lon="-2.781290">
        <ele>875.321</ele>
        <time>2019-06-22T20:59:00Z</time>
      </trkpt>
      <trkpt lat="38.623300" lon="-2.780657">
        <ele>869.363</ele>
        <time>2019-06-22T20:59:20Z</time>
      </trkpt>
      <trkpt lat="38.623769" lon="-2.780013">
        <ele>869.114</ele>
        <time>2019-06-22T20:59:40Z</time>
      </trkpt>
      <trkpt lat="38.623895" lon="-2.779251">
        <ele>868.638</ele>
        <time>2019-06-22T21:00:00Z</time>
      </trkpt>
      <trkpt lat="38.623912" lon="-2.778425">
        <ele>864.248</ele>
        <time>2019-06-22T21:00:20Z</time>
      </trkpt>
      <trkpt lat="38.623853" lon="-2.778039">
        <ele>860.961</ele>
        <time>2019-06-22T21:00:40Z</time>
      </trkpt>
      <trkpt lat="38.623861" lon="-2.777685">
        <ele>858.596</ele>
        <time>2019-06-22T21:01:00Z</time>
      </trkpt>
      <trkpt lat="38.624079" lon="-2.777299">
        <ele>855.642</ele>
        <time>2019-06-22T21:01:20Z</time>
      </trkpt>
      <trkpt lat="38.624247" lon="-2.777127">
        <ele>854.922</ele>
        <time>2019-06-22T21:01:40Z</time>
      </trkpt>
      <trkpt lat="38.624666" lon="-2.776977">
        <ele>854.214</ele>
        <time>2019-06-22T21:02:00Z</time>
      </trkpt>
      <trkpt lat="38.624850" lon="-2.776612">
        <ele>851.808</ele>
        <time>2019-06-22T21:02:20Z</time>
      </trkpt>
      <trkpt lat="38.625303" lon="-2.775228">
        <ele>850.837</ele>
        <time>2019-06-22T21:02:40Z</time>
      </trkpt>
      <trkpt lat="38.625873" lon="-2.773747">
        <ele>848.411</ele>
        <time>2019-06-22T21:03:00Z</time>
      </trkpt>
      <trkpt lat="38.626435" lon="-2.772170">
        <ele>846.863</ele>
        <time>2019-06-22T21:03:20Z</time>
      </trkpt>
      <trkpt lat="38.626988" lon="-2.770851">
        <ele>843.534</ele>
        <time>2019-06-22T21:03:40Z</time>
      </trkpt>
      <trkpt lat="38.627575" lon="-2.769896">
        <ele>845.018</ele>
        <time>2019-06-22T21:04:00Z</time>
      </trkpt>
      <trkpt lat="38.628245" lon="-2.769284">
        <ele>844.558</ele>
        <time>2019-06-22T21:04:20Z</time>
      </trkpt>
      <trkpt lat="38.628622" lon="-2.768855">
        <ele>847.181</ele>
        <time>2019-06-22T21:04:40Z</time>
      </trkpt>
      <trkpt lat="38.629217" lon="-2.768544">
        <ele>851.296</ele>
        <time>2019-06-22T21:05:00Z</time>
      </trkpt>
      <trkpt lat="38.629720" lon="-2.768362">
        <ele>853.167</ele>
        <time>2019-06-22T21:05:20Z</time>
      </trkpt>
      <trkpt lat="38.630014" lon="-2.767514">
        <ele>848.081</ele>
        <time>2019-06-22T21:05:40Z</time>
      </trkpt>
      <trkpt lat="38.630215" lon="-2.767407">
        <ele>848.519</ele>
        <time>2019-06-22T21:06:00Z</time>
      </trkpt>
      <trkpt lat="38.630399" lon="-2.766881">
        <ele>848.708</ele>
        <time>2019-06-22T21:06:20Z</time>
      </trkpt>
      <trkpt lat="38.631556" lon="-2.764628">
        <ele>840.769</ele>
        <time>2019-06-22T21:06:40Z</time>
      </trkpt>
      <trkpt lat="38.632553" lon="-2.762665">
        <ele>837.333</ele>
        <time>2019-06-22T21:07:00Z</time>
      </trkpt>
      <trkpt lat="38.633089" lon="-2.761914">
        <ele>838.265</ele>
        <time>2019-06-22T21:07:20Z</time>
      </trkpt>
      <trkpt lat="38.633726" lon="-2.761281">
        <ele>840.296</ele>
        <time>2019-06-22T21:07:40Z</time>
      </trkpt>
      <trkpt lat="38.634137" lon="-2.760776">
        <ele>840.970</ele>
        <time>2019-06-22T21:08:00Z</time>
      </trkpt>
      <trkpt lat="38.634489" lon="-2.759993">
        <ele>841.130</ele>
        <time>2019-06-22T21:08:20Z</time>
      </trkpt>
      <trkpt lat="38.635151" lon="-2.758287">
        <ele>843.733</ele>
        <time>2019-06-22T21:08:40Z</time>
      </trkpt>
      <trkpt lat="38.635679" lon="-2.757032">
        <ele>845.138</ele>
        <time>2019-06-22T21:09:00Z</time>
      </trkpt>
      <trkpt lat="38.636458" lon="-2.755820">
        <ele>843.345</ele>
        <time>2019-06-22T21:09:20Z</time>
      </trkpt>
      <trkpt lat="38.637121" lon="-2.755197">
        <ele>843.047</ele>
        <time>2019-06-22T21:09:40Z</time>
      </trkpt>
      <trkpt lat="38.639014" lon="-2.753749">
        <ele>839.711</ele>
        <time>2019-06-22T21:10:00Z</time>
      </trkpt>
      <trkpt lat="38.640808" lon="-2.752429">
        <ele>838.308</ele>
        <time>2019-06-22T21:10:20Z</time>
      </trkpt>
      <trkpt lat="38.641369" lon="-2.752075">
        <ele>836.547</ele>
        <time>2019-06-22T21:10:40Z</time>
      </trkpt>
      <trkpt lat="38.641855" lon="-2.751431">
        <ele>840.411</ele>
        <time>2019-06-22T21:11:00Z</time>
      </trkpt>
      <trkpt lat="38.642232" lon="-2.750970">
        <ele>841.583</ele>
        <time>2019-06-22T21:11:20Z</time>
      </trkpt>
      <trkpt lat="38.643003" lon="-2.750627">
        <ele>841.284</ele>
        <time>2019-06-22T21:11:40Z</time>
      </trkpt>
      <trkpt lat="38.643556" lon="-2.750069">
        <ele>842.978</ele>
        <time>2019-06-22T21:12:00Z</time>
      </trkpt>
      <trkpt lat="38.643967" lon="-2.749372">
        <ele>843.868</ele>
        <time>2019-06-22T21:12:20Z</time>
      </trkpt>
      <trkpt lat="38.644302" lon="-2.748728">
        <ele>841.871</ele>
        <time>2019-06-22T21:12:40Z</time>
      </trkpt>
      <trkpt lat="38.644763" lon="-2.748213">
        <ele>840.916</ele>
        <time>2019-06-22T21:13:00Z</time>
      </trkpt>
      <trkpt lat="38.645911" lon="-2.747161">
        <ele>845.897</ele>
        <time>2019-06-22T21:13:20Z</time>
      </trkpt>
      <trkpt lat="38.646422" lon="-2.746389">
        <ele>849.023</ele>
        <time>2019-06-22T21:13:40Z</time>
      </trkpt>
      <trkpt lat="38.647134" lon="-2.744919">
        <ele>849.025</ele>
        <time>2019-06-22T21:14:00Z</time>
      </trkpt>
      <trkpt lat="38.647646" lon="-2.743793">
        <ele>851.408</ele>
        <time>2019-06-22T21:14:20Z</time>
      </trkpt>
      <trkpt lat="38.648190" lon="-2.742741">
        <ele>850.462</ele>
        <time>2019-06-22T21:14:40Z</time>
      </trkpt>
      <trkpt lat="38.649740" lon="-2.741164">
        <ele>856.116</ele>
        <time>2019-06-22T21:15:00Z</time>
      </trkpt>
      <trkpt lat="38.650285" lon="-2.740552">
        <ele>855.148</ele>
        <time>2019-06-22T21:15:20Z</time>
      </trkpt>
      <trkpt lat="38.650947" lon="-2.739640">
        <ele>858.019</ele>
        <time>2019-06-22T21:15:40Z</time>
      </trkpt>
      <trkpt lat="38.652455" lon="-2.738600">
        <ele>866.473</ele>
        <time>2019-06-22T21:16:00Z</time>
      </trkpt>
      <trkpt lat="38.652941" lon="-2.737849">
        <ele>866.253</ele>
        <time>2019-06-22T21:16:20Z</time>
      </trkpt>
      <trkpt lat="38.653176" lon="-2.737216">
        <ele>868.976</ele>
        <time>2019-06-22T21:16:40Z</time>
      </trkpt>
      <trkpt lat="38.653335" lon="-2.736658">
        <ele>869.031</ele>
        <time>2019-06-22T21:17:00Z</time>
      </trkpt>
      <trkpt lat="38.653662" lon="-2.735435">
        <ele>869.759</ele>
        <time>2019-06-22T21:17:20Z</time>
      </trkpt>
      <trkpt lat="38.654039" lon="-2.734984">
        <ele>865.803</ele>
        <time>2019-06-22T21:17:40Z</time>
      </trkpt>
      <trkpt lat="38.653653" lon="-2.734834">
        <ele>867.523</ele>
        <time>2019-06-22T21:18:00Z</time>
      </trkpt>
      <trkpt lat="38.652933" lon="-2.734641">
        <ele>864.508</ele>
        <time>2019-06-22T21:18:20Z</time>
      </trkpt>
      <trkpt lat="38.652405" lon="-2.734587">
        <ele>861.578</ele>
        <time>2019-06-22T21:18:40Z</time>
      </trkpt>
      <trkpt lat="38.651190" lon="-2.735134">
        <ele>861.412</ele>
        <time>2019-06-22T21:19:00Z</time>
      </trkpt>
      <trkpt lat="38.650897" lon="-2.735306">
        <ele>861.944</ele>
        <time>2019-06-22T21:19:20Z</time>
      </trkpt>
      <trkpt lat="38.650335" lon="-2.735542">
        <ele>858.695</ele>
        <time>2019-06-22T21:19:40Z</time>
      </trkpt>
      <trkpt lat="38.649246" lon="-2.736830">
        <ele>853.969</ele>
        <time>2019-06-22T21:20:00Z</time>
      </trkpt>
      <trkpt lat="38.648701" lon="-2.736915">
        <ele>855.669</ele>
        <time>2019-06-22T21:20:20Z</time>
      </trkpt>
      <trkpt lat="38.647713" lon="-2.737280">
        <ele>851.052</ele>
        <time>2019-06-22T21:20:40Z</time>
      </trkpt>
      <trkpt lat="38.646716" lon="-2.737581">
        <ele>847.447</ele>
        <time>2019-06-22T21:21:00Z</time>
      </trkpt>
      <trkpt lat="38.646087" lon="-2.737774">
        <ele>846.114</ele>
        <time>2019-06-22T21:21:20Z</time>
      </trkpt>
      <trkpt lat="38.645785" lon="-2.737892">
        <ele>846.954</ele>
        <time>2019-06-22T21:21:40Z</time>
      </trkpt>
      <trkpt lat="38.644721" lon="-2.738192">
        <ele>842.509</ele>
        <time>2019-06-22T21:22:00Z</time>
      </trkpt>
      <trkpt lat="38.644109" lon="-2.738267">
        <ele>839.808</ele>
        <time>2019-06-22T21:22:20Z</time>
      </trkpt>
      <trkpt lat="38.642844" lon="-2.738278">
        <ele>838.114</ele>
        <time>2019-06-22T21:22:40Z</time>
      </trkpt>
      <trkpt lat="38.642660" lon="-2.738428">
        <ele>837.288</ele>
        <time>2019-06-22T21:23:00Z</time>
      </trkpt>
      <trkpt lat="38.641830" lon="-2.739823">
        <ele>837.690</ele>
        <time>2019-06-22T21:23:20Z</time>
      </trkpt>
      <trkpt lat="38.641512" lon="-2.739995">
        <ele>836.551</ele>
        <time>2019-06-22T21:23:40Z</time>
      </trkpt>
      <trkpt lat="38.641093" lon="-2.739995">
        <ele>836.125</ele>
        <time>2019-06-22T21:24:00Z</time>
      </trkpt>
      <trkpt lat="38.639936" lon="-2.739458">
        <ele>834.545</ele>
        <time>2019-06-22T21:24:20Z</time>
      </trkpt>
      <trkpt lat="38.639501" lon="-2.739351">
        <ele>835.728</ele>
        <time>2019-06-22T21:24:40Z</time>
      </trkpt>
      <trkpt lat="38.639174" lon="-2.739276">
        <ele>833.433</ele>
        <time>2019-06-22T21:25:00Z</time>
      </trkpt>
      <trkpt lat="38.638436" lon="-2.738879">
        <ele>833.074</ele>
        <time>2019-06-22T21:25:20Z</time>
      </trkpt>
      <trkpt lat="38.637305" lon="-2.738096">
        <ele>824.056</ele>
        <time>2019-06-22T21:25:40Z</time>
      </trkpt>
      <trkpt lat="38.636710" lon="-2.738128">
        <ele>818.621</ele>
        <time>2019-06-22T21:26:00Z</time>
      </trkpt>
      <trkpt lat="38.636458" lon="-2.738138">
        <ele>816.808</ele>
        <time>2019-06-22T21:26:20Z</time>
      </trkpt>
      <trkpt lat="38.636140" lon="-2.737838">
        <ele>816.730</ele>
        <time>2019-06-22T21:26:40Z</time>
      </trkpt>
      <trkpt lat="38.635972" lon="-2.737516">
        <ele>819.414</ele>
        <time>2019-06-22T21:27:00Z</time>
      </trkpt>
      <trkpt lat="38.635830" lon="-2.737463">
        <ele>821.016</ele>
        <time>2019-06-22T21:27:20Z</time>
      </trkpt>
      <trkpt lat="38.635679" lon="-2.737570">
        <ele>821.957</ele>
        <time>2019-06-22T21:27:40Z</time>
      </trkpt>
      <trkpt lat="38.635369" lon="-2.737720">
        <ele>824.171</ele>
        <time>2019-06-22T21:28:00Z</time>
      </trkpt>
      <trkpt lat="38.635025" lon="-2.737645">
        <ele>828.241</ele>
        <time>2019-06-22T21:28:20Z</time>
      </trkpt>
      <trkpt lat="38.634539" lon="-2.737269">
        <ele>834.874</ele>
        <time>2019-06-22T21:28:40Z</time>
      </trkpt>
      <trkpt lat="38.634045" lon="-2.737162">
        <ele>836.249</ele>
        <time>2019-06-22T21:29:00Z</time>
      </trkpt>
      <trkpt lat="38.633659" lon="-2.737055">
        <ele>837.948</ele>
        <time>2019-06-22T21:29:20Z</time>
      </trkpt>
      <trkpt lat="38.633492" lon="-2.736926">
        <ele>840.361</ele>
        <time>2019-06-22T21:29:40Z</time>
      </trkpt>
      <trkpt lat="38.634179" lon="-2.736207">
        <ele>834.617</ele>
        <time>2019-06-22T21:30:00Z</time>
      </trkpt>
      <trkpt lat="38.634422" lon="-2.735746">
        <ele>837.008</ele>
        <time>2019-06-22T21:30:20Z</time>
      </trkpt>
      <trkpt lat="38.635059" lon="-2.735338">
        <ele>830.987</ele>
        <time>2019-06-22T21:30:40Z</time>
      </trkpt>
      <trkpt lat="38.635662" lon="-2.734308">
        <ele>826.751</ele>
        <time>2019-06-22T21:31:00Z</time>
      </trkpt>
      <trkpt lat="38.636634" lon="-2.733343">
        <ele>824.353</ele>
        <time>2019-06-22T21:31:20Z</time>
      </trkpt>
      <trkpt lat="38.636953" lon="-2.732871">
        <ele>825.954</ele>
        <time>2019-06-22T21:31:40Z</time>
      </trkpt>
      <trkpt lat="38.637665" lon="-2.732313">
        <ele>826.818</ele>
        <time>2019-06-22T21:32:00Z</time>
      </trkpt>
      <trkpt lat="38.638160" lon="-2.731615">
        <ele>828.718</ele>
        <time>2019-06-22T21:32:20Z</time>
      </trkpt>
      <trkpt lat="38.638545" lon="-2.731283">
        <ele>829.141</ele>
        <time>2019-06-22T21:32:40Z</time>
      </trkpt>
      <trkpt lat="38.638855" lon="-2.730585">
        <ele>831.156</ele>
        <time>2019-06-22T21:33:00Z</time>
      </trkpt>
      <trkpt lat="38.639040" lon="-2.730103">
        <ele>832.649</ele>
        <time>2019-06-22T21:33:20Z</time>
      </trkpt>
      <trkpt lat="38.639501" lon="-2.729427">
        <ele>833.002</ele>
        <time>2019-06-22T21:33:40Z</time>
      </trkpt>
      <trkpt lat="38.639970" lon="-2.728922">
        <ele>834.022</ele>
        <time>2019-06-22T21:34:00Z</time>
      </trkpt>
      <trkpt lat="38.640313" lon="-2.728397">
        <ele>835.408</ele>
        <time>2019-06-22T21:34:20Z</time>
      </trkpt>
      <trkpt lat="38.640992" lon="-2.728472">
        <ele>832.017</ele>
        <time>2019-06-22T21:34:40Z</time>
      </trkpt>
      <trkpt lat="38.641646" lon="-2.728236">
        <ele>833.391</ele>
        <time>2019-06-22T21:35:00Z</time>
      </trkpt>
      <trkpt lat="38.643045" lon="-2.728075">
        <ele>832.993</ele>
        <time>2019-06-22T21:35:20Z</time>
      </trkpt>
      <trkpt lat="38.643674" lon="-2.727914">
        <ele>834.994</ele>
        <time>2019-06-22T21:35:40Z</time>
      </trkpt>
      <trkpt lat="38.644428" lon="-2.727195">
        <ele>839.998</ele>
        <time>2019-06-22T21:36:00Z</time>
      </trkpt>
      <trkpt lat="38.645031" lon="-2.726380">
        <ele>839.198</ele>
        <time>2019-06-22T21:36:20Z</time>
      </trkpt>
      <trkpt lat="38.645417" lon="-2.725629">
        <ele>841.111</ele>
        <time>2019-06-22T21:36:40Z</time>
      </trkpt>
      <trkpt lat="38.645601" lon="-2.725382">
        <ele>840.356</ele>
        <time>2019-06-22T21:37:00Z</time>
      </trkpt>
      <trkpt lat="38.646548" lon="-2.725285">
        <ele>836.922</ele>
        <time>2019-06-22T21:37:20Z</time>
      </trkpt>
      <trkpt lat="38.647855" lon="-2.724470">
        <ele>843.762</ele>
        <time>2019-06-22T21:37:40Z</time>
      </trkpt>
      <trkpt lat="38.648282" lon="-2.724084">
        <ele>849.608</ele>
        <time>2019-06-22T21:38:00Z</time>
      </trkpt>
      <trkpt lat="38.648978" lon="-2.723354">
        <ele>850.408</ele>
        <time>2019-06-22T21:38:20Z</time>
      </trkpt>
      <trkpt lat="38.649238" lon="-2.723097">
        <ele>854.335</ele>
        <time>2019-06-22T21:38:40Z</time>
      </trkpt>
      <trkpt lat="38.649699" lon="-2.722839">
        <ele>855.929</ele>
        <time>2019-06-22T21:39:00Z</time>
      </trkpt>
      <trkpt lat="38.650193" lon="-2.721959">
        <ele>849.461</ele>
        <time>2019-06-22T21:39:20Z</time>
      </trkpt>
      <trkpt lat="38.650612" lon="-2.721090">
        <ele>845.462</ele>
        <time>2019-06-22T21:39:40Z</time>
      </trkpt>
      <trkpt lat="38.651207" lon="-2.719610">
        <ele>850.176</ele>
        <time>2019-06-22T21:40:00Z</time>
      </trkpt>
      <trkpt lat="38.651567" lon="-2.719159">
        <ele>852.836</ele>
        <time>2019-06-22T21:40:20Z</time>
      </trkpt>
      <trkpt lat="38.652321" lon="-2.718859">
        <ele>854.729</ele>
        <time>2019-06-22T21:40:40Z</time>
      </trkpt>
      <trkpt lat="38.652824" lon="-2.718569">
        <ele>857.054</ele>
        <time>2019-06-22T21:41:00Z</time>
      </trkpt>
      <trkpt lat="38.653218" lon="-2.718140">
        <ele>858.477</ele>
        <time>2019-06-22T21:41:20Z</time>
      </trkpt>
      <trkpt lat="38.653461" lon="-2.717861">
        <ele>857.361</ele>
        <time>2019-06-22T21:41:40Z</time>
      </trkpt>
      <trkpt lat="38.654030" lon="-2.717582">
        <ele>861.427</ele>
        <time>2019-06-22T21:42:00Z</time>
      </trkpt>
      <trkpt lat="38.654759" lon="-2.717056">
        <ele>863.008</ele>
        <time>2019-06-22T21:42:20Z</time>
      </trkpt>
      <trkpt lat="38.655463" lon="-2.716831">
        <ele>862.510</ele>
        <time>2019-06-22T21:42:40Z</time>
      </trkpt>
      <trkpt lat="38.656033" lon="-2.716241">
        <ele>863.234</ele>
        <time>2019-06-22T21:43:00Z</time>
      </trkpt>
      <trkpt lat="38.656301" lon="-2.715790">
        <ele>865.746</ele>
        <time>2019-06-22T21:43:20Z</time>
      </trkpt>
      <trkpt lat="38.656510" lon="-2.715307">
        <ele>865.597</ele>
        <time>2019-06-22T21:43:40Z</time>
      </trkpt>
      <trkpt lat="38.656527" lon="-2.715104">
        <ele>864.991</ele>
        <time>2019-06-22T21:44:00Z</time>
      </trkpt>
      <trkpt lat="38.656820" lon="-2.713913">
        <ele>862.191</ele>
        <time>2019-06-22T21:44:20Z</time>
      </trkpt>
      <trkpt lat="38.657114" lon="-2.713516">
        <ele>863.474</ele>
        <time>2019-06-22T21:44:40Z</time>
      </trkpt>
      <trkpt lat="38.657608" lon="-2.713119">
        <ele>865.949</ele>
        <time>2019-06-22T21:45:00Z</time>
      </trkpt>
      <trkpt lat="38.658278" lon="-2.712357">
        <ele>869.415</ele>
        <time>2019-06-22T21:45:20Z</time>
      </trkpt>
      <trkpt lat="38.658596" lon="-2.711649">
        <ele>869.065</ele>
        <time>2019-06-22T21:45:40Z</time>
      </trkpt>
      <trkpt lat="38.659292" lon="-2.710855">
        <ele>869.911</ele>
        <time>2019-06-22T21:46:00Z</time>
      </trkpt>
      <trkpt lat="38.659903" lon="-2.710179">
        <ele>872.208</ele>
        <time>2019-06-22T21:46:20Z</time>
      </trkpt>
      <trkpt lat="38.660322" lon="-2.709535">
        <ele>871.514</ele>
        <time>2019-06-22T21:46:40Z</time>
      </trkpt>
      <trkpt lat="38.660708" lon="-2.708688">
        <ele>871.788</ele>
        <time>2019-06-22T21:47:00Z</time>
      </trkpt>
      <trkpt lat="38.661009" lon="-2.708516">
        <ele>872.840</ele>
        <time>2019-06-22T21:47:20Z</time>
      </trkpt>
      <trkpt lat="38.661922" lon="-2.707293">
        <ele>875.911</ele>
        <time>2019-06-22T21:47:40Z</time>
      </trkpt>
      <trkpt lat="38.662232" lon="-2.706778">
        <ele>877.285</ele>
        <time>2019-06-22T21:48:00Z</time>
      </trkpt>
      <trkpt lat="38.662844" lon="-2.706070">
        <ele>878.295</ele>
        <time>2019-06-22T21:48:20Z</time>
      </trkpt>
      <trkpt lat="38.663807" lon="-2.705330">
        <ele>883.478</ele>
        <time>2019-06-22T21:48:40Z</time>
      </trkpt>
      <trkpt lat="38.664494" lon="-2.704879">
        <ele>887.313</ele>
        <time>2019-06-22T21:49:00Z</time>
      </trkpt>
      <trkpt lat="38.665064" lon="-2.704246">
        <ele>890.441</ele>
        <time>2019-06-22T21:49:20Z</time>
      </trkpt>
      <trkpt lat="38.665483" lon="-2.703710">
        <ele>890.581</ele>
        <time>2019-06-22T21:49:40Z</time>
      </trkpt>
      <trkpt lat="38.666036" lon="-2.703270">
        <ele>894.409</ele>
        <time>2019-06-22T21:50:00Z</time>
      </trkpt>
      <trkpt lat="38.667016" lon="-2.702712">
        <ele>896.808</ele>
        <time>2019-06-22T21:50:20Z</time>
      </trkpt>
      <trkpt lat="38.668029" lon="-2.702605">
        <ele>901.637</ele>
        <time>2019-06-22T21:50:40Z</time>
      </trkpt>
      <trkpt lat="38.668758" lon="-2.702304">
        <ele>902.111</ele>
        <time>2019-06-22T21:51:00Z</time>
      </trkpt>
      <trkpt lat="38.669144" lon="-2.702014">
        <ele>906.893</ele>
        <time>2019-06-22T21:51:20Z</time>
      </trkpt>
      <trkpt lat="38.669261" lon="-2.701864">
        <ele>908.184</ele>
        <time>2019-06-22T21:51:40Z</time>
      </trkpt>
      <trkpt lat="38.669587" lon="-2.702036">
        <ele>911.758</ele>
        <time>2019-06-22T21:52:00Z</time>
      </trkpt>
      <trkpt lat="38.669780" lon="-2.702315">
        <ele>913.728</ele>
        <time>2019-06-22T21:52:20Z</time>
      </trkpt>
      <trkpt lat="38.669914" lon="-2.702690">
        <ele>916.531</ele>
        <time>2019-06-22T21:52:40Z</time>
      </trkpt>
      <trkpt lat="38.670174" lon="-2.702519">
        <ele>919.736</ele>
        <time>2019-06-22T21:53:00Z</time>
      </trkpt>
      <trkpt lat="38.670299" lon="-2.702379">
        <ele>920.356</ele>
        <time>2019-06-22T21:53:20Z</time>
      </trkpt>
      <trkpt lat="38.670903" lon="-2.702326">
        <ele>922.859</ele>
        <time>2019-06-22T21:53:40Z</time>
      </trkpt>
      <trkpt lat="38.673072" lon="-2.702669">
        <ele>926.414</ele>
        <time>2019-06-22T21:54:00Z</time>
      </trkpt>
      <trkpt lat="38.673801" lon="-2.702862">
        <ele>924.508</ele>
        <time>2019-06-22T21:54:20Z</time>
      </trkpt>
      <trkpt lat="38.674312" lon="-2.702830">
        <ele>926.378</ele>
        <time>2019-06-22T21:54:40Z</time>
      </trkpt>
      <trkpt lat="38.675685" lon="-2.702057">
        <ele>926.442</ele>
        <time>2019-06-22T21:55:00Z</time>
      </trkpt>
      <trkpt lat="38.677093" lon="-2.701542">
        <ele>924.444</ele>
        <time>2019-06-22T21:55:20Z</time>
      </trkpt>
      <trkpt lat="38.677394" lon="-2.701467">
        <ele>922.735</ele>
        <time>2019-06-22T21:55:40Z</time>
      </trkpt>
      <trkpt lat="38.677838" lon="-2.700791">
        <ele>921.619</ele>
        <time>2019-06-22T21:56:00Z</time>
      </trkpt>
      <trkpt lat="38.678215" lon="-2.700813">
        <ele>924.119</ele>
        <time>2019-06-22T21:56:20Z</time>
      </trkpt>
      <trkpt lat="38.680175" lon="-2.700094">
        <ele>936.142</ele>
        <time>2019-06-22T21:56:40Z</time>
      </trkpt>
      <trkpt lat="38.680342" lon="-2.699944">
        <ele>938.767</ele>
        <time>2019-06-22T21:57:00Z</time>
      </trkpt>
      <trkpt lat="38.680878" lon="-2.699772">
        <ele>944.255</ele>
        <time>2019-06-22T21:57:20Z</time>
      </trkpt>
      <trkpt lat="38.681364" lon="-2.699407">
        <ele>946.307</ele>
        <time>2019-06-22T21:57:40Z</time>
      </trkpt>
      <trkpt lat="38.681682" lon="-2.699032">
        <ele>947.817</ele>
        <time>2019-06-22T21:58:00Z</time>
      </trkpt>
      <trkpt lat="38.681942" lon="-2.698560">
        <ele>947.608</ele>
        <time>2019-06-22T21:58:20Z</time>
      </trkpt>
      <trkpt lat="38.682344" lon="-2.697937">
        <ele>949.598</ele>
        <time>2019-06-22T21:58:40Z</time>
      </trkpt>
      <trkpt lat="38.683039" lon="-2.697347">
        <ele>950.842</ele>
        <time>2019-06-22T21:59:00Z</time>
      </trkpt>
      <trkpt lat="38.683885" lon="-2.696339">
        <ele>955.454</ele>
        <time>2019-06-22T21:59:20Z</time>
      </trkpt>
      <trkpt lat="38.684563" lon="-2.695448">
        <ele>955.715</ele>
        <time>2019-06-22T21:59:40Z</time>
      </trkpt>
      <trkpt lat="38.685259" lon="-2.694848">
        <ele>959.669</ele>
        <time>2019-06-22T22:00:00Z</time>
      </trkpt>
      <trkpt lat="38.686481" lon="-2.694311">
        <ele>963.059</ele>
        <time>2019-06-22T22:00:20Z</time>
      </trkpt>
      <trkpt lat="38.686582" lon="-2.693528">
        <ele>960.862</ele>
        <time>2019-06-22T22:00:40Z</time>
      </trkpt>
      <trkpt lat="38.686825" lon="-2.693185">
        <ele>965.697</ele>
        <time>2019-06-22T22:01:00Z</time>
      </trkpt>
      <trkpt lat="38.686523" lon="-2.691071">
        <ele>961.094</ele>
        <time>2019-06-22T22:01:20Z</time>
      </trkpt>
      <trkpt lat="38.686875" lon="-2.689161">
        <ele>962.057</ele>
        <time>2019-06-22T22:01:40Z</time>
      </trkpt>
      <trkpt lat="38.686875" lon="-2.688764">
        <ele>964.122</ele>
        <time>2019-06-22T22:02:00Z</time>
      </trkpt>
      <trkpt lat="38.687670" lon="-2.688593">
        <ele>967.808</ele>
        <time>2019-06-22T22:02:20Z</time>
      </trkpt>
      <trkpt lat="38.688801" lon="-2.688850">
        <ele>966.492</ele>
        <time>2019-06-22T22:02:40Z</time>
      </trkpt>
      <trkpt lat="38.689898" lon="-2.689312">
        <ele>964.756</ele>
        <time>2019-06-22T22:03:00Z</time>
      </trkpt>
      <trkpt lat="38.690417" lon="-2.689505">
        <ele>963.558</ele>
        <time>2019-06-22T22:03:20Z</time>
      </trkpt>
      <trkpt lat="38.690618" lon="-2.689869">
        <ele>968.259</ele>
        <time>2019-06-22T22:03:40Z</time>
      </trkpt>
      <trkpt lat="38.691154" lon="-2.690009">
        <ele>975.073</ele>
        <time>2019-06-22T22:04:00Z</time>
      </trkpt>
      <trkpt lat="38.691740" lon="-2.689923">
        <ele>972.923</ele>
        <time>2019-06-22T22:04:20Z</time>
      </trkpt>
      <trkpt lat="38.691983" lon="-2.689762">
        <ele>972.516</ele>
        <time>2019-06-22T22:04:40Z</time>
      </trkpt>
      <trkpt lat="38.695291" lon="-2.691607">
        <ele>1002.0</ele>
        <time>2019-06-22T18:53:38Z</time>
      </trkpt>
      <trkpt lat="38.835262" lon="-2.605326">
        <ele>973.3</ele>
        <time>2019-06-22T18:53:38Z</time>
      </trkpt>
      <trkpt lat="38.838128" lon="-2.610219">
        <ele>971.1</ele>
        <time>2019-06-22T18:53:38Z</time>
      </trkpt>
      <trkpt lat="38.691816" lon="-2.689708">
        <ele>972.493</ele>
        <time>2019-06-24T19:21:14Z</time>
      </trkpt>
      <trkpt lat="38.693022" lon="-2.690138">
        <ele>983.565</ele>
        <time>2019-06-24T19:21:34Z</time>
      </trkpt>
      <trkpt lat="38.694311" lon="-2.690620">
        <ele>1001.321</ele>
        <time>2019-06-24T19:21:54Z</time>
      </trkpt>
      <trkpt lat="38.694663" lon="-2.690417">
        <ele>1003.108</ele>
        <time>2019-06-24T19:22:14Z</time>
      </trkpt>
      <trkpt lat="38.694453" lon="-2.690063">
        <ele>1000.372</ele>
        <time>2019-06-24T19:22:34Z</time>
      </trkpt>
      <trkpt lat="38.694010" lon="-2.689741">
        <ele>996.536</ele>
        <time>2019-06-24T19:22:54Z</time>
      </trkpt>
      <trkpt lat="38.693557" lon="-2.689354">
        <ele>994.218</ele>
        <time>2019-06-24T19:23:14Z</time>
      </trkpt>
      <trkpt lat="38.693474" lon="-2.688732">
        <ele>989.819</ele>
        <time>2019-06-24T19:23:34Z</time>
      </trkpt>
      <trkpt lat="38.693516" lon="-2.686801">
        <ele>982.525</ele>
        <time>2019-06-24T19:23:54Z</time>
      </trkpt>
      <trkpt lat="38.694018" lon="-2.684247">
        <ele>969.950</ele>
        <time>2019-06-24T19:24:14Z</time>
      </trkpt>
      <trkpt lat="38.694278" lon="-2.682713">
        <ele>958.195</ele>
        <time>2019-06-24T19:24:34Z</time>
      </trkpt>
      <trkpt lat="38.694311" lon="-2.681705">
        <ele>954.577</ele>
        <time>2019-06-24T19:24:54Z</time>
      </trkpt>
      <trkpt lat="38.694001" lon="-2.680664">
        <ele>947.526</ele>
        <time>2019-06-24T19:25:14Z</time>
      </trkpt>
      <trkpt lat="38.693591" lon="-2.680031">
        <ele>946.947</ele>
        <time>2019-06-24T19:25:34Z</time>
      </trkpt>
      <trkpt lat="38.692536" lon="-2.678765">
        <ele>944.211</ele>
        <time>2019-06-24T19:25:54Z</time>
      </trkpt>
      <trkpt lat="38.691749" lon="-2.677778">
        <ele>943.308</ele>
        <time>2019-06-24T19:26:14Z</time>
      </trkpt>
      <trkpt lat="38.690903" lon="-2.675911">
        <ele>937.435</ele>
        <time>2019-06-24T19:26:34Z</time>
      </trkpt>
      <trkpt lat="38.690250" lon="-2.674720">
        <ele>928.619</ele>
        <time>2019-06-24T19:26:54Z</time>
      </trkpt>
      <trkpt lat="38.689739" lon="-2.674259">
        <ele>920.191</ele>
        <time>2019-06-24T19:27:14Z</time>
      </trkpt>
      <trkpt lat="38.688893" lon="-2.673808">
        <ele>916.962</ele>
        <time>2019-06-24T19:27:34Z</time>
      </trkpt>
      <trkpt lat="38.688165" lon="-2.673250">
        <ele>916.218</ele>
        <time>2019-06-24T19:27:54Z</time>
      </trkpt>
      <trkpt lat="38.687897" lon="-2.672703">
        <ele>913.713</ele>
        <time>2019-06-24T19:28:14Z</time>
      </trkpt>
      <trkpt lat="38.687746" lon="-2.671427">
        <ele>901.228</ele>
        <time>2019-06-24T19:28:34Z</time>
      </trkpt>
      <trkpt lat="38.687444" lon="-2.670407">
        <ele>897.050</ele>
        <time>2019-06-24T19:28:54Z</time>
      </trkpt>
      <trkpt lat="38.687101" lon="-2.669914">
        <ele>893.658</ele>
        <time>2019-06-24T19:29:14Z</time>
      </trkpt>
      <trkpt lat="38.686121" lon="-2.668970">
        <ele>889.052</ele>
        <time>2019-06-24T19:29:34Z</time>
      </trkpt>
      <trkpt lat="38.684505" lon="-2.667339">
        <ele>883.017</ele>
        <time>2019-06-24T19:29:54Z</time>
      </trkpt>
      <trkpt lat="38.682830" lon="-2.665665">
        <ele>881.808</ele>
        <time>2019-06-24T19:30:14Z</time>
      </trkpt>
      <trkpt lat="38.681691" lon="-2.664549">
        <ele>880.478</ele>
        <time>2019-06-24T19:30:34Z</time>
      </trkpt>
      <trkpt lat="38.681699" lon="-2.664378">
        <ele>879.722</ele>
        <time>2019-06-24T19:30:54Z</time>
      </trkpt>
      <trkpt lat="38.681548" lon="-2.664249">
        <ele>877.764</ele>
        <time>2019-06-24T19:31:14Z</time>
      </trkpt>
      <trkpt lat="38.681465" lon="-2.664045">
        <ele>876.195</ele>
        <time>2019-06-24T19:31:34Z</time>
      </trkpt>
      <trkpt lat="38.681339" lon="-2.663616">
        <ele>874.251</ele>
        <time>2019-06-24T19:31:54Z</time>
      </trkpt>
      <trkpt lat="38.681264" lon="-2.663208">
        <ele>872.146</ele>
        <time>2019-06-24T19:32:14Z</time>
      </trkpt>
      <trkpt lat="38.681582" lon="-2.662468">
        <ele>868.681</ele>
        <time>2019-06-24T19:32:34Z</time>
      </trkpt>
      <trkpt lat="38.681976" lon="-2.661642">
        <ele>870.233</ele>
        <time>2019-06-24T19:32:54Z</time>
      </trkpt>
      <trkpt lat="38.682001" lon="-2.661095">
        <ele>870.374</ele>
        <time>2019-06-24T19:33:14Z</time>
      </trkpt>
      <trkpt lat="38.682227" lon="-2.660537">
        <ele>873.056</ele>
        <time>2019-06-24T19:33:34Z</time>
      </trkpt>
      <trkpt lat="38.682503" lon="-2.660075">
        <ele>873.321</ele>
        <time>2019-06-24T19:33:54Z</time>
      </trkpt>
      <trkpt lat="38.682579" lon="-2.659743">
        <ele>872.008</ele>
        <time>2019-06-24T19:34:14Z</time>
      </trkpt>
      <trkpt lat="38.682855" lon="-2.659303">
        <ele>874.620</ele>
        <time>2019-06-24T19:34:34Z</time>
      </trkpt>
      <trkpt lat="38.683098" lon="-2.658745">
        <ele>875.394</ele>
        <time>2019-06-24T19:34:54Z</time>
      </trkpt>
      <trkpt lat="38.683450" lon="-2.657640">
        <ele>872.956</ele>
        <time>2019-06-24T19:35:14Z</time>
      </trkpt>
      <trkpt lat="38.683785" lon="-2.657157">
        <ele>874.587</ele>
        <time>2019-06-24T19:35:34Z</time>
      </trkpt>
      <trkpt lat="38.684630" lon="-2.656449">
        <ele>877.073</ele>
        <time>2019-06-24T19:35:54Z</time>
      </trkpt>
      <trkpt lat="38.685669" lon="-2.655741">
        <ele>878.388</ele>
        <time>2019-06-24T19:36:14Z</time>
      </trkpt>
      <trkpt lat="38.686305" lon="-2.655333">
        <ele>877.983</ele>
        <time>2019-06-24T19:36:34Z</time>
      </trkpt>
      <trkpt lat="38.686691" lon="-2.655022">
        <ele>881.075</ele>
        <time>2019-06-24T19:36:54Z</time>
      </trkpt>
      <trkpt lat="38.686439" lon="-2.654496">
        <ele>875.816</ele>
        <time>2019-06-24T19:37:14Z</time>
      </trkpt>
      <trkpt lat="38.686121" lon="-2.654282">
        <ele>875.476</ele>
        <time>2019-06-24T19:37:34Z</time>
      </trkpt>
      <trkpt lat="38.686004" lon="-2.654035">
        <ele>876.113</ele>
        <time>2019-06-24T19:37:54Z</time>
      </trkpt>
      <trkpt lat="38.686121" lon="-2.653713">
        <ele>875.408</ele>
        <time>2019-06-24T19:38:14Z</time>
      </trkpt>
      <trkpt lat="38.686330" lon="-2.653230">
        <ele>878.574</ele>
        <time>2019-06-24T19:38:34Z</time>
      </trkpt>
      <trkpt lat="38.686473" lon="-2.652340">
        <ele>891.228</ele>
        <time>2019-06-24T19:38:54Z</time>
      </trkpt>
      <trkpt lat="38.686397" lon="-2.652179">
        <ele>892.280</ele>
        <time>2019-06-24T19:39:14Z</time>
      </trkpt>
      <trkpt lat="38.686414" lon="-2.651889">
        <ele>894.051</ele>
        <time>2019-06-24T19:39:34Z</time>
      </trkpt>
      <trkpt lat="38.686347" lon="-2.651396">
        <ele>901.817</ele>
        <time>2019-06-24T19:39:54Z</time>
      </trkpt>
      <trkpt lat="38.686272" lon="-2.651085">
        <ele>906.482</ele>
        <time>2019-06-24T19:40:14Z</time>
      </trkpt>
      <trkpt lat="38.686205" lon="-2.650870">
        <ele>909.597</ele>
        <time>2019-06-24T19:40:34Z</time>
      </trkpt>
      <trkpt lat="38.686431" lon="-2.650645">
        <ele>910.729</ele>
        <time>2019-06-24T19:40:54Z</time>
      </trkpt>
      <trkpt lat="38.686322" lon="-2.649518">
        <ele>919.347</ele>
        <time>2019-06-24T19:41:14Z</time>
      </trkpt>
      <trkpt lat="38.686138" lon="-2.648091">
        <ele>930.329</ele>
        <time>2019-06-24T19:41:34Z</time>
      </trkpt>
      <trkpt lat="38.686062" lon="-2.647501">
        <ele>934.921</ele>
        <time>2019-06-24T19:41:54Z</time>
      </trkpt>
      <trkpt lat="38.685895" lon="-2.647190">
        <ele>939.408</ele>
        <time>2019-06-24T19:42:14Z</time>
      </trkpt>
      <trkpt lat="38.685443" lon="-2.646900">
        <ele>944.997</ele>
        <time>2019-06-24T19:42:34Z</time>
      </trkpt>
      <trkpt lat="38.685016" lon="-2.646815">
        <ele>944.241</ele>
        <time>2019-06-24T19:42:54Z</time>
      </trkpt>
      <trkpt lat="38.684580" lon="-2.646761">
        <ele>944.543</ele>
        <time>2019-06-24T19:43:14Z</time>
      </trkpt>
      <trkpt lat="38.684120" lon="-2.646546">
        <ele>945.824</ele>
        <time>2019-06-24T19:43:34Z</time>
      </trkpt>
      <trkpt lat="38.684036" lon="-2.646375">
        <ele>945.680</ele>
        <time>2019-06-24T19:43:54Z</time>
      </trkpt>
      <trkpt lat="38.684044" lon="-2.646128">
        <ele>948.355</ele>
        <time>2019-06-24T19:44:14Z</time>
      </trkpt>
      <trkpt lat="38.684354" lon="-2.645710">
        <ele>954.990</ele>
        <time>2019-06-24T19:44:34Z</time>
      </trkpt>
      <trkpt lat="38.684605" lon="-2.645216">
        <ele>961.222</ele>
        <time>2019-06-24T19:44:54Z</time>
      </trkpt>
      <trkpt lat="38.685367" lon="-2.644465">
        <ele>957.148</ele>
        <time>2019-06-24T19:45:14Z</time>
      </trkpt>
      <trkpt lat="38.685744" lon="-2.643510">
        <ele>965.561</ele>
        <time>2019-06-24T19:45:34Z</time>
      </trkpt>
      <trkpt lat="38.685937" lon="-2.642963">
        <ele>964.817</ele>
        <time>2019-06-24T19:45:54Z</time>
      </trkpt>
      <trkpt lat="38.686180" lon="-2.642534">
        <ele>963.108</ele>
        <time>2019-06-24T19:46:14Z</time>
      </trkpt>
      <trkpt lat="38.686155" lon="-2.641997">
        <ele>964.027</ele>
        <time>2019-06-24T19:46:34Z</time>
      </trkpt>
      <trkpt lat="38.685954" lon="-2.641418">
        <ele>966.041</ele>
        <time>2019-06-24T19:46:54Z</time>
      </trkpt>
      <trkpt lat="38.685778" lon="-2.640935">
        <ele>965.043</ele>
        <time>2019-06-24T19:47:14Z</time>
      </trkpt>
      <trkpt lat="38.685769" lon="-2.640549">
        <ele>963.224</ele>
        <time>2019-06-24T19:47:34Z</time>
      </trkpt>
      <trkpt lat="38.685728" lon="-2.639530">
        <ele>967.480</ele>
        <time>2019-06-24T19:47:54Z</time>
      </trkpt>
      <trkpt lat="38.685928" lon="-2.639208">
        <ele>969.115</ele>
        <time>2019-06-24T19:48:14Z</time>
      </trkpt>
      <trkpt lat="38.686071" lon="-2.639015">
        <ele>969.360</ele>
        <time>2019-06-24T19:48:34Z</time>
      </trkpt>
      <trkpt lat="38.686280" lon="-2.638747">
        <ele>970.832</ele>
        <time>2019-06-24T19:48:54Z</time>
      </trkpt>
      <trkpt lat="38.686372" lon="-2.638146">
        <ele>975.533</ele>
        <time>2019-06-24T19:49:14Z</time>
      </trkpt>
      <trkpt lat="38.686464" lon="-2.637781">
        <ele>975.223</ele>
        <time>2019-06-24T19:49:34Z</time>
      </trkpt>
      <trkpt lat="38.687361" lon="-2.636847">
        <ele>970.515</ele>
        <time>2019-06-24T19:49:54Z</time>
      </trkpt>
      <trkpt lat="38.687855" lon="-2.636762">
        <ele>973.508</ele>
        <time>2019-06-24T19:50:14Z</time>
      </trkpt>
      <trkpt lat="38.688056" lon="-2.636461">
        <ele>978.026</ele>
        <time>2019-06-24T19:50:34Z</time>
      </trkpt>
      <trkpt lat="38.688675" lon="-2.635978">
        <ele>980.960</ele>
        <time>2019-06-24T19:50:54Z</time>
      </trkpt>
      <trkpt lat="38.688918" lon="-2.635581">
        <ele>984.092</ele>
        <time>2019-06-24T19:51:14Z</time>
      </trkpt>
      <trkpt lat="38.689387" lon="-2.635131">
        <ele>985.673</ele>
        <time>2019-06-24T19:51:34Z</time>
      </trkpt>
      <trkpt lat="38.689705" lon="-2.634648">
        <ele>981.669</ele>
        <time>2019-06-24T19:51:54Z</time>
      </trkpt>
      <trkpt lat="38.689781" lon="-2.634391">
        <ele>979.754</ele>
        <time>2019-06-24T19:52:14Z</time>
      </trkpt>
      <trkpt lat="38.690040" lon="-2.634240">
        <ele>977.999</ele>
        <time>2019-06-24T19:52:34Z</time>
      </trkpt>
      <trkpt lat="38.690233" lon="-2.634037">
        <ele>977.311</ele>
        <time>2019-06-24T19:52:54Z</time>
      </trkpt>
      <trkpt lat="38.690216" lon="-2.633489">
        <ele>980.092</ele>
        <time>2019-06-24T19:53:14Z</time>
      </trkpt>
      <trkpt lat="38.690191" lon="-2.633200">
        <ele>981.073</ele>
        <time>2019-06-24T19:53:34Z</time>
      </trkpt>
      <trkpt lat="38.690350" lon="-2.632856">
        <ele>980.720</ele>
        <time>2019-06-24T19:53:54Z</time>
      </trkpt>
      <trkpt lat="38.690350" lon="-2.632577">
        <ele>981.508</ele>
        <time>2019-06-24T19:54:14Z</time>
      </trkpt>
      <trkpt lat="38.690300" lon="-2.632341">
        <ele>982.052</ele>
        <time>2019-06-24T19:54:34Z</time>
      </trkpt>
      <trkpt lat="38.691213" lon="-2.631805">
        <ele>980.026</ele>
        <time>2019-06-24T19:54:54Z</time>
      </trkpt>
      <trkpt lat="38.691422" lon="-2.631494">
        <ele>981.498</ele>
        <time>2019-06-24T19:55:14Z</time>
      </trkpt>
      <trkpt lat="38.691673" lon="-2.631236">
        <ele>980.689</ele>
        <time>2019-06-24T19:55:34Z</time>
      </trkpt>
      <trkpt lat="38.692100" lon="-2.631011">
        <ele>982.315</ele>
        <time>2019-06-24T19:55:54Z</time>
      </trkpt>
      <trkpt lat="38.692821" lon="-2.631365">
        <ele>974.630</ele>
        <time>2019-06-24T19:56:14Z</time>
      </trkpt>
      <trkpt lat="38.693985" lon="-2.631665">
        <ele>972.375</ele>
        <time>2019-06-24T19:56:34Z</time>
      </trkpt>
      <trkpt lat="38.694194" lon="-2.631226">
        <ele>972.687</ele>
        <time>2019-06-24T19:56:54Z</time>
      </trkpt>
      <trkpt lat="38.694119" lon="-2.630646">
        <ele>973.973</ele>
        <time>2019-06-24T19:57:14Z</time>
      </trkpt>
      <trkpt lat="38.694186" lon="-2.629434">
        <ele>965.185</ele>
        <time>2019-06-24T19:57:34Z</time>
      </trkpt>
      <trkpt lat="38.694420" lon="-2.627878">
        <ele>961.313</ele>
        <time>2019-06-24T19:57:54Z</time>
      </trkpt>
      <trkpt lat="38.694512" lon="-2.626902">
        <ele>956.408</ele>
        <time>2019-06-24T19:58:14Z</time>
      </trkpt>
      <trkpt lat="38.694387" lon="-2.626119">
        <ele>955.220</ele>
        <time>2019-06-24T19:58:34Z</time>
      </trkpt>
      <trkpt lat="38.694571" lon="-2.625400">
        <ele>955.974</ele>
        <time>2019-06-24T19:58:54Z</time>
      </trkpt>
      <trkpt lat="38.694562" lon="-2.625089">
        <ele>953.886</ele>
        <time>2019-06-24T19:59:14Z</time>
      </trkpt>
      <trkpt lat="38.694587" lon="-2.624445">
        <ele>950.087</ele>
        <time>2019-06-24T19:59:34Z</time>
      </trkpt>
      <trkpt lat="38.694814" lon="-2.623962">
        <ele>949.393</ele>
        <time>2019-06-24T19:59:54Z</time>
      </trkpt>
      <trkpt lat="38.694931" lon="-2.623576">
        <ele>945.038</ele>
        <time>2019-06-24T20:00:14Z</time>
      </trkpt>
      <trkpt lat="38.695450" lon="-2.621763">
        <ele>944.383</ele>
        <time>2019-06-24T20:00:34Z</time>
      </trkpt>
      <trkpt lat="38.696162" lon="-2.620443">
        <ele>939.165</ele>
        <time>2019-06-24T20:00:54Z</time>
      </trkpt>
      <trkpt lat="38.696622" lon="-2.619478">
        <ele>932.275</ele>
        <time>2019-06-24T20:01:14Z</time>
      </trkpt>
      <trkpt lat="38.698004" lon="-2.618233">
        <ele>923.828</ele>
        <time>2019-06-24T20:01:34Z</time>
      </trkpt>
      <trkpt lat="38.698389" lon="-2.616935">
        <ele>921.120</ele>
        <time>2019-06-24T20:01:54Z</time>
      </trkpt>
      <trkpt lat="38.698481" lon="-2.616270">
        <ele>924.608</ele>
        <time>2019-06-24T20:02:14Z</time>
      </trkpt>
      <trkpt lat="38.698431" lon="-2.615862">
        <ele>926.120</ele>
        <time>2019-06-24T20:02:34Z</time>
      </trkpt>
      <trkpt lat="38.698196" lon="-2.615207">
        <ele>926.764</ele>
        <time>2019-06-24T20:02:54Z</time>
      </trkpt>
      <trkpt lat="38.698121" lon="-2.614295">
        <ele>929.866</ele>
        <time>2019-06-24T20:03:14Z</time>
      </trkpt>
      <trkpt lat="38.698104" lon="-2.613684">
        <ele>930.367</ele>
        <time>2019-06-24T20:03:34Z</time>
      </trkpt>
      <trkpt lat="38.697996" lon="-2.612901">
        <ele>923.063</ele>
        <time>2019-06-24T20:03:54Z</time>
      </trkpt>
      <trkpt lat="38.698171" lon="-2.611989">
        <ele>916.188</ele>
        <time>2019-06-24T20:04:14Z</time>
      </trkpt>
      <trkpt lat="38.698230" lon="-2.611356">
        <ele>913.563</ele>
        <time>2019-06-24T20:04:34Z</time>
      </trkpt>
      <trkpt lat="38.698205" lon="-2.611023">
        <ele>912.145</ele>
        <time>2019-06-24T20:04:54Z</time>
      </trkpt>
      <trkpt lat="38.698431" lon="-2.610626">
        <ele>910.658</ele>
        <time>2019-06-24T20:05:14Z</time>
      </trkpt>
      <trkpt lat="38.698548" lon="-2.610079">
        <ele>910.252</ele>
        <time>2019-06-24T20:05:34Z</time>
      </trkpt>
      <trkpt lat="38.698498" lon="-2.609521">
        <ele>912.017</ele>
        <time>2019-06-24T20:05:54Z</time>
      </trkpt>
      <trkpt lat="38.698657" lon="-2.609006">
        <ele>910.008</ele>
        <time>2019-06-24T20:06:14Z</time>
      </trkpt>
      <trkpt lat="38.698900" lon="-2.608577">
        <ele>908.138</ele>
        <time>2019-06-24T20:06:34Z</time>
      </trkpt>
      <trkpt lat="38.698992" lon="-2.607944">
        <ele>909.232</ele>
        <time>2019-06-24T20:06:54Z</time>
      </trkpt>
      <trkpt lat="38.699134" lon="-2.607547">
        <ele>911.284</ele>
        <time>2019-06-24T20:07:14Z</time>
      </trkpt>
      <trkpt lat="38.698900" lon="-2.606989">
        <ele>901.635</ele>
        <time>2019-06-24T20:07:34Z</time>
      </trkpt>
      <trkpt lat="38.698908" lon="-2.606463">
        <ele>895.941</ele>
        <time>2019-06-24T20:07:54Z</time>
      </trkpt>
      <trkpt lat="38.698942" lon="-2.606270">
        <ele>895.676</ele>
        <time>2019-06-24T20:08:14Z</time>
      </trkpt>
      <trkpt lat="38.699260" lon="-2.606002">
        <ele>898.711</ele>
        <time>2019-06-24T20:08:34Z</time>
      </trkpt>
      <trkpt lat="38.699260" lon="-2.605455">
        <ele>894.433</ele>
        <time>2019-06-24T20:08:54Z</time>
      </trkpt>
      <trkpt lat="38.700231" lon="-2.605224">
        <ele>884.637</ele>
        <time>2019-06-24T20:09:14Z</time>
      </trkpt>
      <trkpt lat="38.700704" lon="-2.604935">
        <ele>883.449</ele>
        <time>2019-06-24T20:09:34Z</time>
      </trkpt>
      <trkpt lat="38.700981" lon="-2.605294">
        <ele>885.013</ele>
        <time>2019-06-24T20:09:54Z</time>
      </trkpt>
      <trkpt lat="38.701035" lon="-2.605589">
        <ele>888.208</ele>
        <time>2019-06-24T20:10:14Z</time>
      </trkpt>
      <trkpt lat="38.701052" lon="-2.605766">
        <ele>890.726</ele>
        <time>2019-06-24T20:10:34Z</time>
      </trkpt>
      <trkpt lat="38.701098" lon="-2.605830">
        <ele>891.190</ele>
        <time>2019-06-24T20:10:54Z</time>
      </trkpt>
      <trkpt lat="38.701588" lon="-2.605734">
        <ele>882.612</ele>
        <time>2019-06-24T20:11:14Z</time>
      </trkpt>
      <trkpt lat="38.701876" lon="-2.605825">
        <ele>876.933</ele>
        <time>2019-06-24T20:11:34Z</time>
      </trkpt>
      <trkpt lat="38.701939" lon="-2.605734">
        <ele>875.189</ele>
        <time>2019-06-24T20:11:54Z</time>
      </trkpt>
      <trkpt lat="38.702169" lon="-2.606249">
        <ele>872.384</ele>
        <time>2019-06-24T20:12:14Z</time>
      </trkpt>
      <trkpt lat="38.702295" lon="-2.606324">
        <ele>869.619</ele>
        <time>2019-06-24T20:12:34Z</time>
      </trkpt>
      <trkpt lat="38.702266" lon="-2.605750">
        <ele>871.631</ele>
        <time>2019-06-24T20:12:54Z</time>
      </trkpt>
      <trkpt lat="38.702199" lon="-2.605374">
        <ele>872.388</ele>
        <time>2019-06-24T20:13:14Z</time>
      </trkpt>
      <trkpt lat="38.702027" lon="-2.604715">
        <ele>874.424</ele>
        <time>2019-06-24T20:13:34Z</time>
      </trkpt>
      <trkpt lat="38.702312" lon="-2.604731">
        <ele>871.026</ele>
        <time>2019-06-24T20:13:54Z</time>
      </trkpt>
      <trkpt lat="38.702722" lon="-2.604522">
        <ele>865.208</ele>
        <time>2019-06-24T20:14:14Z</time>
      </trkpt>
      <trkpt lat="38.703220" lon="-2.604527">
        <ele>862.361</ele>
        <time>2019-06-24T20:14:34Z</time>
      </trkpt>
      <trkpt lat="38.703685" lon="-2.604618">
        <ele>866.335</ele>
        <time>2019-06-24T20:14:54Z</time>
      </trkpt>
      <trkpt lat="38.704552" lon="-2.604790">
        <ele>879.627</ele>
        <time>2019-06-24T20:15:14Z</time>
      </trkpt>
      <trkpt lat="38.705104" lon="-2.604661">
        <ele>882.278</ele>
        <time>2019-06-24T20:15:34Z</time>
      </trkpt>
      <trkpt lat="38.705431" lon="-2.604854">
        <ele>883.214</ele>
        <time>2019-06-24T20:15:54Z</time>
      </trkpt>
      <trkpt lat="38.705581" lon="-2.605423">
        <ele>883.469</ele>
        <time>2019-06-24T20:16:14Z</time>
      </trkpt>
      <trkpt lat="38.705841" lon="-2.605906">
        <ele>884.054</ele>
        <time>2019-06-24T20:16:34Z</time>
      </trkpt>
      <trkpt lat="38.706268" lon="-2.606195">
        <ele>885.186</ele>
        <time>2019-06-24T20:16:54Z</time>
      </trkpt>
      <trkpt lat="38.707005" lon="-2.606378">
        <ele>894.448</ele>
        <time>2019-06-24T20:17:14Z</time>
      </trkpt>
      <trkpt lat="38.707574" lon="-2.606270">
        <ele>897.961</ele>
        <time>2019-06-24T20:17:34Z</time>
      </trkpt>
      <trkpt lat="38.708227" lon="-2.606560">
        <ele>902.117</ele>
        <time>2019-06-24T20:17:54Z</time>
      </trkpt>
      <trkpt lat="38.709140" lon="-2.606517">
        <ele>910.808</ele>
        <time>2019-06-24T20:18:14Z</time>
      </trkpt>
      <trkpt lat="38.709424" lon="-2.605873">
        <ele>918.227</ele>
        <time>2019-06-24T20:18:34Z</time>
      </trkpt>
      <trkpt lat="38.709374" lon="-2.605573">
        <ele>918.911</ele>
        <time>2019-06-24T20:18:54Z</time>
      </trkpt>
      <trkpt lat="38.709315" lon="-2.605240">
        <ele>918.623</ele>
        <time>2019-06-24T20:19:14Z</time>
      </trkpt>
      <trkpt lat="38.709407" lon="-2.604908">
        <ele>918.524</ele>
        <time>2019-06-24T20:19:34Z</time>
      </trkpt>
      <trkpt lat="38.709734" lon="-2.604822">
        <ele>919.820</ele>
        <time>2019-06-24T20:19:54Z</time>
      </trkpt>
      <trkpt lat="38.710060" lon="-2.604758">
        <ele>923.745</ele>
        <time>2019-06-24T20:20:14Z</time>
      </trkpt>
      <trkpt lat="38.710847" lon="-2.603524">
        <ele>925.610</ele>
        <time>2019-06-24T20:20:34Z</time>
      </trkpt>
      <trkpt lat="38.711459" lon="-2.603459">
        <ele>931.422</ele>
        <time>2019-06-24T20:20:54Z</time>
      </trkpt>
      <trkpt lat="38.712003" lon="-2.603320">
        <ele>933.375</ele>
        <time>2019-06-24T20:21:14Z</time>
      </trkpt>
      <trkpt lat="38.713158" lon="-2.603449">
        <ele>942.128</ele>
        <time>2019-06-24T20:21:34Z</time>
      </trkpt>
      <trkpt lat="38.714297" lon="-2.603749">
        <ele>952.720</ele>
        <time>2019-06-24T20:21:54Z</time>
      </trkpt>
      <trkpt lat="38.714899" lon="-2.603792">
        <ele>958.908</ele>
        <time>2019-06-24T20:22:14Z</time>
      </trkpt>
      <trkpt lat="38.715602" lon="-2.603599">
        <ele>961.550</ele>
        <time>2019-06-24T20:22:34Z</time>
      </trkpt>
      <trkpt lat="38.715803" lon="-2.603835">
        <ele>965.564</ele>
        <time>2019-06-24T20:22:54Z</time>
      </trkpt>
      <trkpt lat="38.716272" lon="-2.603760">
        <ele>971.166</ele>
        <time>2019-06-24T20:23:14Z</time>
      </trkpt>
      <trkpt lat="38.716565" lon="-2.603577">
        <ele>976.177</ele>
        <time>2019-06-24T20:23:34Z</time>
      </trkpt>
      <trkpt lat="38.716867" lon="-2.603706">
        <ele>984.233</ele>
        <time>2019-06-24T20:23:54Z</time>
      </trkpt>
      <trkpt lat="38.717176" lon="-2.604350">
        <ele>993.318</ele>
        <time>2019-06-24T20:24:14Z</time>
      </trkpt>
      <trkpt lat="38.717662" lon="-2.604328">
        <ele>999.673</ele>
        <time>2019-06-24T20:24:34Z</time>
      </trkpt>
      <trkpt lat="38.718340" lon="-2.603942">
        <ele>1010.815</ele>
        <time>2019-06-24T20:24:54Z</time>
      </trkpt>
      <trkpt lat="38.718532" lon="-2.603620">
        <ele>1011.761</ele>
        <time>2019-06-24T20:25:14Z</time>
      </trkpt>
      <trkpt lat="38.718859" lon="-2.603459">
        <ele>1012.921</ele>
        <time>2019-06-24T20:25:34Z</time>
      </trkpt>
      <trkpt lat="38.718976" lon="-2.603234">
        <ele>1013.513</ele>
        <time>2019-06-24T20:25:54Z</time>
      </trkpt>
      <trkpt lat="38.719127" lon="-2.602805">
        <ele>1013.108</ele>
        <time>2019-06-24T20:26:14Z</time>
      </trkpt>
      <trkpt lat="38.720851" lon="-2.601496">
        <ele>1014.619</ele>
        <time>2019-06-24T20:26:34Z</time>
      </trkpt>
      <trkpt lat="38.722500" lon="-2.600520">
        <ele>1017.063</ele>
        <time>2019-06-24T20:26:54Z</time>
      </trkpt>
      <trkpt lat="38.723253" lon="-2.600209">
        <ele>1018.495</ele>
        <time>2019-06-24T20:27:14Z</time>
      </trkpt>
      <trkpt lat="38.724065" lon="-2.599983">
        <ele>1021.616</ele>
        <time>2019-06-24T20:27:34Z</time>
      </trkpt>
      <trkpt lat="38.725438" lon="-2.599093">
        <ele>1022.122</ele>
        <time>2019-06-24T20:27:54Z</time>
      </trkpt>
      <trkpt lat="38.726694" lon="-2.597977">
        <ele>1021.367</ele>
        <time>2019-06-24T20:28:14Z</time>
      </trkpt>
      <trkpt lat="38.728301" lon="-2.596765">
        <ele>1019.162</ele>
        <time>2019-06-24T20:28:34Z</time>
      </trkpt>
      <trkpt lat="38.729640" lon="-2.596014">
        <ele>1015.164</ele>
        <time>2019-06-24T20:28:54Z</time>
      </trkpt>
      <trkpt lat="38.730753" lon="-2.595327">
        <ele>1013.796</ele>
        <time>2019-06-24T20:29:14Z</time>
      </trkpt>
      <trkpt lat="38.732527" lon="-2.594748">
        <ele>1012.131</ele>
        <time>2019-06-24T20:29:34Z</time>
      </trkpt>
      <trkpt lat="38.734151" lon="-2.593921">
        <ele>1012.024</ele>
        <time>2019-06-24T20:29:54Z</time>
      </trkpt>
      <trkpt lat="38.734327" lon="-2.593696">
        <ele>1011.108</ele>
        <time>2019-06-24T20:30:14Z</time>
      </trkpt>
      <trkpt lat="38.734352" lon="-2.592956">
        <ele>1009.382</ele>
        <time>2019-06-24T20:30:34Z</time>
      </trkpt>
      <trkpt lat="38.734025" lon="-2.592462">
        <ele>1011.476</ele>
        <time>2019-06-24T20:30:54Z</time>
      </trkpt>
      <trkpt lat="38.733640" lon="-2.591068">
        <ele>1010.018</ele>
        <time>2019-06-24T20:31:14Z</time>
      </trkpt>
      <trkpt lat="38.733481" lon="-2.590231">
        <ele>1009.839</ele>
        <time>2019-06-24T20:31:34Z</time>
      </trkpt>
      <trkpt lat="38.733213" lon="-2.589630">
        <ele>1010.325</ele>
        <time>2019-06-24T20:31:54Z</time>
      </trkpt>
      <trkpt lat="38.732803" lon="-2.588450">
        <ele>1012.290</ele>
        <time>2019-06-24T20:32:14Z</time>
      </trkpt>
      <trkpt lat="38.732326" lon="-2.586797">
        <ele>1013.375</ele>
        <time>2019-06-24T20:32:34Z</time>
      </trkpt>
      <trkpt lat="38.732385" lon="-2.586551">
        <ele>1013.137</ele>
        <time>2019-06-24T20:32:54Z</time>
      </trkpt>
      <trkpt lat="38.732669" lon="-2.586143">
        <ele>1012.953</ele>
        <time>2019-06-24T20:33:14Z</time>
      </trkpt>
      <trkpt lat="38.733297" lon="-2.585124">
        <ele>1013.004</ele>
        <time>2019-06-24T20:33:34Z</time>
      </trkpt>
      <trkpt lat="38.733381" lon="-2.584351">
        <ele>1012.514</ele>
        <time>2019-06-24T20:33:54Z</time>
      </trkpt>
      <trkpt lat="38.733598" lon="-2.583976">
        <ele>1015.208</ele>
        <time>2019-06-24T20:34:14Z</time>
      </trkpt>
      <trkpt lat="38.733590" lon="-2.583643">
        <ele>1014.088</ele>
        <time>2019-06-24T20:34:34Z</time>
      </trkpt>
      <trkpt lat="38.733506" lon="-2.583504">
        <ele>1013.472</ele>
        <time>2019-06-24T20:34:54Z</time>
      </trkpt>
      <trkpt lat="38.734314" lon="-2.583386">
        <ele>1015.784</ele>
        <time>2019-06-24T20:35:14Z</time>
      </trkpt>
      <trkpt lat="38.734741" lon="-2.582930">
        <ele>1015.095</ele>
        <time>2019-06-24T20:35:34Z</time>
      </trkpt>
      <trkpt lat="38.735281" lon="-2.581916">
        <ele>1015.121</ele>
        <time>2019-06-24T20:35:54Z</time>
      </trkpt>
      <trkpt lat="38.735548" lon="-2.581197">
        <ele>1017.986</ele>
        <time>2019-06-24T20:36:14Z</time>
      </trkpt>
      <trkpt lat="38.735942" lon="-2.580500">
        <ele>1017.861</ele>
        <time>2019-06-24T20:36:34Z</time>
      </trkpt>
      <trkpt lat="38.736553" lon="-2.579137">
        <ele>1020.553</ele>
        <time>2019-06-24T20:36:54Z</time>
      </trkpt>
      <trkpt lat="38.737649" lon="-2.577281">
        <ele>1021.515</ele>
        <time>2019-06-24T20:37:14Z</time>
      </trkpt>
      <trkpt lat="38.738344" lon="-2.574856">
        <ele>1024.065</ele>
        <time>2019-06-24T20:37:34Z</time>
      </trkpt>
      <trkpt lat="38.738762" lon="-2.572625">
        <ele>1025.311</ele>
        <time>2019-06-24T20:37:54Z</time>
      </trkpt>
      <trkpt lat="38.738929" lon="-2.571155">
        <ele>1026.808</ele>
        <time>2019-06-24T20:38:14Z</time>
      </trkpt>
      <trkpt lat="38.738971" lon="-2.569470">
        <ele>1029.254</ele>
        <time>2019-06-24T20:38:34Z</time>
      </trkpt>
      <trkpt lat="38.739114" lon="-2.568462">
        <ele>1028.828</ele>
        <time>2019-06-24T20:38:54Z</time>
      </trkpt>
      <trkpt lat="38.739867" lon="-2.566617">
        <ele>1028.060</ele>
        <time>2019-06-24T20:39:14Z</time>
      </trkpt>
      <trkpt lat="38.740796" lon="-2.564642">
        <ele>1027.011</ele>
        <time>2019-06-24T20:39:34Z</time>
      </trkpt>
      <trkpt lat="38.741658" lon="-2.562443">
        <ele>1028.087</ele>
        <time>2019-06-24T20:39:54Z</time>
      </trkpt>
      <trkpt lat="38.742762" lon="-2.560050">
        <ele>1027.962</ele>
        <time>2019-06-24T20:40:14Z</time>
      </trkpt>
      <trkpt lat="38.743323" lon="-2.558602">
        <ele>1028.077</ele>
        <time>2019-06-24T20:40:34Z</time>
      </trkpt>
      <trkpt lat="38.743708" lon="-2.557315">
        <ele>1030.819</ele>
        <time>2019-06-24T20:40:54Z</time>
      </trkpt>
      <trkpt lat="38.743791" lon="-2.556446">
        <ele>1028.039</ele>
        <time>2019-06-24T20:41:14Z</time>
      </trkpt>
      <trkpt lat="38.743833" lon="-2.555684">
        <ele>1027.801</ele>
        <time>2019-06-24T20:41:34Z</time>
      </trkpt>
      <trkpt lat="38.745842" lon="-2.556778">
        <ele>1032.421</ele>
        <time>2019-06-24T20:41:54Z</time>
      </trkpt>
      <trkpt lat="38.746938" lon="-2.557411">
        <ele>1030.308</ele>
        <time>2019-06-24T20:42:14Z</time>
      </trkpt>
      <trkpt lat="38.748812" lon="-2.558924">
        <ele>1023.496</ele>
        <time>2019-06-24T20:42:34Z</time>
      </trkpt>
      <trkpt lat="38.749850" lon="-2.559772">
        <ele>1020.960</ele>
        <time>2019-06-24T20:42:54Z</time>
      </trkpt>
      <trkpt lat="38.751356" lon="-2.561713">
        <ele>1017.782</ele>
        <time>2019-06-24T20:43:14Z</time>
      </trkpt>
      <trkpt lat="38.752033" lon="-2.562304">
        <ele>1018.123</ele>
        <time>2019-06-24T20:43:34Z</time>
      </trkpt>
      <trkpt lat="38.754217" lon="-2.562186">
        <ele>1012.939</ele>
        <time>2019-06-24T20:43:54Z</time>
      </trkpt>
      <trkpt lat="38.754912" lon="-2.562346">
        <ele>1013.054</ele>
        <time>2019-06-24T20:44:14Z</time>
      </trkpt>
      <trkpt lat="38.755497" lon="-2.562786">
        <ele>1017.079</ele>
        <time>2019-06-24T20:44:34Z</time>
      </trkpt>
      <trkpt lat="38.756769" lon="-2.564063">
        <ele>1020.231</ele>
        <time>2019-06-24T20:44:54Z</time>
      </trkpt>
      <trkpt lat="38.758593" lon="-2.565340">
        <ele>1024.048</ele>
        <time>2019-06-24T20:45:14Z</time>
      </trkpt>
      <trkpt lat="38.760224" lon="-2.566423">
        <ele>1020.161</ele>
        <time>2019-06-24T20:45:34Z</time>
      </trkpt>
      <trkpt lat="38.761755" lon="-2.568483">
        <ele>1017.117</ele>
        <time>2019-06-24T20:45:54Z</time>
      </trkpt>
      <trkpt lat="38.763253" lon="-2.570060">
        <ele>1008.208</ele>
        <time>2019-06-24T20:46:14Z</time>
      </trkpt>
      <trkpt lat="38.763922" lon="-2.570447">
        <ele>1003.567</ele>
        <time>2019-06-24T20:46:34Z</time>
      </trkpt>
      <trkpt lat="38.764892" lon="-2.571863">
        <ele>1006.841</ele>
        <time>2019-06-24T20:46:54Z</time>
      </trkpt>
      <trkpt lat="38.765444" lon="-2.572496">
        <ele>1007.053</ele>
        <time>2019-06-24T20:47:14Z</time>
      </trkpt>
      <trkpt lat="38.766256" lon="-2.572936">
        <ele>1006.644</ele>
        <time>2019-06-24T20:47:34Z</time>
      </trkpt>
      <trkpt lat="38.767569" lon="-2.572936">
        <ele>1007.820</ele>
        <time>2019-06-24T20:47:54Z</time>
      </trkpt>
      <trkpt lat="38.769661" lon="-2.573472">
        <ele>1006.385</ele>
        <time>2019-06-24T20:48:14Z</time>
      </trkpt>
      <trkpt lat="38.770271" lon="-2.573698">
        <ele>1012.330</ele>
        <time>2019-06-24T20:48:34Z</time>
      </trkpt>
      <trkpt lat="38.771066" lon="-2.574245">
        <ele>1009.712</ele>
        <time>2019-06-24T20:48:54Z</time>
      </trkpt>
      <trkpt lat="38.771827" lon="-2.574406">
        <ele>1007.196</ele>
        <time>2019-06-24T20:49:14Z</time>
      </trkpt>
      <trkpt lat="38.772446" lon="-2.574953">
        <ele>1009.431</ele>
        <time>2019-06-24T20:49:34Z</time>
      </trkpt>
      <trkpt lat="38.773860" lon="-2.575618">
        <ele>1012.424</ele>
        <time>2019-06-24T20:49:54Z</time>
      </trkpt>
      <trkpt lat="38.775064" lon="-2.576251">
        <ele>1004.208</ele>
        <time>2019-06-24T20:50:14Z</time>
      </trkpt>
      <trkpt lat="38.775926" lon="-2.576723">
        <ele>995.932</ele>
        <time>2019-06-24T20:50:34Z</time>
      </trkpt>
      <trkpt lat="38.777013" lon="-2.577742">
        <ele>994.066</ele>
        <time>2019-06-24T20:50:54Z</time>
      </trkpt>
      <trkpt lat="38.777490" lon="-2.578096">
        <ele>995.248</ele>
        <time>2019-06-24T20:51:14Z</time>
      </trkpt>
      <trkpt lat="38.779372" lon="-2.579073">
        <ele>998.439</ele>
        <time>2019-06-24T20:51:34Z</time>
      </trkpt>
      <trkpt lat="38.781370" lon="-2.580049">
        <ele>995.595</ele>
        <time>2019-06-24T20:51:54Z</time>
      </trkpt>
      <trkpt lat="38.782826" lon="-2.580811">
        <ele>999.370</ele>
        <time>2019-06-24T20:52:14Z</time>
      </trkpt>
      <trkpt lat="38.784473" lon="-2.579792">
        <ele>1004.865</ele>
        <time>2019-06-24T20:52:34Z</time>
      </trkpt>
      <trkpt lat="38.786455" lon="-2.579781">
        <ele>993.417</ele>
        <time>2019-06-24T20:52:54Z</time>
      </trkpt>
      <trkpt lat="38.788186" lon="-2.579105">
        <ele>998.522</ele>
        <time>2019-06-24T20:53:14Z</time>
      </trkpt>
      <trkpt lat="38.789558" lon="-2.579148">
        <ele>992.662</ele>
        <time>2019-06-24T20:53:34Z</time>
      </trkpt>
      <trkpt lat="38.791590" lon="-2.579824">
        <ele>988.108</ele>
        <time>2019-06-24T20:53:54Z</time>
      </trkpt>
      <trkpt lat="38.793714" lon="-2.580317">
        <ele>990.508</ele>
        <time>2019-06-24T20:54:14Z</time>
      </trkpt>
      <trkpt lat="38.794985" lon="-2.580628">
        <ele>991.895</ele>
        <time>2019-06-24T20:54:34Z</time>
      </trkpt>
      <trkpt lat="38.795997" lon="-2.580607">
        <ele>992.959</ele>
        <time>2019-06-24T20:54:54Z</time>
      </trkpt>
      <trkpt lat="38.796858" lon="-2.580478">
        <ele>991.521</ele>
        <time>2019-06-24T20:55:14Z</time>
      </trkpt>
      <trkpt lat="38.797577" lon="-2.580564">
        <ele>988.742</ele>
        <time>2019-06-24T20:55:34Z</time>
      </trkpt>
      <trkpt lat="38.799517" lon="-2.581133">
        <ele>986.328</ele>
        <time>2019-06-24T20:55:54Z</time>
      </trkpt>
      <trkpt lat="38.801624" lon="-2.581015">
        <ele>986.423</ele>
        <time>2019-06-24T20:56:14Z</time>
      </trkpt>
      <trkpt lat="38.803321" lon="-2.580789">
        <ele>981.898</ele>
        <time>2019-06-24T20:56:34Z</time>
      </trkpt>
      <trkpt lat="38.804049" lon="-2.581025">
        <ele>981.880</ele>
        <time>2019-06-24T20:56:54Z</time>
      </trkpt>
      <trkpt lat="38.804392" lon="-2.581358">
        <ele>981.991</ele>
        <time>2019-06-24T20:57:14Z</time>
      </trkpt>
      <trkpt lat="38.805587" lon="-2.581358">
        <ele>976.381</ele>
        <time>2019-06-24T20:57:34Z</time>
      </trkpt>
      <trkpt lat="38.806248" lon="-2.581680">
        <ele>977.519</ele>
        <time>2019-06-24T20:57:54Z</time>
      </trkpt>
      <trkpt lat="38.806724" lon="-2.581583">
        <ele>978.808</ele>
        <time>2019-06-24T20:58:14Z</time>
      </trkpt>
      <trkpt lat="38.808154" lon="-2.581927">
        <ele>980.472</ele>
        <time>2019-06-24T20:58:34Z</time>
      </trkpt>
      <trkpt lat="38.809341" lon="-2.581830">
        <ele>987.276</ele>
        <time>2019-06-24T20:58:54Z</time>
      </trkpt>
      <trkpt lat="38.810838" lon="-2.581379">
        <ele>988.038</ele>
        <time>2019-06-24T20:59:14Z</time>
      </trkpt>
      <trkpt lat="38.812961" lon="-2.580961">
        <ele>993.749</ele>
        <time>2019-06-24T20:59:34Z</time>
      </trkpt>
      <trkpt lat="38.814959" lon="-2.580768">
        <ele>995.985</ele>
        <time>2019-06-24T20:59:54Z</time>
      </trkpt>
      <trkpt lat="38.815736" lon="-2.580789">
        <ele>998.820</ele>
        <time>2019-06-24T21:00:14Z</time>
      </trkpt>
      <trkpt lat="38.815987" lon="-2.580467">
        <ele>998.385</ele>
        <time>2019-06-24T21:00:34Z</time>
      </trkpt>
      <trkpt lat="38.816338" lon="-2.580553">
        <ele>996.417</ele>
        <time>2019-06-24T21:00:54Z</time>
      </trkpt>
      <trkpt lat="38.816706" lon="-2.580414">
        <ele>995.531</ele>
        <time>2019-06-24T21:01:14Z</time>
      </trkpt>
      <trkpt lat="38.817099" lon="-2.579695">
        <ele>991.361</ele>
        <time>2019-06-24T21:01:34Z</time>
      </trkpt>
      <trkpt lat="38.817517" lon="-2.578611">
        <ele>984.907</ele>
        <time>2019-06-24T21:01:54Z</time>
      </trkpt>
      <trkpt lat="38.817893" lon="-2.577978">
        <ele>981.908</ele>
        <time>2019-06-24T21:02:14Z</time>
      </trkpt>
      <trkpt lat="38.817927" lon="-2.577528">
        <ele>982.536</ele>
        <time>2019-06-24T21:02:34Z</time>
      </trkpt>
      <trkpt lat="38.817960" lon="-2.577163">
        <ele>981.480</ele>
        <time>2019-06-24T21:02:54Z</time>
      </trkpt>
      <trkpt lat="38.818136" lon="-2.576991">
        <ele>981.522</ele>
        <time>2019-06-24T21:03:14Z</time>
      </trkpt>
      <trkpt lat="38.818671" lon="-2.577152">
        <ele>984.963</ele>
        <time>2019-06-24T21:03:34Z</time>
      </trkpt>
      <trkpt lat="38.818829" lon="-2.577453">
        <ele>986.319</ele>
        <time>2019-06-24T21:03:54Z</time>
      </trkpt>
      <trkpt lat="38.818988" lon="-2.577667">
        <ele>985.934</ele>
        <time>2019-06-24T21:04:14Z</time>
      </trkpt>
      <trkpt lat="38.820200" lon="-2.577646">
        <ele>985.819</ele>
        <time>2019-06-24T21:04:34Z</time>
      </trkpt>
      <trkpt lat="38.821036" lon="-2.577817">
        <ele>983.951</ele>
        <time>2019-06-24T21:04:54Z</time>
      </trkpt>
      <trkpt lat="38.821437" lon="-2.578182">
        <ele>983.531</ele>
        <time>2019-06-24T21:05:14Z</time>
      </trkpt>
      <trkpt lat="38.821855" lon="-2.578354">
        <ele>983.061</ele>
        <time>2019-06-24T21:05:34Z</time>
      </trkpt>
      <trkpt lat="38.823561" lon="-2.579759">
        <ele>981.207</ele>
        <time>2019-06-24T21:05:54Z</time>
      </trkpt>
      <trkpt lat="38.825282" lon="-2.581401">
        <ele>985.008</ele>
        <time>2019-06-24T21:06:14Z</time>
      </trkpt>
      <trkpt lat="38.827046" lon="-2.582281">
        <ele>984.386</ele>
        <time>2019-06-24T21:06:34Z</time>
      </trkpt>
      <trkpt lat="38.827414" lon="-2.582570">
        <ele>985.710</ele>
        <time>2019-06-24T21:06:54Z</time>
      </trkpt>
      <trkpt lat="38.827807" lon="-2.582989">
        <ele>985.912</ele>
        <time>2019-06-24T21:07:14Z</time>
      </trkpt>
      <trkpt lat="38.829562" lon="-2.583557">
        <ele>985.673</ele>
        <time>2019-06-24T21:07:34Z</time>
      </trkpt>
      <trkpt lat="38.829829" lon="-2.584394">
        <ele>988.989</ele>
        <time>2019-06-24T21:07:54Z</time>
      </trkpt>
      <trkpt lat="38.829729" lon="-2.587066">
        <ele>985.034</ele>
        <time>2019-06-24T21:08:14Z</time>
      </trkpt>
      <trkpt lat="38.829696" lon="-2.588675">
        <ele>980.329</ele>
        <time>2019-06-24T21:08:34Z</time>
      </trkpt>
      <trkpt lat="38.830389" lon="-2.591271">
        <ele>980.881</ele>
        <time>2019-06-24T21:08:54Z</time>
      </trkpt>
      <trkpt lat="38.830740" lon="-2.593471">
        <ele>978.742</ele>
        <time>2019-06-24T21:09:14Z</time>
      </trkpt>
      <trkpt lat="38.831058" lon="-2.595177">
        <ele>980.022</ele>
        <time>2019-06-24T21:09:34Z</time>
      </trkpt>
      <trkpt lat="38.831518" lon="-2.596196">
        <ele>977.514</ele>
        <time>2019-06-24T21:09:54Z</time>
      </trkpt>
      <trkpt lat="38.832178" lon="-2.598460">
        <ele>976.508</ele>
        <time>2019-06-24T21:10:14Z</time>
      </trkpt>
      <trkpt lat="38.832261" lon="-2.598985">
        <ele>975.367</ele>
        <time>2019-06-24T21:10:34Z</time>
      </trkpt>
      <trkpt lat="38.832654" lon="-2.600316">
        <ele>979.551</ele>
        <time>2019-06-24T21:10:54Z</time>
      </trkpt>
      <trkpt lat="38.833298" lon="-2.602386">
        <ele>979.243</ele>
        <time>2019-06-24T21:11:14Z</time>
      </trkpt>
      <trkpt lat="38.833507" lon="-2.602998">
        <ele>979.034</ele>
        <time>2019-06-24T21:11:34Z</time>
      </trkpt>
      <trkpt lat="38.834351" lon="-2.604178">
        <ele>975.940</ele>
        <time>2019-06-24T21:11:54Z</time>
      </trkpt>
      <trkpt lat="38.834827" lon="-2.604800">
        <ele>974.625</ele>
        <time>2019-06-24T21:12:14Z</time>
      </trkpt>
      <trkpt lat="38.835838" lon="-2.605294">
        <ele>974.180</ele>
        <time>2019-06-24T21:12:34Z</time>
      </trkpt>
      <trkpt lat="38.837017" lon="-2.606410">
        <ele>971.252</ele>
        <time>2019-06-24T21:12:54Z</time>
      </trkpt>
      <trkpt lat="38.837752" lon="-2.607214">
        <ele>972.099</ele>
        <time>2019-06-24T21:13:14Z</time>
      </trkpt>
      <trkpt lat="38.838521" lon="-2.608448">
        <ele>973.707</ele>
        <time>2019-06-24T21:13:34Z</time>
      </trkpt>
      <trkpt lat="38.838855" lon="-2.608920">
        <ele>972.927</ele>
        <time>2019-06-24T21:13:54Z</time>
      </trkpt>
      <trkpt lat="38.835253" lon="-2.605230">
        <ele>973.2</ele>
        <time>2019-06-23T19:24:17Z</time>
      </trkpt>
      <trkpt lat="38.757698" lon="-2.715425">
        <ele>987.8</ele>
        <time>2019-06-23T19:24:17Z</time>
      </trkpt>
      <trkpt lat="38.838855" lon="-2.608974">
        <ele>972.781</ele>
        <time>2019-06-23T19:24:17Z</time>
      </trkpt>
      <trkpt lat="38.837435" lon="-2.606850">
        <ele>971.261</ele>
        <time>2019-06-23T19:24:37Z</time>
      </trkpt>
      <trkpt lat="38.836791" lon="-2.606109">
        <ele>973.017</ele>
        <time>2019-06-23T19:24:57Z</time>
      </trkpt>
      <trkpt lat="38.835939" lon="-2.605369">
        <ele>974.808</ele>
        <time>2019-06-23T19:25:17Z</time>
      </trkpt>
      <trkpt lat="38.835588" lon="-2.605165">
        <ele>972.421</ele>
        <time>2019-06-23T19:25:37Z</time>
      </trkpt>
      <trkpt lat="38.834827" lon="-2.604843">
        <ele>974.645</ele>
        <time>2019-06-23T19:25:57Z</time>
      </trkpt>
      <trkpt lat="38.833874" lon="-2.604522">
        <ele>976.767</ele>
        <time>2019-06-23T19:26:17Z</time>
      </trkpt>
      <trkpt lat="38.833490" lon="-2.604747">
        <ele>979.114</ele>
        <time>2019-06-23T19:26:37Z</time>
      </trkpt>
      <trkpt lat="38.832562" lon="-2.605348">
        <ele>979.362</ele>
        <time>2019-06-23T19:26:57Z</time>
      </trkpt>
      <trkpt lat="38.831710" lon="-2.606163">
        <ele>978.569</ele>
        <time>2019-06-23T19:27:17Z</time>
      </trkpt>
      <trkpt lat="38.831158" lon="-2.606689">
        <ele>979.037</ele>
        <time>2019-06-23T19:27:37Z</time>
      </trkpt>
      <trkpt lat="38.830464" lon="-2.607204">
        <ele>979.698</ele>
        <time>2019-06-23T19:27:57Z</time>
      </trkpt>
      <trkpt lat="38.829629" lon="-2.608277">
        <ele>975.548</ele>
        <time>2019-06-23T19:28:17Z</time>
      </trkpt>
      <trkpt lat="38.829244" lon="-2.608566">
        <ele>975.861</ele>
        <time>2019-06-23T19:28:37Z</time>
      </trkpt>
      <trkpt lat="38.828734" lon="-2.608738">
        <ele>974.717</ele>
        <time>2019-06-23T19:28:57Z</time>
      </trkpt>
      <trkpt lat="38.828225" lon="-2.609113">
        <ele>975.008</ele>
        <time>2019-06-23T19:29:17Z</time>
      </trkpt>
      <trkpt lat="38.828074" lon="-2.609468">
        <ele>974.127</ele>
        <time>2019-06-23T19:29:37Z</time>
      </trkpt>
      <trkpt lat="38.827798" lon="-2.609746">
        <ele>973.191</ele>
        <time>2019-06-23T19:29:57Z</time>
      </trkpt>
      <trkpt lat="38.827431" lon="-2.609907">
        <ele>970.283</ele>
        <time>2019-06-23T19:30:17Z</time>
      </trkpt>
      <trkpt lat="38.827138" lon="-2.609961">
        <ele>967.910</ele>
        <time>2019-06-23T19:30:37Z</time>
      </trkpt>
      <trkpt lat="38.826946" lon="-2.610573">
        <ele>969.058</ele>
        <time>2019-06-23T19:30:57Z</time>
      </trkpt>
      <trkpt lat="38.826728" lon="-2.611130">
        <ele>970.675</ele>
        <time>2019-06-23T19:31:17Z</time>
      </trkpt>
      <trkpt lat="38.826411" lon="-2.611367">
        <ele>970.963</ele>
        <time>2019-06-23T19:31:37Z</time>
      </trkpt>
      <trkpt lat="38.825784" lon="-2.611635">
        <ele>972.674</ele>
        <time>2019-06-23T19:31:57Z</time>
      </trkpt>
      <trkpt lat="38.825282" lon="-2.611624">
        <ele>972.266</ele>
        <time>2019-06-23T19:32:17Z</time>
      </trkpt>
      <trkpt lat="38.824714" lon="-2.611871">
        <ele>973.029</ele>
        <time>2019-06-23T19:32:37Z</time>
      </trkpt>
      <trkpt lat="38.824396" lon="-2.612246">
        <ele>972.221</ele>
        <time>2019-06-23T19:32:57Z</time>
      </trkpt>
      <trkpt lat="38.823803" lon="-2.612675">
        <ele>977.308</ele>
        <time>2019-06-23T19:33:17Z</time>
      </trkpt>
      <trkpt lat="38.823427" lon="-2.612901">
        <ele>978.779</ele>
        <time>2019-06-23T19:33:37Z</time>
      </trkpt>
      <trkpt lat="38.823134" lon="-2.613287">
        <ele>980.113</ele>
        <time>2019-06-23T19:33:57Z</time>
      </trkpt>
      <trkpt lat="38.822608" lon="-2.613534">
        <ele>979.495</ele>
        <time>2019-06-23T19:34:17Z</time>
      </trkpt>
      <trkpt lat="38.822424" lon="-2.613780">
        <ele>978.722</ele>
        <time>2019-06-23T19:34:37Z</time>
      </trkpt>
      <trkpt lat="38.822307" lon="-2.613984">
        <ele>978.310</ele>
        <time>2019-06-23T19:34:57Z</time>
      </trkpt>
      <trkpt lat="38.822140" lon="-2.614446">
        <ele>980.037</ele>
        <time>2019-06-23T19:35:17Z</time>
      </trkpt>
      <trkpt lat="38.821697" lon="-2.614628">
        <ele>980.155</ele>
        <time>2019-06-23T19:35:37Z</time>
      </trkpt>
      <trkpt lat="38.821053" lon="-2.615025">
        <ele>982.046</ele>
        <time>2019-06-23T19:35:57Z</time>
      </trkpt>
      <trkpt lat="38.820309" lon="-2.615336">
        <ele>983.574</ele>
        <time>2019-06-23T19:36:17Z</time>
      </trkpt>
      <trkpt lat="38.819573" lon="-2.615465">
        <ele>983.756</ele>
        <time>2019-06-23T19:36:37Z</time>
      </trkpt>
      <trkpt lat="38.819231" lon="-2.615508">
        <ele>984.021</ele>
        <time>2019-06-23T19:36:57Z</time>
      </trkpt>
      <trkpt lat="38.818478" lon="-2.615830">
        <ele>980.908</ele>
        <time>2019-06-23T19:37:17Z</time>
      </trkpt>
      <trkpt lat="38.818111" lon="-2.616141">
        <ele>984.930</ele>
        <time>2019-06-23T19:37:37Z</time>
      </trkpt>
      <trkpt lat="38.817400" lon="-2.616377">
        <ele>983.324</ele>
        <time>2019-06-23T19:37:57Z</time>
      </trkpt>
      <trkpt lat="38.817024" lon="-2.616613">
        <ele>982.556</ele>
        <time>2019-06-23T19:38:17Z</time>
      </trkpt>
      <trkpt lat="38.816631" lon="-2.616709">
        <ele>983.753</ele>
        <time>2019-06-23T19:38:37Z</time>
      </trkpt>
      <trkpt lat="38.816447" lon="-2.616774">
        <ele>984.221</ele>
        <time>2019-06-23T19:38:57Z</time>
      </trkpt>
      <trkpt lat="38.816004" lon="-2.617214">
        <ele>983.098</ele>
        <time>2019-06-23T19:39:17Z</time>
      </trkpt>
      <trkpt lat="38.815561" lon="-2.617439">
        <ele>983.096</ele>
        <time>2019-06-23T19:39:37Z</time>
      </trkpt>
      <trkpt lat="38.814901" lon="-2.617514">
        <ele>984.797</ele>
        <time>2019-06-23T19:39:57Z</time>
      </trkpt>
      <trkpt lat="38.814382" lon="-2.617557">
        <ele>985.828</ele>
        <time>2019-06-23T19:40:17Z</time>
      </trkpt>
      <trkpt lat="38.813973" lon="-2.617954">
        <ele>986.189</ele>
        <time>2019-06-23T19:40:37Z</time>
      </trkpt>
      <trkpt lat="38.813555" lon="-2.618158">
        <ele>988.617</ele>
        <time>2019-06-23T19:40:57Z</time>
      </trkpt>
      <trkpt lat="38.813195" lon="-2.618437">
        <ele>989.208</ele>
        <time>2019-06-23T19:41:17Z</time>
      </trkpt>
      <trkpt lat="38.812694" lon="-2.618694">
        <ele>991.665</ele>
        <time>2019-06-23T19:41:37Z</time>
      </trkpt>
      <trkpt lat="38.812342" lon="-2.618802">
        <ele>993.369</ele>
        <time>2019-06-23T19:41:57Z</time>
      </trkpt>
      <trkpt lat="38.812250" lon="-2.618952">
        <ele>993.121</ele>
        <time>2019-06-23T19:42:17Z</time>
      </trkpt>
      <trkpt lat="38.812317" lon="-2.619392">
        <ele>992.578</ele>
        <time>2019-06-23T19:42:37Z</time>
      </trkpt>
      <trkpt lat="38.812535" lon="-2.620218">
        <ele>994.066</ele>
        <time>2019-06-23T19:42:57Z</time>
      </trkpt>
      <trkpt lat="38.812694" lon="-2.620883">
        <ele>997.183</ele>
        <time>2019-06-23T19:43:17Z</time>
      </trkpt>
      <trkpt lat="38.812928" lon="-2.622085">
        <ele>998.341</ele>
        <time>2019-06-23T19:43:37Z</time>
      </trkpt>
      <trkpt lat="38.813237" lon="-2.623715">
        <ele>996.582</ele>
        <time>2019-06-23T19:43:57Z</time>
      </trkpt>
      <trkpt lat="38.813463" lon="-2.625067">
        <ele>995.241</ele>
        <time>2019-06-23T19:44:17Z</time>
      </trkpt>
      <trkpt lat="38.813864" lon="-2.627106">
        <ele>989.481</ele>
        <time>2019-06-23T19:44:37Z</time>
      </trkpt>
      <trkpt lat="38.814090" lon="-2.628061">
        <ele>986.009</ele>
        <time>2019-06-23T19:44:57Z</time>
      </trkpt>
      <trkpt lat="38.814315" lon="-2.629112">
        <ele>985.108</ele>
        <time>2019-06-23T19:45:17Z</time>
      </trkpt>
      <trkpt lat="38.814290" lon="-2.629477">
        <ele>985.197</ele>
        <time>2019-06-23T19:45:37Z</time>
      </trkpt>
      <trkpt lat="38.814290" lon="-2.630078">
        <ele>986.451</ele>
        <time>2019-06-23T19:45:57Z</time>
      </trkpt>
      <trkpt lat="38.814742" lon="-2.630035">
        <ele>987.033</ele>
        <time>2019-06-23T19:46:17Z</time>
      </trkpt>
      <trkpt lat="38.815135" lon="-2.630335">
        <ele>987.680</ele>
        <time>2019-06-23T19:46:37Z</time>
      </trkpt>
      <trkpt lat="38.815461" lon="-2.630507">
        <ele>986.748</ele>
        <time>2019-06-23T19:46:57Z</time>
      </trkpt>
      <trkpt lat="38.815845" lon="-2.630646">
        <ele>983.625</ele>
        <time>2019-06-23T19:47:17Z</time>
      </trkpt>
      <trkpt lat="38.816397" lon="-2.630968">
        <ele>982.043</ele>
        <time>2019-06-23T19:47:37Z</time>
      </trkpt>
      <trkpt lat="38.816823" lon="-2.631258">
        <ele>984.464</ele>
        <time>2019-06-23T19:47:57Z</time>
      </trkpt>
      <trkpt lat="38.817149" lon="-2.631590">
        <ele>986.011</ele>
        <time>2019-06-23T19:48:17Z</time>
      </trkpt>
      <trkpt lat="38.817985" lon="-2.632771">
        <ele>984.321</ele>
        <time>2019-06-23T19:48:37Z</time>
      </trkpt>
      <trkpt lat="38.818194" lon="-2.632931">
        <ele>983.803</ele>
        <time>2019-06-23T19:48:57Z</time>
      </trkpt>
      <trkpt lat="38.820184" lon="-2.633929">
        <ele>982.208</ele>
        <time>2019-06-23T19:49:17Z</time>
      </trkpt>
      <trkpt lat="38.822181" lon="-2.634959">
        <ele>989.664</ele>
        <time>2019-06-23T19:49:37Z</time>
      </trkpt>
      <trkpt lat="38.823051" lon="-2.635399">
        <ele>992.618</ele>
        <time>2019-06-23T19:49:57Z</time>
      </trkpt>
      <trkpt lat="38.823820" lon="-2.635635">
        <ele>992.220</ele>
        <time>2019-06-23T19:50:17Z</time>
      </trkpt>
      <trkpt lat="38.824447" lon="-2.635796">
        <ele>992.027</ele>
        <time>2019-06-23T19:50:37Z</time>
      </trkpt>
      <trkpt lat="38.825207" lon="-2.635721">
        <ele>989.635</ele>
        <time>2019-06-23T19:50:57Z</time>
      </trkpt>
      <trkpt lat="38.825633" lon="-2.635528">
        <ele>986.762</ele>
        <time>2019-06-23T19:51:17Z</time>
      </trkpt>
      <trkpt lat="38.825893" lon="-2.635828">
        <ele>985.680</ele>
        <time>2019-06-23T19:51:37Z</time>
      </trkpt>
      <trkpt lat="38.826361" lon="-2.636236">
        <ele>983.681</ele>
        <time>2019-06-23T19:51:57Z</time>
      </trkpt>
      <trkpt lat="38.827222" lon="-2.637041">
        <ele>985.754</ele>
        <time>2019-06-23T19:52:17Z</time>
      </trkpt>
      <trkpt lat="38.827648" lon="-2.637352">
        <ele>982.956</ele>
        <time>2019-06-23T19:52:37Z</time>
      </trkpt>
      <trkpt lat="38.828024" lon="-2.637609">
        <ele>981.111</ele>
        <time>2019-06-23T19:52:57Z</time>
      </trkpt>
      <trkpt lat="38.828392" lon="-2.637459">
        <ele>980.908</ele>
        <time>2019-06-23T19:53:17Z</time>
      </trkpt>
      <trkpt lat="38.828517" lon="-2.637620">
        <ele>980.388</ele>
        <time>2019-06-23T19:53:37Z</time>
      </trkpt>
      <trkpt lat="38.828492" lon="-2.637910">
        <ele>980.252</ele>
        <time>2019-06-23T19:53:57Z</time>
      </trkpt>
      <trkpt lat="38.828459" lon="-2.638060">
        <ele>980.164</ele>
        <time>2019-06-23T19:54:17Z</time>
      </trkpt>
      <trkpt lat="38.828342" lon="-2.638274">
        <ele>980.991</ele>
        <time>2019-06-23T19:54:37Z</time>
      </trkpt>
      <trkpt lat="38.828300" lon="-2.638607">
        <ele>980.039</ele>
        <time>2019-06-23T19:54:57Z</time>
      </trkpt>
      <trkpt lat="38.828216" lon="-2.638811">
        <ele>979.656</ele>
        <time>2019-06-23T19:55:17Z</time>
      </trkpt>
      <trkpt lat="38.828099" lon="-2.638918">
        <ele>979.824</ele>
        <time>2019-06-23T19:55:37Z</time>
      </trkpt>
      <trkpt lat="38.827924" lon="-2.639111">
        <ele>979.575</ele>
        <time>2019-06-23T19:55:57Z</time>
      </trkpt>
      <trkpt lat="38.827740" lon="-2.639422">
        <ele>979.944</ele>
        <time>2019-06-23T19:56:17Z</time>
      </trkpt>
      <trkpt lat="38.827464" lon="-2.640409">
        <ele>980.505</ele>
        <time>2019-06-23T19:56:37Z</time>
      </trkpt>
      <trkpt lat="38.827046" lon="-2.641300">
        <ele>979.015</ele>
        <time>2019-06-23T19:56:57Z</time>
      </trkpt>
      <trkpt lat="38.826845" lon="-2.641675">
        <ele>979.008</ele>
        <time>2019-06-23T19:57:17Z</time>
      </trkpt>
      <trkpt lat="38.826695" lon="-2.642062">
        <ele>979.077</ele>
        <time>2019-06-23T19:57:37Z</time>
      </trkpt>
      <trkpt lat="38.826603" lon="-2.642555">
        <ele>979.061</ele>
        <time>2019-06-23T19:57:57Z</time>
      </trkpt>
      <trkpt lat="38.826428" lon="-2.643124">
        <ele>977.833</ele>
        <time>2019-06-23T19:58:17Z</time>
      </trkpt>
      <trkpt lat="38.826219" lon="-2.643574">
        <ele>976.440</ele>
        <time>2019-06-23T19:58:37Z</time>
      </trkpt>
      <trkpt lat="38.825985" lon="-2.644325">
        <ele>976.198</ele>
        <time>2019-06-23T19:58:57Z</time>
      </trkpt>
      <trkpt lat="38.825642" lon="-2.645302">
        <ele>974.995</ele>
        <time>2019-06-23T19:59:17Z</time>
      </trkpt>
      <trkpt lat="38.825567" lon="-2.645742">
        <ele>973.323</ele>
        <time>2019-06-23T19:59:37Z</time>
      </trkpt>
      <trkpt lat="38.825542" lon="-2.646085">
        <ele>972.244</ele>
        <time>2019-06-23T19:59:57Z</time>
      </trkpt>
      <trkpt lat="38.825324" lon="-2.646579">
        <ele>975.332</ele>
        <time>2019-06-23T20:00:17Z</time>
      </trkpt>
      <trkpt lat="38.824890" lon="-2.647448">
        <ele>976.492</ele>
        <time>2019-06-23T20:00:37Z</time>
      </trkpt>
      <trkpt lat="38.824798" lon="-2.647791">
        <ele>976.711</ele>
        <time>2019-06-23T20:00:57Z</time>
      </trkpt>
      <trkpt lat="38.824697" lon="-2.648596">
        <ele>976.008</ele>
        <time>2019-06-23T20:01:17Z</time>
      </trkpt>
      <trkpt lat="38.824539" lon="-2.649862">
        <ele>975.866</ele>
        <time>2019-06-23T20:01:37Z</time>
      </trkpt>
      <trkpt lat="38.824279" lon="-2.650698">
        <ele>976.250</ele>
        <time>2019-06-23T20:01:57Z</time>
      </trkpt>
      <trkpt lat="38.824162" lon="-2.651138">
        <ele>977.022</ele>
        <time>2019-06-23T20:02:17Z</time>
      </trkpt>
      <trkpt lat="38.824045" lon="-2.651428">
        <ele>976.999</ele>
        <time>2019-06-23T20:02:37Z</time>
      </trkpt>
      <trkpt lat="38.823979" lon="-2.651900">
        <ele>974.937</ele>
        <time>2019-06-23T20:02:57Z</time>
      </trkpt>
      <trkpt lat="38.824037" lon="-2.652222">
        <ele>974.544</ele>
        <time>2019-06-23T20:03:17Z</time>
      </trkpt>
      <trkpt lat="38.823795" lon="-2.652597">
        <ele>974.022</ele>
        <time>2019-06-23T20:03:37Z</time>
      </trkpt>
      <trkpt lat="38.823611" lon="-2.652951">
        <ele>974.013</ele>
        <time>2019-06-23T20:03:57Z</time>
      </trkpt>
      <trkpt lat="38.823469" lon="-2.653198">
        <ele>973.076</ele>
        <time>2019-06-23T20:04:17Z</time>
      </trkpt>
      <trkpt lat="38.823343" lon="-2.654078">
        <ele>970.490</ele>
        <time>2019-06-23T20:04:37Z</time>
      </trkpt>
      <trkpt lat="38.823260" lon="-2.654432">
        <ele>969.719</ele>
        <time>2019-06-23T20:04:57Z</time>
      </trkpt>
      <trkpt lat="38.823109" lon="-2.654722">
        <ele>969.408</ele>
        <time>2019-06-23T20:05:17Z</time>
      </trkpt>
      <trkpt lat="38.823092" lon="-2.654958">
        <ele>971.580</ele>
        <time>2019-06-23T20:05:37Z</time>
      </trkpt>
      <trkpt lat="38.823168" lon="-2.655344">
        <ele>972.584</ele>
        <time>2019-06-23T20:05:57Z</time>
      </trkpt>
      <trkpt lat="38.823184" lon="-2.656020">
        <ele>972.386</ele>
        <time>2019-06-23T20:06:17Z</time>
      </trkpt>
      <trkpt lat="38.823268" lon="-2.656610">
        <ele>975.423</ele>
        <time>2019-06-23T20:06:37Z</time>
      </trkpt>
      <trkpt lat="38.823301" lon="-2.656910">
        <ele>976.931</ele>
        <time>2019-06-23T20:06:57Z</time>
      </trkpt>
      <trkpt lat="38.823260" lon="-2.657200">
        <ele>977.098</ele>
        <time>2019-06-23T20:07:17Z</time>
      </trkpt>
      <trkpt lat="38.823276" lon="-2.657522">
        <ele>976.186</ele>
        <time>2019-06-23T20:07:37Z</time>
      </trkpt>
      <trkpt lat="38.823444" lon="-2.658058">
        <ele>974.627</ele>
        <time>2019-06-23T20:07:57Z</time>
      </trkpt>
      <trkpt lat="38.823402" lon="-2.658488">
        <ele>973.994</ele>
        <time>2019-06-23T20:08:17Z</time>
      </trkpt>
      <trkpt lat="38.823243" lon="-2.658927">
        <ele>974.257</ele>
        <time>2019-06-23T20:08:37Z</time>
      </trkpt>
      <trkpt lat="38.823218" lon="-2.659518">
        <ele>971.622</ele>
        <time>2019-06-23T20:08:57Z</time>
      </trkpt>
      <trkpt lat="38.823151" lon="-2.660247">
        <ele>972.508</ele>
        <time>2019-06-23T20:09:17Z</time>
      </trkpt>
      <trkpt lat="38.823126" lon="-2.660816">
        <ele>973.582</ele>
        <time>2019-06-23T20:09:37Z</time>
      </trkpt>
      <trkpt lat="38.823126" lon="-2.661277">
        <ele>974.516</ele>
        <time>2019-06-23T20:09:57Z</time>
      </trkpt>
      <trkpt lat="38.823210" lon="-2.661781">
        <ele>973.968</ele>
        <time>2019-06-23T20:10:17Z</time>
      </trkpt>
      <trkpt lat="38.823210" lon="-2.662307">
        <ele>971.285</ele>
        <time>2019-06-23T20:10:37Z</time>
      </trkpt>
      <trkpt lat="38.823168" lon="-2.662758">
        <ele>970.093</ele>
        <time>2019-06-23T20:10:57Z</time>
      </trkpt>
      <trkpt lat="38.823017" lon="-2.663423">
        <ele>971.010</ele>
        <time>2019-06-23T20:11:17Z</time>
      </trkpt>
      <trkpt lat="38.822817" lon="-2.664045">
        <ele>970.068</ele>
        <time>2019-06-23T20:11:37Z</time>
      </trkpt>
      <trkpt lat="38.822716" lon="-2.664603">
        <ele>969.089</ele>
        <time>2019-06-23T20:11:57Z</time>
      </trkpt>
      <trkpt lat="38.822733" lon="-2.665172">
        <ele>970.444</ele>
        <time>2019-06-23T20:12:17Z</time>
      </trkpt>
      <trkpt lat="38.822658" lon="-2.665612">
        <ele>969.505</ele>
        <time>2019-06-23T20:12:37Z</time>
      </trkpt>
      <trkpt lat="38.822641" lon="-2.665923">
        <ele>969.015</ele>
        <time>2019-06-23T20:12:57Z</time>
      </trkpt>
      <trkpt lat="38.822574" lon="-2.666405">
        <ele>967.508</ele>
        <time>2019-06-23T20:13:17Z</time>
      </trkpt>
      <trkpt lat="38.822566" lon="-2.666845">
        <ele>965.817</ele>
        <time>2019-06-23T20:13:37Z</time>
      </trkpt>
      <trkpt lat="38.822725" lon="-2.667339">
        <ele>965.641</ele>
        <time>2019-06-23T20:13:57Z</time>
      </trkpt>
      <trkpt lat="38.823042" lon="-2.668262">
        <ele>964.293</ele>
        <time>2019-06-23T20:14:17Z</time>
      </trkpt>
      <trkpt lat="38.823418" lon="-2.669463">
        <ele>962.080</ele>
        <time>2019-06-23T20:14:37Z</time>
      </trkpt>
      <trkpt lat="38.823820" lon="-2.670010">
        <ele>964.038</ele>
        <time>2019-06-23T20:14:57Z</time>
      </trkpt>
      <trkpt lat="38.823853" lon="-2.670225">
        <ele>964.015</ele>
        <time>2019-06-23T20:15:17Z</time>
      </trkpt>
      <trkpt lat="38.823845" lon="-2.670397">
        <ele>963.963</ele>
        <time>2019-06-23T20:15:37Z</time>
      </trkpt>
      <trkpt lat="38.823887" lon="-2.670622">
        <ele>963.524</ele>
        <time>2019-06-23T20:15:57Z</time>
      </trkpt>
      <trkpt lat="38.824288" lon="-2.671437">
        <ele>955.442</ele>
        <time>2019-06-23T20:16:17Z</time>
      </trkpt>
      <trkpt lat="38.824279" lon="-2.671620">
        <ele>955.422</ele>
        <time>2019-06-23T20:16:37Z</time>
      </trkpt>
      <trkpt lat="38.824104" lon="-2.671899">
        <ele>954.814</ele>
        <time>2019-06-23T20:16:57Z</time>
      </trkpt>
      <trkpt lat="38.823009" lon="-2.674001">
        <ele>965.108</ele>
        <time>2019-06-23T20:17:17Z</time>
      </trkpt>
      <trkpt lat="38.822700" lon="-2.674656">
        <ele>968.167</ele>
        <time>2019-06-23T20:17:37Z</time>
      </trkpt>
      <trkpt lat="38.822048" lon="-2.676448">
        <ele>967.991</ele>
        <time>2019-06-23T20:17:57Z</time>
      </trkpt>
      <trkpt lat="38.822064" lon="-2.676802">
        <ele>967.763</ele>
        <time>2019-06-23T20:18:17Z</time>
      </trkpt>
      <trkpt lat="38.822181" lon="-2.677478">
        <ele>969.080</ele>
        <time>2019-06-23T20:18:37Z</time>
      </trkpt>
      <trkpt lat="38.822282" lon="-2.678261">
        <ele>969.858</ele>
        <time>2019-06-23T20:18:57Z</time>
      </trkpt>
      <trkpt lat="38.822332" lon="-2.679269">
        <ele>967.935</ele>
        <time>2019-06-23T20:19:17Z</time>
      </trkpt>
      <trkpt lat="38.822357" lon="-2.679677">
        <ele>966.753</ele>
        <time>2019-06-23T20:19:37Z</time>
      </trkpt>
      <trkpt lat="38.822290" lon="-2.680106">
        <ele>966.074</ele>
        <time>2019-06-23T20:19:57Z</time>
      </trkpt>
      <trkpt lat="38.822165" lon="-2.680568">
        <ele>967.031</ele>
        <time>2019-06-23T20:20:17Z</time>
      </trkpt>
      <trkpt lat="38.822006" lon="-2.681404">
        <ele>965.261</ele>
        <time>2019-06-23T20:20:37Z</time>
      </trkpt>
      <trkpt lat="38.821830" lon="-2.681984">
        <ele>962.907</ele>
        <time>2019-06-23T20:20:57Z</time>
      </trkpt>
      <trkpt lat="38.821914" lon="-2.682531">
        <ele>961.108</ele>
        <time>2019-06-23T20:21:17Z</time>
      </trkpt>
      <trkpt lat="38.821880" lon="-2.682863">
        <ele>960.516</ele>
        <time>2019-06-23T20:21:37Z</time>
      </trkpt>
      <trkpt lat="38.821789" lon="-2.683035">
        <ele>960.250</ele>
        <time>2019-06-23T20:21:57Z</time>
      </trkpt>
      <trkpt lat="38.821580" lon="-2.683303">
        <ele>960.422</ele>
        <time>2019-06-23T20:22:17Z</time>
      </trkpt>
      <trkpt lat="38.821396" lon="-2.683657">
        <ele>963.169</ele>
        <time>2019-06-23T20:22:37Z</time>
      </trkpt>
      <trkpt lat="38.821187" lon="-2.683990">
        <ele>965.097</ele>
        <time>2019-06-23T20:22:57Z</time>
      </trkpt>
      <trkpt lat="38.821028" lon="-2.684430">
        <ele>966.694</ele>
        <time>2019-06-23T20:23:17Z</time>
      </trkpt>
      <trkpt lat="38.820844" lon="-2.684795">
        <ele>968.062</ele>
        <time>2019-06-23T20:23:37Z</time>
      </trkpt>
      <trkpt lat="38.820610" lon="-2.684956">
        <ele>967.983</ele>
        <time>2019-06-23T20:23:57Z</time>
      </trkpt>
      <trkpt lat="38.820426" lon="-2.684956">
        <ele>967.426</ele>
        <time>2019-06-23T20:24:17Z</time>
      </trkpt>
      <trkpt lat="38.819958" lon="-2.685578">
        <ele>967.947</ele>
        <time>2019-06-23T20:24:37Z</time>
      </trkpt>
      <trkpt lat="38.819674" lon="-2.686071">
        <ele>967.011</ele>
        <time>2019-06-23T20:24:57Z</time>
      </trkpt>
      <trkpt lat="38.818888" lon="-2.687080">
        <ele>970.008</ele>
        <time>2019-06-23T20:25:17Z</time>
      </trkpt>
      <trkpt lat="38.817734" lon="-2.688582">
        <ele>971.285</ele>
        <time>2019-06-23T20:25:37Z</time>
      </trkpt>
      <trkpt lat="38.816974" lon="-2.689440">
        <ele>969.239</ele>
        <time>2019-06-23T20:25:57Z</time>
      </trkpt>
      <trkpt lat="38.816355" lon="-2.690374">
        <ele>970.191</ele>
        <time>2019-06-23T20:26:17Z</time>
      </trkpt>
      <trkpt lat="38.815996" lon="-2.691307">
        <ele>969.418</ele>
        <time>2019-06-23T20:26:37Z</time>
      </trkpt>
      <trkpt lat="38.815711" lon="-2.692037">
        <ele>970.386</ele>
        <time>2019-06-23T20:26:57Z</time>
      </trkpt>
      <trkpt lat="38.815511" lon="-2.692670">
        <ele>970.873</ele>
        <time>2019-06-23T20:27:17Z</time>
      </trkpt>
      <trkpt lat="38.815034" lon="-2.693624">
        <ele>972.151</ele>
        <time>2019-06-23T20:27:37Z</time>
      </trkpt>
      <trkpt lat="38.814031" lon="-2.695599">
        <ele>973.862</ele>
        <time>2019-06-23T20:27:57Z</time>
      </trkpt>
      <trkpt lat="38.812501" lon="-2.693603">
        <ele>973.059</ele>
        <time>2019-06-23T20:28:17Z</time>
      </trkpt>
      <trkpt lat="38.811264" lon="-2.691983">
        <ele>974.103</ele>
        <time>2019-06-23T20:28:37Z</time>
      </trkpt>
      <trkpt lat="38.809801" lon="-2.690052">
        <ele>974.023</ele>
        <time>2019-06-23T20:28:57Z</time>
      </trkpt>
      <trkpt lat="38.808338" lon="-2.688067">
        <ele>975.008</ele>
        <time>2019-06-23T20:29:17Z</time>
      </trkpt>
      <trkpt lat="38.806866" lon="-2.686050">
        <ele>974.638</ele>
        <time>2019-06-23T20:29:37Z</time>
      </trkpt>
      <trkpt lat="38.805370" lon="-2.684076">
        <ele>972.522</ele>
        <time>2019-06-23T20:29:57Z</time>
      </trkpt>
      <trkpt lat="38.803882" lon="-2.682112">
        <ele>972.054</ele>
        <time>2019-06-23T20:30:17Z</time>
      </trkpt>
      <trkpt lat="38.802410" lon="-2.680138">
        <ele>976.311</ele>
        <time>2019-06-23T20:30:37Z</time>
      </trkpt>
      <trkpt lat="38.800855" lon="-2.678175">
        <ele>977.459</ele>
        <time>2019-06-23T20:30:57Z</time>
      </trkpt>
      <trkpt lat="38.799325" lon="-2.676190">
        <ele>974.946</ele>
        <time>2019-06-23T20:31:17Z</time>
      </trkpt>
      <trkpt lat="38.797744" lon="-2.674270">
        <ele>976.114</ele>
        <time>2019-06-23T20:31:37Z</time>
      </trkpt>
      <trkpt lat="38.797527" lon="-2.673862">
        <ele>976.245</ele>
        <time>2019-06-23T20:31:57Z</time>
      </trkpt>
      <trkpt lat="38.796214" lon="-2.671673">
        <ele>977.727</ele>
        <time>2019-06-23T20:32:17Z</time>
      </trkpt>
      <trkpt lat="38.795713" lon="-2.670783">
        <ele>979.268</ele>
        <time>2019-06-23T20:32:37Z</time>
      </trkpt>
      <trkpt lat="38.794375" lon="-2.668583">
        <ele>984.014</ele>
        <time>2019-06-23T20:32:57Z</time>
      </trkpt>
      <trkpt lat="38.793129" lon="-2.666448">
        <ele>982.708</ele>
        <time>2019-06-23T20:33:17Z</time>
      </trkpt>
      <trkpt lat="38.791891" lon="-2.664399">
        <ele>985.895</ele>
        <time>2019-06-23T20:33:37Z</time>
      </trkpt>
      <trkpt lat="38.790553" lon="-2.663380">
        <ele>987.049</ele>
        <time>2019-06-23T20:33:57Z</time>
      </trkpt>
      <trkpt lat="38.790336" lon="-2.663037">
        <ele>987.051</ele>
        <time>2019-06-23T20:34:17Z</time>
      </trkpt>
      <trkpt lat="38.789499" lon="-2.661384">
        <ele>987.838</ele>
        <time>2019-06-23T20:34:37Z</time>
      </trkpt>
      <trkpt lat="38.788571" lon="-2.659539">
        <ele>988.566</ele>
        <time>2019-06-23T20:34:57Z</time>
      </trkpt>
      <trkpt lat="38.787083" lon="-2.659389">
        <ele>992.593</ele>
        <time>2019-06-23T20:35:17Z</time>
      </trkpt>
      <trkpt lat="38.786405" lon="-2.659303">
        <ele>994.981</ele>
        <time>2019-06-23T20:35:37Z</time>
      </trkpt>
      <trkpt lat="38.786071" lon="-2.659131">
        <ele>995.092</ele>
        <time>2019-06-23T20:35:57Z</time>
      </trkpt>
      <trkpt lat="38.784498" lon="-2.657962">
        <ele>992.928</ele>
        <time>2019-06-23T20:36:17Z</time>
      </trkpt>
      <trkpt lat="38.782642" lon="-2.656567">
        <ele>996.089</ele>
        <time>2019-06-23T20:36:37Z</time>
      </trkpt>
      <trkpt lat="38.781128" lon="-2.655537">
        <ele>1000.017</ele>
        <time>2019-06-23T20:36:57Z</time>
      </trkpt>
      <trkpt lat="38.781161" lon="-2.655913">
        <ele>999.508</ele>
        <time>2019-06-23T20:37:17Z</time>
      </trkpt>
      <trkpt lat="38.781730" lon="-2.658595">
        <ele>999.865</ele>
        <time>2019-06-23T20:37:37Z</time>
      </trkpt>
      <trkpt lat="38.782065" lon="-2.660236">
        <ele>997.999</ele>
        <time>2019-06-23T20:37:57Z</time>
      </trkpt>
      <trkpt lat="38.782215" lon="-2.661084">
        <ele>997.131</ele>
        <time>2019-06-23T20:38:17Z</time>
      </trkpt>
      <trkpt lat="38.782282" lon="-2.661964">
        <ele>995.668</ele>
        <time>2019-06-23T20:38:37Z</time>
      </trkpt>
      <trkpt lat="38.782558" lon="-2.664356">
        <ele>986.796</ele>
        <time>2019-06-23T20:38:57Z</time>
      </trkpt>
      <trkpt lat="38.782776" lon="-2.666620">
        <ele>986.053</ele>
        <time>2019-06-23T20:39:17Z</time>
      </trkpt>
      <trkpt lat="38.783026" lon="-2.669345">
        <ele>978.931</ele>
        <time>2019-06-23T20:39:37Z</time>
      </trkpt>
      <trkpt lat="38.783169" lon="-2.671126">
        <ele>971.622</ele>
        <time>2019-06-23T20:39:57Z</time>
      </trkpt>
      <trkpt lat="38.783135" lon="-2.673411">
        <ele>976.711</ele>
        <time>2019-06-23T20:40:17Z</time>
      </trkpt>
      <trkpt lat="38.783077" lon="-2.676179">
        <ele>980.721</ele>
        <time>2019-06-23T20:40:37Z</time>
      </trkpt>
      <trkpt lat="38.783010" lon="-2.678958">
        <ele>979.703</ele>
        <time>2019-06-23T20:40:57Z</time>
      </trkpt>
      <trkpt lat="38.782934" lon="-2.680696">
        <ele>980.008</ele>
        <time>2019-06-23T20:41:17Z</time>
      </trkpt>
      <trkpt lat="38.783219" lon="-2.681447">
        <ele>980.274</ele>
        <time>2019-06-23T20:41:37Z</time>
      </trkpt>
      <trkpt lat="38.783980" lon="-2.683357">
        <ele>978.238</ele>
        <time>2019-06-23T20:41:57Z</time>
      </trkpt>
      <trkpt lat="38.784365" lon="-2.684505">
        <ele>980.640</ele>
        <time>2019-06-23T20:42:17Z</time>
      </trkpt>
      <trkpt lat="38.784883" lon="-2.685910">
        <ele>986.777</ele>
        <time>2019-06-23T20:42:37Z</time>
      </trkpt>
      <trkpt lat="38.785368" lon="-2.686307">
        <ele>989.365</ele>
        <time>2019-06-23T20:42:57Z</time>
      </trkpt>
      <trkpt lat="38.785678" lon="-2.686769">
        <ele>989.322</ele>
        <time>2019-06-23T20:43:17Z</time>
      </trkpt>
      <trkpt lat="38.786054" lon="-2.687488">
        <ele>989.290</ele>
        <time>2019-06-23T20:43:37Z</time>
      </trkpt>
      <trkpt lat="38.786213" lon="-2.688314">
        <ele>990.661</ele>
        <time>2019-06-23T20:43:57Z</time>
      </trkpt>
      <trkpt lat="38.786514" lon="-2.689869">
        <ele>992.486</ele>
        <time>2019-06-23T20:44:17Z</time>
      </trkpt>
      <trkpt lat="38.786506" lon="-2.690148">
        <ele>993.460</ele>
        <time>2019-06-23T20:44:37Z</time>
      </trkpt>
      <trkpt lat="38.786230" lon="-2.692080">
        <ele>996.326</ele>
        <time>2019-06-23T20:44:57Z</time>
      </trkpt>
      <trkpt lat="38.786280" lon="-2.692412">
        <ele>997.408</ele>
        <time>2019-06-23T20:45:17Z</time>
      </trkpt>
      <trkpt lat="38.786940" lon="-2.695051">
        <ele>991.091</ele>
        <time>2019-06-23T20:45:37Z</time>
      </trkpt>
      <trkpt lat="38.787400" lon="-2.697058">
        <ele>987.435</ele>
        <time>2019-06-23T20:45:57Z</time>
      </trkpt>
      <trkpt lat="38.787986" lon="-2.699761">
        <ele>988.277</ele>
        <time>2019-06-23T20:46:17Z</time>
      </trkpt>
      <trkpt lat="38.788596" lon="-2.702433">
        <ele>985.824</ele>
        <time>2019-06-23T20:46:37Z</time>
      </trkpt>
      <trkpt lat="38.788755" lon="-2.703141">
        <ele>987.052</ele>
        <time>2019-06-23T20:46:57Z</time>
      </trkpt>
      <trkpt lat="38.788646" lon="-2.704010">
        <ele>986.999</ele>
        <time>2019-06-23T20:47:17Z</time>
      </trkpt>
      <trkpt lat="38.788329" lon="-2.705834">
        <ele>985.017</ele>
        <time>2019-06-23T20:47:37Z</time>
      </trkpt>
      <trkpt lat="38.788069" lon="-2.707883">
        <ele>982.098</ele>
        <time>2019-06-23T20:47:57Z</time>
      </trkpt>
      <trkpt lat="38.788161" lon="-2.708312">
        <ele>982.035</ele>
        <time>2019-06-23T20:48:17Z</time>
      </trkpt>
      <trkpt lat="38.788496" lon="-2.709793">
        <ele>982.986</ele>
        <time>2019-06-23T20:48:37Z</time>
      </trkpt>
      <trkpt lat="38.788989" lon="-2.711756">
        <ele>981.514</ele>
        <time>2019-06-23T20:48:57Z</time>
      </trkpt>
      <trkpt lat="38.789290" lon="-2.713183">
        <ele>984.408</ele>
        <time>2019-06-23T20:49:17Z</time>
      </trkpt>
      <trkpt lat="38.789374" lon="-2.713645">
        <ele>983.786</ele>
        <time>2019-06-23T20:49:37Z</time>
      </trkpt>
      <trkpt lat="38.789265" lon="-2.714245">
        <ele>983.940</ele>
        <time>2019-06-23T20:49:57Z</time>
      </trkpt>
      <trkpt lat="38.789182" lon="-2.714674">
        <ele>983.242</ele>
        <time>2019-06-23T20:50:17Z</time>
      </trkpt>
      <trkpt lat="38.789056" lon="-2.715340">
        <ele>984.149</ele>
        <time>2019-06-23T20:50:37Z</time>
      </trkpt>
      <trkpt lat="38.788906" lon="-2.715683">
        <ele>984.157</ele>
        <time>2019-06-23T20:50:57Z</time>
      </trkpt>
      <trkpt lat="38.788672" lon="-2.716080">
        <ele>982.424</ele>
        <time>2019-06-23T20:51:17Z</time>
      </trkpt>
      <trkpt lat="38.788504" lon="-2.716337">
        <ele>983.232</ele>
        <time>2019-06-23T20:51:37Z</time>
      </trkpt>
      <trkpt lat="38.788203" lon="-2.716498">
        <ele>984.743</ele>
        <time>2019-06-23T20:51:57Z</time>
      </trkpt>
      <trkpt lat="38.787902" lon="-2.716337">
        <ele>983.746</ele>
        <time>2019-06-23T20:52:17Z</time>
      </trkpt>
      <trkpt lat="38.787584" lon="-2.716144">
        <ele>981.688</ele>
        <time>2019-06-23T20:52:37Z</time>
      </trkpt>
      <trkpt lat="38.786857" lon="-2.715865">
        <ele>978.116</ele>
        <time>2019-06-23T20:52:57Z</time>
      </trkpt>
      <trkpt lat="38.786539" lon="-2.715683">
        <ele>977.708</ele>
        <time>2019-06-23T20:53:17Z</time>
      </trkpt>
      <trkpt lat="38.785962" lon="-2.715329">
        <ele>978.267</ele>
        <time>2019-06-23T20:53:37Z</time>
      </trkpt>
      <trkpt lat="38.785619" lon="-2.715383">
        <ele>978.451</ele>
        <time>2019-06-23T20:53:57Z</time>
      </trkpt>
      <trkpt lat="38.785527" lon="-2.715672">
        <ele>979.123</ele>
        <time>2019-06-23T20:54:17Z</time>
      </trkpt>
      <trkpt lat="38.784983" lon="-2.717443">
        <ele>977.150</ele>
        <time>2019-06-23T20:54:37Z</time>
      </trkpt>
      <trkpt lat="38.784641" lon="-2.719041">
        <ele>975.578</ele>
        <time>2019-06-23T20:54:57Z</time>
      </trkpt>
      <trkpt lat="38.784557" lon="-2.719814">
        <ele>975.665</ele>
        <time>2019-06-23T20:55:17Z</time>
      </trkpt>
      <trkpt lat="38.784448" lon="-2.720232">
        <ele>976.083</ele>
        <time>2019-06-23T20:55:37Z</time>
      </trkpt>
      <trkpt lat="38.784181" lon="-2.721004">
        <ele>975.474</ele>
        <time>2019-06-23T20:55:57Z</time>
      </trkpt>
      <trkpt lat="38.784097" lon="-2.721294">
        <ele>974.835</ele>
        <time>2019-06-23T20:56:17Z</time>
      </trkpt>
      <trkpt lat="38.783988" lon="-2.721466">
        <ele>974.486</ele>
        <time>2019-06-23T20:56:37Z</time>
      </trkpt>
      <trkpt lat="38.783854" lon="-2.721895">
        <ele>973.914</ele>
        <time>2019-06-23T20:56:57Z</time>
      </trkpt>
      <trkpt lat="38.783871" lon="-2.722142">
        <ele>973.308</ele>
        <time>2019-06-23T20:57:17Z</time>
      </trkpt>
      <trkpt lat="38.783796" lon="-2.722635">
        <ele>972.856</ele>
        <time>2019-06-23T20:57:37Z</time>
      </trkpt>
      <trkpt lat="38.783737" lon="-2.723107">
        <ele>972.480</ele>
        <time>2019-06-23T20:57:57Z</time>
      </trkpt>
      <trkpt lat="38.783194" lon="-2.722539">
        <ele>972.422</ele>
        <time>2019-06-23T20:58:17Z</time>
      </trkpt>
      <trkpt lat="38.782608" lon="-2.722024">
        <ele>973.659</ele>
        <time>2019-06-23T20:58:37Z</time>
      </trkpt>
      <trkpt lat="38.782399" lon="-2.721820">
        <ele>974.197</ele>
        <time>2019-06-23T20:58:57Z</time>
      </trkpt>
      <trkpt lat="38.781906" lon="-2.721584">
        <ele>976.484</ele>
        <time>2019-06-23T20:59:17Z</time>
      </trkpt>
      <trkpt lat="38.780910" lon="-2.721283">
        <ele>977.732</ele>
        <time>2019-06-23T20:59:37Z</time>
      </trkpt>
      <trkpt lat="38.780208" lon="-2.721219">
        <ele>977.743</ele>
        <time>2019-06-23T20:59:57Z</time>
      </trkpt>
      <trkpt lat="38.779614" lon="-2.721230">
        <ele>977.266</ele>
        <time>2019-06-23T21:00:17Z</time>
      </trkpt>
      <trkpt lat="38.779280" lon="-2.721241">
        <ele>977.529</ele>
        <time>2019-06-23T21:00:37Z</time>
      </trkpt>
      <trkpt lat="38.778000" lon="-2.720962">
        <ele>977.821</ele>
        <time>2019-06-23T21:00:57Z</time>
      </trkpt>
      <trkpt lat="38.777649" lon="-2.720726">
        <ele>977.208</ele>
        <time>2019-06-23T21:01:17Z</time>
      </trkpt>
      <trkpt lat="38.777473" lon="-2.720479">
        <ele>976.139</ele>
        <time>2019-06-23T21:01:37Z</time>
      </trkpt>
      <trkpt lat="38.777297" lon="-2.719814">
        <ele>976.793</ele>
        <time>2019-06-23T21:01:57Z</time>
      </trkpt>
      <trkpt lat="38.777013" lon="-2.718236">
        <ele>980.025</ele>
        <time>2019-06-23T21:02:17Z</time>
      </trkpt>
      <trkpt lat="38.776779" lon="-2.717797">
        <ele>981.432</ele>
        <time>2019-06-23T21:02:37Z</time>
      </trkpt>
      <trkpt lat="38.776210" lon="-2.717260">
        <ele>978.970</ele>
        <time>2019-06-23T21:02:57Z</time>
      </trkpt>
      <trkpt lat="38.775424" lon="-2.716616">
        <ele>977.627</ele>
        <time>2019-06-23T21:03:17Z</time>
      </trkpt>
      <trkpt lat="38.774897" lon="-2.716262">
        <ele>976.215</ele>
        <time>2019-06-23T21:03:37Z</time>
      </trkpt>
      <trkpt lat="38.774320" lon="-2.715361">
        <ele>978.466</ele>
        <time>2019-06-23T21:03:57Z</time>
      </trkpt>
      <trkpt lat="38.773684" lon="-2.714374">
        <ele>982.677</ele>
        <time>2019-06-23T21:04:17Z</time>
      </trkpt>
      <trkpt lat="38.773425" lon="-2.714213">
        <ele>982.961</ele>
        <time>2019-06-23T21:04:37Z</time>
      </trkpt>
      <trkpt lat="38.772973" lon="-2.714052">
        <ele>981.927</ele>
        <time>2019-06-23T21:04:57Z</time>
      </trkpt>
      <trkpt lat="38.772613" lon="-2.713773">
        <ele>979.008</ele>
        <time>2019-06-23T21:05:17Z</time>
      </trkpt>
      <trkpt lat="38.772387" lon="-2.713366">
        <ele>978.210</ele>
        <time>2019-06-23T21:05:37Z</time>
      </trkpt>
      <trkpt lat="38.772162" lon="-2.713172">
        <ele>977.224</ele>
        <time>2019-06-23T21:05:57Z</time>
      </trkpt>
      <trkpt lat="38.771635" lon="-2.713172">
        <ele>975.956</ele>
        <time>2019-06-23T21:06:17Z</time>
      </trkpt>
      <trkpt lat="38.771350" lon="-2.713559">
        <ele>970.483</ele>
        <time>2019-06-23T21:06:37Z</time>
      </trkpt>
      <trkpt lat="38.771108" lon="-2.713634">
        <ele>970.021</ele>
        <time>2019-06-23T21:06:57Z</time>
      </trkpt>
      <trkpt lat="38.770146" lon="-2.713677">
        <ele>970.128</ele>
        <time>2019-06-23T21:07:17Z</time>
      </trkpt>
      <trkpt lat="38.769635" lon="-2.713870">
        <ele>971.266</ele>
        <time>2019-06-23T21:07:37Z</time>
      </trkpt>
      <trkpt lat="38.769092" lon="-2.713848">
        <ele>973.337</ele>
        <time>2019-06-23T21:07:57Z</time>
      </trkpt>
      <trkpt lat="38.768330" lon="-2.713687">
        <ele>976.037</ele>
        <time>2019-06-23T21:08:17Z</time>
      </trkpt>
      <trkpt lat="38.767921" lon="-2.713591">
        <ele>978.049</ele>
        <time>2019-06-23T21:08:37Z</time>
      </trkpt>
      <trkpt lat="38.767661" lon="-2.713516">
        <ele>979.413</ele>
        <time>2019-06-23T21:08:57Z</time>
      </trkpt>
      <trkpt lat="38.767318" lon="-2.713559">
        <ele>980.508</ele>
        <time>2019-06-23T21:09:17Z</time>
      </trkpt>
      <trkpt lat="38.766800" lon="-2.714149">
        <ele>980.486</ele>
        <time>2019-06-23T21:09:37Z</time>
      </trkpt>
      <trkpt lat="38.766139" lon="-2.714288">
        <ele>978.010</ele>
        <time>2019-06-23T21:09:57Z</time>
      </trkpt>
      <trkpt lat="38.765419" lon="-2.714589">
        <ele>977.752</ele>
        <time>2019-06-23T21:10:17Z</time>
      </trkpt>
      <trkpt lat="38.764700" lon="-2.714760">
        <ele>978.949</ele>
        <time>2019-06-23T21:10:37Z</time>
      </trkpt>
      <trkpt lat="38.764332" lon="-2.714814">
        <ele>979.497</ele>
        <time>2019-06-23T21:10:57Z</time>
      </trkpt>
      <trkpt lat="38.763378" lon="-2.715093">
        <ele>981.794</ele>
        <time>2019-06-23T21:11:17Z</time>
      </trkpt>
      <trkpt lat="38.762801" lon="-2.715200">
        <ele>981.322</ele>
        <time>2019-06-23T21:11:37Z</time>
      </trkpt>
      <trkpt lat="38.762374" lon="-2.715307">
        <ele>980.623</ele>
        <time>2019-06-23T21:11:57Z</time>
      </trkpt>
      <trkpt lat="38.762090" lon="-2.715672">
        <ele>981.259</ele>
        <time>2019-06-23T21:12:17Z</time>
      </trkpt>
      <trkpt lat="38.760584" lon="-2.715737">
        <ele>980.803</ele>
        <time>2019-06-23T21:12:37Z</time>
      </trkpt>
      <trkpt lat="38.759831" lon="-2.715726">
        <ele>982.423</ele>
        <time>2019-06-23T21:12:57Z</time>
      </trkpt>
      <trkpt lat="38.758986" lon="-2.715780">
        <ele>981.208</ele>
        <time>2019-06-23T21:13:17Z</time>
      </trkpt>
      <trkpt lat="38.758743" lon="-2.715662">
        <ele>980.768</ele>
        <time>2019-06-23T21:13:37Z</time>
      </trkpt>
      <trkpt lat="38.758216" lon="-2.715822">
        <ele>983.812</ele>
        <time>2019-06-23T21:13:57Z</time>
      </trkpt>
      <trkpt lat="38.758074" lon="-2.715876">
        <ele>985.014</ele>
        <time>2019-06-23T21:14:17Z</time>
      </trkpt>
      <trkpt lat="38.757731" lon="-2.715865">
        <ele>988.341</ele>
        <time>2019-06-23T21:14:37Z</time>
      </trkpt>
      <trkpt lat="38.757112" lon="-2.716037">
        <ele>989.679</ele>
        <time>2019-06-23T21:14:57Z</time>
      </trkpt>
      <trkpt lat="38.756752" lon="-2.716058">
        <ele>988.346</ele>
        <time>2019-06-23T21:15:17Z</time>
      </trkpt>
      <trkpt lat="38.756418" lon="-2.716155">
        <ele>987.134</ele>
        <time>2019-06-23T21:15:37Z</time>
      </trkpt>
      <trkpt lat="38.756208" lon="-2.716112">
        <ele>987.055</ele>
        <time>2019-06-23T21:15:57Z</time>
      </trkpt>
      <trkpt lat="38.754895" lon="-2.715619">
        <ele>989.016</ele>
        <time>2019-06-23T21:16:17Z</time>
      </trkpt>
      <trkpt lat="38.754543" lon="-2.715479">
        <ele>989.676</ele>
        <time>2019-06-23T21:16:37Z</time>
      </trkpt>
      <trkpt lat="38.753949" lon="-2.715651">
        <ele>988.613</ele>
        <time>2019-06-23T21:16:57Z</time>
      </trkpt>
      <trkpt lat="38.753523" lon="-2.715994">
        <ele>989.608</ele>
        <time>2019-06-23T21:17:17Z</time>
      </trkpt>
      <trkpt lat="38.753129" lon="-2.716241">
        <ele>989.774</ele>
        <time>2019-06-23T21:17:37Z</time>
      </trkpt>
      <trkpt lat="38.752602" lon="-2.716402">
        <ele>990.758</ele>
        <time>2019-06-23T21:17:57Z</time>
      </trkpt>
      <trkpt lat="38.752234" lon="-2.716348">
        <ele>990.220</ele>
        <time>2019-06-23T21:18:17Z</time>
      </trkpt>
      <trkpt lat="38.751548" lon="-2.716348">
        <ele>993.687</ele>
        <time>2019-06-23T21:18:37Z</time>
      </trkpt>
      <trkpt lat="38.750971" lon="-2.716852">
        <ele>996.455</ele>
        <time>2019-06-23T21:18:57Z</time>
      </trkpt>
      <trkpt lat="38.750419" lon="-2.717314">
        <ele>998.722</ele>
        <time>2019-06-23T21:19:17Z</time>
      </trkpt>
      <trkpt lat="38.750009" lon="-2.717775">
        <ele>999.950</ele>
        <time>2019-06-23T21:19:37Z</time>
      </trkpt>
      <trkpt lat="38.749582" lon="-2.717764">
        <ele>997.091</ele>
        <time>2019-06-23T21:19:57Z</time>
      </trkpt>
      <trkpt lat="38.749013" lon="-2.717700">
        <ele>995.718</ele>
        <time>2019-06-23T21:20:17Z</time>
      </trkpt>
      <trkpt lat="38.748377" lon="-2.717861">
        <ele>994.598</ele>
        <time>2019-06-23T21:20:37Z</time>
      </trkpt>
      <trkpt lat="38.747741" lon="-2.717775">
        <ele>994.917</ele>
        <time>2019-06-23T21:20:57Z</time>
      </trkpt>
      <trkpt lat="38.747272" lon="-2.717807">
        <ele>993.208</ele>
        <time>2019-06-23T21:21:17Z</time>
      </trkpt>
      <trkpt lat="38.745925" lon="-2.717743">
        <ele>995.744</ele>
        <time>2019-06-23T21:21:37Z</time>
      </trkpt>
      <trkpt lat="38.745323" lon="-2.717711">
        <ele>994.698</ele>
        <time>2019-06-23T21:21:57Z</time>
      </trkpt>
      <trkpt lat="38.745013" lon="-2.717657">
        <ele>995.480</ele>
        <time>2019-06-23T21:22:17Z</time>
      </trkpt>
      <trkpt lat="38.744578" lon="-2.717400">
        <ele>993.187</ele>
        <time>2019-06-23T21:22:37Z</time>
      </trkpt>
      <trkpt lat="38.744302" lon="-2.717314">
        <ele>993.255</ele>
        <time>2019-06-23T21:22:57Z</time>
      </trkpt>
      <trkpt lat="38.744051" lon="-2.717249">
        <ele>994.452</ele>
        <time>2019-06-23T21:23:17Z</time>
      </trkpt>
      <trkpt lat="38.744001" lon="-2.717968">
        <ele>995.390</ele>
        <time>2019-06-23T21:23:37Z</time>
      </trkpt>
      <trkpt lat="38.743800" lon="-2.719159">
        <ele>992.351</ele>
        <time>2019-06-23T21:23:57Z</time>
      </trkpt>
      <trkpt lat="38.743557" lon="-2.720189">
        <ele>993.327</ele>
        <time>2019-06-23T21:24:17Z</time>
      </trkpt>
      <trkpt lat="38.743457" lon="-2.720500">
        <ele>993.868</ele>
        <time>2019-06-23T21:24:37Z</time>
      </trkpt>
      <trkpt lat="38.743381" lon="-2.721326">
        <ele>996.114</ele>
        <time>2019-06-23T21:24:57Z</time>
      </trkpt>
      <trkpt lat="38.743247" lon="-2.722067">
        <ele>992.408</ele>
        <time>2019-06-23T21:25:17Z</time>
      </trkpt>
      <trkpt lat="38.743139" lon="-2.722796">
        <ele>992.465</ele>
        <time>2019-06-23T21:25:37Z</time>
      </trkpt>
      <trkpt lat="38.742971" lon="-2.723483">
        <ele>993.639</ele>
        <time>2019-06-23T21:25:57Z</time>
      </trkpt>
      <trkpt lat="38.742670" lon="-2.724717">
        <ele>993.091</ele>
        <time>2019-06-23T21:26:17Z</time>
      </trkpt>
      <trkpt lat="38.742545" lon="-2.725339">
        <ele>993.578</ele>
        <time>2019-06-23T21:26:37Z</time>
      </trkpt>
      <trkpt lat="38.742545" lon="-2.726090">
        <ele>994.156</ele>
        <time>2019-06-23T21:26:57Z</time>
      </trkpt>
      <trkpt lat="38.742469" lon="-2.727216">
        <ele>994.063</ele>
        <time>2019-06-23T21:27:17Z</time>
      </trkpt>
      <trkpt lat="38.742486" lon="-2.727656">
        <ele>994.061</ele>
        <time>2019-06-23T21:27:37Z</time>
      </trkpt>
      <trkpt lat="38.742461" lon="-2.728751">
        <ele>995.632</ele>
        <time>2019-06-23T21:27:57Z</time>
      </trkpt>
      <trkpt lat="38.742444" lon="-2.728987">
        <ele>996.162</ele>
        <time>2019-06-23T21:28:17Z</time>
      </trkpt>
      <trkpt lat="38.742360" lon="-2.729663">
        <ele>995.683</ele>
        <time>2019-06-23T21:28:37Z</time>
      </trkpt>
      <trkpt lat="38.742310" lon="-2.729920">
        <ele>995.711</ele>
        <time>2019-06-23T21:28:57Z</time>
      </trkpt>
      <trkpt lat="38.742319" lon="-2.730575">
        <ele>994.008</ele>
        <time>2019-06-23T21:29:17Z</time>
      </trkpt>
      <trkpt lat="38.742277" lon="-2.731605">
        <ele>992.249</ele>
        <time>2019-06-23T21:29:37Z</time>
      </trkpt>
      <trkpt lat="38.742176" lon="-2.732184">
        <ele>992.983</ele>
        <time>2019-06-23T21:29:57Z</time>
      </trkpt>
      <trkpt lat="38.742034" lon="-2.732731">
        <ele>994.055</ele>
        <time>2019-06-23T21:30:17Z</time>
      </trkpt>
      <trkpt lat="38.741842" lon="-2.733235">
        <ele>994.492</ele>
        <time>2019-06-23T21:30:37Z</time>
      </trkpt>
      <trkpt lat="38.741499" lon="-2.734501">
        <ele>992.140</ele>
        <time>2019-06-23T21:30:57Z</time>
      </trkpt>
      <trkpt lat="38.741164" lon="-2.735810">
        <ele>995.977</ele>
        <time>2019-06-23T21:31:17Z</time>
      </trkpt>
      <trkpt lat="38.740996" lon="-2.736561">
        <ele>993.455</ele>
        <time>2019-06-23T21:31:37Z</time>
      </trkpt>
      <trkpt lat="38.740829" lon="-2.737130">
        <ele>992.376</ele>
        <time>2019-06-23T21:31:57Z</time>
      </trkpt>
      <trkpt lat="38.740645" lon="-2.737806">
        <ele>990.954</ele>
        <time>2019-06-23T21:32:17Z</time>
      </trkpt>
      <trkpt lat="38.740235" lon="-2.738975">
        <ele>987.656</ele>
        <time>2019-06-23T21:32:37Z</time>
      </trkpt>
      <trkpt lat="38.739883" lon="-2.740134">
        <ele>982.311</ele>
        <time>2019-06-23T21:32:57Z</time>
      </trkpt>
      <trkpt lat="38.739716" lon="-2.740188">
        <ele>981.708</ele>
        <time>2019-06-23T21:33:17Z</time>
      </trkpt>
      <trkpt lat="38.739139" lon="-2.740799">
        <ele>984.028</ele>
        <time>2019-06-23T21:33:37Z</time>
      </trkpt>
      <trkpt lat="38.738888" lon="-2.741346">
        <ele>985.082</ele>
        <time>2019-06-23T21:33:57Z</time>
      </trkpt>
      <trkpt lat="38.738586" lon="-2.742012">
        <ele>986.124</ele>
        <time>2019-06-23T21:34:17Z</time>
      </trkpt>
      <trkpt lat="38.738344" lon="-2.742451">
        <ele>987.141</ele>
        <time>2019-06-23T21:34:37Z</time>
      </trkpt>
      <trkpt lat="38.738109" lon="-2.742848">
        <ele>987.629</ele>
        <time>2019-06-23T21:34:57Z</time>
      </trkpt>
      <trkpt lat="38.737825" lon="-2.743106">
        <ele>988.746</ele>
        <time>2019-06-23T21:35:17Z</time>
      </trkpt>
      <trkpt lat="38.737674" lon="-2.743438">
        <ele>988.824</ele>
        <time>2019-06-23T21:35:37Z</time>
      </trkpt>
      <trkpt lat="38.737457" lon="-2.744190">
        <ele>989.265</ele>
        <time>2019-06-23T21:35:57Z</time>
      </trkpt>
      <trkpt lat="38.737239" lon="-2.745177">
        <ele>991.146</ele>
        <time>2019-06-23T21:36:17Z</time>
      </trkpt>
      <trkpt lat="38.738862" lon="-2.745852">
        <ele>982.488</ele>
        <time>2019-06-23T21:36:37Z</time>
      </trkpt>
      <trkpt lat="38.739323" lon="-2.746346">
        <ele>976.216</ele>
        <time>2019-06-23T21:36:57Z</time>
      </trkpt>
      <trkpt lat="38.740829" lon="-2.748191">
        <ele>971.508</ele>
        <time>2019-06-23T21:37:17Z</time>
      </trkpt>
      <trkpt lat="38.741482" lon="-2.749114">
        <ele>973.417</ele>
        <time>2019-06-23T21:37:37Z</time>
      </trkpt>
      <trkpt lat="38.741833" lon="-2.748835">
        <ele>972.521</ele>
        <time>2019-06-23T21:37:57Z</time>
      </trkpt>
      <trkpt lat="38.742034" lon="-2.748352">
        <ele>972.183</ele>
        <time>2019-06-23T21:38:17Z</time>
      </trkpt>
      <trkpt lat="38.742335" lon="-2.747676">
        <ele>970.640</ele>
        <time>2019-06-23T21:38:37Z</time>
      </trkpt>
      <trkpt lat="38.742695" lon="-2.746979">
        <ele>971.038</ele>
        <time>2019-06-23T21:38:57Z</time>
      </trkpt>
      <trkpt lat="38.743155" lon="-2.746357">
        <ele>970.755</ele>
        <time>2019-06-23T21:39:17Z</time>
      </trkpt>
      <trkpt lat="38.743766" lon="-2.746046">
        <ele>969.363</ele>
        <time>2019-06-23T21:39:37Z</time>
      </trkpt>
      <trkpt lat="38.744519" lon="-2.745842">
        <ele>966.044</ele>
        <time>2019-06-23T21:39:57Z</time>
      </trkpt>
      <trkpt lat="38.745080" lon="-2.745788">
        <ele>967.399</ele>
        <time>2019-06-23T21:40:17Z</time>
      </trkpt>
      <trkpt lat="38.745465" lon="-2.745810">
        <ele>965.207</ele>
        <time>2019-06-23T21:40:37Z</time>
      </trkpt>
      <trkpt lat="38.747122" lon="-2.745413">
        <ele>973.727</ele>
        <time>2019-06-23T21:40:57Z</time>
      </trkpt>
      <trkpt lat="38.747950" lon="-2.745187">
        <ele>976.008</ele>
        <time>2019-06-23T21:41:17Z</time>
      </trkpt>
      <trkpt lat="38.748528" lon="-2.744565">
        <ele>977.712</ele>
        <time>2019-06-23T21:41:37Z</time>
      </trkpt>
      <trkpt lat="38.748854" lon="-2.744415">
        <ele>979.796</ele>
        <time>2019-06-23T21:41:57Z</time>
      </trkpt>
      <trkpt lat="38.749172" lon="-2.743953">
        <ele>982.288</ele>
        <time>2019-06-23T21:42:17Z</time>
      </trkpt>
      <trkpt lat="38.749255" lon="-2.743653">
        <ele>981.525</ele>
        <time>2019-06-23T21:42:37Z</time>
      </trkpt>
      <trkpt lat="38.749398" lon="-2.742956">
        <ele>985.343</ele>
        <time>2019-06-23T21:42:57Z</time>
      </trkpt>
      <trkpt lat="38.749573" lon="-2.742527">
        <ele>987.490</ele>
        <time>2019-06-23T21:43:17Z</time>
      </trkpt>
      <trkpt lat="38.749967" lon="-2.741851">
        <ele>991.538</ele>
        <time>2019-06-23T21:43:37Z</time>
      </trkpt>
      <trkpt lat="38.751272" lon="-2.739898">
        <ele>992.019</ele>
        <time>2019-06-23T21:43:57Z</time>
      </trkpt>
      <trkpt lat="38.752017" lon="-2.738632">
        <ele>989.352</ele>
        <time>2019-06-23T21:44:17Z</time>
      </trkpt>
      <trkpt lat="38.752402" lon="-2.738063">
        <ele>990.453</ele>
        <time>2019-06-23T21:44:37Z</time>
      </trkpt>
      <trkpt lat="38.752820" lon="-2.737677">
        <ele>987.508</ele>
        <time>2019-06-23T21:44:57Z</time>
      </trkpt>
      <trkpt lat="38.752945" lon="-2.737355">
        <ele>988.308</ele>
        <time>2019-06-23T21:45:17Z</time>
      </trkpt>
      <trkpt lat="38.753012" lon="-2.737023">
        <ele>989.638</ele>
        <time>2019-06-23T21:45:37Z</time>
      </trkpt>
      <trkpt lat="38.753498" lon="-2.736400">
        <ele>991.472</ele>
        <time>2019-06-23T21:45:57Z</time>
      </trkpt>
      <trkpt lat="38.753916" lon="-2.735810">
        <ele>989.114</ele>
        <time>2019-06-23T21:46:17Z</time>
      </trkpt>
      <trkpt lat="38.754184" lon="-2.735381">
        <ele>988.491</ele>
        <time>2019-06-23T21:46:37Z</time>
      </trkpt>
      <trkpt lat="38.754334" lon="-2.735049">
        <ele>988.889</ele>
        <time>2019-06-23T21:46:57Z</time>
      </trkpt>
      <trkpt lat="38.754661" lon="-2.734888">
        <ele>989.466</ele>
        <time>2019-06-23T21:47:17Z</time>
      </trkpt>
      <trkpt lat="38.755121" lon="-2.734630">
        <ele>989.824</ele>
        <time>2019-06-23T21:47:37Z</time>
      </trkpt>
      <trkpt lat="38.755556" lon="-2.734340">
        <ele>990.045</ele>
        <time>2019-06-23T21:47:57Z</time>
      </trkpt>
      <trkpt lat="38.755857" lon="-2.734115">
        <ele>988.895</ele>
        <time>2019-06-23T21:48:17Z</time>
      </trkpt>
      <trkpt lat="38.756468" lon="-2.734373">
        <ele>989.549</ele>
        <time>2019-06-23T21:48:37Z</time>
      </trkpt>
      <trkpt lat="38.756911" lon="-2.734458">
        <ele>989.023</ele>
        <time>2019-06-23T21:48:57Z</time>
      </trkpt>
      <trkpt lat="38.757112" lon="-2.734619">
        <ele>989.008</ele>
        <time>2019-06-23T21:49:17Z</time>
      </trkpt>
      <trkpt lat="38.757338" lon="-2.734909">
        <ele>988.712</ele>
        <time>2019-06-23T21:49:37Z</time>
      </trkpt>
      <trkpt lat="38.758425" lon="-2.734931">
        <ele>988.066</ele>
        <time>2019-06-23T21:49:57Z</time>
      </trkpt>
      <trkpt lat="38.758861" lon="-2.734716">
        <ele>987.148</ele>
        <time>2019-06-23T21:50:17Z</time>
      </trkpt>
      <trkpt lat="38.759421" lon="-2.734555">
        <ele>988.625</ele>
        <time>2019-06-23T21:50:37Z</time>
      </trkpt>
      <trkpt lat="38.759856" lon="-2.734373">
        <ele>987.823</ele>
        <time>2019-06-23T21:50:57Z</time>
      </trkpt>
      <trkpt lat="38.760634" lon="-2.733933">
        <ele>988.690</ele>
        <time>2019-06-23T21:51:17Z</time>
      </trkpt>
      <trkpt lat="38.761454" lon="-2.733750">
        <ele>986.168</ele>
        <time>2019-06-23T21:51:37Z</time>
      </trkpt>
      <trkpt lat="38.762098" lon="-2.733493">
        <ele>985.489</ele>
        <time>2019-06-23T21:51:57Z</time>
      </trkpt>
      <trkpt lat="38.763529" lon="-2.733911">
        <ele>984.795</ele>
        <time>2019-06-23T21:52:17Z</time>
      </trkpt>
      <trkpt lat="38.764165" lon="-2.734394">
        <ele>983.049</ele>
        <time>2019-06-23T21:52:37Z</time>
      </trkpt>
      <trkpt lat="38.764750" lon="-2.734909">
        <ele>981.923</ele>
        <time>2019-06-23T21:52:57Z</time>
      </trkpt>
      <trkpt lat="38.764959" lon="-2.735102">
        <ele>981.508</ele>
        <time>2019-06-23T21:53:17Z</time>
      </trkpt>
      <trkpt lat="38.765277" lon="-2.735832">
        <ele>980.072</ele>
        <time>2019-06-23T21:53:37Z</time>
      </trkpt>
      <trkpt lat="38.765478" lon="-2.736572">
        <ele>980.816</ele>
        <time>2019-06-23T21:53:57Z</time>
      </trkpt>
      <trkpt lat="38.765570" lon="-2.737237">
        <ele>979.068</ele>
        <time>2019-06-23T21:54:17Z</time>
      </trkpt>
      <trkpt lat="38.765796" lon="-2.738074">
        <ele>979.175</ele>
        <time>2019-06-23T21:54:37Z</time>
      </trkpt>
      <trkpt lat="38.765871" lon="-2.738814">
        <ele>982.933</ele>
        <time>2019-06-23T21:54:57Z</time>
      </trkpt>
      <trkpt lat="38.765946" lon="-2.739222">
        <ele>981.540</ele>
        <time>2019-06-23T21:55:17Z</time>
      </trkpt>
      <trkpt lat="38.766139" lon="-2.739683">
        <ele>981.798</ele>
        <time>2019-06-23T21:55:37Z</time>
      </trkpt>
      <trkpt lat="38.766222" lon="-2.740134">
        <ele>981.649</ele>
        <time>2019-06-23T21:55:57Z</time>
      </trkpt>
      <trkpt lat="38.766306" lon="-2.740617">
        <ele>981.361</ele>
        <time>2019-06-23T21:56:17Z</time>
      </trkpt>
      <trkpt lat="38.766306" lon="-2.741486">
        <ele>981.721</ele>
        <time>2019-06-23T21:56:37Z</time>
      </trkpt>
      <trkpt lat="38.766415" lon="-2.742012">
        <ele>982.913</ele>
        <time>2019-06-23T21:56:57Z</time>
      </trkpt>
      <trkpt lat="38.766515" lon="-2.742527">
        <ele>981.908</ele>
        <time>2019-06-23T21:57:17Z</time>
      </trkpt>
      <trkpt lat="38.766691" lon="-2.743224">
        <ele>982.419</ele>
        <time>2019-06-23T21:57:37Z</time>
      </trkpt>
      <trkpt lat="38.766791" lon="-2.744093">
        <ele>977.073</ele>
        <time>2019-06-23T21:57:57Z</time>
      </trkpt>
      <trkpt lat="38.766992" lon="-2.744737">
        <ele>975.575</ele>
        <time>2019-06-23T21:58:17Z</time>
      </trkpt>
      <trkpt lat="38.767235" lon="-2.745541">
        <ele>975.152</ele>
        <time>2019-06-23T21:58:37Z</time>
      </trkpt>
      <trkpt lat="38.767460" lon="-2.746003">
        <ele>974.230</ele>
        <time>2019-06-23T21:58:57Z</time>
      </trkpt>
      <trkpt lat="38.768080" lon="-2.746775">
        <ele>974.037</ele>
        <time>2019-06-23T21:59:17Z</time>
      </trkpt>
      <trkpt lat="38.768690" lon="-2.747644">
        <ele>974.355</ele>
        <time>2019-06-23T21:59:37Z</time>
      </trkpt>
      <trkpt lat="38.768899" lon="-2.748277">
        <ele>974.376</ele>
        <time>2019-06-23T21:59:57Z</time>
      </trkpt>
      <trkpt lat="38.769251" lon="-2.748696">
        <ele>976.052</ele>
        <time>2019-06-23T22:00:17Z</time>
      </trkpt>
      <trkpt lat="38.769585" lon="-2.749060">
        <ele>975.353</ele>
        <time>2019-06-23T22:00:37Z</time>
      </trkpt>
      <trkpt lat="38.769769" lon="-2.749532">
        <ele>974.908</ele>
        <time>2019-06-23T22:00:57Z</time>
      </trkpt>
      <trkpt lat="38.769786" lon="-2.749908">
        <ele>975.008</ele>
        <time>2019-06-23T22:01:17Z</time>
      </trkpt>
      <trkpt lat="38.769895" lon="-2.750852">
        <ele>974.638</ele>
        <time>2019-06-23T22:01:37Z</time>
      </trkpt>
      <trkpt lat="38.770037" lon="-2.751592">
        <ele>973.442</ele>
        <time>2019-06-23T22:01:57Z</time>
      </trkpt>
      <trkpt lat="38.770321" lon="-2.751893">
        <ele>973.324</ele>
        <time>2019-06-23T22:02:17Z</time>
      </trkpt>
      <trkpt lat="38.770556" lon="-2.752258">
        <ele>973.031</ele>
        <time>2019-06-23T22:02:37Z</time>
      </trkpt>
      <trkpt lat="38.770606" lon="-2.752783">
        <ele>972.659</ele>
        <time>2019-06-23T22:02:57Z</time>
      </trkpt>
      <trkpt lat="38.770765" lon="-2.753180">
        <ele>975.736</ele>
        <time>2019-06-23T22:03:17Z</time>
      </trkpt>
      <trkpt lat="38.772195" lon="-2.753631">
        <ele>977.284</ele>
        <time>2019-06-23T22:03:37Z</time>
      </trkpt>
      <trkpt lat="38.773040" lon="-2.754897">
        <ele>971.165</ele>
        <time>2019-06-23T22:03:57Z</time>
      </trkpt>
      <trkpt lat="38.773826" lon="-2.756013">
        <ele>964.859</ele>
        <time>2019-06-23T22:04:17Z</time>
      </trkpt>
      <trkpt lat="38.774228" lon="-2.756646">
        <ele>961.503</ele>
        <time>2019-06-23T22:04:37Z</time>
      </trkpt>
      <trkpt lat="38.774663" lon="-2.756957">
        <ele>963.023</ele>
        <time>2019-06-23T22:04:57Z</time>
      </trkpt>
      <trkpt lat="38.775516" lon="-2.757515">
        <ele>964.008</ele>
        <time>2019-06-23T22:05:17Z</time>
      </trkpt>
      <trkpt lat="38.776059" lon="-2.757955">
        <ele>965.048</ele>
        <time>2019-06-23T22:05:37Z</time>
      </trkpt>
      <trkpt lat="38.776227" lon="-2.758266">
        <ele>965.452</ele>
        <time>2019-06-23T22:05:57Z</time>
      </trkpt>
      <trkpt lat="38.776419" lon="-2.758706">
        <ele>966.084</ele>
        <time>2019-06-23T22:06:17Z</time>
      </trkpt>
      <trkpt lat="38.776770" lon="-2.759156">
        <ele>965.431</ele>
        <time>2019-06-23T22:06:37Z</time>
      </trkpt>
      <trkpt lat="38.777189" lon="-2.759349">
        <ele>966.319</ele>
        <time>2019-06-23T22:06:57Z</time>
      </trkpt>
      <trkpt lat="38.777565" lon="-2.759478">
        <ele>968.176</ele>
        <time>2019-06-23T22:07:17Z</time>
      </trkpt>
      <trkpt lat="38.778234" lon="-2.759918">
        <ele>967.834</ele>
        <time>2019-06-23T22:07:37Z</time>
      </trkpt>
      <trkpt lat="38.779112" lon="-2.760583">
        <ele>966.135</ele>
        <time>2019-06-23T22:07:57Z</time>
      </trkpt>
      <trkpt lat="38.779898" lon="-2.761023">
        <ele>969.168</ele>
        <time>2019-06-23T22:08:17Z</time>
      </trkpt>
      <trkpt lat="38.780409" lon="-2.761452">
        <ele>969.642</ele>
        <time>2019-06-23T22:08:37Z</time>
      </trkpt>
      <trkpt lat="38.780643" lon="-2.761720">
        <ele>968.126</ele>
        <time>2019-06-23T22:08:57Z</time>
      </trkpt>
      <trkpt lat="38.780910" lon="-2.762117">
        <ele>966.208</ele>
        <time>2019-06-23T22:09:17Z</time>
      </trkpt>
      <trkpt lat="38.780969" lon="-2.762471">
        <ele>965.649</ele>
        <time>2019-06-23T22:09:37Z</time>
      </trkpt>
      <trkpt lat="38.781207" lon="-2.763898">
        <ele>963.023</ele>
        <time>2019-06-23T22:09:57Z</time>
      </trkpt>
      <trkpt lat="38.781312" lon="-2.764435">
        <ele>963.365</ele>
        <time>2019-06-23T22:10:17Z</time>
      </trkpt>
      <trkpt lat="38.781504" lon="-2.765669">
        <ele>964.282</ele>
        <time>2019-06-23T22:10:37Z</time>
      </trkpt>
      <trkpt lat="38.781479" lon="-2.765948">
        <ele>963.590</ele>
        <time>2019-06-23T22:10:57Z</time>
      </trkpt>
      <trkpt lat="38.781588" lon="-2.767235">
        <ele>960.617</ele>
        <time>2019-06-23T22:11:17Z</time>
      </trkpt>
      <trkpt lat="38.781839" lon="-2.768265">
        <ele>963.535</ele>
        <time>2019-06-23T22:11:37Z</time>
      </trkpt>
      <trkpt lat="38.781989" lon="-2.768877">
        <ele>964.816</ele>
        <time>2019-06-23T22:11:57Z</time>
      </trkpt>
      <trkpt lat="38.782165" lon="-2.770336">
        <ele>962.836</ele>
        <time>2019-06-23T22:12:17Z</time>
      </trkpt>
      <trkpt lat="38.782366" lon="-2.771355">
        <ele>963.517</ele>
        <time>2019-06-23T22:12:37Z</time>
      </trkpt>
      <trkpt lat="38.782500" lon="-2.771999">
        <ele>961.818</ele>
        <time>2019-06-23T22:12:57Z</time>
      </trkpt>
      <trkpt lat="38.782667" lon="-2.772321">
        <ele>960.508</ele>
        <time>2019-06-23T22:13:17Z</time>
      </trkpt>
      <trkpt lat="38.782667" lon="-2.772728">
        <ele>959.166</ele>
        <time>2019-06-23T22:13:37Z</time>
      </trkpt>
      <trkpt lat="38.782901" lon="-2.773479">
        <ele>958.010</ele>
        <time>2019-06-23T22:13:57Z</time>
      </trkpt>
      <trkpt lat="38.783052" lon="-2.775357">
        <ele>963.392</ele>
        <time>2019-06-23T22:14:17Z</time>
      </trkpt>
      <trkpt lat="38.783077" lon="-2.775904">
        <ele>962.769</ele>
        <time>2019-06-23T22:14:37Z</time>
      </trkpt>
      <trkpt lat="38.783010" lon="-2.776279">
        <ele>962.277</ele>
        <time>2019-06-23T22:14:57Z</time>
      </trkpt>
      <trkpt lat="38.782976" lon="-2.776945">
        <ele>963.024</ele>
        <time>2019-06-23T22:15:17Z</time>
      </trkpt>
      <trkpt lat="38.783026" lon="-2.777417">
        <ele>963.382</ele>
        <time>2019-06-23T22:15:37Z</time>
      </trkpt>
      <trkpt lat="38.783269" lon="-2.778157">
        <ele>961.843</ele>
        <time>2019-06-23T22:15:57Z</time>
      </trkpt>
      <trkpt lat="38.783478" lon="-2.779273">
        <ele>962.796</ele>
        <time>2019-06-23T22:16:17Z</time>
      </trkpt>
      <trkpt lat="38.783403" lon="-2.779670">
        <ele>962.331</ele>
        <time>2019-06-23T22:16:37Z</time>
      </trkpt>
      <trkpt lat="38.783411" lon="-2.780195">
        <ele>960.124</ele>
        <time>2019-06-23T22:16:57Z</time>
      </trkpt>
      <trkpt lat="38.783428" lon="-2.780710">
        <ele>960.008</ele>
        <time>2019-06-23T22:17:17Z</time>
      </trkpt>
      <trkpt lat="38.783470" lon="-2.781161">
        <ele>960.432</ele>
        <time>2019-06-23T22:17:37Z</time>
      </trkpt>
      <trkpt lat="38.783453" lon="-2.781515">
        <ele>959.566</ele>
        <time>2019-06-23T22:17:57Z</time>
      </trkpt>
      <trkpt lat="38.783411" lon="-2.781687">
        <ele>958.968</ele>
        <time>2019-06-23T22:18:17Z</time>
      </trkpt>
      <trkpt lat="38.783453" lon="-2.781912">
        <ele>958.185</ele>
        <time>2019-06-23T22:18:37Z</time>
      </trkpt>
      <trkpt lat="38.783578" lon="-2.782073">
        <ele>957.933</ele>
        <time>2019-06-23T22:18:57Z</time>
      </trkpt>
      <trkpt lat="38.783997" lon="-2.782878">
        <ele>957.820</ele>
        <time>2019-06-23T22:19:17Z</time>
      </trkpt>
      <trkpt lat="38.784105" lon="-2.783446">
        <ele>957.798</ele>
        <time>2019-06-23T22:19:37Z</time>
      </trkpt>
      <trkpt lat="38.783921" lon="-2.784133">
        <ele>956.229</ele>
        <time>2019-06-23T22:19:57Z</time>
      </trkpt>
      <trkpt lat="38.783261" lon="-2.784412">
        <ele>953.233</ele>
        <time>2019-06-23T22:20:17Z</time>
      </trkpt>
      <trkpt lat="38.782684" lon="-2.784369">
        <ele>947.823</ele>
        <time>2019-06-23T22:20:37Z</time>
      </trkpt>
      <trkpt lat="38.782274" lon="-2.784455">
        <ele>946.915</ele>
        <time>2019-06-23T22:20:57Z</time>
      </trkpt>
      <trkpt lat="38.782006" lon="-2.784777">
        <ele>949.208</ele>
        <time>2019-06-23T22:21:17Z</time>
      </trkpt>
      <trkpt lat="38.781830" lon="-2.784991">
        <ele>950.916</ele>
        <time>2019-06-23T22:21:37Z</time>
      </trkpt>
      <trkpt lat="38.781655" lon="-2.785420">
        <ele>952.190</ele>
        <time>2019-06-23T22:21:57Z</time>
      </trkpt>
      <trkpt lat="38.781287" lon="-2.786000">
        <ele>953.832</ele>
        <time>2019-06-23T22:22:17Z</time>
      </trkpt>
      <trkpt lat="38.780634" lon="-2.786633">
        <ele>955.779</ele>
        <time>2019-06-23T22:22:37Z</time>
      </trkpt>
      <trkpt lat="38.780384" lon="-2.786955">
        <ele>958.297</ele>
        <time>2019-06-23T22:22:57Z</time>
      </trkpt>
      <trkpt lat="38.780200" lon="-2.788156">
        <ele>958.664</ele>
        <time>2019-06-23T22:23:17Z</time>
      </trkpt>
      <trkpt lat="38.779932" lon="-2.789283">
        <ele>955.642</ele>
        <time>2019-06-23T22:23:37Z</time>
      </trkpt>
      <trkpt lat="38.779714" lon="-2.790216">
        <ele>956.263</ele>
        <time>2019-06-23T22:23:57Z</time>
      </trkpt>
      <trkpt lat="38.779455" lon="-2.791150">
        <ele>956.013</ele>
        <time>2019-06-23T22:24:17Z</time>
      </trkpt>
      <trkpt lat="38.778962" lon="-2.792212">
        <ele>955.043</ele>
        <time>2019-06-23T22:24:37Z</time>
      </trkpt>
      <trkpt lat="38.778569" lon="-2.793521">
        <ele>956.707</ele>
        <time>2019-06-23T22:24:57Z</time>
      </trkpt>
      <trkpt lat="38.777966" lon="-2.795130">
        <ele>955.308</ele>
        <time>2019-06-23T22:25:17Z</time>
      </trkpt>
      <trkpt lat="38.777573" lon="-2.795731">
        <ele>954.494</ele>
        <time>2019-06-23T22:25:37Z</time>
      </trkpt>
      <trkpt lat="38.777373" lon="-2.796235">
        <ele>953.988</ele>
        <time>2019-06-23T22:25:57Z</time>
      </trkpt>
      <trkpt lat="38.776779" lon="-2.797930">
        <ele>955.310</ele>
        <time>2019-06-23T22:26:17Z</time>
      </trkpt>
      <trkpt lat="38.776018" lon="-2.800387">
        <ele>954.127</ele>
        <time>2019-06-23T22:26:37Z</time>
      </trkpt>
      <trkpt lat="38.775666" lon="-2.801825">
        <ele>956.275</ele>
        <time>2019-06-23T22:26:57Z</time>
      </trkpt>
      <trkpt lat="38.775399" lon="-2.803112">
        <ele>952.312</ele>
        <time>2019-06-23T22:27:17Z</time>
      </trkpt>
      <trkpt lat="38.775307" lon="-2.803853">
        <ele>956.820</ele>
        <time>2019-06-23T22:27:37Z</time>
      </trkpt>
      <trkpt lat="38.774930" lon="-2.805001">
        <ele>957.781</ele>
        <time>2019-06-23T22:27:57Z</time>
      </trkpt>
      <trkpt lat="38.774637" lon="-2.805934">
        <ele>954.754</ele>
        <time>2019-06-23T22:28:17Z</time>
      </trkpt>
      <trkpt lat="38.774169" lon="-2.806760">
        <ele>954.756</ele>
        <time>2019-06-23T22:28:37Z</time>
      </trkpt>
      <trkpt lat="38.773667" lon="-2.807897">
        <ele>955.111</ele>
        <time>2019-06-23T22:28:57Z</time>
      </trkpt>
      <trkpt lat="38.773232" lon="-2.808863">
        <ele>955.608</ele>
        <time>2019-06-23T22:29:17Z</time>
      </trkpt>
      <trkpt lat="38.773082" lon="-2.809496">
        <ele>956.258</ele>
        <time>2019-06-23T22:29:37Z</time>
      </trkpt>
      <trkpt lat="38.772571" lon="-2.811513">
        <ele>955.042</ele>
        <time>2019-06-23T22:29:57Z</time>
      </trkpt>
      <trkpt lat="38.772413" lon="-2.812146">
        <ele>953.354</ele>
        <time>2019-06-23T22:30:17Z</time>
      </trkpt>
      <trkpt lat="38.772178" lon="-2.813584">
        <ele>957.051</ele>
        <time>2019-06-23T22:30:37Z</time>
      </trkpt>
      <trkpt lat="38.772153" lon="-2.814152">
        <ele>956.839</ele>
        <time>2019-06-23T22:30:57Z</time>
      </trkpt>
      <trkpt lat="38.772220" lon="-2.814656">
        <ele>957.046</ele>
        <time>2019-06-23T22:31:17Z</time>
      </trkpt>
      <trkpt lat="38.772044" lon="-2.815708">
        <ele>958.864</ele>
        <time>2019-06-23T22:31:37Z</time>
      </trkpt>
      <trkpt lat="38.771911" lon="-2.816663">
        <ele>959.195</ele>
        <time>2019-06-23T22:31:57Z</time>
      </trkpt>
      <trkpt lat="38.771685" lon="-2.817478">
        <ele>959.394</ele>
        <time>2019-06-23T22:32:17Z</time>
      </trkpt>
      <trkpt lat="38.771551" lon="-2.818004">
        <ele>957.757</ele>
        <time>2019-06-23T22:32:37Z</time>
      </trkpt>
      <trkpt lat="38.771317" lon="-2.819152">
        <ele>955.022</ele>
        <time>2019-06-23T22:32:57Z</time>
      </trkpt>
      <trkpt lat="38.771233" lon="-2.819967">
        <ele>959.408</ele>
        <time>2019-06-23T22:33:17Z</time>
      </trkpt>
      <trkpt lat="38.771099" lon="-2.820997">
        <ele>958.772</ele>
        <time>2019-06-23T22:33:37Z</time>
      </trkpt>
      <trkpt lat="38.770865" lon="-2.822016">
        <ele>959.016</ele>
        <time>2019-06-23T22:33:57Z</time>
      </trkpt>
      <trkpt lat="38.770781" lon="-2.822746">
        <ele>960.828</ele>
        <time>2019-06-23T22:34:17Z</time>
      </trkpt>
      <trkpt lat="38.770706" lon="-2.823497">
        <ele>961.415</ele>
        <time>2019-06-23T22:34:37Z</time>
      </trkpt>
      <trkpt lat="38.770464" lon="-2.824398">
        <ele>961.373</ele>
        <time>2019-06-23T22:34:57Z</time>
      </trkpt>
      <trkpt lat="38.769803" lon="-2.826233">
        <ele>961.060</ele>
        <time>2019-06-23T22:35:17Z</time>
      </trkpt>
      <trkpt lat="38.769493" lon="-2.827038">
        <ele>958.188</ele>
        <time>2019-06-23T22:35:37Z</time>
      </trkpt>
      <trkpt lat="38.768732" lon="-2.828250">
        <ele>959.369</ele>
        <time>2019-06-23T22:35:57Z</time>
      </trkpt>
      <trkpt lat="38.768197" lon="-2.829130">
        <ele>958.075</ele>
        <time>2019-06-23T22:36:17Z</time>
      </trkpt>
      <trkpt lat="38.767803" lon="-2.830235">
        <ele>958.128</ele>
        <time>2019-06-23T22:36:37Z</time>
      </trkpt>
      <trkpt lat="38.767753" lon="-2.831104">
        <ele>958.820</ele>
        <time>2019-06-23T22:36:57Z</time>
      </trkpt>
      <trkpt lat="38.767494" lon="-2.831823">
        <ele>959.508</ele>
        <time>2019-06-23T22:37:17Z</time>
      </trkpt>
      <trkpt lat="38.766992" lon="-2.833089">
        <ele>959.140</ele>
        <time>2019-06-23T22:37:37Z</time>
      </trkpt>
      <trkpt lat="38.766775" lon="-2.834430">
        <ele>958.434</ele>
        <time>2019-06-23T22:37:57Z</time>
      </trkpt>
      <trkpt lat="38.766306" lon="-2.835782">
        <ele>956.846</ele>
        <time>2019-06-23T22:38:17Z</time>
      </trkpt>
      <trkpt lat="38.765905" lon="-2.836661">
        <ele>955.353</ele>
        <time>2019-06-23T22:38:37Z</time>
      </trkpt>
      <trkpt lat="38.765712" lon="-2.837037">
        <ele>954.451</ele>
        <time>2019-06-23T22:38:57Z</time>
      </trkpt>
      <trkpt lat="38.765587" lon="-2.837380">
        <ele>953.868</ele>
        <time>2019-06-23T22:39:17Z</time>
      </trkpt>
      <trkpt lat="38.765687" lon="-2.837927">
        <ele>956.526</ele>
        <time>2019-06-23T22:39:37Z</time>
      </trkpt>
      <trkpt lat="38.765670" lon="-2.838668">
        <ele>954.187</ele>
        <time>2019-06-23T22:39:57Z</time>
      </trkpt>
      <trkpt lat="38.765679" lon="-2.839226">
        <ele>951.738</ele>
        <time>2019-06-23T22:40:17Z</time>
      </trkpt>
      <trkpt lat="38.765813" lon="-2.839580">
        <ele>951.470</ele>
        <time>2019-06-23T22:40:37Z</time>
      </trkpt>
      <trkpt lat="38.766005" lon="-2.840416">
        <ele>954.117</ele>
        <time>2019-06-23T22:40:57Z</time>
      </trkpt>
      <trkpt lat="38.766022" lon="-2.840985">
        <ele>955.208</ele>
        <time>2019-06-23T22:41:17Z</time>
      </trkpt>
      <trkpt lat="38.765905" lon="-2.841511">
        <ele>954.836</ele>
        <time>2019-06-23T22:41:37Z</time>
      </trkpt>
      <trkpt lat="38.765787" lon="-2.841994">
        <ele>952.880</ele>
        <time>2019-06-23T22:41:57Z</time>
      </trkpt>
      <trkpt lat="38.765971" lon="-2.842948">
        <ele>951.982</ele>
        <time>2019-06-23T22:42:17Z</time>
      </trkpt>
      <trkpt lat="38.766156" lon="-2.843431">
        <ele>952.619</ele>
        <time>2019-06-23T22:42:37Z</time>
      </trkpt>
      <trkpt lat="38.766482" lon="-2.843839">
        <ele>956.047</ele>
        <time>2019-06-23T22:42:57Z</time>
      </trkpt>
      <trkpt lat="38.766766" lon="-2.844536">
        <ele>952.874</ele>
        <time>2019-06-23T22:43:17Z</time>
      </trkpt>
      <trkpt lat="38.766816" lon="-2.845159">
        <ele>951.222</ele>
        <time>2019-06-23T22:43:37Z</time>
      </trkpt>
      <trkpt lat="38.766850" lon="-2.845899">
        <ele>950.263</ele>
        <time>2019-06-23T22:43:57Z</time>
      </trkpt>
      <trkpt lat="38.766816" lon="-2.846564">
        <ele>951.617</ele>
        <time>2019-06-23T22:44:17Z</time>
      </trkpt>
      <trkpt lat="38.766783" lon="-2.846843">
        <ele>951.387</ele>
        <time>2019-06-23T22:44:37Z</time>
      </trkpt>
      <trkpt lat="38.766908" lon="-2.847304">
        <ele>952.615</ele>
        <time>2019-06-23T22:44:57Z</time>
      </trkpt>
      <trkpt lat="38.767251" lon="-2.847798">
        <ele>953.108</ele>
        <time>2019-06-23T22:45:17Z</time>
      </trkpt>
      <trkpt lat="38.767862" lon="-2.848774">
        <ele>952.464</ele>
        <time>2019-06-23T22:45:37Z</time>
      </trkpt>
      <trkpt lat="38.768113" lon="-2.849278">
        <ele>950.478</ele>
        <time>2019-06-23T22:45:57Z</time>
      </trkpt>
      <trkpt lat="38.768607" lon="-2.849793">
        <ele>950.020</ele>
        <time>2019-06-23T22:46:17Z</time>
      </trkpt>
      <trkpt lat="38.769209" lon="-2.850770">
        <ele>946.917</ele>
        <time>2019-06-23T22:46:37Z</time>
      </trkpt>
      <trkpt lat="38.769493" lon="-2.851038">
        <ele>945.915</ele>
        <time>2019-06-23T22:46:57Z</time>
      </trkpt>
      <trkpt lat="38.770196" lon="-2.851424">
        <ele>946.392</ele>
        <time>2019-06-23T22:47:17Z</time>
      </trkpt>
      <trkpt lat="38.770455" lon="-2.851692">
        <ele>945.290</ele>
        <time>2019-06-23T22:47:37Z</time>
      </trkpt>
      <trkpt lat="38.771149" lon="-2.851692">
        <ele>947.261</ele>
        <time>2019-06-23T22:47:57Z</time>
      </trkpt>
      <trkpt lat="38.771676" lon="-2.851778">
        <ele>948.692</ele>
        <time>2019-06-23T22:48:17Z</time>
      </trkpt>
      <trkpt lat="38.772136" lon="-2.851982">
        <ele>948.173</ele>
        <time>2019-06-23T22:48:37Z</time>
      </trkpt>
      <trkpt lat="38.772438" lon="-2.852401">
        <ele>949.620</ele>
        <time>2019-06-23T22:48:57Z</time>
      </trkpt>
      <trkpt lat="38.773149" lon="-2.853988">
        <ele>946.008</ele>
        <time>2019-06-23T22:49:17Z</time>
      </trkpt>
      <trkpt lat="38.773542" lon="-2.855093">
        <ele>945.772</ele>
        <time>2019-06-23T22:49:37Z</time>
      </trkpt>
      <trkpt lat="38.773584" lon="-2.855523">
        <ele>946.116</ele>
        <time>2019-06-23T22:49:57Z</time>
      </trkpt>
      <trkpt lat="38.773592" lon="-2.855887">
        <ele>946.258</ele>
        <time>2019-06-23T22:50:17Z</time>
      </trkpt>
      <trkpt lat="38.773684" lon="-2.857550">
        <ele>945.895</ele>
        <time>2019-06-23T22:50:37Z</time>
      </trkpt>
      <trkpt lat="38.773868" lon="-2.858806">
        <ele>947.023</ele>
        <time>2019-06-23T22:50:57Z</time>
      </trkpt>
      <trkpt lat="38.774211" lon="-2.860544">
        <ele>944.770</ele>
        <time>2019-06-23T22:51:17Z</time>
      </trkpt>
      <trkpt lat="38.774571" lon="-2.862432">
        <ele>943.648</ele>
        <time>2019-06-23T22:51:37Z</time>
      </trkpt>
      <trkpt lat="38.774914" lon="-2.864428">
        <ele>941.619</ele>
        <time>2019-06-23T22:51:57Z</time>
      </trkpt>
      <trkpt lat="38.828843" lon="-2.966523">
        <ele>880.9</ele>
        <time>2019-06-24T19:05:04Z</time>
      </trkpt>
      <trkpt lat="38.774880" lon="-2.864707">
        <ele>941.531</ele>
        <time>2019-06-24T19:05:04Z</time>
      </trkpt>
      <trkpt lat="38.775031" lon="-2.865222">
        <ele>941.161</ele>
        <time>2019-06-24T19:05:24Z</time>
      </trkpt>
      <trkpt lat="38.775365" lon="-2.865565">
        <ele>942.307</ele>
        <time>2019-06-24T19:05:44Z</time>
      </trkpt>
      <trkpt lat="38.775850" lon="-2.865715">
        <ele>943.908</ele>
        <time>2019-06-24T19:06:04Z</time>
      </trkpt>
      <trkpt lat="38.777891" lon="-2.866284">
        <ele>940.876</ele>
        <time>2019-06-24T19:06:24Z</time>
      </trkpt>
      <trkpt lat="38.779790" lon="-2.867582">
        <ele>938.881</ele>
        <time>2019-06-24T19:06:44Z</time>
      </trkpt>
      <trkpt lat="38.780300" lon="-2.867861">
        <ele>938.183</ele>
        <time>2019-06-24T19:07:04Z</time>
      </trkpt>
      <trkpt lat="38.780994" lon="-2.868022">
        <ele>938.933</ele>
        <time>2019-06-24T19:07:24Z</time>
      </trkpt>
      <trkpt lat="38.781605" lon="-2.868354">
        <ele>940.133</ele>
        <time>2019-06-24T19:07:44Z</time>
      </trkpt>
      <trkpt lat="38.782290" lon="-2.868998">
        <ele>937.439</ele>
        <time>2019-06-24T19:08:04Z</time>
      </trkpt>
      <trkpt lat="38.782650" lon="-2.869352">
        <ele>938.538</ele>
        <time>2019-06-24T19:08:24Z</time>
      </trkpt>
      <trkpt lat="38.783185" lon="-2.869674">
        <ele>939.352</ele>
        <time>2019-06-24T19:08:44Z</time>
      </trkpt>
      <trkpt lat="38.783470" lon="-2.869856">
        <ele>939.582</ele>
        <time>2019-06-24T19:09:04Z</time>
      </trkpt>
      <trkpt lat="38.785318" lon="-2.870436">
        <ele>932.943</ele>
        <time>2019-06-24T19:09:24Z</time>
      </trkpt>
      <trkpt lat="38.785895" lon="-2.871047">
        <ele>931.317</ele>
        <time>2019-06-24T19:09:44Z</time>
      </trkpt>
      <trkpt lat="38.786455" lon="-2.871455">
        <ele>928.708</ele>
        <time>2019-06-24T19:10:04Z</time>
      </trkpt>
      <trkpt lat="38.787057" lon="-2.871809">
        <ele>926.391</ele>
        <time>2019-06-24T19:10:24Z</time>
      </trkpt>
      <trkpt lat="38.787559" lon="-2.872152">
        <ele>930.176</ele>
        <time>2019-06-24T19:10:44Z</time>
      </trkpt>
      <trkpt lat="38.787927" lon="-2.872721">
        <ele>935.418</ele>
        <time>2019-06-24T19:11:04Z</time>
      </trkpt>
      <trkpt lat="38.788446" lon="-2.872882">
        <ele>934.868</ele>
        <time>2019-06-24T19:11:24Z</time>
      </trkpt>
      <trkpt lat="38.788638" lon="-2.873107">
        <ele>933.578</ele>
        <time>2019-06-24T19:11:44Z</time>
      </trkpt>
      <trkpt lat="38.788839" lon="-2.873440">
        <ele>930.384</ele>
        <time>2019-06-24T19:12:04Z</time>
      </trkpt>
      <trkpt lat="38.789366" lon="-2.873343">
        <ele>931.073</ele>
        <time>2019-06-24T19:12:24Z</time>
      </trkpt>
      <trkpt lat="38.789717" lon="-2.873032">
        <ele>931.037</ele>
        <time>2019-06-24T19:12:44Z</time>
      </trkpt>
      <trkpt lat="38.789851" lon="-2.872828">
        <ele>932.512</ele>
        <time>2019-06-24T19:13:04Z</time>
      </trkpt>
      <trkpt lat="38.790168" lon="-2.872796">
        <ele>935.832</ele>
        <time>2019-06-24T19:13:24Z</time>
      </trkpt>
      <trkpt lat="38.790729" lon="-2.872882">
        <ele>937.105</ele>
        <time>2019-06-24T19:13:44Z</time>
      </trkpt>
      <trkpt lat="38.791055" lon="-2.872785">
        <ele>937.808</ele>
        <time>2019-06-24T19:14:04Z</time>
      </trkpt>
      <trkpt lat="38.792359" lon="-2.873107">
        <ele>940.314</ele>
        <time>2019-06-24T19:14:24Z</time>
      </trkpt>
      <trkpt lat="38.792961" lon="-2.873279">
        <ele>941.749</ele>
        <time>2019-06-24T19:14:44Z</time>
      </trkpt>
      <trkpt lat="38.793430" lon="-2.873740">
        <ele>941.791</ele>
        <time>2019-06-24T19:15:04Z</time>
      </trkpt>
      <trkpt lat="38.793706" lon="-2.873955">
        <ele>942.161</ele>
        <time>2019-06-24T19:15:24Z</time>
      </trkpt>
      <trkpt lat="38.794082" lon="-2.873944">
        <ele>943.541</ele>
        <time>2019-06-24T19:15:44Z</time>
      </trkpt>
      <trkpt lat="38.795353" lon="-2.874899">
        <ele>943.587</ele>
        <time>2019-06-24T19:16:04Z</time>
      </trkpt>
      <trkpt lat="38.795821" lon="-2.875189">
        <ele>941.016</ele>
        <time>2019-06-24T19:16:24Z</time>
      </trkpt>
      <trkpt lat="38.796365" lon="-2.875307">
        <ele>940.260</ele>
        <time>2019-06-24T19:16:44Z</time>
      </trkpt>
      <trkpt lat="38.797025" lon="-2.875972">
        <ele>942.424</ele>
        <time>2019-06-24T19:17:04Z</time>
      </trkpt>
      <trkpt lat="38.798196" lon="-2.877195">
        <ele>942.604</ele>
        <time>2019-06-24T19:17:24Z</time>
      </trkpt>
      <trkpt lat="38.798748" lon="-2.877409">
        <ele>942.814</ele>
        <time>2019-06-24T19:17:44Z</time>
      </trkpt>
      <trkpt lat="38.798865" lon="-2.877624">
        <ele>942.908</ele>
        <time>2019-06-24T19:18:04Z</time>
      </trkpt>
      <trkpt lat="38.798982" lon="-2.877924">
        <ele>943.735</ele>
        <time>2019-06-24T19:18:24Z</time>
      </trkpt>
      <trkpt lat="38.799291" lon="-2.878214">
        <ele>944.440</ele>
        <time>2019-06-24T19:18:44Z</time>
      </trkpt>
      <trkpt lat="38.799400" lon="-2.878654">
        <ele>944.932</ele>
        <time>2019-06-24T19:19:04Z</time>
      </trkpt>
      <trkpt lat="38.799944" lon="-2.879426">
        <ele>948.012</ele>
        <time>2019-06-24T19:19:24Z</time>
      </trkpt>
      <trkpt lat="38.801148" lon="-2.880338">
        <ele>948.322</ele>
        <time>2019-06-24T19:19:44Z</time>
      </trkpt>
      <trkpt lat="38.801566" lon="-2.880682">
        <ele>948.448</ele>
        <time>2019-06-24T19:20:04Z</time>
      </trkpt>
      <trkpt lat="38.803606" lon="-2.881529">
        <ele>947.017</ele>
        <time>2019-06-24T19:20:24Z</time>
      </trkpt>
      <trkpt lat="38.803974" lon="-2.881851">
        <ele>947.741</ele>
        <time>2019-06-24T19:20:44Z</time>
      </trkpt>
      <trkpt lat="38.804459" lon="-2.882087">
        <ele>945.597</ele>
        <time>2019-06-24T19:21:04Z</time>
      </trkpt>
      <trkpt lat="38.805077" lon="-2.882270">
        <ele>946.923</ele>
        <time>2019-06-24T19:21:24Z</time>
      </trkpt>
      <trkpt lat="38.805872" lon="-2.882195">
        <ele>945.925</ele>
        <time>2019-06-24T19:21:44Z</time>
      </trkpt>
      <trkpt lat="38.806549" lon="-2.882495">
        <ele>947.008</ele>
        <time>2019-06-24T19:22:04Z</time>
      </trkpt>
      <trkpt lat="38.808313" lon="-2.882720">
        <ele>950.152</ele>
        <time>2019-06-24T19:22:24Z</time>
      </trkpt>
      <trkpt lat="38.808672" lon="-2.882656">
        <ele>950.177</ele>
        <time>2019-06-24T19:22:44Z</time>
      </trkpt>
      <trkpt lat="38.808998" lon="-2.882688">
        <ele>950.599</ele>
        <time>2019-06-24T19:23:04Z</time>
      </trkpt>
      <trkpt lat="38.809099" lon="-2.882892">
        <ele>951.339</ele>
        <time>2019-06-24T19:23:24Z</time>
      </trkpt>
      <trkpt lat="38.809600" lon="-2.882892">
        <ele>950.149</ele>
        <time>2019-06-24T19:23:44Z</time>
      </trkpt>
      <trkpt lat="38.810060" lon="-2.883182">
        <ele>951.265</ele>
        <time>2019-06-24T19:24:04Z</time>
      </trkpt>
      <trkpt lat="38.811005" lon="-2.884040">
        <ele>951.614</ele>
        <time>2019-06-24T19:24:24Z</time>
      </trkpt>
      <trkpt lat="38.811214" lon="-2.884297">
        <ele>951.078</ele>
        <time>2019-06-24T19:24:44Z</time>
      </trkpt>
      <trkpt lat="38.811490" lon="-2.884619">
        <ele>949.734</ele>
        <time>2019-06-24T19:25:04Z</time>
      </trkpt>
      <trkpt lat="38.811757" lon="-2.884845">
        <ele>947.755</ele>
        <time>2019-06-24T19:25:24Z</time>
      </trkpt>
      <trkpt lat="38.811983" lon="-2.885563">
        <ele>946.710</ele>
        <time>2019-06-24T19:25:44Z</time>
      </trkpt>
      <trkpt lat="38.812911" lon="-2.886765">
        <ele>945.408</ele>
        <time>2019-06-24T19:26:04Z</time>
      </trkpt>
      <trkpt lat="38.813287" lon="-2.887377">
        <ele>946.666</ele>
        <time>2019-06-24T19:26:24Z</time>
      </trkpt>
      <trkpt lat="38.813488" lon="-2.887827">
        <ele>944.651</ele>
        <time>2019-06-24T19:26:44Z</time>
      </trkpt>
      <trkpt lat="38.815402" lon="-2.889211">
        <ele>938.733</ele>
        <time>2019-06-24T19:27:04Z</time>
      </trkpt>
      <trkpt lat="38.815845" lon="-2.889436">
        <ele>938.073</ele>
        <time>2019-06-24T19:27:24Z</time>
      </trkpt>
      <trkpt lat="38.816363" lon="-2.889394">
        <ele>937.313</ele>
        <time>2019-06-24T19:27:44Z</time>
      </trkpt>
      <trkpt lat="38.816664" lon="-2.889694">
        <ele>936.929</ele>
        <time>2019-06-24T19:28:04Z</time>
      </trkpt>
      <trkpt lat="38.817107" lon="-2.889898">
        <ele>934.818</ele>
        <time>2019-06-24T19:28:24Z</time>
      </trkpt>
      <trkpt lat="38.817358" lon="-2.890466">
        <ele>934.742</ele>
        <time>2019-06-24T19:28:44Z</time>
      </trkpt>
      <trkpt lat="38.817567" lon="-2.890788">
        <ele>933.373</ele>
        <time>2019-06-24T19:29:04Z</time>
      </trkpt>
      <trkpt lat="38.817584" lon="-2.890981">
        <ele>933.585</ele>
        <time>2019-06-24T19:29:24Z</time>
      </trkpt>
      <trkpt lat="38.817743" lon="-2.891153">
        <ele>934.813</ele>
        <time>2019-06-24T19:29:44Z</time>
      </trkpt>
      <trkpt lat="38.817726" lon="-2.891464">
        <ele>934.208</ele>
        <time>2019-06-24T19:30:04Z</time>
      </trkpt>
      <trkpt lat="38.817876" lon="-2.891614">
        <ele>933.420</ele>
        <time>2019-06-24T19:30:24Z</time>
      </trkpt>
      <trkpt lat="38.818060" lon="-2.891818">
        <ele>931.935</ele>
        <time>2019-06-24T19:30:44Z</time>
      </trkpt>
      <trkpt lat="38.818094" lon="-2.892054">
        <ele>930.617</ele>
        <time>2019-06-24T19:31:04Z</time>
      </trkpt>
      <trkpt lat="38.818328" lon="-2.892355">
        <ele>929.537</ele>
        <time>2019-06-24T19:31:24Z</time>
      </trkpt>
      <trkpt lat="38.818662" lon="-2.893535">
        <ele>930.977</ele>
        <time>2019-06-24T19:31:44Z</time>
      </trkpt>
      <trkpt lat="38.819089" lon="-2.893889">
        <ele>930.063</ele>
        <time>2019-06-24T19:32:04Z</time>
      </trkpt>
      <trkpt lat="38.820159" lon="-2.894039">
        <ele>931.652</ele>
        <time>2019-06-24T19:32:24Z</time>
      </trkpt>
      <trkpt lat="38.821103" lon="-2.894651">
        <ele>937.226</ele>
        <time>2019-06-24T19:32:44Z</time>
      </trkpt>
      <trkpt lat="38.821972" lon="-2.894930">
        <ele>938.587</ele>
        <time>2019-06-24T19:33:04Z</time>
      </trkpt>
      <trkpt lat="38.822708" lon="-2.894983">
        <ele>936.442</ele>
        <time>2019-06-24T19:33:24Z</time>
      </trkpt>
      <trkpt lat="38.823226" lon="-2.895091">
        <ele>935.926</ele>
        <time>2019-06-24T19:33:44Z</time>
      </trkpt>
      <trkpt lat="38.823594" lon="-2.895080">
        <ele>935.508</ele>
        <time>2019-06-24T19:34:04Z</time>
      </trkpt>
      <trkpt lat="38.823995" lon="-2.895230">
        <ele>933.791</ele>
        <time>2019-06-24T19:34:24Z</time>
      </trkpt>
      <trkpt lat="38.825500" lon="-2.894747">
        <ele>930.936</ele>
        <time>2019-06-24T19:34:44Z</time>
      </trkpt>
      <trkpt lat="38.827038" lon="-2.894822">
        <ele>929.868</ele>
        <time>2019-06-24T19:35:04Z</time>
      </trkpt>
      <trkpt lat="38.827790" lon="-2.895080">
        <ele>928.068</ele>
        <time>2019-06-24T19:35:24Z</time>
      </trkpt>
      <trkpt lat="38.828392" lon="-2.894951">
        <ele>927.458</ele>
        <time>2019-06-24T19:35:44Z</time>
      </trkpt>
      <trkpt lat="38.829136" lon="-2.894833">
        <ele>925.994</ele>
        <time>2019-06-24T19:36:04Z</time>
      </trkpt>
      <trkpt lat="38.829495" lon="-2.894629">
        <ele>920.863</ele>
        <time>2019-06-24T19:36:24Z</time>
      </trkpt>
      <trkpt lat="38.829913" lon="-2.894715">
        <ele>917.487</ele>
        <time>2019-06-24T19:36:44Z</time>
      </trkpt>
      <trkpt lat="38.830197" lon="-2.894608">
        <ele>918.249</ele>
        <time>2019-06-24T19:37:04Z</time>
      </trkpt>
      <trkpt lat="38.831108" lon="-2.893696">
        <ele>912.602</ele>
        <time>2019-06-24T19:37:24Z</time>
      </trkpt>
      <trkpt lat="38.831476" lon="-2.892333">
        <ele>909.622</ele>
        <time>2019-06-24T19:37:44Z</time>
      </trkpt>
      <trkpt lat="38.832178" lon="-2.890906">
        <ele>902.808</ele>
        <time>2019-06-24T19:38:04Z</time>
      </trkpt>
      <trkpt lat="38.832437" lon="-2.890552">
        <ele>901.217</ele>
        <time>2019-06-24T19:38:24Z</time>
      </trkpt>
      <trkpt lat="38.832621" lon="-2.890037">
        <ele>900.472</ele>
        <time>2019-06-24T19:38:44Z</time>
      </trkpt>
      <trkpt lat="38.832587" lon="-2.889597">
        <ele>898.384</ele>
        <time>2019-06-24T19:39:04Z</time>
      </trkpt>
      <trkpt lat="38.832855" lon="-2.889093">
        <ele>893.484</ele>
        <time>2019-06-24T19:39:24Z</time>
      </trkpt>
      <trkpt lat="38.833122" lon="-2.888814">
        <ele>892.544</ele>
        <time>2019-06-24T19:39:44Z</time>
      </trkpt>
      <trkpt lat="38.833691" lon="-2.888825">
        <ele>894.070</ele>
        <time>2019-06-24T19:40:04Z</time>
      </trkpt>
      <trkpt lat="38.834468" lon="-2.889018">
        <ele>888.579</ele>
        <time>2019-06-24T19:40:24Z</time>
      </trkpt>
      <trkpt lat="38.834936" lon="-2.889329">
        <ele>888.053</ele>
        <time>2019-06-24T19:40:44Z</time>
      </trkpt>
      <trkpt lat="38.835161" lon="-2.889823">
        <ele>887.696</ele>
        <time>2019-06-24T19:41:04Z</time>
      </trkpt>
      <trkpt lat="38.835370" lon="-2.890252">
        <ele>884.831</ele>
        <time>2019-06-24T19:41:24Z</time>
      </trkpt>
      <trkpt lat="38.835955" lon="-2.890692">
        <ele>882.324</ele>
        <time>2019-06-24T19:41:44Z</time>
      </trkpt>
      <trkpt lat="38.836574" lon="-2.890552">
        <ele>882.008</ele>
        <time>2019-06-24T19:42:04Z</time>
      </trkpt>
      <trkpt lat="38.836766" lon="-2.890230">
        <ele>884.212</ele>
        <time>2019-06-24T19:42:24Z</time>
      </trkpt>
      <trkpt lat="38.836716" lon="-2.889876">
        <ele>884.767</ele>
        <time>2019-06-24T19:42:44Z</time>
      </trkpt>
      <trkpt lat="38.836724" lon="-2.889490">
        <ele>885.959</ele>
        <time>2019-06-24T19:43:04Z</time>
      </trkpt>
      <trkpt lat="38.836891" lon="-2.889125">
        <ele>886.979</ele>
        <time>2019-06-24T19:43:24Z</time>
      </trkpt>
      <trkpt lat="38.837092" lon="-2.888793">
        <ele>889.149</ele>
        <time>2019-06-24T19:43:44Z</time>
      </trkpt>
      <trkpt lat="38.836992" lon="-2.888428">
        <ele>890.185</ele>
        <time>2019-06-24T19:44:04Z</time>
      </trkpt>
      <trkpt lat="38.836783" lon="-2.888203">
        <ele>891.364</ele>
        <time>2019-06-24T19:44:24Z</time>
      </trkpt>
      <trkpt lat="38.836607" lon="-2.887934">
        <ele>893.118</ele>
        <time>2019-06-24T19:44:44Z</time>
      </trkpt>
      <trkpt lat="38.836582" lon="-2.887645">
        <ele>894.567</ele>
        <time>2019-06-24T19:45:04Z</time>
      </trkpt>
      <trkpt lat="38.836850" lon="-2.887194">
        <ele>894.581</ele>
        <time>2019-06-24T19:45:24Z</time>
      </trkpt>
      <trkpt lat="38.836866" lon="-2.886851">
        <ele>896.319</ele>
        <time>2019-06-24T19:45:44Z</time>
      </trkpt>
      <trkpt lat="38.836975" lon="-2.886508">
        <ele>898.308</ele>
        <time>2019-06-24T19:46:04Z</time>
      </trkpt>
      <trkpt lat="38.837409" lon="-2.885799">
        <ele>898.559</ele>
        <time>2019-06-24T19:46:24Z</time>
      </trkpt>
      <trkpt lat="38.837602" lon="-2.884995">
        <ele>901.784</ele>
        <time>2019-06-24T19:46:44Z</time>
      </trkpt>
      <trkpt lat="38.837635" lon="-2.884598">
        <ele>903.256</ele>
        <time>2019-06-24T19:47:04Z</time>
      </trkpt>
      <trkpt lat="38.837694" lon="-2.884276">
        <ele>904.366</ele>
        <time>2019-06-24T19:47:24Z</time>
      </trkpt>
      <trkpt lat="38.837685" lon="-2.883772">
        <ele>904.936</ele>
        <time>2019-06-24T19:47:44Z</time>
      </trkpt>
      <trkpt lat="38.837669" lon="-2.883332">
        <ele>906.422</ele>
        <time>2019-06-24T19:48:04Z</time>
      </trkpt>
      <trkpt lat="38.837560" lon="-2.883139">
        <ele>906.961</ele>
        <time>2019-06-24T19:48:24Z</time>
      </trkpt>
      <trkpt lat="38.837384" lon="-2.882913">
        <ele>907.635</ele>
        <time>2019-06-24T19:48:44Z</time>
      </trkpt>
      <trkpt lat="38.836883" lon="-2.881755">
        <ele>909.516</ele>
        <time>2019-06-24T19:49:04Z</time>
      </trkpt>
      <trkpt lat="38.836808" lon="-2.881454">
        <ele>910.676</ele>
        <time>2019-06-24T19:49:24Z</time>
      </trkpt>
      <trkpt lat="38.836916" lon="-2.881165">
        <ele>911.113</ele>
        <time>2019-06-24T19:49:44Z</time>
      </trkpt>
      <trkpt lat="38.837326" lon="-2.879974">
        <ele>912.408</ele>
        <time>2019-06-24T19:50:04Z</time>
      </trkpt>
      <trkpt lat="38.837451" lon="-2.879480">
        <ele>913.264</ele>
        <time>2019-06-24T19:50:24Z</time>
      </trkpt>
      <trkpt lat="38.837744" lon="-2.878997">
        <ele>915.879</ele>
        <time>2019-06-24T19:50:44Z</time>
      </trkpt>
      <trkpt lat="38.838128" lon="-2.878010">
        <ele>915.421</ele>
        <time>2019-06-24T19:51:04Z</time>
      </trkpt>
      <trkpt lat="38.838513" lon="-2.877796">
        <ele>917.391</ele>
        <time>2019-06-24T19:51:24Z</time>
      </trkpt>
      <trkpt lat="38.838738" lon="-2.877399">
        <ele>920.351</ele>
        <time>2019-06-24T19:51:44Z</time>
      </trkpt>
      <trkpt lat="38.839273" lon="-2.876916">
        <ele>925.547</ele>
        <time>2019-06-24T19:52:04Z</time>
      </trkpt>
      <trkpt lat="38.840000" lon="-2.876701">
        <ele>928.946</ele>
        <time>2019-06-24T19:52:24Z</time>
      </trkpt>
      <trkpt lat="38.840543" lon="-2.876337">
        <ele>931.290</ele>
        <time>2019-06-24T19:52:44Z</time>
      </trkpt>
      <trkpt lat="38.840685" lon="-2.876090">
        <ele>932.057</ele>
        <time>2019-06-24T19:53:04Z</time>
      </trkpt>
      <trkpt lat="38.840836" lon="-2.875725">
        <ele>932.000</ele>
        <time>2019-06-24T19:53:24Z</time>
      </trkpt>
      <trkpt lat="38.840969" lon="-2.875403">
        <ele>932.520</ele>
        <time>2019-06-24T19:53:44Z</time>
      </trkpt>
      <trkpt lat="38.841412" lon="-2.875371">
        <ele>934.108</ele>
        <time>2019-06-24T19:54:04Z</time>
      </trkpt>
      <trkpt lat="38.841546" lon="-2.876004">
        <ele>933.258</ele>
        <time>2019-06-24T19:54:24Z</time>
      </trkpt>
      <trkpt lat="38.841964" lon="-2.876755">
        <ele>934.433</ele>
        <time>2019-06-24T19:54:44Z</time>
      </trkpt>
      <trkpt lat="38.842081" lon="-2.877613">
        <ele>936.085</ele>
        <time>2019-06-24T19:55:04Z</time>
      </trkpt>
      <trkpt lat="38.842006" lon="-2.878450">
        <ele>935.495</ele>
        <time>2019-06-24T19:55:24Z</time>
      </trkpt>
      <trkpt lat="38.842139" lon="-2.879062">
        <ele>933.135</ele>
        <time>2019-06-24T19:55:44Z</time>
      </trkpt>
      <trkpt lat="38.842198" lon="-2.879781">
        <ele>933.231</ele>
        <time>2019-06-24T19:56:04Z</time>
      </trkpt>
      <trkpt lat="38.842256" lon="-2.880167">
        <ele>934.030</ele>
        <time>2019-06-24T19:56:24Z</time>
      </trkpt>
      <trkpt lat="38.842900" lon="-2.881057">
        <ele>933.014</ele>
        <time>2019-06-24T19:56:44Z</time>
      </trkpt>
      <trkpt lat="38.843276" lon="-2.881529">
        <ele>932.851</ele>
        <time>2019-06-24T19:57:04Z</time>
      </trkpt>
      <trkpt lat="38.843610" lon="-2.881637">
        <ele>932.001</ele>
        <time>2019-06-24T19:57:24Z</time>
      </trkpt>
      <trkpt lat="38.843903" lon="-2.882216">
        <ele>931.111</ele>
        <time>2019-06-24T19:57:44Z</time>
      </trkpt>
      <trkpt lat="38.844170" lon="-2.882613">
        <ele>930.608</ele>
        <time>2019-06-24T19:58:04Z</time>
      </trkpt>
      <trkpt lat="38.844721" lon="-2.882742">
        <ele>932.088</ele>
        <time>2019-06-24T19:58:24Z</time>
      </trkpt>
      <trkpt lat="38.845340" lon="-2.883085">
        <ele>932.083</ele>
        <time>2019-06-24T19:58:44Z</time>
      </trkpt>
      <trkpt lat="38.845707" lon="-2.883042">
        <ele>932.535</ele>
        <time>2019-06-24T19:59:04Z</time>
      </trkpt>
      <trkpt lat="38.846267" lon="-2.882366">
        <ele>933.275</ele>
        <time>2019-06-24T19:59:24Z</time>
      </trkpt>
      <trkpt lat="38.846618" lon="-2.882162">
        <ele>932.115</ele>
        <time>2019-06-24T19:59:44Z</time>
      </trkpt>
      <trkpt lat="38.846752" lon="-2.881905">
        <ele>932.581</ele>
        <time>2019-06-24T20:00:04Z</time>
      </trkpt>
      <trkpt lat="38.847170" lon="-2.881647">
        <ele>932.750</ele>
        <time>2019-06-24T20:00:24Z</time>
      </trkpt>
      <trkpt lat="38.847621" lon="-2.881057">
        <ele>933.024</ele>
        <time>2019-06-24T20:00:44Z</time>
      </trkpt>
      <trkpt lat="38.848782" lon="-2.880242">
        <ele>929.066</ele>
        <time>2019-06-24T20:01:04Z</time>
      </trkpt>
      <trkpt lat="38.848975" lon="-2.879952">
        <ele>928.929</ele>
        <time>2019-06-24T20:01:24Z</time>
      </trkpt>
      <trkpt lat="38.849618" lon="-2.879416">
        <ele>928.621</ele>
        <time>2019-06-24T20:01:44Z</time>
      </trkpt>
      <trkpt lat="38.850554" lon="-2.878568">
        <ele>927.908</ele>
        <time>2019-06-24T20:02:04Z</time>
      </trkpt>
      <trkpt lat="38.851406" lon="-2.877324">
        <ele>925.429</ele>
        <time>2019-06-24T20:02:24Z</time>
      </trkpt>
      <trkpt lat="38.851673" lon="-2.876959">
        <ele>925.094</ele>
        <time>2019-06-24T20:02:44Z</time>
      </trkpt>
      <trkpt lat="38.851707" lon="-2.876573">
        <ele>923.576</ele>
        <time>2019-06-24T20:03:04Z</time>
      </trkpt>
      <trkpt lat="38.851782" lon="-2.876347">
        <ele>922.626</ele>
        <time>2019-06-24T20:03:24Z</time>
      </trkpt>
      <trkpt lat="38.852066" lon="-2.876143">
        <ele>922.956</ele>
        <time>2019-06-24T20:03:44Z</time>
      </trkpt>
      <trkpt lat="38.852200" lon="-2.875918">
        <ele>923.052</ele>
        <time>2019-06-24T20:04:04Z</time>
      </trkpt>
      <trkpt lat="38.852342" lon="-2.875510">
        <ele>922.041</ele>
        <time>2019-06-24T20:04:24Z</time>
      </trkpt>
      <trkpt lat="38.852601" lon="-2.875296">
        <ele>921.645</ele>
        <time>2019-06-24T20:04:44Z</time>
      </trkpt>
      <trkpt lat="38.853161" lon="-2.875178">
        <ele>919.539</ele>
        <time>2019-06-24T20:05:04Z</time>
      </trkpt>
      <trkpt lat="38.853587" lon="-2.875028">
        <ele>918.901</ele>
        <time>2019-06-24T20:05:24Z</time>
      </trkpt>
      <trkpt lat="38.853737" lon="-2.874824">
        <ele>919.221</ele>
        <time>2019-06-24T20:05:44Z</time>
      </trkpt>
      <trkpt lat="38.853821" lon="-2.874523">
        <ele>921.208</ele>
        <time>2019-06-24T20:06:04Z</time>
      </trkpt>
      <trkpt lat="38.854163" lon="-2.874459">
        <ele>922.946</ele>
        <time>2019-06-24T20:06:24Z</time>
      </trkpt>
      <trkpt lat="38.854297" lon="-2.874255">
        <ele>923.721</ele>
        <time>2019-06-24T20:06:44Z</time>
      </trkpt>
      <trkpt lat="38.854372" lon="-2.873966">
        <ele>925.433</ele>
        <time>2019-06-24T20:07:04Z</time>
      </trkpt>
      <trkpt lat="38.854899" lon="-2.873622">
        <ele>926.363</ele>
        <time>2019-06-24T20:07:24Z</time>
      </trkpt>
      <trkpt lat="38.855174" lon="-2.873139">
        <ele>923.853</ele>
        <time>2019-06-24T20:07:44Z</time>
      </trkpt>
      <trkpt lat="38.855533" lon="-2.872592">
        <ele>920.489</ele>
        <time>2019-06-24T20:08:04Z</time>
      </trkpt>
      <trkpt lat="38.855625" lon="-2.872152">
        <ele>919.548</ele>
        <time>2019-06-24T20:08:24Z</time>
      </trkpt>
      <trkpt lat="38.856419" lon="-2.871948">
        <ele>922.152</ele>
        <time>2019-06-24T20:08:44Z</time>
      </trkpt>
      <trkpt lat="38.857589" lon="-2.871305">
        <ele>921.168</ele>
        <time>2019-06-24T20:09:04Z</time>
      </trkpt>
      <trkpt lat="38.857906" lon="-2.870908">
        <ele>922.542</ele>
        <time>2019-06-24T20:09:24Z</time>
      </trkpt>
      <trkpt lat="38.858767" lon="-2.870243">
        <ele>924.526</ele>
        <time>2019-06-24T20:09:44Z</time>
      </trkpt>
      <trkpt lat="38.859276" lon="-2.870017">
        <ele>926.408</ele>
        <time>2019-06-24T20:10:04Z</time>
      </trkpt>
      <trkpt lat="38.860103" lon="-2.869309">
        <ele>929.279</ele>
        <time>2019-06-24T20:10:24Z</time>
      </trkpt>
      <trkpt lat="38.860705" lon="-2.868955">
        <ele>929.074</ele>
        <time>2019-06-24T20:10:44Z</time>
      </trkpt>
      <trkpt lat="38.861131" lon="-2.868826">
        <ele>930.946</ele>
        <time>2019-06-24T20:11:04Z</time>
      </trkpt>
      <trkpt lat="38.861774" lon="-2.868268">
        <ele>930.496</ele>
        <time>2019-06-24T20:11:24Z</time>
      </trkpt>
      <trkpt lat="38.862476" lon="-2.869298">
        <ele>928.556</ele>
        <time>2019-06-24T20:11:44Z</time>
      </trkpt>
      <trkpt lat="38.862927" lon="-2.870060">
        <ele>931.072</ele>
        <time>2019-06-24T20:12:04Z</time>
      </trkpt>
      <trkpt lat="38.863194" lon="-2.870682">
        <ele>929.891</ele>
        <time>2019-06-24T20:12:24Z</time>
      </trkpt>
      <trkpt lat="38.863353" lon="-2.871187">
        <ele>928.195</ele>
        <time>2019-06-24T20:12:44Z</time>
      </trkpt>
      <trkpt lat="38.863479" lon="-2.871627">
        <ele>928.971</ele>
        <time>2019-06-24T20:13:04Z</time>
      </trkpt>
      <trkpt lat="38.863721" lon="-2.871970">
        <ele>929.641</ele>
        <time>2019-06-24T20:13:24Z</time>
      </trkpt>
      <trkpt lat="38.864005" lon="-2.872217">
        <ele>929.215</ele>
        <time>2019-06-24T20:13:44Z</time>
      </trkpt>
      <trkpt lat="38.864055" lon="-2.872517">
        <ele>929.408</ele>
        <time>2019-06-24T20:14:04Z</time>
      </trkpt>
      <trkpt lat="38.863988" lon="-2.872828">
        <ele>930.080</ele>
        <time>2019-06-24T20:14:24Z</time>
      </trkpt>
      <trkpt lat="38.864080" lon="-2.873054">
        <ele>930.095</ele>
        <time>2019-06-24T20:14:44Z</time>
      </trkpt>
      <trkpt lat="38.864130" lon="-2.873611">
        <ele>930.167</ele>
        <time>2019-06-24T20:15:04Z</time>
      </trkpt>
      <trkpt lat="38.864072" lon="-2.873869">
        <ele>930.357</ele>
        <time>2019-06-24T20:15:24Z</time>
      </trkpt>
      <trkpt lat="38.864130" lon="-2.874148">
        <ele>928.377</ele>
        <time>2019-06-24T20:15:44Z</time>
      </trkpt>
      <trkpt lat="38.864122" lon="-2.874502">
        <ele>927.333</ele>
        <time>2019-06-24T20:16:04Z</time>
      </trkpt>
      <trkpt lat="38.864164" lon="-2.875328">
        <ele>929.042</ele>
        <time>2019-06-24T20:16:24Z</time>
      </trkpt>
      <trkpt lat="38.864189" lon="-2.875725">
        <ele>929.046</ele>
        <time>2019-06-24T20:16:44Z</time>
      </trkpt>
      <trkpt lat="38.864322" lon="-2.876208">
        <ele>928.399</ele>
        <time>2019-06-24T20:17:04Z</time>
      </trkpt>
      <trkpt lat="38.864439" lon="-2.876648">
        <ele>927.107</ele>
        <time>2019-06-24T20:17:24Z</time>
      </trkpt>
      <trkpt lat="38.864448" lon="-2.876894">
        <ele>926.227</ele>
        <time>2019-06-24T20:17:44Z</time>
      </trkpt>
      <trkpt lat="38.864439" lon="-2.877163">
        <ele>926.008</ele>
        <time>2019-06-24T20:18:04Z</time>
      </trkpt>
      <trkpt lat="38.865066" lon="-2.877431">
        <ele>928.842</ele>
        <time>2019-06-24T20:18:24Z</time>
      </trkpt>
      <trkpt lat="38.865884" lon="-2.876455">
        <ele>926.837</ele>
        <time>2019-06-24T20:18:44Z</time>
      </trkpt>
      <trkpt lat="38.866302" lon="-2.875918">
        <ele>926.139</ele>
        <time>2019-06-24T20:19:04Z</time>
      </trkpt>
      <trkpt lat="38.866703" lon="-2.875189">
        <ele>927.049</ele>
        <time>2019-06-24T20:19:24Z</time>
      </trkpt>
      <trkpt lat="38.866954" lon="-2.874856">
        <ele>926.579</ele>
        <time>2019-06-24T20:19:44Z</time>
      </trkpt>
      <trkpt lat="38.867179" lon="-2.874641">
        <ele>926.025</ele>
        <time>2019-06-24T20:20:04Z</time>
      </trkpt>
      <trkpt lat="38.867647" lon="-2.874126">
        <ele>927.034</ele>
        <time>2019-06-24T20:20:24Z</time>
      </trkpt>
      <trkpt lat="38.868157" lon="-2.874019">
        <ele>927.298</ele>
        <time>2019-06-24T20:20:44Z</time>
      </trkpt>
      <trkpt lat="38.869343" lon="-2.872850">
        <ele>930.458</ele>
        <time>2019-06-24T20:21:04Z</time>
      </trkpt>
      <trkpt lat="38.869552" lon="-2.872431">
        <ele>931.252</ele>
        <time>2019-06-24T20:21:24Z</time>
      </trkpt>
      <trkpt lat="38.870312" lon="-2.871766">
        <ele>928.617</ele>
        <time>2019-06-24T20:21:44Z</time>
      </trkpt>
      <trkpt lat="38.870880" lon="-2.870897">
        <ele>930.008</ele>
        <time>2019-06-24T20:22:04Z</time>
      </trkpt>
      <trkpt lat="38.871348" lon="-2.869653">
        <ele>929.078</ele>
        <time>2019-06-24T20:22:24Z</time>
      </trkpt>
      <trkpt lat="38.871673" lon="-2.869052">
        <ele>927.653</ele>
        <time>2019-06-24T20:22:44Z</time>
      </trkpt>
      <trkpt lat="38.871857" lon="-2.868783">
        <ele>927.085</ele>
        <time>2019-06-24T20:23:04Z</time>
      </trkpt>
      <trkpt lat="38.871957" lon="-2.868365">
        <ele>926.145</ele>
        <time>2019-06-24T20:23:24Z</time>
      </trkpt>
      <trkpt lat="38.871999" lon="-2.868054">
        <ele>926.095</ele>
        <time>2019-06-24T20:23:44Z</time>
      </trkpt>
      <trkpt lat="38.872024" lon="-2.867700">
        <ele>925.051</ele>
        <time>2019-06-24T20:24:04Z</time>
      </trkpt>
      <trkpt lat="38.872275" lon="-2.866788">
        <ele>924.210</ele>
        <time>2019-06-24T20:24:24Z</time>
      </trkpt>
      <trkpt lat="38.872985" lon="-2.865211">
        <ele>926.064</ele>
        <time>2019-06-24T20:24:44Z</time>
      </trkpt>
      <trkpt lat="38.873077" lon="-2.864760">
        <ele>926.118</ele>
        <time>2019-06-24T20:25:04Z</time>
      </trkpt>
      <trkpt lat="38.873419" lon="-2.864149">
        <ele>928.098</ele>
        <time>2019-06-24T20:25:24Z</time>
      </trkpt>
      <trkpt lat="38.873645" lon="-2.863837">
        <ele>928.017</ele>
        <time>2019-06-24T20:25:44Z</time>
      </trkpt>
      <trkpt lat="38.873937" lon="-2.863333">
        <ele>927.808</ele>
        <time>2019-06-24T20:26:04Z</time>
      </trkpt>
      <trkpt lat="38.874622" lon="-2.861692">
        <ele>929.094</ele>
        <time>2019-06-24T20:26:24Z</time>
      </trkpt>
      <trkpt lat="38.874822" lon="-2.860876">
        <ele>928.689</ele>
        <time>2019-06-24T20:26:44Z</time>
      </trkpt>
      <trkpt lat="38.874923" lon="-2.860630">
        <ele>928.811</ele>
        <time>2019-06-24T20:27:04Z</time>
      </trkpt>
      <trkpt lat="38.875374" lon="-2.860061">
        <ele>932.381</ele>
        <time>2019-06-24T20:27:24Z</time>
      </trkpt>
      <trkpt lat="38.875307" lon="-2.859610">
        <ele>930.731</ele>
        <time>2019-06-24T20:27:44Z</time>
      </trkpt>
      <trkpt lat="38.875115" lon="-2.858945">
        <ele>928.457</ele>
        <time>2019-06-24T20:28:04Z</time>
      </trkpt>
      <trkpt lat="38.874747" lon="-2.857701">
        <ele>926.116</ele>
        <time>2019-06-24T20:28:24Z</time>
      </trkpt>
      <trkpt lat="38.874563" lon="-2.856295">
        <ele>923.870</ele>
        <time>2019-06-24T20:28:44Z</time>
      </trkpt>
      <trkpt lat="38.874338" lon="-2.855533">
        <ele>922.572</ele>
        <time>2019-06-24T20:29:04Z</time>
      </trkpt>
      <trkpt lat="38.874071" lon="-2.855179">
        <ele>920.913</ele>
        <time>2019-06-24T20:29:24Z</time>
      </trkpt>
      <trkpt lat="38.873695" lon="-2.854514">
        <ele>923.714</ele>
        <time>2019-06-24T20:29:44Z</time>
      </trkpt>
      <trkpt lat="38.873528" lon="-2.853935">
        <ele>924.908</ele>
        <time>2019-06-24T20:30:04Z</time>
      </trkpt>
      <trkpt lat="38.873327" lon="-2.853237">
        <ele>921.010</ele>
        <time>2019-06-24T20:30:24Z</time>
      </trkpt>
      <trkpt lat="38.873252" lon="-2.852486">
        <ele>920.085</ele>
        <time>2019-06-24T20:30:44Z</time>
      </trkpt>
      <trkpt lat="38.873285" lon="-2.851521">
        <ele>919.477</ele>
        <time>2019-06-24T20:31:04Z</time>
      </trkpt>
      <trkpt lat="38.873452" lon="-2.850662">
        <ele>916.287</ele>
        <time>2019-06-24T20:31:24Z</time>
      </trkpt>
      <trkpt lat="38.874071" lon="-2.848892">
        <ele>913.747</ele>
        <time>2019-06-24T20:31:44Z</time>
      </trkpt>
      <trkpt lat="38.874137" lon="-2.848388">
        <ele>913.953</ele>
        <time>2019-06-24T20:32:04Z</time>
      </trkpt>
      <trkpt lat="38.874355" lon="-2.848088">
        <ele>915.672</ele>
        <time>2019-06-24T20:32:24Z</time>
      </trkpt>
      <trkpt lat="38.874430" lon="-2.847487">
        <ele>915.096</ele>
        <time>2019-06-24T20:32:44Z</time>
      </trkpt>
      <trkpt lat="38.874697" lon="-2.846907">
        <ele>913.161</ele>
        <time>2019-06-24T20:33:04Z</time>
      </trkpt>
      <trkpt lat="38.874939" lon="-2.845867">
        <ele>913.321</ele>
        <time>2019-06-24T20:33:24Z</time>
      </trkpt>
      <trkpt lat="38.875390" lon="-2.845255">
        <ele>913.713</ele>
        <time>2019-06-24T20:33:44Z</time>
      </trkpt>
      <trkpt lat="38.875566" lon="-2.844622">
        <ele>913.308</ele>
        <time>2019-06-24T20:34:04Z</time>
      </trkpt>
      <trkpt lat="38.875875" lon="-2.844129">
        <ele>912.879</ele>
        <time>2019-06-24T20:34:24Z</time>
      </trkpt>
      <trkpt lat="38.876376" lon="-2.843227">
        <ele>911.194</ele>
        <time>2019-06-24T20:34:44Z</time>
      </trkpt>
      <trkpt lat="38.876509" lon="-2.842798">
        <ele>910.126</ele>
        <time>2019-06-24T20:35:04Z</time>
      </trkpt>
      <trkpt lat="38.876952" lon="-2.842380">
        <ele>910.466</ele>
        <time>2019-06-24T20:35:24Z</time>
      </trkpt>
      <trkpt lat="38.877403" lon="-2.841564">
        <ele>909.196</ele>
        <time>2019-06-24T20:35:44Z</time>
      </trkpt>
      <trkpt lat="38.877829" lon="-2.840770">
        <ele>909.232</ele>
        <time>2019-06-24T20:36:04Z</time>
      </trkpt>
      <trkpt lat="38.878472" lon="-2.840223">
        <ele>907.781</ele>
        <time>2019-06-24T20:36:24Z</time>
      </trkpt>
      <trkpt lat="38.878689" lon="-2.840019">
        <ele>906.745</ele>
        <time>2019-06-24T20:36:44Z</time>
      </trkpt>
      <trkpt lat="38.878973" lon="-2.839397">
        <ele>905.763</ele>
        <time>2019-06-24T20:37:04Z</time>
      </trkpt>
      <trkpt lat="38.879065" lon="-2.838764">
        <ele>905.244</ele>
        <time>2019-06-24T20:37:24Z</time>
      </trkpt>
      <trkpt lat="38.879266" lon="-2.838217">
        <ele>904.718</ele>
        <time>2019-06-24T20:37:44Z</time>
      </trkpt>
      <trkpt lat="38.879307" lon="-2.837702">
        <ele>906.508</ele>
        <time>2019-06-24T20:38:04Z</time>
      </trkpt>
      <trkpt lat="38.879441" lon="-2.837294">
        <ele>905.369</ele>
        <time>2019-06-24T20:38:24Z</time>
      </trkpt>
      <trkpt lat="38.879458" lon="-2.837015">
        <ele>903.574</ele>
        <time>2019-06-24T20:38:44Z</time>
      </trkpt>
      <trkpt lat="38.879383" lon="-2.836704">
        <ele>902.286</ele>
        <time>2019-06-24T20:39:04Z</time>
      </trkpt>
      <trkpt lat="38.879792" lon="-2.836876">
        <ele>902.676</ele>
        <time>2019-06-24T20:39:24Z</time>
      </trkpt>
      <trkpt lat="38.880410" lon="-2.836812">
        <ele>903.216</ele>
        <time>2019-06-24T20:39:44Z</time>
      </trkpt>
      <trkpt lat="38.880527" lon="-2.837048">
        <ele>903.052</ele>
        <time>2019-06-24T20:40:04Z</time>
      </trkpt>
      <trkpt lat="38.880527" lon="-2.837648">
        <ele>904.521</ele>
        <time>2019-06-24T20:40:24Z</time>
      </trkpt>
      <trkpt lat="38.880519" lon="-2.838067">
        <ele>906.095</ele>
        <time>2019-06-24T20:40:44Z</time>
      </trkpt>
      <trkpt lat="38.880435" lon="-2.838389">
        <ele>907.288</ele>
        <time>2019-06-24T20:41:04Z</time>
      </trkpt>
      <trkpt lat="38.880326" lon="-2.839419">
        <ele>911.724</ele>
        <time>2019-06-24T20:41:24Z</time>
      </trkpt>
      <trkpt lat="38.880360" lon="-2.839869">
        <ele>914.126</ele>
        <time>2019-06-24T20:41:44Z</time>
      </trkpt>
      <trkpt lat="38.880310" lon="-2.840384">
        <ele>917.108</ele>
        <time>2019-06-24T20:42:04Z</time>
      </trkpt>
      <trkpt lat="38.880276" lon="-2.840706">
        <ele>918.011</ele>
        <time>2019-06-24T20:42:24Z</time>
      </trkpt>
      <trkpt lat="38.880285" lon="-2.841618">
        <ele>920.096</ele>
        <time>2019-06-24T20:42:44Z</time>
      </trkpt>
      <trkpt lat="38.880293" lon="-2.843238">
        <ele>923.628</ele>
        <time>2019-06-24T20:43:04Z</time>
      </trkpt>
      <trkpt lat="38.880343" lon="-2.844011">
        <ele>925.638</ele>
        <time>2019-06-24T20:43:24Z</time>
      </trkpt>
      <trkpt lat="38.880602" lon="-2.844558">
        <ele>924.738</ele>
        <time>2019-06-24T20:43:44Z</time>
      </trkpt>
      <trkpt lat="38.880727" lon="-2.845180">
        <ele>925.694</ele>
        <time>2019-06-24T20:44:04Z</time>
      </trkpt>
      <trkpt lat="38.881345" lon="-2.846553">
        <ele>927.823</ele>
        <time>2019-06-24T20:44:24Z</time>
      </trkpt>
      <trkpt lat="38.881546" lon="-2.847283">
        <ele>928.077</ele>
        <time>2019-06-24T20:44:44Z</time>
      </trkpt>
      <trkpt lat="38.881755" lon="-2.847809">
        <ele>929.197</ele>
        <time>2019-06-24T20:45:04Z</time>
      </trkpt>
      <trkpt lat="38.882657" lon="-2.850351">
        <ele>930.023</ele>
        <time>2019-06-24T20:45:24Z</time>
      </trkpt>
      <trkpt lat="38.883124" lon="-2.851961">
        <ele>928.025</ele>
        <time>2019-06-24T20:45:44Z</time>
      </trkpt>
      <trkpt lat="38.883099" lon="-2.852401">
        <ele>927.308</ele>
        <time>2019-06-24T20:46:04Z</time>
      </trkpt>
      <trkpt lat="38.883224" lon="-2.852572">
        <ele>926.722</ele>
        <time>2019-06-24T20:46:24Z</time>
      </trkpt>
      <trkpt lat="38.883584" lon="-2.853162">
        <ele>925.297</ele>
        <time>2019-06-24T20:46:44Z</time>
      </trkpt>
      <trkpt lat="38.883701" lon="-2.853667">
        <ele>924.869</ele>
        <time>2019-06-24T20:47:04Z</time>
      </trkpt>
      <trkpt lat="38.883759" lon="-2.854021">
        <ele>925.399</ele>
        <time>2019-06-24T20:47:24Z</time>
      </trkpt>
      <trkpt lat="38.884035" lon="-2.854686">
        <ele>925.669</ele>
        <time>2019-06-24T20:47:44Z</time>
      </trkpt>
      <trkpt lat="38.884143" lon="-2.855576">
        <ele>922.855</ele>
        <time>2019-06-24T20:48:04Z</time>
      </trkpt>
      <trkpt lat="38.884302" lon="-2.856016">
        <ele>922.814</ele>
        <time>2019-06-24T20:48:24Z</time>
      </trkpt>
      <trkpt lat="38.884285" lon="-2.856596">
        <ele>921.168</ele>
        <time>2019-06-24T20:48:44Z</time>
      </trkpt>
      <trkpt lat="38.884352" lon="-2.856853">
        <ele>920.796</ele>
        <time>2019-06-24T20:49:04Z</time>
      </trkpt>
      <trkpt lat="38.884636" lon="-2.857894">
        <ele>918.631</ele>
        <time>2019-06-24T20:49:24Z</time>
      </trkpt>
      <trkpt lat="38.884686" lon="-2.858398">
        <ele>917.024</ele>
        <time>2019-06-24T20:49:44Z</time>
      </trkpt>
      <trkpt lat="38.884761" lon="-2.858806">
        <ele>917.008</ele>
        <time>2019-06-24T20:50:04Z</time>
      </trkpt>
      <trkpt lat="38.884703" lon="-2.859203">
        <ele>916.982</ele>
        <time>2019-06-24T20:50:24Z</time>
      </trkpt>
      <trkpt lat="38.884895" lon="-2.860501">
        <ele>916.557</ele>
        <time>2019-06-24T20:50:44Z</time>
      </trkpt>
      <trkpt lat="38.885212" lon="-2.861949">
        <ele>913.539</ele>
        <time>2019-06-24T20:51:04Z</time>
      </trkpt>
      <trkpt lat="38.885195" lon="-2.862142">
        <ele>914.189</ele>
        <time>2019-06-24T20:51:24Z</time>
      </trkpt>
      <trkpt lat="38.885154" lon="-2.862314">
        <ele>914.849</ele>
        <time>2019-06-24T20:51:44Z</time>
      </trkpt>
      <trkpt lat="38.885438" lon="-2.862668">
        <ele>915.365</ele>
        <time>2019-06-24T20:52:04Z</time>
      </trkpt>
      <trkpt lat="38.885513" lon="-2.862915">
        <ele>915.264</ele>
        <time>2019-06-24T20:52:24Z</time>
      </trkpt>
      <trkpt lat="38.885530" lon="-2.863226">
        <ele>915.158</ele>
        <time>2019-06-24T20:52:44Z</time>
      </trkpt>
      <trkpt lat="38.885429" lon="-2.863580">
        <ele>915.537</ele>
        <time>2019-06-24T20:53:04Z</time>
      </trkpt>
      <trkpt lat="38.885346" lon="-2.863827">
        <ele>915.249</ele>
        <time>2019-06-24T20:53:24Z</time>
      </trkpt>
      <trkpt lat="38.885212" lon="-2.864288">
        <ele>913.413</ele>
        <time>2019-06-24T20:53:44Z</time>
      </trkpt>
      <trkpt lat="38.885053" lon="-2.864717">
        <ele>913.008</ele>
        <time>2019-06-24T20:54:04Z</time>
      </trkpt>
      <trkpt lat="38.884970" lon="-2.865200">
        <ele>914.816</ele>
        <time>2019-06-24T20:54:24Z</time>
      </trkpt>
      <trkpt lat="38.884861" lon="-2.865543">
        <ele>915.041</ele>
        <time>2019-06-24T20:54:44Z</time>
      </trkpt>
      <trkpt lat="38.884786" lon="-2.866133">
        <ele>914.263</ele>
        <time>2019-06-24T20:55:04Z</time>
      </trkpt>
      <trkpt lat="38.884828" lon="-2.866670">
        <ele>914.693</ele>
        <time>2019-06-24T20:55:24Z</time>
      </trkpt>
      <trkpt lat="38.884962" lon="-2.867002">
        <ele>914.163</ele>
        <time>2019-06-24T20:55:44Z</time>
      </trkpt>
      <trkpt lat="38.885371" lon="-2.867517">
        <ele>915.359</ele>
        <time>2019-06-24T20:56:04Z</time>
      </trkpt>
      <trkpt lat="38.886181" lon="-2.868311">
        <ele>915.858</ele>
        <time>2019-06-24T20:56:24Z</time>
      </trkpt>
      <trkpt lat="38.886356" lon="-2.868687">
        <ele>914.482</ele>
        <time>2019-06-24T20:56:44Z</time>
      </trkpt>
      <trkpt lat="38.886532" lon="-2.869116">
        <ele>915.922</ele>
        <time>2019-06-24T20:57:04Z</time>
      </trkpt>
      <trkpt lat="38.886540" lon="-2.869771">
        <ele>916.662</ele>
        <time>2019-06-24T20:57:24Z</time>
      </trkpt>
      <trkpt lat="38.886515" lon="-2.870210">
        <ele>916.908</ele>
        <time>2019-06-24T20:57:44Z</time>
      </trkpt>
      <trkpt lat="38.886548" lon="-2.870640">
        <ele>917.708</ele>
        <time>2019-06-24T20:58:04Z</time>
      </trkpt>
      <trkpt lat="38.886607" lon="-2.870800">
        <ele>918.045</ele>
        <time>2019-06-24T20:58:24Z</time>
      </trkpt>
      <trkpt lat="38.886573" lon="-2.871133">
        <ele>918.160</ele>
        <time>2019-06-24T20:58:44Z</time>
      </trkpt>
      <trkpt lat="38.886999" lon="-2.872270">
        <ele>919.282</ele>
        <time>2019-06-24T20:59:04Z</time>
      </trkpt>
      <trkpt lat="38.887258" lon="-2.873418">
        <ele>922.152</ele>
        <time>2019-06-24T20:59:24Z</time>
      </trkpt>
      <trkpt lat="38.887509" lon="-2.874427">
        <ele>922.142</ele>
        <time>2019-06-24T20:59:44Z</time>
      </trkpt>
      <trkpt lat="38.887617" lon="-2.874920">
        <ele>923.388</ele>
        <time>2019-06-24T21:00:04Z</time>
      </trkpt>
      <trkpt lat="38.887651" lon="-2.875382">
        <ele>923.247</ele>
        <time>2019-06-24T21:00:24Z</time>
      </trkpt>
      <trkpt lat="38.887893" lon="-2.875789">
        <ele>922.681</ele>
        <time>2019-06-24T21:00:44Z</time>
      </trkpt>
      <trkpt lat="38.887826" lon="-2.876101">
        <ele>921.283</ele>
        <time>2019-06-24T21:01:04Z</time>
      </trkpt>
      <trkpt lat="38.887801" lon="-2.876465">
        <ele>920.425</ele>
        <time>2019-06-24T21:01:24Z</time>
      </trkpt>
      <trkpt lat="38.887976" lon="-2.877023">
        <ele>923.817</ele>
        <time>2019-06-24T21:01:44Z</time>
      </trkpt>
      <trkpt lat="38.888052" lon="-2.877474">
        <ele>924.008</ele>
        <time>2019-06-24T21:02:04Z</time>
      </trkpt>
      <trkpt lat="38.888068" lon="-2.877849">
        <ele>923.031</ele>
        <time>2019-06-24T21:02:24Z</time>
      </trkpt>
      <trkpt lat="38.888143" lon="-2.878096">
        <ele>923.026</ele>
        <time>2019-06-24T21:02:44Z</time>
      </trkpt>
      <trkpt lat="38.888085" lon="-2.878439">
        <ele>923.168</ele>
        <time>2019-06-24T21:03:04Z</time>
      </trkpt>
      <trkpt lat="38.888143" lon="-2.878836">
        <ele>923.978</ele>
        <time>2019-06-24T21:03:24Z</time>
      </trkpt>
      <trkpt lat="38.888419" lon="-2.880092">
        <ele>923.438</ele>
        <time>2019-06-24T21:03:44Z</time>
      </trkpt>
      <trkpt lat="38.888619" lon="-2.880596">
        <ele>922.834</ele>
        <time>2019-06-24T21:04:04Z</time>
      </trkpt>
      <trkpt lat="38.888628" lon="-2.880757">
        <ele>922.253</ele>
        <time>2019-06-24T21:04:24Z</time>
      </trkpt>
      <trkpt lat="38.888603" lon="-2.880950">
        <ele>922.037</ele>
        <time>2019-06-24T21:04:44Z</time>
      </trkpt>
      <trkpt lat="38.888786" lon="-2.881358">
        <ele>922.882</ele>
        <time>2019-06-24T21:05:04Z</time>
      </trkpt>
      <trkpt lat="38.888970" lon="-2.881562">
        <ele>923.343</ele>
        <time>2019-06-24T21:05:24Z</time>
      </trkpt>
      <trkpt lat="38.889004" lon="-2.881851">
        <ele>922.917</ele>
        <time>2019-06-24T21:05:44Z</time>
      </trkpt>
      <trkpt lat="38.888987" lon="-2.881991">
        <ele>922.608</ele>
        <time>2019-06-24T21:06:04Z</time>
      </trkpt>
      <trkpt lat="38.889296" lon="-2.882935">
        <ele>920.941</ele>
        <time>2019-06-24T21:06:24Z</time>
      </trkpt>
      <trkpt lat="38.889413" lon="-2.883085">
        <ele>920.886</ele>
        <time>2019-06-24T21:06:44Z</time>
      </trkpt>
      <trkpt lat="38.889421" lon="-2.883418">
        <ele>919.618</ele>
        <time>2019-06-24T21:07:04Z</time>
      </trkpt>
      <trkpt lat="38.889546" lon="-2.883868">
        <ele>919.438</ele>
        <time>2019-06-24T21:07:24Z</time>
      </trkpt>
      <trkpt lat="38.889546" lon="-2.883997">
        <ele>919.038</ele>
        <time>2019-06-24T21:07:44Z</time>
      </trkpt>
      <trkpt lat="38.889647" lon="-2.884415">
        <ele>918.754</ele>
        <time>2019-06-24T21:08:04Z</time>
      </trkpt>
      <trkpt lat="38.889622" lon="-2.884737">
        <ele>920.163</ele>
        <time>2019-06-24T21:08:24Z</time>
      </trkpt>
      <trkpt lat="38.889613" lon="-2.885123">
        <ele>922.637</ele>
        <time>2019-06-24T21:08:44Z</time>
      </trkpt>
      <trkpt lat="38.889830" lon="-2.885703">
        <ele>921.742</ele>
        <time>2019-06-24T21:09:04Z</time>
      </trkpt>
      <trkpt lat="38.889922" lon="-2.886347">
        <ele>920.222</ele>
        <time>2019-06-24T21:09:24Z</time>
      </trkpt>
      <trkpt lat="38.889922" lon="-2.886593">
        <ele>919.314</ele>
        <time>2019-06-24T21:09:44Z</time>
      </trkpt>
      <trkpt lat="38.889922" lon="-2.886883">
        <ele>918.208</ele>
        <time>2019-06-24T21:10:04Z</time>
      </trkpt>
      <trkpt lat="38.891267" lon="-2.888911">
        <ele>920.197</ele>
        <time>2019-06-24T21:10:24Z</time>
      </trkpt>
      <trkpt lat="38.892285" lon="-2.890595">
        <ele>917.282</ele>
        <time>2019-06-24T21:10:44Z</time>
      </trkpt>
      <trkpt lat="38.892444" lon="-2.891260">
        <ele>916.214</ele>
        <time>2019-06-24T21:11:04Z</time>
      </trkpt>
      <trkpt lat="38.892569" lon="-2.891765">
        <ele>915.214</ele>
        <time>2019-06-24T21:11:24Z</time>
      </trkpt>
      <trkpt lat="38.892636" lon="-2.891990">
        <ele>916.094</ele>
        <time>2019-06-24T21:11:44Z</time>
      </trkpt>
      <trkpt lat="38.892628" lon="-2.892290">
        <ele>915.860</ele>
        <time>2019-06-24T21:12:04Z</time>
      </trkpt>
      <trkpt lat="38.892912" lon="-2.893234">
        <ele>915.519</ele>
        <time>2019-06-24T21:12:24Z</time>
      </trkpt>
      <trkpt lat="38.893004" lon="-2.894071">
        <ele>916.013</ele>
        <time>2019-06-24T21:12:44Z</time>
      </trkpt>
      <trkpt lat="38.893095" lon="-2.894973">
        <ele>915.089</ele>
        <time>2019-06-24T21:13:04Z</time>
      </trkpt>
      <trkpt lat="38.893070" lon="-2.896453">
        <ele>914.006</ele>
        <time>2019-06-24T21:13:24Z</time>
      </trkpt>
      <trkpt lat="38.893079" lon="-2.897934">
        <ele>912.726</ele>
        <time>2019-06-24T21:13:44Z</time>
      </trkpt>
      <trkpt lat="38.893079" lon="-2.899210">
        <ele>912.408</ele>
        <time>2019-06-24T21:14:04Z</time>
      </trkpt>
      <trkpt lat="38.893029" lon="-2.899704">
        <ele>914.971</ele>
        <time>2019-06-24T21:14:24Z</time>
      </trkpt>
      <trkpt lat="38.892870" lon="-2.900605">
        <ele>913.046</ele>
        <time>2019-06-24T21:14:44Z</time>
      </trkpt>
      <trkpt lat="38.892519" lon="-2.901303">
        <ele>914.128</ele>
        <time>2019-06-24T21:15:04Z</time>
      </trkpt>
      <trkpt lat="38.892285" lon="-2.902558">
        <ele>913.678</ele>
        <time>2019-06-24T21:15:24Z</time>
      </trkpt>
      <trkpt lat="38.892185" lon="-2.903341">
        <ele>913.028</ele>
        <time>2019-06-24T21:15:44Z</time>
      </trkpt>
      <trkpt lat="38.892285" lon="-2.903706">
        <ele>914.084</ele>
        <time>2019-06-24T21:16:04Z</time>
      </trkpt>
      <trkpt lat="38.892310" lon="-2.904017">
        <ele>913.983</ele>
        <time>2019-06-24T21:16:24Z</time>
      </trkpt>
      <trkpt lat="38.892219" lon="-2.904425">
        <ele>912.157</ele>
        <time>2019-06-24T21:16:44Z</time>
      </trkpt>
      <trkpt lat="38.892093" lon="-2.905369">
        <ele>914.186</ele>
        <time>2019-06-24T21:17:04Z</time>
      </trkpt>
      <trkpt lat="38.891834" lon="-2.906195">
        <ele>914.760</ele>
        <time>2019-06-24T21:17:24Z</time>
      </trkpt>
      <trkpt lat="38.891659" lon="-2.906935">
        <ele>916.926</ele>
        <time>2019-06-24T21:17:44Z</time>
      </trkpt>
      <trkpt lat="38.891442" lon="-2.907815">
        <ele>914.208</ele>
        <time>2019-06-24T21:18:04Z</time>
      </trkpt>
      <trkpt lat="38.891317" lon="-2.908008">
        <ele>913.731</ele>
        <time>2019-06-24T21:18:24Z</time>
      </trkpt>
      <trkpt lat="38.891333" lon="-2.908480">
        <ele>915.316</ele>
        <time>2019-06-24T21:18:44Z</time>
      </trkpt>
      <trkpt lat="38.891108" lon="-2.909328">
        <ele>917.668</ele>
        <time>2019-06-24T21:19:04Z</time>
      </trkpt>
      <trkpt lat="38.891108" lon="-2.909682">
        <ele>918.858</ele>
        <time>2019-06-24T21:19:24Z</time>
      </trkpt>
      <trkpt lat="38.891050" lon="-2.910111">
        <ele>918.588</ele>
        <time>2019-06-24T21:19:44Z</time>
      </trkpt>
      <trkpt lat="38.890916" lon="-2.910551">
        <ele>918.094</ele>
        <time>2019-06-24T21:20:04Z</time>
      </trkpt>
      <trkpt lat="38.890891" lon="-2.910841">
        <ele>918.033</ele>
        <time>2019-06-24T21:20:24Z</time>
      </trkpt>
      <trkpt lat="38.891008" lon="-2.911173">
        <ele>917.957</ele>
        <time>2019-06-24T21:20:44Z</time>
      </trkpt>
      <trkpt lat="38.890908" lon="-2.911452">
        <ele>917.254</ele>
        <time>2019-06-24T21:21:04Z</time>
      </trkpt>
      <trkpt lat="38.890899" lon="-2.912246">
        <ele>917.456</ele>
        <time>2019-06-24T21:21:24Z</time>
      </trkpt>
      <trkpt lat="38.890841" lon="-2.912536">
        <ele>919.011</ele>
        <time>2019-06-24T21:21:44Z</time>
      </trkpt>
      <trkpt lat="38.890883" lon="-2.913061">
        <ele>919.108</ele>
        <time>2019-06-24T21:22:04Z</time>
      </trkpt>
      <trkpt lat="38.890774" lon="-2.913651">
        <ele>916.018</ele>
        <time>2019-06-24T21:22:24Z</time>
      </trkpt>
      <trkpt lat="38.890615" lon="-2.914006">
        <ele>916.043</ele>
        <time>2019-06-24T21:22:44Z</time>
      </trkpt>
      <trkpt lat="38.890440" lon="-2.914242">
        <ele>917.035</ele>
        <time>2019-06-24T21:23:04Z</time>
      </trkpt>
      <trkpt lat="38.890206" lon="-2.914917">
        <ele>916.525</ele>
        <time>2019-06-24T21:23:24Z</time>
      </trkpt>
      <trkpt lat="38.889555" lon="-2.916183">
        <ele>916.365</ele>
        <time>2019-06-24T21:23:44Z</time>
      </trkpt>
      <trkpt lat="38.889338" lon="-2.916881">
        <ele>917.011</ele>
        <time>2019-06-24T21:24:04Z</time>
      </trkpt>
      <trkpt lat="38.888812" lon="-2.917922">
        <ele>914.360</ele>
        <time>2019-06-24T21:24:24Z</time>
      </trkpt>
      <trkpt lat="38.888143" lon="-2.918962">
        <ele>914.334</ele>
        <time>2019-06-24T21:24:44Z</time>
      </trkpt>
      <trkpt lat="38.888194" lon="-2.919381">
        <ele>914.245</ele>
        <time>2019-06-24T21:25:04Z</time>
      </trkpt>
      <trkpt lat="38.887968" lon="-2.919863">
        <ele>913.547</ele>
        <time>2019-06-24T21:25:24Z</time>
      </trkpt>
      <trkpt lat="38.887859" lon="-2.920067">
        <ele>913.511</ele>
        <time>2019-06-24T21:25:44Z</time>
      </trkpt>
      <trkpt lat="38.887818" lon="-2.920368">
        <ele>913.008</ele>
        <time>2019-06-24T21:26:04Z</time>
      </trkpt>
      <trkpt lat="38.887308" lon="-2.921333">
        <ele>912.947</ele>
        <time>2019-06-24T21:26:24Z</time>
      </trkpt>
      <trkpt lat="38.887175" lon="-2.921677">
        <ele>914.062</ele>
        <time>2019-06-24T21:26:44Z</time>
      </trkpt>
      <trkpt lat="38.886991" lon="-2.922181">
        <ele>914.034</ele>
        <time>2019-06-24T21:27:04Z</time>
      </trkpt>
      <trkpt lat="38.886707" lon="-2.922728">
        <ele>915.834</ele>
        <time>2019-06-24T21:27:24Z</time>
      </trkpt>
      <trkpt lat="38.886406" lon="-2.923329">
        <ele>915.044</ele>
        <time>2019-06-24T21:27:44Z</time>
      </trkpt>
      <trkpt lat="38.886239" lon="-2.923737">
        <ele>914.580</ele>
        <time>2019-06-24T21:28:04Z</time>
      </trkpt>
      <trkpt lat="38.885864" lon="-2.924316">
        <ele>916.579</ele>
        <time>2019-06-24T21:28:24Z</time>
      </trkpt>
      <trkpt lat="38.885780" lon="-2.924670">
        <ele>916.053</ele>
        <time>2019-06-24T21:28:44Z</time>
      </trkpt>
      <trkpt lat="38.885580" lon="-2.925249">
        <ele>913.394</ele>
        <time>2019-06-24T21:29:04Z</time>
      </trkpt>
      <trkpt lat="38.885304" lon="-2.925636">
        <ele>913.357</ele>
        <time>2019-06-24T21:29:24Z</time>
      </trkpt>
      <trkpt lat="38.884811" lon="-2.926065">
        <ele>914.822</ele>
        <time>2019-06-24T21:29:44Z</time>
      </trkpt>
      <trkpt lat="38.884536" lon="-2.926376">
        <ele>915.608</ele>
        <time>2019-06-24T21:30:04Z</time>
      </trkpt>
      <trkpt lat="38.884293" lon="-2.926826">
        <ele>917.732</ele>
        <time>2019-06-24T21:30:24Z</time>
      </trkpt>
      <trkpt lat="38.883951" lon="-2.926998">
        <ele>919.077</ele>
        <time>2019-06-24T21:30:44Z</time>
      </trkpt>
      <trkpt lat="38.883726" lon="-2.927363">
        <ele>918.899</ele>
        <time>2019-06-24T21:31:04Z</time>
      </trkpt>
      <trkpt lat="38.883308" lon="-2.928114">
        <ele>918.039</ele>
        <time>2019-06-24T21:31:24Z</time>
      </trkpt>
      <trkpt lat="38.883216" lon="-2.928371">
        <ele>917.479</ele>
        <time>2019-06-24T21:31:44Z</time>
      </trkpt>
      <trkpt lat="38.883041" lon="-2.929047">
        <ele>916.645</ele>
        <time>2019-06-24T21:32:04Z</time>
      </trkpt>
      <trkpt lat="38.882865" lon="-2.929294">
        <ele>917.334</ele>
        <time>2019-06-24T21:32:24Z</time>
      </trkpt>
      <trkpt lat="38.882406" lon="-2.930142">
        <ele>916.748</ele>
        <time>2019-06-24T21:32:44Z</time>
      </trkpt>
      <trkpt lat="38.882181" lon="-2.930539">
        <ele>916.172</ele>
        <time>2019-06-24T21:33:04Z</time>
      </trkpt>
      <trkpt lat="38.882105" lon="-2.931182">
        <ele>913.313</ele>
        <time>2019-06-24T21:33:24Z</time>
      </trkpt>
      <trkpt lat="38.881913" lon="-2.931461">
        <ele>913.014</ele>
        <time>2019-06-24T21:33:44Z</time>
      </trkpt>
      <trkpt lat="38.881588" lon="-2.932266">
        <ele>913.508</ele>
        <time>2019-06-24T21:34:04Z</time>
      </trkpt>
      <trkpt lat="38.881429" lon="-2.933060">
        <ele>912.910</ele>
        <time>2019-06-24T21:34:24Z</time>
      </trkpt>
      <trkpt lat="38.881228" lon="-2.933446">
        <ele>913.355</ele>
        <time>2019-06-24T21:34:44Z</time>
      </trkpt>
      <trkpt lat="38.880986" lon="-2.933832">
        <ele>912.617</ele>
        <time>2019-06-24T21:35:04Z</time>
      </trkpt>
      <trkpt lat="38.880293" lon="-2.934927">
        <ele>912.337</ele>
        <time>2019-06-24T21:35:24Z</time>
      </trkpt>
      <trkpt lat="38.879984" lon="-2.935227">
        <ele>910.067</ele>
        <time>2019-06-24T21:35:44Z</time>
      </trkpt>
      <trkpt lat="38.879926" lon="-2.935656">
        <ele>910.523</ele>
        <time>2019-06-24T21:36:04Z</time>
      </trkpt>
      <trkpt lat="38.879566" lon="-2.936461">
        <ele>913.582</ele>
        <time>2019-06-24T21:36:24Z</time>
      </trkpt>
      <trkpt lat="38.879399" lon="-2.936879">
        <ele>910.536</ele>
        <time>2019-06-24T21:36:44Z</time>
      </trkpt>
      <trkpt lat="38.879099" lon="-2.937405">
        <ele>909.767</ele>
        <time>2019-06-24T21:37:04Z</time>
      </trkpt>
      <trkpt lat="38.878656" lon="-2.937759">
        <ele>911.881</ele>
        <time>2019-06-24T21:37:24Z</time>
      </trkpt>
      <trkpt lat="38.878138" lon="-2.938306">
        <ele>912.119</ele>
        <time>2019-06-24T21:37:44Z</time>
      </trkpt>
      <trkpt lat="38.877854" lon="-2.938768">
        <ele>911.108</ele>
        <time>2019-06-24T21:38:04Z</time>
      </trkpt>
      <trkpt lat="38.877620" lon="-2.939090">
        <ele>910.489</ele>
        <time>2019-06-24T21:38:24Z</time>
      </trkpt>
      <trkpt lat="38.877236" lon="-2.940506">
        <ele>910.914</ele>
        <time>2019-06-24T21:38:44Z</time>
      </trkpt>
      <trkpt lat="38.876802" lon="-2.941418">
        <ele>908.536</ele>
        <time>2019-06-24T21:39:04Z</time>
      </trkpt>
      <trkpt lat="38.876292" lon="-2.942501">
        <ele>910.056</ele>
        <time>2019-06-24T21:39:24Z</time>
      </trkpt>
      <trkpt lat="38.875574" lon="-2.943510">
        <ele>910.436</ele>
        <time>2019-06-24T21:39:44Z</time>
      </trkpt>
      <trkpt lat="38.875064" lon="-2.944239">
        <ele>910.012</ele>
        <time>2019-06-24T21:40:04Z</time>
      </trkpt>
      <trkpt lat="38.874647" lon="-2.944829">
        <ele>911.781</ele>
        <time>2019-06-24T21:40:24Z</time>
      </trkpt>
      <trkpt lat="38.873820" lon="-2.945849">
        <ele>910.515</ele>
        <time>2019-06-24T21:40:44Z</time>
      </trkpt>
      <trkpt lat="38.873461" lon="-2.946364">
        <ele>910.046</ele>
        <time>2019-06-24T21:41:04Z</time>
      </trkpt>
      <trkpt lat="38.872759" lon="-2.947383">
        <ele>912.488</ele>
        <time>2019-06-24T21:41:24Z</time>
      </trkpt>
      <trkpt lat="38.872567" lon="-2.947598">
        <ele>912.316</ele>
        <time>2019-06-24T21:41:44Z</time>
      </trkpt>
      <trkpt lat="38.872141" lon="-2.948252">
        <ele>914.008</ele>
        <time>2019-06-24T21:42:04Z</time>
      </trkpt>
      <trkpt lat="38.871949" lon="-2.948724">
        <ele>913.477</ele>
        <time>2019-06-24T21:42:24Z</time>
      </trkpt>
      <trkpt lat="38.871640" lon="-2.949303">
        <ele>912.452</ele>
        <time>2019-06-24T21:42:44Z</time>
      </trkpt>
      <trkpt lat="38.871306" lon="-2.949625">
        <ele>910.254</ele>
        <time>2019-06-24T21:43:04Z</time>
      </trkpt>
      <trkpt lat="38.870905" lon="-2.950076">
        <ele>910.054</ele>
        <time>2019-06-24T21:43:24Z</time>
      </trkpt>
      <trkpt lat="38.870612" lon="-2.950408">
        <ele>910.574</ele>
        <time>2019-06-24T21:43:44Z</time>
      </trkpt>
      <trkpt lat="38.870095" lon="-2.950805">
        <ele>910.660</ele>
        <time>2019-06-24T21:44:04Z</time>
      </trkpt>
      <trkpt lat="38.869268" lon="-2.952361">
        <ele>908.539</ele>
        <time>2019-06-24T21:44:24Z</time>
      </trkpt>
      <trkpt lat="38.868842" lon="-2.952822">
        <ele>907.993</ele>
        <time>2019-06-24T21:44:44Z</time>
      </trkpt>
      <trkpt lat="38.868608" lon="-2.953230">
        <ele>908.049</ele>
        <time>2019-06-24T21:45:04Z</time>
      </trkpt>
      <trkpt lat="38.868173" lon="-2.953917">
        <ele>910.002</ele>
        <time>2019-06-24T21:45:24Z</time>
      </trkpt>
      <trkpt lat="38.867881" lon="-2.954271">
        <ele>908.422</ele>
        <time>2019-06-24T21:45:44Z</time>
      </trkpt>
      <trkpt lat="38.867229" lon="-2.954904">
        <ele>909.908</ele>
        <time>2019-06-24T21:46:04Z</time>
      </trkpt>
      <trkpt lat="38.866720" lon="-2.955644">
        <ele>911.497</ele>
        <time>2019-06-24T21:46:24Z</time>
      </trkpt>
      <trkpt lat="38.866177" lon="-2.956127">
        <ele>910.052</ele>
        <time>2019-06-24T21:46:44Z</time>
      </trkpt>
      <trkpt lat="38.865692" lon="-2.956460">
        <ele>909.564</ele>
        <time>2019-06-24T21:47:04Z</time>
      </trkpt>
      <trkpt lat="38.864105" lon="-2.957919">
        <ele>905.554</ele>
        <time>2019-06-24T21:47:24Z</time>
      </trkpt>
      <trkpt lat="38.863111" lon="-2.958745">
        <ele>906.654</ele>
        <time>2019-06-24T21:47:44Z</time>
      </trkpt>
      <trkpt lat="38.862184" lon="-2.959603">
        <ele>908.190</ele>
        <time>2019-06-24T21:48:04Z</time>
      </trkpt>
      <trkpt lat="38.861223" lon="-2.960719">
        <ele>910.089</ele>
        <time>2019-06-24T21:48:24Z</time>
      </trkpt>
      <trkpt lat="38.860864" lon="-2.961309">
        <ele>912.063</ele>
        <time>2019-06-24T21:48:44Z</time>
      </trkpt>
      <trkpt lat="38.860646" lon="-2.961642">
        <ele>911.445</ele>
        <time>2019-06-24T21:49:04Z</time>
      </trkpt>
      <trkpt lat="38.860296" lon="-2.961856">
        <ele>909.747</ele>
        <time>2019-06-24T21:49:24Z</time>
      </trkpt>
      <trkpt lat="38.860154" lon="-2.962103">
        <ele>909.211</ele>
        <time>2019-06-24T21:49:44Z</time>
      </trkpt>
      <trkpt lat="38.860078" lon="-2.962446">
        <ele>909.008</ele>
        <time>2019-06-24T21:50:04Z</time>
      </trkpt>
      <trkpt lat="38.859961" lon="-2.963294">
        <ele>911.747</ele>
        <time>2019-06-24T21:50:24Z</time>
      </trkpt>
      <trkpt lat="38.859803" lon="-2.964141">
        <ele>911.072</ele>
        <time>2019-06-24T21:50:44Z</time>
      </trkpt>
      <trkpt lat="38.859836" lon="-2.964807">
        <ele>912.364</ele>
        <time>2019-06-24T21:51:04Z</time>
      </trkpt>
      <trkpt lat="38.859728" lon="-2.966480">
        <ele>910.064</ele>
        <time>2019-06-24T21:51:24Z</time>
      </trkpt>
      <trkpt lat="38.859585" lon="-2.967328">
        <ele>909.074</ele>
        <time>2019-06-24T21:51:44Z</time>
      </trkpt>
      <trkpt lat="38.859477" lon="-2.967660">
        <ele>908.580</ele>
        <time>2019-06-24T21:52:04Z</time>
      </trkpt>
      <trkpt lat="38.859218" lon="-2.968100">
        <ele>907.269</ele>
        <time>2019-06-24T21:52:24Z</time>
      </trkpt>
      <trkpt lat="38.859042" lon="-2.968690">
        <ele>906.663</ele>
        <time>2019-06-24T21:52:44Z</time>
      </trkpt>
      <trkpt lat="38.858725" lon="-2.969034">
        <ele>906.024</ele>
        <time>2019-06-24T21:53:04Z</time>
      </trkpt>
      <trkpt lat="38.858040" lon="-2.969463">
        <ele>905.904</ele>
        <time>2019-06-24T21:53:24Z</time>
      </trkpt>
      <trkpt lat="38.857321" lon="-2.969688">
        <ele>902.414</ele>
        <time>2019-06-24T21:53:44Z</time>
      </trkpt>
      <trkpt lat="38.855918" lon="-2.970042">
        <ele>902.008</ele>
        <time>2019-06-24T21:54:04Z</time>
      </trkpt>
      <trkpt lat="38.855116" lon="-2.970568">
        <ele>901.585</ele>
        <time>2019-06-24T21:54:24Z</time>
      </trkpt>
      <trkpt lat="38.854832" lon="-2.970997">
        <ele>900.640</ele>
        <time>2019-06-24T21:54:44Z</time>
      </trkpt>
      <trkpt lat="38.854497" lon="-2.971770">
        <ele>899.772</ele>
        <time>2019-06-24T21:55:04Z</time>
      </trkpt>
      <trkpt lat="38.854188" lon="-2.972810">
        <ele>896.032</ele>
        <time>2019-06-24T21:55:24Z</time>
      </trkpt>
      <trkpt lat="38.854238" lon="-2.973143">
        <ele>895.332</ele>
        <time>2019-06-24T21:55:44Z</time>
      </trkpt>
      <trkpt lat="38.854481" lon="-2.973787">
        <ele>896.158</ele>
        <time>2019-06-24T21:56:04Z</time>
      </trkpt>
      <trkpt lat="38.854640" lon="-2.974538">
        <ele>896.037</ele>
        <time>2019-06-24T21:56:24Z</time>
      </trkpt>
      <trkpt lat="38.854531" lon="-2.975106">
        <ele>894.051</ele>
        <time>2019-06-24T21:56:44Z</time>
      </trkpt>
      <trkpt lat="38.854238" lon="-2.975664">
        <ele>892.616</ele>
        <time>2019-06-24T21:57:04Z</time>
      </trkpt>
      <trkpt lat="38.853879" lon="-2.976233">
        <ele>892.076</ele>
        <time>2019-06-24T21:57:24Z</time>
      </trkpt>
      <trkpt lat="38.853395" lon="-2.977091">
        <ele>890.513</ele>
        <time>2019-06-24T21:57:44Z</time>
      </trkpt>
      <trkpt lat="38.852969" lon="-2.977713">
        <ele>891.208</ele>
        <time>2019-06-24T21:58:04Z</time>
      </trkpt>
      <trkpt lat="38.852918" lon="-2.978142">
        <ele>891.754</ele>
        <time>2019-06-24T21:58:24Z</time>
      </trkpt>
      <trkpt lat="38.851573" lon="-2.979290">
        <ele>889.179</ele>
        <time>2019-06-24T21:58:44Z</time>
      </trkpt>
      <trkpt lat="38.850512" lon="-2.980278">
        <ele>886.511</ele>
        <time>2019-06-24T21:59:04Z</time>
      </trkpt>
      <trkpt lat="38.850320" lon="-2.980803">
        <ele>887.491</ele>
        <time>2019-06-24T21:59:24Z</time>
      </trkpt>
      <trkpt lat="38.850111" lon="-2.981554">
        <ele>885.821</ele>
        <time>2019-06-24T21:59:44Z</time>
      </trkpt>
      <trkpt lat="38.849793" lon="-2.981919">
        <ele>885.237</ele>
        <time>2019-06-24T22:00:04Z</time>
      </trkpt>
      <trkpt lat="38.849509" lon="-2.981962">
        <ele>883.676</ele>
        <time>2019-06-24T22:00:24Z</time>
      </trkpt>
      <trkpt lat="38.848448" lon="-2.982048">
        <ele>879.850</ele>
        <time>2019-06-24T22:00:44Z</time>
      </trkpt>
      <trkpt lat="38.847947" lon="-2.982413">
        <ele>873.052</ele>
        <time>2019-06-24T22:01:04Z</time>
      </trkpt>
      <trkpt lat="38.847061" lon="-2.983561">
        <ele>867.653</ele>
        <time>2019-06-24T22:01:24Z</time>
      </trkpt>
      <trkpt lat="38.846109" lon="-2.984923">
        <ele>859.208</ele>
        <time>2019-06-24T22:01:44Z</time>
      </trkpt>
      <trkpt lat="38.845616" lon="-2.985964">
        <ele>854.608</ele>
        <time>2019-06-24T22:02:04Z</time>
      </trkpt>
      <trkpt lat="38.845198" lon="-2.987005">
        <ele>848.358</ele>
        <time>2019-06-24T22:02:24Z</time>
      </trkpt>
      <trkpt lat="38.844688" lon="-2.988099">
        <ele>843.163</ele>
        <time>2019-06-24T22:02:44Z</time>
      </trkpt>
      <trkpt lat="38.844228" lon="-2.988850">
        <ele>839.235</ele>
        <time>2019-06-24T22:03:04Z</time>
      </trkpt>
      <trkpt lat="38.843961" lon="-2.989376">
        <ele>837.025</ele>
        <time>2019-06-24T22:03:24Z</time>
      </trkpt>
      <trkpt lat="38.843802" lon="-2.989300">
        <ele>835.555</ele>
        <time>2019-06-24T22:03:44Z</time>
      </trkpt>
      <trkpt lat="38.843547" lon="-2.989510">
        <ele>833.191</ele>
        <time>2019-06-24T22:04:04Z</time>
      </trkpt>
      <trkpt lat="38.843196" lon="-2.989756">
        <ele>829.470</ele>
        <time>2019-06-24T22:04:24Z</time>
      </trkpt>
      <trkpt lat="38.843017" lon="-2.989858">
        <ele>828.364</ele>
        <time>2019-06-24T22:04:44Z</time>
      </trkpt>
      <trkpt lat="38.842929" lon="-2.989767">
        <ele>828.356</ele>
        <time>2019-06-24T22:05:04Z</time>
      </trkpt>
      <trkpt lat="38.842557" lon="-2.989901">
        <ele>825.759</ele>
        <time>2019-06-24T22:05:24Z</time>
      </trkpt>
      <trkpt lat="38.842148" lon="-2.990078">
        <ele>823.514</ele>
        <time>2019-06-24T22:05:44Z</time>
      </trkpt>
      <trkpt lat="38.841855" lon="-2.990170">
        <ele>822.208</ele>
        <time>2019-06-24T22:06:04Z</time>
      </trkpt>
      <trkpt lat="38.841496" lon="-2.990223">
        <ele>821.358</ele>
        <time>2019-06-24T22:06:24Z</time>
      </trkpt>
      <trkpt lat="38.841341" lon="-2.990599">
        <ele>819.563</ele>
        <time>2019-06-24T22:06:44Z</time>
      </trkpt>
      <trkpt lat="38.841216" lon="-2.990577">
        <ele>818.735</ele>
        <time>2019-06-24T22:07:04Z</time>
      </trkpt>
      <trkpt lat="38.840840" lon="-2.990706">
        <ele>817.515</ele>
        <time>2019-06-24T22:07:24Z</time>
      </trkpt>
      <trkpt lat="38.840284" lon="-2.990904">
        <ele>813.015</ele>
        <time>2019-06-24T22:07:44Z</time>
      </trkpt>
      <trkpt lat="38.840004" lon="-2.990996">
        <ele>812.431</ele>
        <time>2019-06-24T22:08:04Z</time>
      </trkpt>
      <trkpt lat="38.839486" lon="-2.991377">
        <ele>810.170</ele>
        <time>2019-06-24T22:08:24Z</time>
      </trkpt>
      <trkpt lat="38.839077" lon="-2.991634">
        <ele>808.624</ele>
        <time>2019-06-24T22:08:44Z</time>
      </trkpt>
      <trkpt lat="38.838897" lon="-2.991076">
        <ele>807.213</ele>
        <time>2019-06-24T22:09:04Z</time>
      </trkpt>
      <trkpt lat="38.838233" lon="-2.991130">
        <ele>809.443</ele>
        <time>2019-06-24T22:09:24Z</time>
      </trkpt>
      <trkpt lat="38.838024" lon="-2.991189">
        <ele>810.007</ele>
        <time>2019-06-24T22:09:44Z</time>
      </trkpt>
      <trkpt lat="38.837928" lon="-2.990931">
        <ele>809.408</ele>
        <time>2019-06-24T22:10:04Z</time>
      </trkpt>
      <trkpt lat="38.837760" lon="-2.990475">
        <ele>810.194</ele>
        <time>2019-06-24T22:10:24Z</time>
      </trkpt>
      <trkpt lat="38.837556" lon="-2.989794">
        <ele>808.559</ele>
        <time>2019-06-24T22:10:44Z</time>
      </trkpt>
      <trkpt lat="38.837543" lon="-2.989617">
        <ele>807.761</ele>
        <time>2019-06-24T22:11:04Z</time>
      </trkpt>
      <trkpt lat="38.837585" lon="-2.989005">
        <ele>808.251</ele>
        <time>2019-06-24T22:11:24Z</time>
      </trkpt>
      <trkpt lat="38.837710" lon="-2.988163">
        <ele>811.221</ele>
        <time>2019-06-24T22:11:44Z</time>
      </trkpt>
      <trkpt lat="38.837869" lon="-2.987477">
        <ele>813.337</ele>
        <time>2019-06-24T22:12:04Z</time>
      </trkpt>
      <trkpt lat="38.837911" lon="-2.986715">
        <ele>812.676</ele>
        <time>2019-06-24T22:12:24Z</time>
      </trkpt>
      <trkpt lat="38.837735" lon="-2.986253">
        <ele>811.560</ele>
        <time>2019-06-24T22:12:44Z</time>
      </trkpt>
      <trkpt lat="38.837242" lon="-2.985384">
        <ele>810.378</ele>
        <time>2019-06-24T22:13:04Z</time>
      </trkpt>
      <trkpt lat="38.836766" lon="-2.984591">
        <ele>810.833</ele>
        <time>2019-06-24T22:13:24Z</time>
      </trkpt>
      <trkpt lat="38.836348" lon="-2.983968">
        <ele>813.026</ele>
        <time>2019-06-24T22:13:44Z</time>
      </trkpt>
      <trkpt lat="38.836173" lon="-2.983507">
        <ele>810.808</ele>
        <time>2019-06-24T22:14:04Z</time>
      </trkpt>
      <trkpt lat="38.835797" lon="-2.982348">
        <ele>810.030</ele>
        <time>2019-06-24T22:14:24Z</time>
      </trkpt>
      <trkpt lat="38.835730" lon="-2.981833">
        <ele>810.485</ele>
        <time>2019-06-24T22:14:44Z</time>
      </trkpt>
      <trkpt lat="38.835755" lon="-2.981318">
        <ele>812.647</ele>
        <time>2019-06-24T22:15:04Z</time>
      </trkpt>
      <trkpt lat="38.835939" lon="-2.980460">
        <ele>815.637</ele>
        <time>2019-06-24T22:15:24Z</time>
      </trkpt>
      <trkpt lat="38.836315" lon="-2.979376">
        <ele>815.367</ele>
        <time>2019-06-24T22:15:44Z</time>
      </trkpt>
      <trkpt lat="38.836841" lon="-2.978443">
        <ele>817.093</ele>
        <time>2019-06-24T22:16:04Z</time>
      </trkpt>
      <trkpt lat="38.837368" lon="-2.977370">
        <ele>813.552</ele>
        <time>2019-06-24T22:16:24Z</time>
      </trkpt>
      <trkpt lat="38.837969" lon="-2.976286">
        <ele>819.086</ele>
        <time>2019-06-24T22:16:44Z</time>
      </trkpt>
      <trkpt lat="38.838479" lon="-2.975235">
        <ele>819.396</ele>
        <time>2019-06-24T22:17:04Z</time>
      </trkpt>
      <trkpt lat="38.839081" lon="-2.973980">
        <ele>816.631</ele>
        <time>2019-06-24T22:17:24Z</time>
      </trkpt>
      <trkpt lat="38.838947" lon="-2.973357">
        <ele>815.324</ele>
        <time>2019-06-24T22:17:44Z</time>
      </trkpt>
      <trkpt lat="38.838730" lon="-2.972521">
        <ele>817.708</ele>
        <time>2019-06-24T22:18:04Z</time>
      </trkpt>
      <trkpt lat="38.838705" lon="-2.972156">
        <ele>816.682</ele>
        <time>2019-06-24T22:18:24Z</time>
      </trkpt>
      <trkpt lat="38.838813" lon="-2.971662">
        <ele>815.517</ele>
        <time>2019-06-24T22:18:44Z</time>
      </trkpt>
      <trkpt lat="38.839315" lon="-2.971212">
        <ele>815.259</ele>
        <time>2019-06-24T22:19:04Z</time>
      </trkpt>
      <trkpt lat="38.839891" lon="-2.970021">
        <ele>819.749</ele>
        <time>2019-06-24T22:19:24Z</time>
      </trkpt>
      <trkpt lat="38.839942" lon="-2.969635">
        <ele>819.599</ele>
        <time>2019-06-24T22:19:44Z</time>
      </trkpt>
      <trkpt lat="38.839933" lon="-2.968991">
        <ele>817.555</ele>
        <time>2019-06-24T22:20:04Z</time>
      </trkpt>
      <trkpt lat="38.840368" lon="-2.969302">
        <ele>818.774</ele>
        <time>2019-06-24T22:20:24Z</time>
      </trkpt>
      <trkpt lat="38.840644" lon="-2.967939">
        <ele>821.888</ele>
        <time>2019-06-24T22:20:44Z</time>
      </trkpt>
      <trkpt lat="38.840694" lon="-2.966920">
        <ele>825.027</ele>
        <time>2019-06-24T22:21:04Z</time>
      </trkpt>
      <trkpt lat="38.840744" lon="-2.966341">
        <ele>827.268</ele>
        <time>2019-06-24T22:21:24Z</time>
      </trkpt>
      <trkpt lat="38.841404" lon="-2.964731">
        <ele>843.214</ele>
        <time>2019-06-24T22:21:44Z</time>
      </trkpt>
      <trkpt lat="38.841813" lon="-2.963691">
        <ele>843.508</ele>
        <time>2019-06-24T22:22:04Z</time>
      </trkpt>
      <trkpt lat="38.842039" lon="-2.962757">
        <ele>839.635</ele>
        <time>2019-06-24T22:22:24Z</time>
      </trkpt>
      <trkpt lat="38.841997" lon="-2.962114">
        <ele>840.530</ele>
        <time>2019-06-24T22:22:44Z</time>
      </trkpt>
      <trkpt lat="38.841981" lon="-2.961845">
        <ele>840.442</ele>
        <time>2019-06-24T22:23:04Z</time>
      </trkpt>
      <trkpt lat="38.841981" lon="-2.961373">
        <ele>838.172</ele>
        <time>2019-06-24T22:23:24Z</time>
      </trkpt>
      <trkpt lat="38.842006" lon="-2.960333">
        <ele>832.052</ele>
        <time>2019-06-24T22:23:44Z</time>
      </trkpt>
      <trkpt lat="38.841981" lon="-2.959721">
        <ele>833.018</ele>
        <time>2019-06-24T22:24:04Z</time>
      </trkpt>
      <trkpt lat="38.842073" lon="-2.959292">
        <ele>833.057</ele>
        <time>2019-06-24T22:24:24Z</time>
      </trkpt>
      <trkpt lat="38.842357" lon="-2.958616">
        <ele>830.081</ele>
        <time>2019-06-24T22:24:44Z</time>
      </trkpt>
      <trkpt lat="38.841546" lon="-2.957983">
        <ele>826.256</ele>
        <time>2019-06-24T22:25:04Z</time>
      </trkpt>
      <trkpt lat="38.841529" lon="-2.957404">
        <ele>826.259</ele>
        <time>2019-06-24T22:25:24Z</time>
      </trkpt>
      <trkpt lat="38.841212" lon="-2.956953">
        <ele>828.414</ele>
        <time>2019-06-24T22:25:44Z</time>
      </trkpt>
      <trkpt lat="38.841187" lon="-2.956513">
        <ele>828.908</ele>
        <time>2019-06-24T22:26:04Z</time>
      </trkpt>
      <trkpt lat="38.841128" lon="-2.955805">
        <ele>828.598</ele>
        <time>2019-06-24T22:26:24Z</time>
      </trkpt>
      <trkpt lat="38.841145" lon="-2.955526">
        <ele>829.533</ele>
        <time>2019-06-24T22:26:44Z</time>
      </trkpt>
      <trkpt lat="38.841270" lon="-2.955033">
        <ele>832.225</ele>
        <time>2019-06-24T22:27:04Z</time>
      </trkpt>
      <trkpt lat="38.841262" lon="-2.954400">
        <ele>835.365</ele>
        <time>2019-06-24T22:27:24Z</time>
      </trkpt>
      <trkpt lat="38.841145" lon="-2.953885">
        <ele>834.535</ele>
        <time>2019-06-24T22:27:44Z</time>
      </trkpt>
      <trkpt lat="38.840819" lon="-2.953413">
        <ele>836.061</ele>
        <time>2019-06-24T22:28:04Z</time>
      </trkpt>
      <trkpt lat="38.840702" lon="-2.953037">
        <ele>837.780</ele>
        <time>2019-06-24T22:28:24Z</time>
      </trkpt>
      <trkpt lat="38.840635" lon="-2.952275">
        <ele>837.464</ele>
        <time>2019-06-24T22:28:44Z</time>
      </trkpt>
      <trkpt lat="38.840635" lon="-2.951535">
        <ele>830.398</ele>
        <time>2019-06-24T22:29:04Z</time>
      </trkpt>
      <trkpt lat="38.840677" lon="-2.950977">
        <ele>831.215</ele>
        <time>2019-06-24T22:29:24Z</time>
      </trkpt>
      <trkpt lat="38.840669" lon="-2.950730">
        <ele>832.226</ele>
        <time>2019-06-24T22:29:44Z</time>
      </trkpt>
      <trkpt lat="38.840568" lon="-2.950537">
        <ele>831.208</ele>
        <time>2019-06-24T22:30:04Z</time>
      </trkpt>
      <trkpt lat="38.840510" lon="-2.949518">
        <ele>833.042</ele>
        <time>2019-06-24T22:30:24Z</time>
      </trkpt>
      <trkpt lat="38.840334" lon="-2.948735">
        <ele>829.277</ele>
        <time>2019-06-24T22:30:44Z</time>
      </trkpt>
      <trkpt lat="38.840242" lon="-2.947791">
        <ele>830.819</ele>
        <time>2019-06-24T22:31:04Z</time>
      </trkpt>
      <trkpt lat="38.840059" lon="-2.946728">
        <ele>833.069</ele>
        <time>2019-06-24T22:31:24Z</time>
      </trkpt>
      <trkpt lat="38.840493" lon="-2.946514">
        <ele>842.299</ele>
        <time>2019-06-24T22:31:44Z</time>
      </trkpt>
      <trkpt lat="38.840844" lon="-2.946632">
        <ele>845.585</ele>
        <time>2019-06-24T22:32:04Z</time>
      </trkpt>
      <trkpt lat="38.841337" lon="-2.946503">
        <ele>853.684</ele>
        <time>2019-06-24T22:32:24Z</time>
      </trkpt>
      <trkpt lat="38.842348" lon="-2.946310">
        <ele>867.618</ele>
        <time>2019-06-24T22:32:44Z</time>
      </trkpt>
      <trkpt lat="38.844111" lon="-2.946342">
        <ele>887.491</ele>
        <time>2019-06-24T22:33:04Z</time>
      </trkpt>
      <trkpt lat="38.844772" lon="-2.946439">
        <ele>892.081</ele>
        <time>2019-06-24T22:33:24Z</time>
      </trkpt>
      <trkpt lat="38.845666" lon="-2.946664">
        <ele>896.419</ele>
        <time>2019-06-24T22:33:44Z</time>
      </trkpt>
      <trkpt lat="38.846217" lon="-2.946621">
        <ele>897.708</ele>
        <time>2019-06-24T22:34:04Z</time>
      </trkpt>
      <trkpt lat="38.847011" lon="-2.946374">
        <ele>899.232</ele>
        <time>2019-06-24T22:34:24Z</time>
      </trkpt>
      <trkpt lat="38.847228" lon="-2.946138">
        <ele>899.177</ele>
        <time>2019-06-24T22:34:44Z</time>
      </trkpt>
      <trkpt lat="38.847454" lon="-2.945924">
        <ele>899.579</ele>
        <time>2019-06-24T22:35:04Z</time>
      </trkpt>
      <trkpt lat="38.847663" lon="-2.945527">
        <ele>903.649</ele>
        <time>2019-06-24T22:35:24Z</time>
      </trkpt>
      <trkpt lat="38.847855" lon="-2.945033">
        <ele>908.269</ele>
        <time>2019-06-24T22:35:44Z</time>
      </trkpt>
      <trkpt lat="38.847746" lon="-2.944615">
        <ele>911.045</ele>
        <time>2019-06-24T22:36:04Z</time>
      </trkpt>
      <trkpt lat="38.848122" lon="-2.943703">
        <ele>914.824</ele>
        <time>2019-06-24T22:36:24Z</time>
      </trkpt>
      <trkpt lat="38.848390" lon="-2.942963">
        <ele>912.948</ele>
        <time>2019-06-24T22:36:44Z</time>
      </trkpt>
      <trkpt lat="38.848448" lon="-2.942448">
        <ele>914.066</ele>
        <time>2019-06-24T22:37:04Z</time>
      </trkpt>
      <trkpt lat="38.849067" lon="-2.940763">
        <ele>918.729</ele>
        <time>2019-06-24T22:37:24Z</time>
      </trkpt>
      <trkpt lat="38.849150" lon="-2.940141">
        <ele>917.521</ele>
        <time>2019-06-24T22:37:44Z</time>
      </trkpt>
      <trkpt lat="38.849802" lon="-2.938832">
        <ele>915.908</ele>
        <time>2019-06-24T22:38:04Z</time>
      </trkpt>
      <trkpt lat="38.849844" lon="-2.937684">
        <ele>917.749</ele>
        <time>2019-06-24T22:38:24Z</time>
      </trkpt>
      <trkpt lat="38.849844" lon="-2.936590">
        <ele>918.834</ele>
        <time>2019-06-24T22:38:44Z</time>
      </trkpt>
      <trkpt lat="38.849994" lon="-2.936139">
        <ele>920.956</ele>
        <time>2019-06-24T22:39:04Z</time>
      </trkpt>
      <trkpt lat="38.850061" lon="-2.935807">
        <ele>919.196</ele>
        <time>2019-06-24T22:39:24Z</time>
      </trkpt>
      <trkpt lat="38.850186" lon="-2.935249">
        <ele>917.346</ele>
        <time>2019-06-24T22:39:44Z</time>
      </trkpt>
      <trkpt lat="38.850637" lon="-2.934519">
        <ele>917.152</ele>
        <time>2019-06-24T22:40:04Z</time>
      </trkpt>
      <trkpt lat="38.850938" lon="-2.933897">
        <ele>917.651</ele>
        <time>2019-06-24T22:40:24Z</time>
      </trkpt>
      <trkpt lat="38.851005" lon="-2.933446">
        <ele>917.015</ele>
        <time>2019-06-24T22:40:44Z</time>
      </trkpt>
      <trkpt lat="38.851297" lon="-2.932491">
        <ele>915.081</ele>
        <time>2019-06-24T22:41:04Z</time>
      </trkpt>
      <trkpt lat="38.851506" lon="-2.931815">
        <ele>915.861</ele>
        <time>2019-06-24T22:41:24Z</time>
      </trkpt>
      <trkpt lat="38.851974" lon="-2.930549">
        <ele>912.117</ele>
        <time>2019-06-24T22:41:44Z</time>
      </trkpt>
      <trkpt lat="38.852208" lon="-2.930195">
        <ele>912.908</ele>
        <time>2019-06-24T22:42:04Z</time>
      </trkpt>
      <trkpt lat="38.852626" lon="-2.929155">
        <ele>915.941</ele>
        <time>2019-06-24T22:42:24Z</time>
      </trkpt>
      <trkpt lat="38.852843" lon="-2.928329">
        <ele>919.556</ele>
        <time>2019-06-24T22:42:44Z</time>
      </trkpt>
      <trkpt lat="38.853060" lon="-2.928007">
        <ele>918.028</ele>
        <time>2019-06-24T22:43:04Z</time>
      </trkpt>
      <trkpt lat="38.853144" lon="-2.927674">
        <ele>917.468</ele>
        <time>2019-06-24T22:43:24Z</time>
      </trkpt>
      <trkpt lat="38.853344" lon="-2.927352">
        <ele>916.588</ele>
        <time>2019-06-24T22:43:44Z</time>
      </trkpt>
      <trkpt lat="38.853436" lon="-2.926462">
        <ele>917.464</ele>
        <time>2019-06-24T22:44:04Z</time>
      </trkpt>
      <trkpt lat="38.853620" lon="-2.925539">
        <ele>914.923</ele>
        <time>2019-06-24T22:44:24Z</time>
      </trkpt>
      <trkpt lat="38.853720" lon="-2.925067">
        <ele>913.637</ele>
        <time>2019-06-24T22:44:44Z</time>
      </trkpt>
      <trkpt lat="38.853804" lon="-2.924724">
        <ele>914.062</ele>
        <time>2019-06-24T22:45:04Z</time>
      </trkpt>
      <trkpt lat="38.853896" lon="-2.924402">
        <ele>914.083</ele>
        <time>2019-06-24T22:45:24Z</time>
      </trkpt>
      <trkpt lat="38.854030" lon="-2.924198">
        <ele>914.011</ele>
        <time>2019-06-24T22:45:44Z</time>
      </trkpt>
      <trkpt lat="38.853754" lon="-2.923543">
        <ele>915.008</ele>
        <time>2019-06-24T22:46:04Z</time>
      </trkpt>
      <trkpt lat="38.853637" lon="-2.923093">
        <ele>915.969</ele>
        <time>2019-06-24T22:46:24Z</time>
      </trkpt>
      <trkpt lat="38.853704" lon="-2.922181">
        <ele>912.654</ele>
        <time>2019-06-24T22:46:44Z</time>
      </trkpt>
      <trkpt lat="38.853637" lon="-2.921408">
        <ele>911.336</ele>
        <time>2019-06-24T22:47:04Z</time>
      </trkpt>
      <trkpt lat="38.853637" lon="-2.920614">
        <ele>913.126</ele>
        <time>2019-06-24T22:47:24Z</time>
      </trkpt>
      <trkpt lat="38.853503" lon="-2.920014">
        <ele>914.396</ele>
        <time>2019-06-24T22:47:44Z</time>
      </trkpt>
      <trkpt lat="38.853361" lon="-2.919391">
        <ele>913.682</ele>
        <time>2019-06-24T22:48:04Z</time>
      </trkpt>
      <trkpt lat="38.853370" lon="-2.918555">
        <ele>914.341</ele>
        <time>2019-06-24T22:48:24Z</time>
      </trkpt>
      <trkpt lat="38.853336" lon="-2.917675">
        <ele>915.665</ele>
        <time>2019-06-24T22:48:44Z</time>
      </trkpt>
      <trkpt lat="38.853278" lon="-2.916580">
        <ele>918.031</ele>
        <time>2019-06-24T22:49:04Z</time>
      </trkpt>
      <trkpt lat="38.853177" lon="-2.915733">
        <ele>917.061</ele>
        <time>2019-06-24T22:49:24Z</time>
      </trkpt>
      <trkpt lat="38.853119" lon="-2.915143">
        <ele>917.607</ele>
        <time>2019-06-24T22:49:44Z</time>
      </trkpt>
      <trkpt lat="38.853044" lon="-2.914134">
        <ele>917.908</ele>
        <time>2019-06-24T22:50:04Z</time>
      </trkpt>
      <trkpt lat="38.852826" lon="-2.913426">
        <ele>917.986</ele>
        <time>2019-06-24T22:50:24Z</time>
      </trkpt>
      <trkpt lat="38.852726" lon="-2.912986">
        <ele>919.011</ele>
        <time>2019-06-24T22:50:44Z</time>
      </trkpt>
      <trkpt lat="38.852718" lon="-2.912128">
        <ele>921.913</ele>
        <time>2019-06-24T22:51:04Z</time>
      </trkpt>
      <trkpt lat="38.852609" lon="-2.911109">
        <ele>919.423</ele>
        <time>2019-06-24T22:51:24Z</time>
      </trkpt>
      <trkpt lat="38.852434" lon="-2.910250">
        <ele>920.023</ele>
        <time>2019-06-24T22:51:44Z</time>
      </trkpt>
      <trkpt lat="38.852258" lon="-2.909575">
        <ele>919.419</ele>
        <time>2019-06-24T22:52:04Z</time>
      </trkpt>
      <trkpt lat="38.852083" lon="-2.909006">
        <ele>919.038</ele>
        <time>2019-06-24T22:52:24Z</time>
      </trkpt>
      <trkpt lat="38.851673" lon="-2.908072">
        <ele>922.922</ele>
        <time>2019-06-24T22:52:44Z</time>
      </trkpt>
      <trkpt lat="38.851356" lon="-2.907225">
        <ele>922.131</ele>
        <time>2019-06-24T22:53:04Z</time>
      </trkpt>
      <trkpt lat="38.851214" lon="-2.906839">
        <ele>922.861</ele>
        <time>2019-06-24T22:53:24Z</time>
      </trkpt>
      <trkpt lat="38.850988" lon="-2.906667">
        <ele>922.607</ele>
        <time>2019-06-24T22:53:44Z</time>
      </trkpt>
      <trkpt lat="38.850738" lon="-2.906946">
        <ele>921.308</ele>
        <time>2019-06-24T22:54:04Z</time>
      </trkpt>
      <trkpt lat="38.850403" lon="-2.907321">
        <ele>918.546</ele>
        <time>2019-06-24T22:54:24Z</time>
      </trkpt>
      <trkpt lat="38.850253" lon="-2.907557">
        <ele>917.431</ele>
        <time>2019-06-24T22:54:44Z</time>
      </trkpt>
      <trkpt lat="38.850153" lon="-2.907869">
        <ele>914.663</ele>
        <time>2019-06-24T22:55:04Z</time>
      </trkpt>
      <trkpt lat="38.850036" lon="-2.908609">
        <ele>907.583</ele>
        <time>2019-06-24T22:55:24Z</time>
      </trkpt>
      <trkpt lat="38.849910" lon="-2.908770">
        <ele>905.513</ele>
        <time>2019-06-24T22:55:44Z</time>
      </trkpt>
      <trkpt lat="38.849610" lon="-2.908909">
        <ele>899.689</ele>
        <time>2019-06-24T22:56:04Z</time>
      </trkpt>
      <trkpt lat="38.849309" lon="-2.909049">
        <ele>893.388</ele>
        <time>2019-06-24T22:56:24Z</time>
      </trkpt>
      <trkpt lat="38.849184" lon="-2.909446">
        <ele>890.492</ele>
        <time>2019-06-24T22:56:44Z</time>
      </trkpt>
      <trkpt lat="38.848833" lon="-2.909950">
        <ele>885.379</ele>
        <time>2019-06-24T22:57:04Z</time>
      </trkpt>
      <trkpt lat="38.848590" lon="-2.909971">
        <ele>880.305</ele>
        <time>2019-06-24T22:57:24Z</time>
      </trkpt>
      <trkpt lat="38.848273" lon="-2.910014">
        <ele>874.825</ele>
        <time>2019-06-24T22:57:44Z</time>
      </trkpt>
      <trkpt lat="38.847955" lon="-2.910508">
        <ele>869.408</ele>
        <time>2019-06-24T22:58:04Z</time>
      </trkpt>
      <trkpt lat="38.847721" lon="-2.910776">
        <ele>863.520</ele>
        <time>2019-06-24T22:58:24Z</time>
      </trkpt>
      <trkpt lat="38.847604" lon="-2.910551">
        <ele>861.945</ele>
        <time>2019-06-24T22:58:44Z</time>
      </trkpt>
      <trkpt lat="38.847095" lon="-2.909510">
        <ele>859.217</ele>
        <time>2019-06-24T22:59:04Z</time>
      </trkpt>
      <trkpt lat="38.846911" lon="-2.909188">
        <ele>859.657</ele>
        <time>2019-06-24T22:59:24Z</time>
      </trkpt>
      <trkpt lat="38.846852" lon="-2.908909">
        <ele>860.567</ele>
        <time>2019-06-24T22:59:44Z</time>
      </trkpt>
      <trkpt lat="38.846560" lon="-2.908416">
        <ele>865.023</ele>
        <time>2019-06-24T23:00:04Z</time>
      </trkpt>
      <trkpt lat="38.846259" lon="-2.908083">
        <ele>866.532</ele>
        <time>2019-06-24T23:00:24Z</time>
      </trkpt>
      <trkpt lat="38.845916" lon="-2.907643">
        <ele>865.966</ele>
        <time>2019-06-24T23:00:44Z</time>
      </trkpt>
      <trkpt lat="38.845582" lon="-2.907257">
        <ele>866.935</ele>
        <time>2019-06-24T23:01:04Z</time>
      </trkpt>
      <trkpt lat="38.844813" lon="-2.906517">
        <ele>863.786</ele>
        <time>2019-06-24T23:01:24Z</time>
      </trkpt>
      <trkpt lat="38.844429" lon="-2.906356">
        <ele>863.314</ele>
        <time>2019-06-24T23:01:44Z</time>
      </trkpt>
      <trkpt lat="38.843777" lon="-2.905959">
        <ele>867.208</ele>
        <time>2019-06-24T23:02:04Z</time>
      </trkpt>
      <trkpt lat="38.843527" lon="-2.905658">
        <ele>870.036</ele>
        <time>2019-06-24T23:02:24Z</time>
      </trkpt>
      <trkpt lat="38.843318" lon="-2.905465">
        <ele>870.461</ele>
        <time>2019-06-24T23:02:44Z</time>
      </trkpt>
      <trkpt lat="38.842215" lon="-2.905101">
        <ele>866.963</ele>
        <time>2019-06-24T23:03:04Z</time>
      </trkpt>
      <trkpt lat="38.841254" lon="-2.904854">
        <ele>869.113</ele>
        <time>2019-06-24T23:03:24Z</time>
      </trkpt>
      <trkpt lat="38.840610" lon="-2.904586">
        <ele>870.713</ele>
        <time>2019-06-24T23:03:44Z</time>
      </trkpt>
      <trkpt lat="38.840451" lon="-2.904414">
        <ele>870.259</ele>
        <time>2019-06-24T23:04:04Z</time>
      </trkpt>
      <trkpt lat="38.840092" lon="-2.903856">
        <ele>869.718</ele>
        <time>2019-06-24T23:04:24Z</time>
      </trkpt>
      <trkpt lat="38.839791" lon="-2.903577">
        <ele>869.912</ele>
        <time>2019-06-24T23:04:44Z</time>
      </trkpt>
      <trkpt lat="38.839499" lon="-2.903416">
        <ele>869.513</ele>
        <time>2019-06-24T23:05:04Z</time>
      </trkpt>
      <trkpt lat="38.839290" lon="-2.903277">
        <ele>870.643</ele>
        <time>2019-06-24T23:05:24Z</time>
      </trkpt>
      <trkpt lat="38.838972" lon="-2.903438">
        <ele>870.607</ele>
        <time>2019-06-24T23:05:44Z</time>
      </trkpt>
      <trkpt lat="38.838538" lon="-2.903899">
        <ele>870.108</ele>
        <time>2019-06-24T23:06:04Z</time>
      </trkpt>
      <trkpt lat="38.838362" lon="-2.904199">
        <ele>873.884</ele>
        <time>2019-06-24T23:06:24Z</time>
      </trkpt>
      <trkpt lat="38.838053" lon="-2.904392">
        <ele>879.819</ele>
        <time>2019-06-24T23:06:44Z</time>
      </trkpt>
      <trkpt lat="38.837827" lon="-2.904521">
        <ele>881.771</ele>
        <time>2019-06-24T23:07:04Z</time>
      </trkpt>
      <trkpt lat="38.837602" lon="-2.904768">
        <ele>883.881</ele>
        <time>2019-06-24T23:07:24Z</time>
      </trkpt>
      <trkpt lat="38.837242" lon="-2.905025">
        <ele>886.711</ele>
        <time>2019-06-24T23:07:44Z</time>
      </trkpt>
      <trkpt lat="38.836958" lon="-2.904972">
        <ele>887.417</ele>
        <time>2019-06-24T23:08:04Z</time>
      </trkpt>
      <trkpt lat="38.836641" lon="-2.904972">
        <ele>889.436</ele>
        <time>2019-06-24T23:08:24Z</time>
      </trkpt>
      <trkpt lat="38.836373" lon="-2.905090">
        <ele>889.830</ele>
        <time>2019-06-24T23:08:44Z</time>
      </trkpt>
      <trkpt lat="38.835663" lon="-2.905637">
        <ele>896.716</ele>
        <time>2019-06-24T23:09:04Z</time>
      </trkpt>
      <trkpt lat="38.835312" lon="-2.905744">
        <ele>901.676</ele>
        <time>2019-06-24T23:09:24Z</time>
      </trkpt>
      <trkpt lat="38.835069" lon="-2.905787">
        <ele>902.913</ele>
        <time>2019-06-24T23:09:44Z</time>
      </trkpt>
      <trkpt lat="38.834769" lon="-2.905991">
        <ele>903.108</ele>
        <time>2019-06-24T23:10:04Z</time>
      </trkpt>
      <trkpt lat="38.834200" lon="-2.906613">
        <ele>905.984</ele>
        <time>2019-06-24T23:10:24Z</time>
      </trkpt>
      <trkpt lat="38.833899" lon="-2.906935">
        <ele>907.029</ele>
        <time>2019-06-24T23:10:44Z</time>
      </trkpt>
      <trkpt lat="38.833298" lon="-2.907236">
        <ele>910.011</ele>
        <time>2019-06-24T23:11:04Z</time>
      </trkpt>
      <trkpt lat="38.832738" lon="-2.907783">
        <ele>911.221</ele>
        <time>2019-06-24T23:11:24Z</time>
      </trkpt>
      <trkpt lat="38.832429" lon="-2.908040">
        <ele>912.721</ele>
        <time>2019-06-24T23:11:44Z</time>
      </trkpt>
      <trkpt lat="38.831843" lon="-2.908437">
        <ele>915.137</ele>
        <time>2019-06-24T23:12:04Z</time>
      </trkpt>
      <trkpt lat="38.831777" lon="-2.908813">
        <ele>916.966</ele>
        <time>2019-06-24T23:12:24Z</time>
      </trkpt>
      <trkpt lat="38.831777" lon="-2.909038">
        <ele>917.050</ele>
        <time>2019-06-24T23:12:44Z</time>
      </trkpt>
      <trkpt lat="38.831818" lon="-2.909757">
        <ele>918.643</ele>
        <time>2019-06-24T23:13:04Z</time>
      </trkpt>
      <trkpt lat="38.831735" lon="-2.909993">
        <ele>919.764</ele>
        <time>2019-06-24T23:13:24Z</time>
      </trkpt>
      <trkpt lat="38.831710" lon="-2.910293">
        <ele>920.010</ele>
        <time>2019-06-24T23:13:44Z</time>
      </trkpt>
      <trkpt lat="38.831375" lon="-2.911012">
        <ele>921.508</ele>
        <time>2019-06-24T23:14:04Z</time>
      </trkpt>
      <trkpt lat="38.831116" lon="-2.911624">
        <ele>920.937</ele>
        <time>2019-06-24T23:14:24Z</time>
      </trkpt>
      <trkpt lat="38.831108" lon="-2.912300">
        <ele>923.062</ele>
        <time>2019-06-24T23:14:44Z</time>
      </trkpt>
      <trkpt lat="38.831083" lon="-2.912643">
        <ele>923.494</ele>
        <time>2019-06-24T23:15:04Z</time>
      </trkpt>
      <trkpt lat="38.830958" lon="-2.913448">
        <ele>921.864</ele>
        <time>2019-06-24T23:15:24Z</time>
      </trkpt>
      <trkpt lat="38.830765" lon="-2.913759">
        <ele>921.174</ele>
        <time>2019-06-24T23:15:44Z</time>
      </trkpt>
      <trkpt lat="38.830581" lon="-2.914209">
        <ele>919.060</ele>
        <time>2019-06-24T23:16:04Z</time>
      </trkpt>
      <trkpt lat="38.830356" lon="-2.915003">
        <ele>917.369</ele>
        <time>2019-06-24T23:16:24Z</time>
      </trkpt>
      <trkpt lat="38.830247" lon="-2.915593">
        <ele>916.923</ele>
        <time>2019-06-24T23:16:44Z</time>
      </trkpt>
      <trkpt lat="38.830214" lon="-2.916098">
        <ele>915.898</ele>
        <time>2019-06-24T23:17:04Z</time>
      </trkpt>
      <trkpt lat="38.830088" lon="-2.916452">
        <ele>914.815</ele>
        <time>2019-06-24T23:17:24Z</time>
      </trkpt>
      <trkpt lat="38.829946" lon="-2.916602">
        <ele>914.826</ele>
        <time>2019-06-24T23:17:44Z</time>
      </trkpt>
      <trkpt lat="38.829545" lon="-2.916613">
        <ele>914.508</ele>
        <time>2019-06-24T23:18:04Z</time>
      </trkpt>
      <trkpt lat="38.829152" lon="-2.916774">
        <ele>911.782</ele>
        <time>2019-06-24T23:18:24Z</time>
      </trkpt>
      <trkpt lat="38.828952" lon="-2.916698">
        <ele>910.537</ele>
        <time>2019-06-24T23:18:44Z</time>
      </trkpt>
      <trkpt lat="38.828584" lon="-2.916452">
        <ele>910.969</ele>
        <time>2019-06-24T23:19:04Z</time>
      </trkpt>
      <trkpt lat="38.828509" lon="-2.916065">
        <ele>911.369</ele>
        <time>2019-06-24T23:19:24Z</time>
      </trkpt>
      <trkpt lat="38.828450" lon="-2.915883">
        <ele>911.199</ele>
        <time>2019-06-24T23:19:44Z</time>
      </trkpt>
      <trkpt lat="38.828400" lon="-2.915572">
        <ele>911.075</ele>
        <time>2019-06-24T23:20:04Z</time>
      </trkpt>
      <trkpt lat="38.827965" lon="-2.915229">
        <ele>913.354</ele>
        <time>2019-06-24T23:20:24Z</time>
      </trkpt>
      <trkpt lat="38.827389" lon="-2.914993">
        <ele>914.068</ele>
        <time>2019-06-24T23:20:44Z</time>
      </trkpt>
      <trkpt lat="38.826971" lon="-2.914553">
        <ele>914.448</ele>
        <time>2019-06-24T23:21:04Z</time>
      </trkpt>
      <trkpt lat="38.826636" lon="-2.914295">
        <ele>916.361</ele>
        <time>2019-06-24T23:21:24Z</time>
      </trkpt>
      <trkpt lat="38.826386" lon="-2.913995">
        <ele>917.417</ele>
        <time>2019-06-24T23:21:44Z</time>
      </trkpt>
      <trkpt lat="38.825943" lon="-2.913769">
        <ele>918.208</ele>
        <time>2019-06-24T23:22:04Z</time>
      </trkpt>
      <trkpt lat="38.825542" lon="-2.913405">
        <ele>915.267</ele>
        <time>2019-06-24T23:22:24Z</time>
      </trkpt>
      <trkpt lat="38.825241" lon="-2.913212">
        <ele>913.372</ele>
        <time>2019-06-24T23:22:44Z</time>
      </trkpt>
      <trkpt lat="38.824480" lon="-2.912868">
        <ele>917.384</ele>
        <time>2019-06-24T23:23:04Z</time>
      </trkpt>
      <trkpt lat="38.824054" lon="-2.912697">
        <ele>915.784</ele>
        <time>2019-06-24T23:23:24Z</time>
      </trkpt>
      <trkpt lat="38.823778" lon="-2.912847">
        <ele>915.954</ele>
        <time>2019-06-24T23:23:44Z</time>
      </trkpt>
      <trkpt lat="38.822608" lon="-2.913233">
        <ele>919.020</ele>
        <time>2019-06-24T23:24:04Z</time>
      </trkpt>
      <trkpt lat="38.822190" lon="-2.913437">
        <ele>919.859</ele>
        <time>2019-06-24T23:24:24Z</time>
      </trkpt>
      <trkpt lat="38.821371" lon="-2.913791">
        <ele>917.333</ele>
        <time>2019-06-24T23:24:44Z</time>
      </trkpt>
      <trkpt lat="38.820518" lon="-2.913952">
        <ele>917.452</ele>
        <time>2019-06-24T23:25:04Z</time>
      </trkpt>
      <trkpt lat="38.819866" lon="-2.914134">
        <ele>916.553</ele>
        <time>2019-06-24T23:25:24Z</time>
      </trkpt>
      <trkpt lat="38.819548" lon="-2.914510">
        <ele>918.908</ele>
        <time>2019-06-24T23:25:44Z</time>
      </trkpt>
      <trkpt lat="38.819231" lon="-2.914478">
        <ele>919.808</ele>
        <time>2019-06-24T23:26:04Z</time>
      </trkpt>
      <trkpt lat="38.818696" lon="-2.914660">
        <ele>922.288</ele>
        <time>2019-06-24T23:26:24Z</time>
      </trkpt>
      <trkpt lat="38.818520" lon="-2.914746">
        <ele>922.033</ele>
        <time>2019-06-24T23:26:44Z</time>
      </trkpt>
      <trkpt lat="38.818328" lon="-2.914853">
        <ele>922.515</ele>
        <time>2019-06-24T23:27:04Z</time>
      </trkpt>
      <trkpt lat="38.817701" lon="-2.915175">
        <ele>923.655</ele>
        <time>2019-06-24T23:27:24Z</time>
      </trkpt>
      <trkpt lat="38.817358" lon="-2.915454">
        <ele>924.345</ele>
        <time>2019-06-24T23:27:44Z</time>
      </trkpt>
      <trkpt lat="38.816205" lon="-2.916945">
        <ele>927.751</ele>
        <time>2019-06-24T23:28:04Z</time>
      </trkpt>
      <trkpt lat="38.815561" lon="-2.917718">
        <ele>925.020</ele>
        <time>2019-06-24T23:28:24Z</time>
      </trkpt>
      <trkpt lat="38.815143" lon="-2.918447">
        <ele>924.024</ele>
        <time>2019-06-24T23:28:44Z</time>
      </trkpt>
      <trkpt lat="38.814800" lon="-2.919123">
        <ele>923.772</ele>
        <time>2019-06-24T23:29:04Z</time>
      </trkpt>
      <trkpt lat="38.814399" lon="-2.919981">
        <ele>921.713</ele>
        <time>2019-06-24T23:29:24Z</time>
      </trkpt>
      <trkpt lat="38.815009" lon="-2.920443">
        <ele>924.414</ele>
        <time>2019-06-24T23:29:44Z</time>
      </trkpt>
      <trkpt lat="38.815135" lon="-2.920861">
        <ele>925.508</ele>
        <time>2019-06-24T23:30:04Z</time>
      </trkpt>
      <trkpt lat="38.815544" lon="-2.921623">
        <ele>926.290</ele>
        <time>2019-06-24T23:30:24Z</time>
      </trkpt>
      <trkpt lat="38.816238" lon="-2.921816">
        <ele>927.065</ele>
        <time>2019-06-24T23:30:44Z</time>
      </trkpt>
      <trkpt lat="38.816740" lon="-2.922084">
        <ele>927.567</ele>
        <time>2019-06-24T23:31:04Z</time>
      </trkpt>
      <trkpt lat="38.818696" lon="-2.923232">
        <ele>924.867</ele>
        <time>2019-06-24T23:31:24Z</time>
      </trkpt>
      <trkpt lat="38.819908" lon="-2.923994">
        <ele>923.067</ele>
        <time>2019-06-24T23:31:44Z</time>
      </trkpt>
      <trkpt lat="38.820978" lon="-2.925282">
        <ele>920.563</ele>
        <time>2019-06-24T23:32:04Z</time>
      </trkpt>
      <trkpt lat="38.821713" lon="-2.926311">
        <ele>921.332</ele>
        <time>2019-06-24T23:32:24Z</time>
      </trkpt>
      <trkpt lat="38.822332" lon="-2.927116">
        <ele>921.866</ele>
        <time>2019-06-24T23:32:44Z</time>
      </trkpt>
      <trkpt lat="38.822959" lon="-2.928532">
        <ele>923.378</ele>
        <time>2019-06-24T23:33:04Z</time>
      </trkpt>
      <trkpt lat="38.823402" lon="-2.929434">
        <ele>920.033</ele>
        <time>2019-06-24T23:33:24Z</time>
      </trkpt>
      <trkpt lat="38.823778" lon="-2.930335">
        <ele>918.926</ele>
        <time>2019-06-24T23:33:44Z</time>
      </trkpt>
      <trkpt lat="38.824029" lon="-2.930818">
        <ele>918.508</ele>
        <time>2019-06-24T23:34:04Z</time>
      </trkpt>
      <trkpt lat="38.824254" lon="-2.931890">
        <ele>919.510</ele>
        <time>2019-06-24T23:34:24Z</time>
      </trkpt>
      <trkpt lat="38.824480" lon="-2.932652">
        <ele>919.585</ele>
        <time>2019-06-24T23:34:44Z</time>
      </trkpt>
      <trkpt lat="38.824831" lon="-2.933822">
        <ele>919.097</ele>
        <time>2019-06-24T23:35:04Z</time>
      </trkpt>
      <trkpt lat="38.824923" lon="-2.934176">
        <ele>919.347</ele>
        <time>2019-06-24T23:35:24Z</time>
      </trkpt>
      <trkpt lat="38.825216" lon="-2.934637">
        <ele>918.847</ele>
        <time>2019-06-24T23:35:44Z</time>
      </trkpt>
      <trkpt lat="38.825717" lon="-2.935131">
        <ele>918.843</ele>
        <time>2019-06-24T23:36:04Z</time>
      </trkpt>
      <trkpt lat="38.826294" lon="-2.935946">
        <ele>913.462</ele>
        <time>2019-06-24T23:36:24Z</time>
      </trkpt>
      <trkpt lat="38.826912" lon="-2.936568">
        <ele>916.916</ele>
        <time>2019-06-24T23:36:44Z</time>
      </trkpt>
      <trkpt lat="38.827213" lon="-2.937008">
        <ele>915.516</ele>
        <time>2019-06-24T23:37:04Z</time>
      </trkpt>
      <trkpt lat="38.827589" lon="-2.937695">
        <ele>914.876</ele>
        <time>2019-06-24T23:37:24Z</time>
      </trkpt>
      <trkpt lat="38.828032" lon="-2.937856">
        <ele>914.013</ele>
        <time>2019-06-24T23:37:44Z</time>
      </trkpt>
      <trkpt lat="38.828383" lon="-2.938081">
        <ele>915.508</ele>
        <time>2019-06-24T23:38:04Z</time>
      </trkpt>
      <trkpt lat="38.828684" lon="-2.938553">
        <ele>916.774</ele>
        <time>2019-06-24T23:38:24Z</time>
      </trkpt>
      <trkpt lat="38.829428" lon="-2.940152">
        <ele>914.979</ele>
        <time>2019-06-24T23:38:44Z</time>
      </trkpt>
      <trkpt lat="38.829528" lon="-2.940710">
        <ele>916.641</ele>
        <time>2019-06-24T23:39:04Z</time>
      </trkpt>
      <trkpt lat="38.829537" lon="-2.941289">
        <ele>917.151</ele>
        <time>2019-06-24T23:39:24Z</time>
      </trkpt>
      <trkpt lat="38.829553" lon="-2.941493">
        <ele>917.251</ele>
        <time>2019-06-24T23:39:44Z</time>
      </trkpt>
      <trkpt lat="38.829762" lon="-2.942662">
        <ele>917.527</ele>
        <time>2019-06-24T23:40:04Z</time>
      </trkpt>
      <trkpt lat="38.829846" lon="-2.943177">
        <ele>918.886</ele>
        <time>2019-06-24T23:40:24Z</time>
      </trkpt>
      <trkpt lat="38.829871" lon="-2.943649">
        <ele>918.430</ele>
        <time>2019-06-24T23:40:44Z</time>
      </trkpt>
      <trkpt lat="38.829721" lon="-2.944336">
        <ele>912.649</ele>
        <time>2019-06-24T23:41:04Z</time>
      </trkpt>
      <trkpt lat="38.829545" lon="-2.944829">
        <ele>908.802</ele>
        <time>2019-06-24T23:41:24Z</time>
      </trkpt>
      <trkpt lat="38.829261" lon="-2.945302">
        <ele>907.522</ele>
        <time>2019-06-24T23:41:44Z</time>
      </trkpt>
      <trkpt lat="38.828993" lon="-2.945752">
        <ele>905.508</ele>
        <time>2019-06-24T23:42:04Z</time>
      </trkpt>
      <trkpt lat="38.829161" lon="-2.946450">
        <ele>899.647</ele>
        <time>2019-06-24T23:42:24Z</time>
      </trkpt>
      <trkpt lat="38.829395" lon="-2.946686">
        <ele>897.132</ele>
        <time>2019-06-24T23:42:44Z</time>
      </trkpt>
      <trkpt lat="38.829553" lon="-2.947018">
        <ele>896.134</ele>
        <time>2019-06-24T23:43:04Z</time>
      </trkpt>
      <trkpt lat="38.829670" lon="-2.947619">
        <ele>893.054</ele>
        <time>2019-06-24T23:43:24Z</time>
      </trkpt>
      <trkpt lat="38.829787" lon="-2.948166">
        <ele>889.574</ele>
        <time>2019-06-24T23:43:44Z</time>
      </trkpt>
      <trkpt lat="38.829879" lon="-2.948724">
        <ele>887.930</ele>
        <time>2019-06-24T23:44:04Z</time>
      </trkpt>
      <trkpt lat="38.829938" lon="-2.949357">
        <ele>889.939</ele>
        <time>2019-06-24T23:44:24Z</time>
      </trkpt>
      <trkpt lat="38.829955" lon="-2.949797">
        <ele>889.843</ele>
        <time>2019-06-24T23:44:44Z</time>
      </trkpt>
      <trkpt lat="38.829796" lon="-2.950097">
        <ele>888.561</ele>
        <time>2019-06-24T23:45:04Z</time>
      </trkpt>
      <trkpt lat="38.829746" lon="-2.950215">
        <ele>887.621</ele>
        <time>2019-06-24T23:45:24Z</time>
      </trkpt>
      <trkpt lat="38.829904" lon="-2.951009">
        <ele>886.613</ele>
        <time>2019-06-24T23:45:44Z</time>
      </trkpt>
      <trkpt lat="38.830022" lon="-2.952104">
        <ele>887.108</ele>
        <time>2019-06-24T23:46:04Z</time>
      </trkpt>
      <trkpt lat="38.830055" lon="-2.953477">
        <ele>886.089</ele>
        <time>2019-06-24T23:46:24Z</time>
      </trkpt>
      <trkpt lat="38.830113" lon="-2.954078">
        <ele>885.974</ele>
        <time>2019-06-24T23:46:44Z</time>
      </trkpt>
      <trkpt lat="38.830314" lon="-2.954839">
        <ele>881.746</ele>
        <time>2019-06-24T23:47:04Z</time>
      </trkpt>
      <trkpt lat="38.830673" lon="-2.955472">
        <ele>878.496</ele>
        <time>2019-06-24T23:47:24Z</time>
      </trkpt>
      <trkpt lat="38.830983" lon="-2.955848">
        <ele>876.446</ele>
        <time>2019-06-24T23:47:44Z</time>
      </trkpt>
      <trkpt lat="38.831367" lon="-2.956213">
        <ele>872.632</ele>
        <time>2019-06-24T23:48:04Z</time>
      </trkpt>
      <trkpt lat="38.832228" lon="-2.956706">
        <ele>869.561</ele>
        <time>2019-06-24T23:48:24Z</time>
      </trkpt>
      <trkpt lat="38.832437" lon="-2.957093">
        <ele>865.445</ele>
        <time>2019-06-24T23:48:44Z</time>
      </trkpt>
      <trkpt lat="38.832596" lon="-2.957886">
        <ele>862.552</ele>
        <time>2019-06-24T23:49:04Z</time>
      </trkpt>
      <trkpt lat="38.832888" lon="-2.958927">
        <ele>854.953</ele>
        <time>2019-06-24T23:49:24Z</time>
      </trkpt>
      <trkpt lat="38.833574" lon="-2.960622">
        <ele>840.408</ele>
        <time>2019-06-24T23:49:44Z</time>
      </trkpt>
      <trkpt lat="38.834042" lon="-2.961180">
        <ele>834.708</ele>
        <time>2019-06-24T23:50:04Z</time>
      </trkpt>
      <trkpt lat="38.835053" lon="-2.962114">
        <ele>831.838</ele>
        <time>2019-06-24T23:50:24Z</time>
      </trkpt>
      <trkpt lat="38.834635" lon="-2.962264">
        <ele>834.583</ele>
        <time>2019-06-24T23:50:44Z</time>
      </trkpt>
      <trkpt lat="38.834067" lon="-2.962478">
        <ele>836.365</ele>
        <time>2019-06-24T23:51:04Z</time>
      </trkpt>
      <trkpt lat="38.833699" lon="-2.962886">
        <ele>840.145</ele>
        <time>2019-06-24T23:51:24Z</time>
      </trkpt>
      <trkpt lat="38.832871" lon="-2.964002">
        <ele>842.285</ele>
        <time>2019-06-24T23:51:44Z</time>
      </trkpt>
      <trkpt lat="38.832470" lon="-2.964528">
        <ele>845.511</ele>
        <time>2019-06-24T23:52:04Z</time>
      </trkpt>
      <trkpt lat="38.832178" lon="-2.965171">
        <ele>849.840</ele>
        <time>2019-06-24T23:52:24Z</time>
      </trkpt>
      <trkpt lat="38.831927" lon="-2.965761">
        <ele>855.724</ele>
        <time>2019-06-24T23:52:44Z</time>
      </trkpt>
      <trkpt lat="38.831551" lon="-2.966115">
        <ele>857.889</ele>
        <time>2019-06-24T23:53:04Z</time>
      </trkpt>
      <trkpt lat="38.831066" lon="-2.966126">
        <ele>861.206</ele>
        <time>2019-06-24T23:53:24Z</time>
      </trkpt>
      <trkpt lat="38.830448" lon="-2.966341">
        <ele>864.226</ele>
        <time>2019-06-24T23:53:44Z</time>
      </trkpt>
      <trkpt lat="38.829662" lon="-2.966555">
        <ele>870.108</ele>
        <time>2019-06-24T23:54:04Z</time>
      </trkpt>
      <trkpt lat="38.828960" lon="-2.966770">
        <ele>875.321</ele>
        <time>2019-06-24T23:54:24Z</time>
      </trkpt>
      <trkpt lat="38.828258" lon="-2.967060">
        <ele>884.736</ele>
        <time>2019-06-24T23:54:44Z</time>
      </trkpt>
      <trkpt lat="38.827706" lon="-2.967285">
        <ele>889.078</ele>
        <time>2019-06-24T23:55:04Z</time>
      </trkpt>
      <trkpt lat="38.827146" lon="-2.967446">
        <ele>891.098</ele>
        <time>2019-06-24T23:55:24Z</time>
      </trkpt>
      <trkpt lat="38.826837" lon="-2.967499">
        <ele>894.278</ele>
        <time>2019-06-24T23:55:44Z</time>
      </trkpt>
      <trkpt lat="38.826561" lon="-2.967682">
        <ele>897.424</ele>
        <time>2019-06-24T23:56:04Z</time>
      </trkpt>
      <trkpt lat="38.826712" lon="-2.968562">
        <ele>898.023</ele>
        <time>2019-06-24T23:56:24Z</time>
      </trkpt>
      <trkpt lat="38.826845" lon="-2.969699">
        <ele>897.897</ele>
        <time>2019-06-24T23:56:44Z</time>
      </trkpt>
      <trkpt lat="38.826946" lon="-2.970364">
        <ele>899.648</ele>
        <time>2019-06-24T23:57:04Z</time>
      </trkpt>
      <trkpt lat="38.826662" lon="-2.971287">
        <ele>904.061</ele>
        <time>2019-06-24T23:57:24Z</time>
      </trkpt>
      <trkpt lat="38.826386" lon="-2.972177">
        <ele>901.717</ele>
        <time>2019-06-24T23:57:44Z</time>
      </trkpt>
      <trkpt lat="38.826152" lon="-2.972982">
        <ele>896.408</ele>
        <time>2019-06-24T23:58:04Z</time>
      </trkpt>
      <trkpt lat="38.825909" lon="-2.973583">
        <ele>892.757</ele>
        <time>2019-06-24T23:58:24Z</time>
      </trkpt>
      <trkpt lat="38.825909" lon="-2.974098">
        <ele>890.742</ele>
        <time>2019-06-24T23:58:44Z</time>
      </trkpt>
      <trkpt lat="38.826202" lon="-2.974806">
        <ele>893.484</ele>
        <time>2019-06-24T23:59:04Z</time>
      </trkpt>
      <trkpt lat="38.826461" lon="-2.975525">
        <ele>895.364</ele>
        <time>2019-06-24T23:59:24Z</time>
      </trkpt>
      <trkpt lat="38.826979" lon="-2.976383">
        <ele>905.084</ele>
        <time>2019-06-24T23:59:44Z</time>
      </trkpt>
      <trkpt lat="38.827238" lon="-2.976995">
        <ele>910.530</ele>
        <time>2019-06-25T00:00:04Z</time>
      </trkpt>
      <trkpt lat="38.827355" lon="-2.977531">
        <ele>915.179</ele>
        <time>2019-06-25T00:00:24Z</time>
      </trkpt>
      <trkpt lat="38.827581" lon="-2.977295">
        <ele>914.043</ele>
        <time>2019-06-25T00:00:44Z</time>
      </trkpt>
      <trkpt lat="38.828174" lon="-2.978153">
        <ele>920.263</ele>
        <time>2019-06-25T00:01:04Z</time>
      </trkpt>
      <trkpt lat="38.829085" lon="-2.979816">
        <ele>918.244</ele>
        <time>2019-06-25T00:01:24Z</time>
      </trkpt>
      <trkpt lat="38.830080" lon="-2.981479">
        <ele>919.018</ele>
        <time>2019-06-25T00:01:44Z</time>
      </trkpt>
      <trkpt lat="38.830807" lon="-2.982852">
        <ele>915.608</ele>
        <time>2019-06-25T00:02:04Z</time>
      </trkpt>
      <trkpt lat="38.831050" lon="-2.983335">
        <ele>913.279</ele>
        <time>2019-06-25T00:02:24Z</time>
      </trkpt>
      <trkpt lat="38.831710" lon="-2.984247">
        <ele>910.744</ele>
        <time>2019-06-25T00:02:44Z</time>
      </trkpt>
      <trkpt lat="38.831944" lon="-2.984558">
        <ele>909.636</ele>
        <time>2019-06-25T00:03:04Z</time>
      </trkpt>
      <trkpt lat="38.831935" lon="-2.985030">
        <ele>908.846</ele>
        <time>2019-06-25T00:03:24Z</time>
      </trkpt>
      <trkpt lat="38.831752" lon="-2.985384">
        <ele>907.326</ele>
        <time>2019-06-25T00:03:44Z</time>
      </trkpt>
      <trkpt lat="38.832412" lon="-2.985116">
        <ele>906.992</ele>
        <time>2019-06-25T00:04:04Z</time>
      </trkpt>
      <trkpt lat="38.832871" lon="-2.985535">
        <ele>904.411</ele>
        <time>2019-06-25T00:04:24Z</time>
      </trkpt>
      <trkpt lat="38.833281" lon="-2.986007">
        <ele>901.965</ele>
        <time>2019-06-25T00:04:44Z</time>
      </trkpt>
      <trkpt lat="38.833473" lon="-2.986307">
        <ele>898.919</ele>
        <time>2019-06-25T00:05:04Z</time>
      </trkpt>
      <trkpt lat="38.833749" lon="-2.986618">
        <ele>894.309</ele>
        <time>2019-06-25T00:05:24Z</time>
      </trkpt>
      <trkpt lat="38.833925" lon="-2.987133">
        <ele>885.019</ele>
        <time>2019-06-25T00:05:44Z</time>
      </trkpt>
      <trkpt lat="38.834033" lon="-2.987970">
        <ele>876.108</ele>
        <time>2019-06-25T00:06:04Z</time>
      </trkpt>
      <trkpt lat="38.834133" lon="-2.988399">
        <ele>873.774</ele>
        <time>2019-06-25T00:06:24Z</time>
      </trkpt>
      <trkpt lat="38.834142" lon="-2.988603">
        <ele>872.749</ele>
        <time>2019-06-25T00:06:44Z</time>
      </trkpt>
      <trkpt lat="38.834067" lon="-2.989097">
        <ele>865.651</ele>
        <time>2019-06-25T00:07:04Z</time>
      </trkpt>
      <trkpt lat="38.833950" lon="-2.989622">
        <ele>859.981</ele>
        <time>2019-06-25T00:07:24Z</time>
      </trkpt>
      <trkpt lat="38.834050" lon="-2.989880">
        <ele>855.531</ele>
        <time>2019-06-25T00:07:44Z</time>
      </trkpt>
      <trkpt lat="38.834484" lon="-2.990545">
        <ele>837.997</ele>
        <time>2019-06-25T00:08:04Z</time>
      </trkpt>
      <trkpt lat="38.834668" lon="-2.991081">
        <ele>832.396</ele>
        <time>2019-06-25T00:08:24Z</time>
      </trkpt>
      <trkpt lat="38.835011" lon="-2.991768">
        <ele>823.510</ele>
        <time>2019-06-25T00:08:44Z</time>
      </trkpt>
      <trkpt lat="38.835270" lon="-2.992069">
        <ele>818.232</ele>
        <time>2019-06-25T00:09:04Z</time>
      </trkpt>
      <trkpt lat="38.835404" lon="-2.992862">
        <ele>814.292</ele>
        <time>2019-06-25T00:09:24Z</time>
      </trkpt>
      <trkpt lat="38.835479" lon="-2.993420">
        <ele>814.611</ele>
        <time>2019-06-25T00:09:44Z</time>
      </trkpt>
      <trkpt lat="38.835529" lon="-2.994000">
        <ele>817.808</ele>
        <time>2019-06-25T00:10:04Z</time>
      </trkpt>
      <trkpt lat="38.836674" lon="-2.993635">
        <ele>813.086</ele>
        <time>2019-06-25T00:10:24Z</time>
      </trkpt>
      <trkpt lat="38.837694" lon="-2.993324">
        <ele>811.061</ele>
        <time>2019-06-25T00:10:44Z</time>
      </trkpt>
      <trkpt lat="38.838747" lon="-2.992970">
        <ele>810.273</ele>
        <time>2019-06-25T00:11:04Z</time>
      </trkpt>
      <trkpt lat="38.839532" lon="-2.992691">
        <ele>810.873</ele>
        <time>2019-06-25T00:11:24Z</time>
      </trkpt>
      <trkpt lat="38.839891" lon="-2.992401">
        <ele>810.863</ele>
        <time>2019-06-25T00:11:44Z</time>
      </trkpt>
      <trkpt lat="38.840301" lon="-2.992144">
        <ele>813.799</ele>
        <time>2019-06-25T00:12:04Z</time>
      </trkpt>
      <trkpt lat="38.840410" lon="-2.992337">
        <ele>813.538</ele>
        <time>2019-06-25T00:12:24Z</time>
      </trkpt>
      <trkpt lat="38.840844" lon="-2.992959">
        <ele>812.882</ele>
        <time>2019-06-25T00:12:44Z</time>
      </trkpt>
      <trkpt lat="38.841346" lon="-2.993603">
        <ele>813.788</ele>
        <time>2019-06-25T00:13:04Z</time>
      </trkpt>
      <trkpt lat="38.842215" lon="-2.994729">
        <ele>814.824</ele>
        <time>2019-06-25T00:13:24Z</time>
      </trkpt>
      <trkpt lat="38.842398" lon="-2.995008">
        <ele>817.126</ele>
        <time>2019-06-25T00:13:44Z</time>
      </trkpt>
      <trkpt lat="38.842582" lon="-2.995588">
        <ele>814.808</ele>
        <time>2019-06-25T00:14:04Z</time>
      </trkpt>
      <trkpt lat="38.842850" lon="-2.995995">
        <ele>814.221</ele>
        <time>2019-06-25T00:14:24Z</time>
      </trkpt>
      <trkpt lat="38.843284" lon="-2.996510">
        <ele>815.616</ele>
        <time>2019-06-25T00:14:44Z</time>
      </trkpt>
      <trkpt lat="38.844011" lon="-2.997873">
        <ele>815.738</ele>
        <time>2019-06-25T00:15:04Z</time>
      </trkpt>
      <trkpt lat="38.844429" lon="-2.998817">
        <ele>812.628</ele>
        <time>2019-06-25T00:15:24Z</time>
      </trkpt>
      <trkpt lat="38.844696" lon="-2.999214">
        <ele>810.548</ele>
        <time>2019-06-25T00:15:44Z</time>
      </trkpt>
      <trkpt lat="38.845348" lon="-2.999718">
        <ele>812.834</ele>
        <time>2019-06-25T00:16:04Z</time>
      </trkpt>
      <trkpt lat="38.845933" lon="-3.000212">
        <ele>811.373</ele>
        <time>2019-06-25T00:16:24Z</time>
      </trkpt>
      <trkpt lat="38.846150" lon="-3.000963">
        <ele>810.157</ele>
        <time>2019-06-25T00:16:44Z</time>
      </trkpt>
      <trkpt lat="38.846376" lon="-3.001703">
        <ele>808.675</ele>
        <time>2019-06-25T00:17:04Z</time>
      </trkpt>
      <trkpt lat="38.846526" lon="-3.002154">
        <ele>807.728</ele>
        <time>2019-06-25T00:17:24Z</time>
      </trkpt>
      <trkpt lat="38.846560" lon="-3.002454">
        <ele>807.820</ele>
        <time>2019-06-25T00:17:44Z</time>
      </trkpt>
      <trkpt lat="38.846535" lon="-3.003280">
        <ele>810.908</ele>
        <time>2019-06-25T00:18:04Z</time>
      </trkpt>
      <trkpt lat="38.846618" lon="-3.003516">
        <ele>811.660</ele>
        <time>2019-06-25T00:18:24Z</time>
      </trkpt>
      <trkpt lat="38.846877" lon="-3.003838">
        <ele>812.115</ele>
        <time>2019-06-25T00:18:44Z</time>
      </trkpt>
      <trkpt lat="38.847095" lon="-3.004289">
        <ele>811.987</ele>
        <time>2019-06-25T00:19:04Z</time>
      </trkpt>
      <trkpt lat="38.847345" lon="-3.005040">
        <ele>813.557</ele>
        <time>2019-06-25T00:19:24Z</time>
      </trkpt>
      <trkpt lat="38.847613" lon="-3.005759">
        <ele>811.887</ele>
        <time>2019-06-25T00:19:44Z</time>
      </trkpt>
      <trkpt lat="38.847705" lon="-3.006113">
        <ele>812.783</ele>
        <time>2019-06-25T00:20:04Z</time>
      </trkpt>
      <trkpt lat="38.847997" lon="-3.006370">
        <ele>813.672</ele>
        <time>2019-06-25T00:20:24Z</time>
      </trkpt>
      <trkpt lat="38.848356" lon="-3.006606">
        <ele>816.176</ele>
        <time>2019-06-25T00:20:44Z</time>
      </trkpt>
      <trkpt lat="38.848665" lon="-3.006949">
        <ele>818.238</ele>
        <time>2019-06-25T00:21:04Z</time>
      </trkpt>
      <trkpt lat="38.848883" lon="-3.007250">
        <ele>820.170</ele>
        <time>2019-06-25T00:21:24Z</time>
      </trkpt>
      <trkpt lat="38.849275" lon="-3.008344">
        <ele>828.817</ele>
        <time>2019-06-25T00:21:44Z</time>
      </trkpt>
      <trkpt lat="38.849718" lon="-3.009202">
        <ele>832.908</ele>
        <time>2019-06-25T00:22:04Z</time>
      </trkpt>
      <trkpt lat="38.849944" lon="-3.009492">
        <ele>837.716</ele>
        <time>2019-06-25T00:22:24Z</time>
      </trkpt>
      <trkpt lat="38.850420" lon="-3.010393">
        <ele>840.741</ele>
        <time>2019-06-25T00:22:44Z</time>
      </trkpt>
      <trkpt lat="38.850637" lon="-3.010672">
        <ele>841.053</ele>
        <time>2019-06-25T00:23:04Z</time>
      </trkpt>
      <trkpt lat="38.851540" lon="-3.011080">
        <ele>844.873</ele>
        <time>2019-06-25T00:23:24Z</time>
      </trkpt>
      <trkpt lat="38.851932" lon="-3.011166">
        <ele>847.533</ele>
        <time>2019-06-25T00:23:44Z</time>
      </trkpt>
      <trkpt lat="38.852768" lon="-3.011101">
        <ele>851.119</ele>
        <time>2019-06-25T00:24:04Z</time>
      </trkpt>
      <trkpt lat="38.854030" lon="-3.011338">
        <ele>854.248</ele>
        <time>2019-06-25T00:24:24Z</time>
      </trkpt>
      <trkpt lat="38.854656" lon="-3.011262">
        <ele>856.612</ele>
        <time>2019-06-25T00:24:44Z</time>
      </trkpt>
      <trkpt lat="38.855132" lon="-3.010983">
        <ele>857.045</ele>
        <time>2019-06-25T00:25:04Z</time>
      </trkpt>
      <trkpt lat="38.857296" lon="-3.010705">
        <ele>863.347</ele>
        <time>2019-06-25T00:25:24Z</time>
      </trkpt>
      <trkpt lat="38.858174" lon="-3.010597">
        <ele>865.911</ele>
        <time>2019-06-25T00:25:44Z</time>
      </trkpt>
      <trkpt lat="38.858825" lon="-3.010565">
        <ele>871.208</ele>
        <time>2019-06-25T00:26:04Z</time>
      </trkpt>
      <trkpt lat="38.859435" lon="-3.010715">
        <ele>874.157</ele>
        <time>2019-06-25T00:26:24Z</time>
      </trkpt>
      <trkpt lat="38.859636" lon="-3.010887">
        <ele>876.312</ele>
        <time>2019-06-25T00:26:44Z</time>
      </trkpt>
      <trkpt lat="38.859878" lon="-3.011262">
        <ele>881.264</ele>
        <time>2019-06-25T00:27:04Z</time>
      </trkpt>
      <trkpt lat="38.860045" lon="-3.011659">
        <ele>885.164</ele>
        <time>2019-06-25T00:27:24Z</time>
      </trkpt>
      <trkpt lat="38.860304" lon="-3.011949">
        <ele>885.244</ele>
        <time>2019-06-25T00:27:44Z</time>
      </trkpt>
      <trkpt lat="38.860396" lon="-3.012121">
        <ele>886.210</ele>
        <time>2019-06-25T00:28:04Z</time>
      </trkpt>
      <trkpt lat="38.860479" lon="-3.012378">
        <ele>886.999</ele>
        <time>2019-06-25T00:28:24Z</time>
      </trkpt>
      <trkpt lat="38.860839" lon="-3.012743">
        <ele>889.143</ele>
        <time>2019-06-25T00:28:44Z</time>
      </trkpt>
      <trkpt lat="38.861039" lon="-3.012990">
        <ele>891.416</ele>
        <time>2019-06-25T00:29:04Z</time>
      </trkpt>
      <trkpt lat="38.861156" lon="-3.013269">
        <ele>892.076</ele>
        <time>2019-06-25T00:29:24Z</time>
      </trkpt>
      <trkpt lat="38.861273" lon="-3.013494">
        <ele>890.613</ele>
        <time>2019-06-25T00:29:44Z</time>
      </trkpt>
      <trkpt lat="38.861490" lon="-3.013709">
        <ele>888.908</ele>
        <time>2019-06-25T00:30:04Z</time>
      </trkpt>
      <trkpt lat="38.862075" lon="-3.013752">
        <ele>888.044</ele>
        <time>2019-06-25T00:30:24Z</time>
      </trkpt>
      <trkpt lat="38.862902" lon="-3.014191">
        <ele>885.919</ele>
        <time>2019-06-25T00:30:44Z</time>
      </trkpt>
      <trkpt lat="38.863537" lon="-3.014674">
        <ele>884.761</ele>
        <time>2019-06-25T00:31:04Z</time>
      </trkpt>
      <trkpt lat="38.864072" lon="-3.015329">
        <ele>885.731</ele>
        <time>2019-06-25T00:31:24Z</time>
      </trkpt>
      <trkpt lat="38.864456" lon="-3.015876">
        <ele>886.041</ele>
        <time>2019-06-25T00:31:44Z</time>
      </trkpt>
      <trkpt lat="38.865149" lon="-3.016970">
        <ele>883.017</ele>
        <time>2019-06-25T00:32:04Z</time>
      </trkpt>
      <trkpt lat="38.865350" lon="-3.017206">
        <ele>882.796</ele>
        <time>2019-06-25T00:32:24Z</time>
      </trkpt>
      <trkpt lat="38.865676" lon="-3.017292">
        <ele>880.750</ele>
        <time>2019-06-25T00:32:44Z</time>
      </trkpt>
      <trkpt lat="38.866035" lon="-3.017260">
        <ele>876.958</ele>
        <time>2019-06-25T00:33:04Z</time>
      </trkpt>
      <trkpt lat="38.866377" lon="-3.017185">
        <ele>874.252</ele>
        <time>2019-06-25T00:33:24Z</time>
      </trkpt>
      <trkpt lat="38.866728" lon="-3.017260">
        <ele>872.217</ele>
        <time>2019-06-25T00:33:44Z</time>
      </trkpt>
      <trkpt lat="38.867221" lon="-3.017249">
        <ele>867.108</ele>
        <time>2019-06-25T00:34:04Z</time>
      </trkpt>
      <trkpt lat="38.868340" lon="-3.016777">
        <ele>863.428</ele>
        <time>2019-06-25T00:34:24Z</time>
      </trkpt>
      <trkpt lat="38.868733" lon="-3.016852">
        <ele>861.913</ele>
        <time>2019-06-25T00:34:44Z</time>
      </trkpt>
      <trkpt lat="38.869418" lon="-3.017346">
        <ele>859.125</ele>
        <time>2019-06-25T00:35:04Z</time>
      </trkpt>
      <trkpt lat="38.870186" lon="-3.017989">
        <ele>856.715</ele>
        <time>2019-06-25T00:35:24Z</time>
      </trkpt>
      <trkpt lat="38.870855" lon="-3.018301">
        <ele>849.925</ele>
        <time>2019-06-25T00:35:44Z</time>
      </trkpt>
      <trkpt lat="38.871523" lon="-3.018708">
        <ele>846.851</ele>
        <time>2019-06-25T00:36:04Z</time>
      </trkpt>
      <trkpt lat="38.871966" lon="-3.019288">
        <ele>849.320</ele>
        <time>2019-06-25T00:36:24Z</time>
      </trkpt>
      <trkpt lat="38.872575" lon="-3.019545">
        <ele>854.974</ele>
        <time>2019-06-25T00:36:44Z</time>
      </trkpt>
      <trkpt lat="38.872901" lon="-3.019931">
        <ele>853.469</ele>
        <time>2019-06-25T00:37:04Z</time>
      </trkpt>
      <trkpt lat="38.873110" lon="-3.020296">
        <ele>853.304</ele>
        <time>2019-06-25T00:37:24Z</time>
      </trkpt>
      <trkpt lat="38.873219" lon="-3.020650">
        <ele>852.624</ele>
        <time>2019-06-25T00:37:44Z</time>
      </trkpt>
      <trkpt lat="38.873469" lon="-3.020843">
        <ele>852.008</ele>
        <time>2019-06-25T00:38:04Z</time>
      </trkpt>
      <trkpt lat="38.873962" lon="-3.020757">
        <ele>853.799</ele>
        <time>2019-06-25T00:38:24Z</time>
      </trkpt>
      <trkpt lat="38.874547" lon="-3.020639">
        <ele>854.854</ele>
        <time>2019-06-25T00:38:44Z</time>
      </trkpt>
      <trkpt lat="38.875591" lon="-3.020371">
        <ele>860.516</ele>
        <time>2019-06-25T00:39:04Z</time>
      </trkpt>
      <trkpt lat="38.876167" lon="-3.020296">
        <ele>860.926</ele>
        <time>2019-06-25T00:39:24Z</time>
      </trkpt>
      <trkpt lat="38.876301" lon="-3.020478">
        <ele>862.396</ele>
        <time>2019-06-25T00:39:44Z</time>
      </trkpt>
      <trkpt lat="38.876752" lon="-3.020747">
        <ele>862.582</ele>
        <time>2019-06-25T00:40:04Z</time>
      </trkpt>
      <trkpt lat="38.878547" lon="-3.021369">
        <ele>867.731</ele>
        <time>2019-06-25T00:40:24Z</time>
      </trkpt>
      <trkpt lat="38.879199" lon="-3.021680">
        <ele>868.075</ele>
        <time>2019-06-25T00:40:44Z</time>
      </trkpt>
      <trkpt lat="38.879591" lon="-3.021981">
        <ele>869.995</ele>
        <time>2019-06-25T00:41:04Z</time>
      </trkpt>
      <trkpt lat="38.879942" lon="-3.022453">
        <ele>872.449</ele>
        <time>2019-06-25T00:41:24Z</time>
      </trkpt>
      <trkpt lat="38.880276" lon="-3.023053">
        <ele>875.023</ele>
        <time>2019-06-25T00:41:44Z</time>
      </trkpt>
      <trkpt lat="38.880435" lon="-3.023386">
        <ele>878.808</ele>
        <time>2019-06-25T00:42:04Z</time>
      </trkpt>
      <trkpt lat="38.880644" lon="-3.023965">
        <ele>882.172</ele>
        <time>2019-06-25T00:42:24Z</time>
      </trkpt>
      <trkpt lat="38.880911" lon="-3.024513">
        <ele>885.177</ele>
        <time>2019-06-25T00:42:44Z</time>
      </trkpt>
      <trkpt lat="38.881287" lon="-3.024867">
        <ele>889.049</ele>
        <time>2019-06-25T00:43:04Z</time>
      </trkpt>
      <trkpt lat="38.881763" lon="-3.025146">
        <ele>891.339</ele>
        <time>2019-06-25T00:43:24Z</time>
      </trkpt>
      <trkpt lat="38.882147" lon="-3.025564">
        <ele>892.749</ele>
        <time>2019-06-25T00:43:44Z</time>
      </trkpt>
      <trkpt lat="38.882448" lon="-3.025929">
        <ele>892.065</ele>
        <time>2019-06-25T00:44:04Z</time>
      </trkpt>
      <trkpt lat="38.882832" lon="-3.026712">
        <ele>889.854</ele>
        <time>2019-06-25T00:44:24Z</time>
      </trkpt>
      <trkpt lat="38.884135" lon="-3.025424">
        <ele>889.428</ele>
        <time>2019-06-25T00:44:44Z</time>
      </trkpt>
      <trkpt lat="38.885095" lon="-3.025060">
        <ele>891.045</ele>
        <time>2019-06-25T00:45:04Z</time>
      </trkpt>
      <trkpt lat="38.885972" lon="-3.024673">
        <ele>891.447</ele>
        <time>2019-06-25T00:45:24Z</time>
      </trkpt>
      <trkpt lat="38.887676" lon="-3.024201">
        <ele>891.011</ele>
        <time>2019-06-25T00:45:44Z</time>
      </trkpt>
      <trkpt lat="38.888244" lon="-3.024073">
        <ele>891.308</ele>
        <time>2019-06-25T00:46:04Z</time>
      </trkpt>
      <trkpt lat="38.889070" lon="-3.024255">
        <ele>889.747</ele>
        <time>2019-06-25T00:46:24Z</time>
      </trkpt>
      <trkpt lat="38.889764" lon="-3.024448">
        <ele>888.962</ele>
        <time>2019-06-25T00:46:44Z</time>
      </trkpt>
      <trkpt lat="38.890290" lon="-3.024491">
        <ele>886.014</ele>
        <time>2019-06-25T00:47:04Z</time>
      </trkpt>
      <trkpt lat="38.890715" lon="-3.024759">
        <ele>883.434</ele>
        <time>2019-06-25T00:47:24Z</time>
      </trkpt>
      <trkpt lat="38.891125" lon="-3.025017">
        <ele>879.974</ele>
        <time>2019-06-25T00:47:44Z</time>
      </trkpt>
      <trkpt lat="38.891033" lon="-3.024598">
        <ele>881.660</ele>
        <time>2019-06-25T00:48:04Z</time>
      </trkpt>
      <trkpt lat="38.891384" lon="-3.024244">
        <ele>882.749</ele>
        <time>2019-06-25T00:48:24Z</time>
      </trkpt>
      <trkpt lat="38.891526" lon="-3.024663">
        <ele>882.133</ele>
        <time>2019-06-25T00:48:44Z</time>
      </trkpt>
      <trkpt lat="38.891693" lon="-3.024856">
        <ele>882.673</ele>
        <time>2019-06-25T00:49:04Z</time>
      </trkpt>
      <trkpt lat="38.892185" lon="-3.024824">
        <ele>884.285</ele>
        <time>2019-06-25T00:49:24Z</time>
      </trkpt>
      <trkpt lat="38.893004" lon="-3.024319">
        <ele>884.113</ele>
        <time>2019-06-25T00:49:44Z</time>
      </trkpt>
      <trkpt lat="38.893738" lon="-3.023847">
        <ele>885.608</ele>
        <time>2019-06-25T00:50:04Z</time>
      </trkpt>
      <trkpt lat="38.894682" lon="-3.023944">
        <ele>880.890</ele>
        <time>2019-06-25T00:50:24Z</time>
      </trkpt>
      <trkpt lat="38.895133" lon="-3.023944">
        <ele>880.365</ele>
        <time>2019-06-25T00:50:44Z</time>
      </trkpt>
      <trkpt lat="38.895985" lon="-3.024191">
        <ele>877.797</ele>
        <time>2019-06-25T00:51:04Z</time>
      </trkpt>
      <trkpt lat="38.896427" lon="-3.024030">
        <ele>880.967</ele>
        <time>2019-06-25T00:51:24Z</time>
      </trkpt>
      <trkpt lat="38.896878" lon="-3.024309">
        <ele>877.547</ele>
        <time>2019-06-25T00:51:44Z</time>
      </trkpt>
      <trkpt lat="38.897212" lon="-3.024319">
        <ele>870.293</ele>
        <time>2019-06-25T00:52:04Z</time>
      </trkpt>
      <trkpt lat="38.897421" lon="-3.024148">
        <ele>866.092</ele>
        <time>2019-06-25T00:52:24Z</time>
      </trkpt>
      <trkpt lat="38.897855" lon="-3.024212">
        <ele>855.186</ele>
        <time>2019-06-25T00:52:44Z</time>
      </trkpt>
      <trkpt lat="38.898131" lon="-3.024094">
        <ele>848.834</ele>
        <time>2019-06-25T00:53:04Z</time>
      </trkpt>
      <trkpt lat="38.898765" lon="-3.024094">
        <ele>836.755</ele>
        <time>2019-06-25T00:53:24Z</time>
      </trkpt>
      <trkpt lat="38.899107" lon="-3.023525">
        <ele>826.610</ele>
        <time>2019-06-25T00:53:44Z</time>
      </trkpt>
      <trkpt lat="38.899575" lon="-3.022871">
        <ele>816.108</ele>
        <time>2019-06-25T00:54:04Z</time>
      </trkpt>
      <trkpt lat="38.899801" lon="-3.022635">
        <ele>812.326</ele>
        <time>2019-06-25T00:54:24Z</time>
      </trkpt>
      <trkpt lat="38.899959" lon="-3.022506">
        <ele>810.351</ele>
        <time>2019-06-25T00:54:44Z</time>
      </trkpt>
      <trkpt lat="38.899700" lon="-3.022238">
        <ele>811.393</ele>
        <time>2019-06-25T00:55:04Z</time>
      </trkpt>
      <trkpt lat="38.899867" lon="-3.021734">
        <ele>806.873</ele>
        <time>2019-06-25T00:55:24Z</time>
      </trkpt>
      <trkpt lat="38.900059" lon="-3.021433">
        <ele>805.143</ele>
        <time>2019-06-25T00:55:44Z</time>
      </trkpt>
      <trkpt lat="38.900135" lon="-3.021305">
        <ele>805.589</ele>
        <time>2019-06-25T00:56:04Z</time>
      </trkpt>
      <trkpt lat="38.900243" lon="-3.020972">
        <ele>807.678</ele>
        <time>2019-06-25T00:56:24Z</time>
      </trkpt>
      <trkpt lat="38.900360" lon="-3.020800">
        <ele>809.162</ele>
        <time>2019-06-25T00:56:44Z</time>
      </trkpt>
      <trkpt lat="38.900694" lon="-3.020618">
        <ele>809.299</ele>
        <time>2019-06-25T00:57:04Z</time>
      </trkpt>
      <trkpt lat="38.900911" lon="-3.020296">
        <ele>809.707</ele>
        <time>2019-06-25T00:57:24Z</time>
      </trkpt>
      <trkpt lat="38.901045" lon="-3.019824">
        <ele>810.927</ele>
        <time>2019-06-25T00:57:44Z</time>
      </trkpt>
      <trkpt lat="38.901120" lon="-3.019427">
        <ele>808.908</ele>
        <time>2019-06-25T00:58:04Z</time>
      </trkpt>
      <trkpt lat="38.901128" lon="-3.019212">
        <ele>808.062</ele>
        <time>2019-06-25T00:58:24Z</time>
      </trkpt>
      <trkpt lat="38.901362" lon="-3.018987">
        <ele>806.217</ele>
        <time>2019-06-25T00:58:44Z</time>
      </trkpt>
      <trkpt lat="38.901454" lon="-3.018526">
        <ele>805.599</ele>
        <time>2019-06-25T00:59:04Z</time>
      </trkpt>
      <trkpt lat="38.901629" lon="-3.018064">
        <ele>806.799</ele>
        <time>2019-06-25T00:59:24Z</time>
      </trkpt>
      <trkpt lat="38.901955" lon="-3.017893">
        <ele>812.529</ele>
        <time>2019-06-25T00:59:44Z</time>
      </trkpt>
      <trkpt lat="38.902606" lon="-3.018193">
        <ele>819.575</ele>
        <time>2019-06-25T01:00:04Z</time>
      </trkpt>
      <trkpt lat="38.902765" lon="-3.018537">
        <ele>818.444</ele>
        <time>2019-06-25T01:00:24Z</time>
      </trkpt>
      <trkpt lat="38.902664" lon="-3.018816">
        <ele>816.458</ele>
        <time>2019-06-25T01:00:44Z</time>
      </trkpt>
      <trkpt lat="38.902723" lon="-3.019320">
        <ele>814.748</ele>
        <time>2019-06-25T01:01:04Z</time>
      </trkpt>
      <trkpt lat="38.902881" lon="-3.019663">
        <ele>812.961</ele>
        <time>2019-06-25T01:01:24Z</time>
      </trkpt>
      <trkpt lat="38.903357" lon="-3.019770">
        <ele>812.817</ele>
        <time>2019-06-25T01:01:44Z</time>
      </trkpt>
      <trkpt lat="38.903933" lon="-3.019556">
        <ele>815.708</ele>
        <time>2019-06-25T01:02:04Z</time>
      </trkpt>
      <trkpt lat="38.904401" lon="-3.019202">
        <ele>818.277</ele>
        <time>2019-06-25T01:02:24Z</time>
      </trkpt>
      <trkpt lat="38.904827" lon="-3.018590">
        <ele>821.832</ele>
        <time>2019-06-25T01:02:44Z</time>
      </trkpt>
      <trkpt lat="38.905820" lon="-3.017539">
        <ele>823.924</ele>
        <time>2019-06-25T01:03:04Z</time>
      </trkpt>
      <trkpt lat="38.906021" lon="-3.017346">
        <ele>826.564</ele>
        <time>2019-06-25T01:03:24Z</time>
      </trkpt>
      <trkpt lat="38.906413" lon="-3.017399">
        <ele>826.724</ele>
        <time>2019-06-25T01:03:44Z</time>
      </trkpt>
      <trkpt lat="38.906597" lon="-3.017539">
        <ele>828.860</ele>
        <time>2019-06-25T01:04:04Z</time>
      </trkpt>
      <trkpt lat="38.906697" lon="-3.017936">
        <ele>828.329</ele>
        <time>2019-06-25T01:04:24Z</time>
      </trkpt>
      <trkpt lat="38.906839" lon="-3.018987">
        <ele>828.373</ele>
        <time>2019-06-25T01:04:44Z</time>
      </trkpt>
      <trkpt lat="38.906772" lon="-3.019234">
        <ele>827.469</ele>
        <time>2019-06-25T01:05:04Z</time>
      </trkpt>
      <trkpt lat="38.907114" lon="-3.021423">
        <ele>825.004</ele>
        <time>2019-06-25T01:05:24Z</time>
      </trkpt>
      <trkpt lat="38.908150" lon="-3.020897">
        <ele>829.624</ele>
        <time>2019-06-25T01:05:44Z</time>
      </trkpt>
      <trkpt lat="38.908918" lon="-3.020339">
        <ele>832.208</ele>
        <time>2019-06-25T01:06:04Z</time>
      </trkpt>
      <trkpt lat="38.909485" lon="-3.019824">
        <ele>832.879</ele>
        <time>2019-06-25T01:06:24Z</time>
      </trkpt>
      <trkpt lat="38.909669" lon="-3.019331">
        <ele>834.624</ele>
        <time>2019-06-25T01:06:44Z</time>
      </trkpt>
      <trkpt lat="38.910153" lon="-3.018451">
        <ele>836.266</ele>
        <time>2019-06-25T01:07:04Z</time>
      </trkpt>
      <trkpt lat="38.910220" lon="-3.018022">
        <ele>835.926</ele>
        <time>2019-06-25T01:07:24Z</time>
      </trkpt>
      <trkpt lat="38.910938" lon="-3.017035">
        <ele>843.256</ele>
        <time>2019-06-25T01:07:44Z</time>
      </trkpt>
      <trkpt lat="38.911322" lon="-3.016455">
        <ele>846.982</ele>
        <time>2019-06-25T01:08:04Z</time>
      </trkpt>
      <trkpt lat="38.911756" lon="-3.016090">
        <ele>849.721</ele>
        <time>2019-06-25T01:08:24Z</time>
      </trkpt>
      <trkpt lat="38.912741" lon="-3.015790">
        <ele>855.085</ele>
        <time>2019-06-25T01:08:44Z</time>
      </trkpt>
      <trkpt lat="38.913292" lon="-3.015339">
        <ele>857.093</ele>
        <time>2019-06-25T01:09:04Z</time>
      </trkpt>
      <trkpt lat="38.914027" lon="-3.015018">
        <ele>863.665</ele>
        <time>2019-06-25T01:09:24Z</time>
      </trkpt>
      <trkpt lat="38.915346" lon="-3.014975">
        <ele>869.021</ele>
        <time>2019-06-25T01:09:44Z</time>
      </trkpt>
      <trkpt lat="38.917049" lon="-3.014288">
        <ele>878.908</ele>
        <time>2019-06-25T01:10:04Z</time>
      </trkpt>
      <trkpt lat="38.917917" lon="-3.013880">
        <ele>883.042</ele>
        <time>2019-06-25T01:10:24Z</time>
      </trkpt>
      <trkpt lat="38.918334" lon="-3.013279">
        <ele>889.657</ele>
        <time>2019-06-25T01:10:44Z</time>
      </trkpt>
      <trkpt lat="38.918351" lon="-3.012711">
        <ele>894.989</ele>
        <time>2019-06-25T01:11:04Z</time>
      </trkpt>
      <trkpt lat="38.918092" lon="-3.012410">
        <ele>898.319</ele>
        <time>2019-06-25T01:11:24Z</time>
      </trkpt>
      <trkpt lat="38.918051" lon="-3.012153">
        <ele>901.259</ele>
        <time>2019-06-25T01:11:44Z</time>
      </trkpt>
      <trkpt lat="38.918192" lon="-3.012024">
        <ele>901.635</ele>
        <time>2019-06-25T01:12:04Z</time>
      </trkpt>
      <trkpt lat="38.918585" lon="-3.011842">
        <ele>903.384</ele>
        <time>2019-06-25T01:12:24Z</time>
      </trkpt>
      <trkpt lat="38.918994" lon="-3.011541">
        <ele>902.528</ele>
        <time>2019-06-25T01:12:44Z</time>
      </trkpt>
      <trkpt lat="38.919428" lon="-3.011402">
        <ele>901.044</ele>
        <time>2019-06-25T01:13:04Z</time>
      </trkpt>
      <trkpt lat="38.919954" lon="-3.010737">
        <ele>900.505</ele>
        <time>2019-06-25T01:13:24Z</time>
      </trkpt>
      <trkpt lat="38.919954" lon="-3.010447">
        <ele>901.215</ele>
        <time>2019-06-25T01:13:44Z</time>
      </trkpt>
      <trkpt lat="38.920213" lon="-3.010190">
        <ele>900.108</ele>
        <time>2019-06-25T01:14:04Z</time>
      </trkpt>
      <trkpt lat="38.920405" lon="-3.009953">
        <ele>897.967</ele>
        <time>2019-06-25T01:14:24Z</time>
      </trkpt>
      <trkpt lat="38.920680" lon="-3.009685">
        <ele>895.592</ele>
        <time>2019-06-25T01:14:44Z</time>
      </trkpt>
      <trkpt lat="38.920864" lon="-3.009224">
        <ele>894.014</ele>
        <time>2019-06-25T01:15:04Z</time>
      </trkpt>
      <trkpt lat="38.921206" lon="-3.008634">
        <ele>894.944</ele>
        <time>2019-06-25T01:15:24Z</time>
      </trkpt>
      <trkpt lat="38.921273" lon="-3.008269">
        <ele>895.644</ele>
        <time>2019-06-25T01:15:44Z</time>
      </trkpt>
      <trkpt lat="38.921314" lon="-3.007958">
        <ele>896.120</ele>
        <time>2019-06-25T01:16:04Z</time>
      </trkpt>
      <trkpt lat="38.921389" lon="-3.007475">
        <ele>897.189</ele>
        <time>2019-06-25T01:16:24Z</time>
      </trkpt>
      <trkpt lat="38.921632" lon="-3.007196">
        <ele>898.923</ele>
        <time>2019-06-25T01:16:44Z</time>
      </trkpt>
      <trkpt lat="38.921723" lon="-3.006949">
        <ele>899.022</ele>
        <time>2019-06-25T01:17:04Z</time>
      </trkpt>
      <trkpt lat="38.922007" lon="-3.006327">
        <ele>900.162</ele>
        <time>2019-06-25T01:17:24Z</time>
      </trkpt>
      <trkpt lat="38.922433" lon="-3.004460">
        <ele>901.808</ele>
        <time>2019-06-25T01:17:44Z</time>
      </trkpt>
      <trkpt lat="38.922817" lon="-3.003623">
        <ele>902.008</ele>
        <time>2019-06-25T01:18:04Z</time>
      </trkpt>
      <trkpt lat="38.923167" lon="-3.002808">
        <ele>900.395</ele>
        <time>2019-06-25T01:18:24Z</time>
      </trkpt>
      <trkpt lat="38.923501" lon="-3.002100">
        <ele>902.240</ele>
        <time>2019-06-25T01:18:44Z</time>
      </trkpt>
      <trkpt lat="38.923835" lon="-3.001392">
        <ele>901.062</ele>
        <time>2019-06-25T01:19:04Z</time>
      </trkpt>
      <trkpt lat="38.923969" lon="-3.001134">
        <ele>901.782</ele>
        <time>2019-06-25T01:19:24Z</time>
      </trkpt>
      <trkpt lat="38.924269" lon="-3.000888">
        <ele>901.112</ele>
        <time>2019-06-25T01:19:44Z</time>
      </trkpt>
      <trkpt lat="38.924495" lon="-3.000426">
        <ele>899.478</ele>
        <time>2019-06-25T01:20:04Z</time>
      </trkpt>
      <trkpt lat="38.924553" lon="-2.999729">
        <ele>895.867</ele>
        <time>2019-06-25T01:20:24Z</time>
      </trkpt>
      <trkpt lat="38.924628" lon="-2.999074">
        <ele>890.481</ele>
        <time>2019-06-25T01:20:44Z</time>
      </trkpt>
      <trkpt lat="38.924695" lon="-2.998602">
        <ele>886.929</ele>
        <time>2019-06-25T01:21:04Z</time>
      </trkpt>
      <trkpt lat="38.924645" lon="-2.998066">
        <ele>885.000</ele>
        <time>2019-06-25T01:21:24Z</time>
      </trkpt>
      <trkpt lat="38.924837" lon="-2.997347">
        <ele>885.220</ele>
        <time>2019-06-25T01:21:44Z</time>
      </trkpt>
      <trkpt lat="38.925020" lon="-2.996671">
        <ele>885.108</ele>
        <time>2019-06-25T01:22:04Z</time>
      </trkpt>
      <trkpt lat="38.924979" lon="-2.996135">
        <ele>885.065</ele>
        <time>2019-06-25T01:22:24Z</time>
      </trkpt>
      <trkpt lat="38.924945" lon="-2.995706">
        <ele>884.490</ele>
        <time>2019-06-25T01:22:44Z</time>
      </trkpt>
      <trkpt lat="38.925137" lon="-2.995405">
        <ele>884.842</ele>
        <time>2019-06-25T01:23:04Z</time>
      </trkpt>
      <trkpt lat="38.925530" lon="-2.995255">
        <ele>885.312</ele>
        <time>2019-06-25T01:23:24Z</time>
      </trkpt>
      <trkpt lat="38.926022" lon="-2.995287">
        <ele>887.032</ele>
        <time>2019-06-25T01:23:44Z</time>
      </trkpt>
      <trkpt lat="38.926281" lon="-2.994976">
        <ele>885.488</ele>
        <time>2019-06-25T01:24:04Z</time>
      </trkpt>
      <trkpt lat="38.926356" lon="-2.994365">
        <ele>886.517</ele>
        <time>2019-06-25T01:24:24Z</time>
      </trkpt>
      <trkpt lat="38.926606" lon="-2.993667">
        <ele>888.021</ele>
        <time>2019-06-25T01:24:44Z</time>
      </trkpt>
      <trkpt lat="38.926890" lon="-2.993098">
        <ele>890.771</ele>
        <time>2019-06-25T01:25:04Z</time>
      </trkpt>
      <trkpt lat="38.927057" lon="-2.992744">
        <ele>890.941</ele>
        <time>2019-06-25T01:25:24Z</time>
      </trkpt>
      <trkpt lat="38.927024" lon="-2.992369">
        <ele>889.515</ele>
        <time>2019-06-25T01:25:44Z</time>
      </trkpt>
      <trkpt lat="38.926915" lon="-2.991725">
        <ele>888.808</ele>
        <time>2019-06-25T01:26:04Z</time>
      </trkpt>
      <trkpt lat="38.926907" lon="-2.991114">
        <ele>888.360</ele>
        <time>2019-06-25T01:26:24Z</time>
      </trkpt>
      <trkpt lat="38.927049" lon="-2.990845">
        <ele>889.055</ele>
        <time>2019-06-25T01:26:44Z</time>
      </trkpt>
      <trkpt lat="38.927407" lon="-2.990781">
        <ele>889.747</ele>
        <time>2019-06-25T01:27:04Z</time>
      </trkpt>
      <trkpt lat="38.927867" lon="-2.990652">
        <ele>890.357</ele>
        <time>2019-06-25T01:27:24Z</time>
      </trkpt>
      <trkpt lat="38.928167" lon="-2.990180">
        <ele>890.467</ele>
        <time>2019-06-25T01:27:44Z</time>
      </trkpt>
      <trkpt lat="38.928451" lon="-2.989644">
        <ele>889.053</ele>
        <time>2019-06-25T01:28:04Z</time>
      </trkpt>
      <trkpt lat="38.928735" lon="-2.989268">
        <ele>889.042</ele>
        <time>2019-06-25T01:28:24Z</time>
      </trkpt>
      <trkpt lat="38.928818" lon="-2.988861">
        <ele>887.716</ele>
        <time>2019-06-25T01:28:44Z</time>
      </trkpt>
      <trkpt lat="38.928818" lon="-2.988464">
        <ele>886.675</ele>
        <time>2019-06-25T01:29:04Z</time>
      </trkpt>
      <trkpt lat="38.928935" lon="-2.987670">
        <ele>888.728</ele>
        <time>2019-06-25T01:29:24Z</time>
      </trkpt>
      <trkpt lat="38.929202" lon="-2.986768">
        <ele>891.120</ele>
        <time>2019-06-25T01:29:44Z</time>
      </trkpt>
      <trkpt lat="38.929169" lon="-2.986189">
        <ele>891.008</ele>
        <time>2019-06-25T01:30:04Z</time>
      </trkpt>
      <trkpt lat="38.929277" lon="-2.985760">
        <ele>891.480</ele>
        <time>2019-06-25T01:30:24Z</time>
      </trkpt>
      <trkpt lat="38.929411" lon="-2.985159">
        <ele>891.065</ele>
        <time>2019-06-25T01:30:44Z</time>
      </trkpt>
      <trkpt lat="38.929160" lon="-2.984751">
        <ele>892.867</ele>
        <time>2019-06-25T01:31:04Z</time>
      </trkpt>
      <trkpt lat="38.928943" lon="-2.984290">
        <ele>894.757</ele>
        <time>2019-06-25T01:31:24Z</time>
      </trkpt>
      <trkpt lat="38.928760" lon="-2.983829">
        <ele>894.647</ele>
        <time>2019-06-25T01:31:44Z</time>
      </trkpt>
      <trkpt lat="38.928668" lon="-2.983164">
        <ele>895.633</ele>
        <time>2019-06-25T01:32:04Z</time>
      </trkpt>
      <trkpt lat="38.928701" lon="-2.982606">
        <ele>897.382</ele>
        <time>2019-06-25T01:32:24Z</time>
      </trkpt>
      <trkpt lat="38.928735" lon="-2.982155">
        <ele>896.856</ele>
        <time>2019-06-25T01:32:44Z</time>
      </trkpt>
      <trkpt lat="38.928793" lon="-2.981994">
        <ele>896.834</ele>
        <time>2019-06-25T01:33:04Z</time>
      </trkpt>
      <trkpt lat="38.928977" lon="-2.981511">
        <ele>897.355</ele>
        <time>2019-06-25T01:33:24Z</time>
      </trkpt>
      <trkpt lat="38.928876" lon="-2.980878">
        <ele>898.010</ele>
        <time>2019-06-25T01:33:44Z</time>
      </trkpt>
      <trkpt lat="38.928793" lon="-2.980235">
        <ele>899.008</ele>
        <time>2019-06-25T01:34:04Z</time>
      </trkpt>
      <trkpt lat="38.928693" lon="-2.979763">
        <ele>899.056</ele>
        <time>2019-06-25T01:34:24Z</time>
      </trkpt>
      <trkpt lat="38.928743" lon="-2.979205">
        <ele>899.981</ele>
        <time>2019-06-25T01:34:44Z</time>
      </trkpt>
      <trkpt lat="38.928927" lon="-2.978743">
        <ele>900.423</ele>
        <time>2019-06-25T01:35:04Z</time>
      </trkpt>
      <trkpt lat="38.929252" lon="-2.978110">
        <ele>900.123</ele>
        <time>2019-06-25T01:35:24Z</time>
      </trkpt>
      <trkpt lat="38.929603" lon="-2.977381">
        <ele>900.853</ele>
        <time>2019-06-25T01:35:44Z</time>
      </trkpt>
      <trkpt lat="38.929836" lon="-2.976748">
        <ele>900.679</ele>
        <time>2019-06-25T01:36:04Z</time>
      </trkpt>
      <trkpt lat="38.929928" lon="-2.976512">
        <ele>900.328</ele>
        <time>2019-06-25T01:36:24Z</time>
      </trkpt>
      <trkpt lat="38.930254" lon="-2.976179">
        <ele>901.032</ele>
        <time>2019-06-25T01:36:44Z</time>
      </trkpt>
      <trkpt lat="38.930504" lon="-2.975589">
        <ele>902.166</ele>
        <time>2019-06-25T01:37:04Z</time>
      </trkpt>
      <trkpt lat="38.930746" lon="-2.974913">
        <ele>902.529</ele>
        <time>2019-06-25T01:37:24Z</time>
      </trkpt>
      <trkpt lat="38.931489" lon="-2.973915">
        <ele>901.421</ele>
        <time>2019-06-25T01:37:44Z</time>
      </trkpt>
      <trkpt lat="38.931873" lon="-2.973497">
        <ele>901.108</ele>
        <time>2019-06-25T01:38:04Z</time>
      </trkpt>
      <trkpt lat="38.932207" lon="-2.973175">
        <ele>900.689</ele>
        <time>2019-06-25T01:38:24Z</time>
      </trkpt>
      <trkpt lat="38.932407" lon="-2.972767">
        <ele>903.084</ele>
        <time>2019-06-25T01:38:44Z</time>
      </trkpt>
      <trkpt lat="38.932766" lon="-2.972059">
        <ele>901.486</ele>
        <time>2019-06-25T01:39:04Z</time>
      </trkpt>
      <trkpt lat="38.933417" lon="-2.970836">
        <ele>904.386</ele>
        <time>2019-06-25T01:39:24Z</time>
      </trkpt>
      <trkpt lat="38.933634" lon="-2.970332">
        <ele>903.996</ele>
        <time>2019-06-25T01:39:44Z</time>
      </trkpt>
      <trkpt lat="38.933959" lon="-2.969720">
        <ele>902.052</ele>
        <time>2019-06-25T01:40:04Z</time>
      </trkpt>
      <trkpt lat="38.934301" lon="-2.969259">
        <ele>903.371</ele>
        <time>2019-06-25T01:40:24Z</time>
      </trkpt>
      <trkpt lat="38.934535" lon="-2.968830">
        <ele>904.075</ele>
        <time>2019-06-25T01:40:44Z</time>
      </trkpt>
      <trkpt lat="38.934710" lon="-2.968444">
        <ele>904.685</ele>
        <time>2019-06-25T01:41:04Z</time>
      </trkpt>
      <trkpt lat="38.934877" lon="-2.967961">
        <ele>905.289</ele>
        <time>2019-06-25T01:41:24Z</time>
      </trkpt>
      <trkpt lat="38.934969" lon="-2.966909">
        <ele>906.117</ele>
        <time>2019-06-25T01:41:44Z</time>
      </trkpt>
      <trkpt lat="38.935328" lon="-2.965536">
        <ele>906.208</ele>
        <time>2019-06-25T01:42:04Z</time>
      </trkpt>
      <trkpt lat="38.935703" lon="-2.964699">
        <ele>904.071</ele>
        <time>2019-06-25T01:42:24Z</time>
      </trkpt>
      <trkpt lat="38.936079" lon="-2.964002">
        <ele>904.256</ele>
        <time>2019-06-25T01:42:44Z</time>
      </trkpt>
      <trkpt lat="38.936321" lon="-2.963208">
        <ele>905.728</ele>
        <time>2019-06-25T01:43:04Z</time>
      </trkpt>
      <trkpt lat="38.936538" lon="-2.962586">
        <ele>907.198</ele>
        <time>2019-06-25T01:43:24Z</time>
      </trkpt>
      <trkpt lat="38.936696" lon="-2.962103">
        <ele>905.278</ele>
        <time>2019-06-25T01:43:44Z</time>
      </trkpt>
      <trkpt lat="38.936938" lon="-2.961330">
        <ele>904.234</ele>
        <time>2019-06-25T01:44:04Z</time>
      </trkpt>
      <trkpt lat="38.937356" lon="-2.960386">
        <ele>904.533</ele>
        <time>2019-06-25T01:44:24Z</time>
      </trkpt>
      <trkpt lat="38.937514" lon="-2.959775">
        <ele>905.837</ele>
        <time>2019-06-25T01:44:44Z</time>
      </trkpt>
      <trkpt lat="38.937673" lon="-2.958981">
        <ele>905.572</ele>
        <time>2019-06-25T01:45:04Z</time>
      </trkpt>
      <trkpt lat="38.938207" lon="-2.958101">
        <ele>905.613</ele>
        <time>2019-06-25T01:45:24Z</time>
      </trkpt>
      <trkpt lat="38.938315" lon="-2.957618">
        <ele>906.914</ele>
        <time>2019-06-25T01:45:44Z</time>
      </trkpt>
      <trkpt lat="38.938850" lon="-2.956728">
        <ele>908.008</ele>
        <time>2019-06-25T01:46:04Z</time>
      </trkpt>
      <trkpt lat="38.939050" lon="-2.955880">
        <ele>908.530</ele>
        <time>2019-06-25T01:46:24Z</time>
      </trkpt>
      <trkpt lat="38.939258" lon="-2.955247">
        <ele>909.055</ele>
        <time>2019-06-25T01:46:44Z</time>
      </trkpt>
      <trkpt lat="38.939334" lon="-2.954818">
        <ele>908.747</ele>
        <time>2019-06-25T01:47:04Z</time>
      </trkpt>
      <trkpt lat="38.939317" lon="-2.954400">
        <ele>909.757</ele>
        <time>2019-06-25T01:47:24Z</time>
      </trkpt>
      <trkpt lat="38.939434" lon="-2.953616">
        <ele>909.117</ele>
        <time>2019-06-25T01:47:44Z</time>
      </trkpt>
      <trkpt lat="38.939592" lon="-2.952790">
        <ele>909.023</ele>
        <time>2019-06-25T01:48:04Z</time>
      </trkpt>
      <trkpt lat="38.939667" lon="-2.952125">
        <ele>911.022</ele>
        <time>2019-06-25T01:48:24Z</time>
      </trkpt>
      <trkpt lat="38.939642" lon="-2.951277">
        <ele>910.356</ele>
        <time>2019-06-25T01:48:44Z</time>
      </trkpt>
      <trkpt lat="38.939734" lon="-2.950602">
        <ele>910.053</ele>
        <time>2019-06-25T01:49:04Z</time>
      </trkpt>
      <trkpt lat="38.939943" lon="-2.949293">
        <ele>909.604</ele>
        <time>2019-06-25T01:49:24Z</time>
      </trkpt>
      <trkpt lat="38.940051" lon="-2.948488">
        <ele>912.414</ele>
        <time>2019-06-25T01:49:44Z</time>
      </trkpt>
      <trkpt lat="38.940210" lon="-2.947662">
        <ele>911.408</ele>
        <time>2019-06-25T01:50:04Z</time>
      </trkpt>
      <trkpt lat="38.940251" lon="-2.947286">
        <ele>910.318</ele>
        <time>2019-06-25T01:50:24Z</time>
      </trkpt>
      <trkpt lat="38.940969" lon="-2.946600">
        <ele>912.613</ele>
        <time>2019-06-25T01:50:44Z</time>
      </trkpt>
      <trkpt lat="38.941653" lon="-2.946042">
        <ele>909.095</ele>
        <time>2019-06-25T01:51:04Z</time>
      </trkpt>
      <trkpt lat="38.942429" lon="-2.945645">
        <ele>909.865</ele>
        <time>2019-06-25T01:51:24Z</time>
      </trkpt>
      <trkpt lat="38.943114" lon="-2.945892">
        <ele>909.655</ele>
        <time>2019-06-25T01:51:44Z</time>
      </trkpt>
      <trkpt lat="38.943364" lon="-2.946117">
        <ele>908.831</ele>
        <time>2019-06-25T01:52:04Z</time>
      </trkpt>
      <trkpt lat="38.943806" lon="-2.946911">
        <ele>909.270</ele>
        <time>2019-06-25T01:52:24Z</time>
      </trkpt>
      <trkpt lat="38.944541" lon="-2.947952">
        <ele>909.124</ele>
        <time>2019-06-25T01:52:44Z</time>
      </trkpt>
      <trkpt lat="38.945408" lon="-2.948692">
        <ele>907.575</ele>
        <time>2019-06-25T01:53:04Z</time>
      </trkpt>
      <trkpt lat="38.946493" lon="-2.949239">
        <ele>908.228</ele>
        <time>2019-06-25T01:53:24Z</time>
      </trkpt>
      <trkpt lat="38.947653" lon="-2.949046">
        <ele>907.620</ele>
        <time>2019-06-25T01:53:44Z</time>
      </trkpt>
      <trkpt lat="38.947920" lon="-2.948896">
        <ele>909.008</ele>
        <time>2019-06-25T01:54:04Z</time>
      </trkpt>
      <trkpt lat="38.948154" lon="-2.948273">
        <ele>911.020</ele>
        <time>2019-06-25T01:54:24Z</time>
      </trkpt>
      <trkpt lat="38.948537" lon="-2.947662">
        <ele>912.065</ele>
        <time>2019-06-25T01:54:44Z</time>
      </trkpt>
      <trkpt lat="38.949030" lon="-2.947136">
        <ele>912.567</ele>
        <time>2019-06-25T01:55:04Z</time>
      </trkpt>
      <trkpt lat="38.949489" lon="-2.947179">
        <ele>914.257</ele>
        <time>2019-06-25T01:55:24Z</time>
      </trkpt>
      <trkpt lat="38.950890" lon="-2.947758">
        <ele>916.567</ele>
        <time>2019-06-25T01:55:44Z</time>
      </trkpt>
      <trkpt lat="38.952876" lon="-2.948542">
        <ele>906.613</ele>
        <time>2019-06-25T01:56:04Z</time>
      </trkpt>
      <trkpt lat="38.953969" lon="-2.949057">
        <ele>907.042</ele>
        <time>2019-06-25T01:56:24Z</time>
      </trkpt>
      <trkpt lat="38.956105" lon="-2.949389">
        <ele>897.026</ele>
        <time>2019-06-25T01:56:44Z</time>
      </trkpt>
      <trkpt lat="38.958224" lon="-2.949711">
        <ele>889.651</ele>
        <time>2019-06-25T01:57:04Z</time>
      </trkpt>
      <trkpt lat="38.959117" lon="-2.949851">
        <ele>887.801</ele>
        <time>2019-06-25T01:57:24Z</time>
      </trkpt>
      <trkpt lat="38.959651" lon="-2.949636">
        <ele>886.611</ele>
        <time>2019-06-25T01:57:44Z</time>
      </trkpt>
      <trkpt lat="38.959876" lon="-2.949325">
        <ele>887.208</ele>
        <time>2019-06-25T01:58:04Z</time>
      </trkpt>
      <trkpt lat="38.961611" lon="-2.947598">
        <ele>888.198</ele>
        <time>2019-06-25T01:58:24Z</time>
      </trkpt>
      <trkpt lat="38.962979" lon="-2.946321">
        <ele>889.733</ele>
        <time>2019-06-25T01:58:44Z</time>
      </trkpt>
      <trkpt lat="38.963889" lon="-2.946407">
        <ele>892.965</ele>
        <time>2019-06-25T01:59:04Z</time>
      </trkpt>
      <trkpt lat="38.964055" lon="-2.946203">
        <ele>894.235</ele>
        <time>2019-06-25T01:59:24Z</time>
      </trkpt>
      <trkpt lat="38.964131" lon="-2.946042">
        <ele>894.615</ele>
        <time>2019-06-25T01:59:44Z</time>
      </trkpt>
      <trkpt lat="38.964448" lon="-2.945977">
        <ele>895.561</ele>
        <time>2019-06-25T02:00:04Z</time>
      </trkpt>
      <trkpt lat="38.965557" lon="-2.946181">
        <ele>896.730</ele>
        <time>2019-06-25T02:00:24Z</time>
      </trkpt>
      <trkpt lat="38.967359" lon="-2.945763">
        <ele>896.094</ele>
        <time>2019-06-25T02:00:44Z</time>
      </trkpt>
      <trkpt lat="38.968844" lon="-2.945387">
        <ele>894.324</ele>
        <time>2019-06-25T02:01:04Z</time>
      </trkpt>
      <trkpt lat="38.969344" lon="-2.945237">
        <ele>895.304</ele>
        <time>2019-06-25T02:01:24Z</time>
      </trkpt>
      <trkpt lat="38.969961" lon="-2.945495">
        <ele>892.514</ele>
        <time>2019-06-25T02:01:44Z</time>
      </trkpt>
      <trkpt lat="38.970487" lon="-2.946482">
        <ele>886.208</ele>
        <time>2019-06-25T02:02:04Z</time>
      </trkpt>
      <trkpt lat="38.971580" lon="-2.948692">
        <ele>883.165</ele>
        <time>2019-06-25T02:02:24Z</time>
      </trkpt>
      <trkpt lat="38.972706" lon="-2.951074">
        <ele>880.120</ele>
        <time>2019-06-25T02:02:44Z</time>
      </trkpt>
      <trkpt lat="38.973857" lon="-2.953434">
        <ele>880.082</ele>
        <time>2019-06-25T02:03:04Z</time>
      </trkpt>
      <trkpt lat="38.974366" lon="-2.954571">
        <ele>877.912</ele>
        <time>2019-06-25T02:03:24Z</time>
      </trkpt>
      <trkpt lat="38.974499" lon="-2.955086">
        <ele>878.252</ele>
        <time>2019-06-25T02:03:44Z</time>
      </trkpt>
      <trkpt lat="38.974591" lon="-2.955569">
        <ele>878.018</ele>
        <time>2019-06-25T02:04:04Z</time>
      </trkpt>
      <trkpt lat="38.974949" lon="-2.956417">
        <ele>875.927</ele>
        <time>2019-06-25T02:04:24Z</time>
      </trkpt>
      <trkpt lat="38.975233" lon="-2.957200">
        <ele>874.031</ele>
        <time>2019-06-25T02:04:44Z</time>
      </trkpt>
      <trkpt lat="38.975408" lon="-2.958219">
        <ele>875.196</ele>
        <time>2019-06-25T02:05:04Z</time>
      </trkpt>
      <trkpt lat="38.975508" lon="-2.959421">
        <ele>875.831</ele>
        <time>2019-06-25T02:05:24Z</time>
      </trkpt>
      <trkpt lat="38.975759" lon="-2.961298">
        <ele>882.524</ele>
        <time>2019-06-25T02:05:44Z</time>
      </trkpt>
      <trkpt lat="38.976034" lon="-2.962350">
        <ele>885.308</ele>
        <time>2019-06-25T02:06:04Z</time>
      </trkpt>
      <trkpt lat="38.976376" lon="-2.963498">
        <ele>885.792</ele>
        <time>2019-06-25T02:06:24Z</time>
      </trkpt>
      <trkpt lat="38.976618" lon="-2.964109">
        <ele>883.217</ele>
        <time>2019-06-25T02:06:44Z</time>
      </trkpt>
      <trkpt lat="38.977518" lon="-2.965493">
        <ele>877.739</ele>
        <time>2019-06-25T02:07:04Z</time>
      </trkpt>
      <trkpt lat="38.978127" lon="-2.966437">
        <ele>870.849</ele>
        <time>2019-06-25T02:07:24Z</time>
      </trkpt>
      <trkpt lat="38.978719" lon="-2.967285">
        <ele>865.989</ele>
        <time>2019-06-25T02:07:44Z</time>
      </trkpt>
      <trkpt lat="38.979270" lon="-2.967725">
        <ele>861.865</ele>
        <time>2019-06-25T02:08:04Z</time>
      </trkpt>
      <trkpt lat="38.979987" lon="-2.968090">
        <ele>859.194</ele>
        <time>2019-06-25T02:08:24Z</time>
      </trkpt>
      <trkpt lat="38.980304" lon="-2.968326">
        <ele>856.958</ele>
        <time>2019-06-25T02:08:44Z</time>
      </trkpt>
      <trkpt lat="38.980704" lon="-2.968712">
        <ele>856.241</ele>
        <time>2019-06-25T02:09:04Z</time>
      </trkpt>
      <trkpt lat="38.980955" lon="-2.969248">
        <ele>856.181</ele>
        <time>2019-06-25T02:09:24Z</time>
      </trkpt>
      <trkpt lat="38.981063" lon="-2.969871">
        <ele>857.709</ele>
        <time>2019-06-25T02:09:44Z</time>
      </trkpt>
      <trkpt lat="38.981171" lon="-2.970482">
        <ele>860.008</ele>
        <time>2019-06-25T02:10:04Z</time>
      </trkpt>
      <trkpt lat="38.981355" lon="-2.971019">
        <ele>862.767</ele>
        <time>2019-06-25T02:10:24Z</time>
      </trkpt>
      <trkpt lat="38.981397" lon="-2.971630">
        <ele>864.962</ele>
        <time>2019-06-25T02:10:44Z</time>
      </trkpt>
      <trkpt lat="38.981697" lon="-2.972982">
        <ele>870.694</ele>
        <time>2019-06-25T02:11:04Z</time>
      </trkpt>
      <trkpt lat="38.981980" lon="-2.974173">
        <ele>870.984</ele>
        <time>2019-06-25T02:11:24Z</time>
      </trkpt>
      <trkpt lat="38.982447" lon="-2.974452">
        <ele>870.074</ele>
        <time>2019-06-25T02:11:44Z</time>
      </trkpt>
      <trkpt lat="38.981772" lon="-2.975278">
        <ele>869.060</ele>
        <time>2019-06-25T02:12:04Z</time>
      </trkpt>
      <trkpt lat="38.982331" lon="-2.976372">
        <ele>864.159</ele>
        <time>2019-06-25T02:12:24Z</time>
      </trkpt>
      <trkpt lat="38.982764" lon="-2.977155">
        <ele>855.613</ele>
        <time>2019-06-25T02:12:44Z</time>
      </trkpt>
      <trkpt lat="38.982948" lon="-2.977724">
        <ele>853.716</ele>
        <time>2019-06-25T02:13:04Z</time>
      </trkpt>
      <trkpt lat="38.983098" lon="-2.978207">
        <ele>851.576</ele>
        <time>2019-06-25T02:13:24Z</time>
      </trkpt>
      <trkpt lat="38.983357" lon="-2.978668">
        <ele>848.813</ele>
        <time>2019-06-25T02:13:44Z</time>
      </trkpt>
      <trkpt lat="38.983773" lon="-2.979215">
        <ele>847.508</ele>
        <time>2019-06-25T02:14:04Z</time>
      </trkpt>
      <trkpt lat="38.984307" lon="-2.979527">
        <ele>846.844</ele>
        <time>2019-06-25T02:14:24Z</time>
      </trkpt>
      <trkpt lat="38.984658" lon="-2.979537">
        <ele>846.339</ele>
        <time>2019-06-25T02:14:44Z</time>
      </trkpt>
      <trkpt lat="38.984516" lon="-2.979956">
        <ele>843.171</ele>
        <time>2019-06-25T02:15:04Z</time>
      </trkpt>
      <trkpt lat="38.984441" lon="-2.980642">
        <ele>840.011</ele>
        <time>2019-06-25T02:15:24Z</time>
      </trkpt>
      <trkpt lat="38.984274" lon="-2.981179">
        <ele>838.731</ele>
        <time>2019-06-25T02:15:44Z</time>
      </trkpt>
      <trkpt lat="38.984082" lon="-2.981876">
        <ele>834.697</ele>
        <time>2019-06-25T02:16:04Z</time>
      </trkpt>
      <trkpt lat="38.984032" lon="-2.982305">
        <ele>833.536</ele>
        <time>2019-06-25T02:16:24Z</time>
      </trkpt>
      <trkpt lat="38.983924" lon="-2.982820">
        <ele>831.740</ele>
        <time>2019-06-25T02:16:44Z</time>
      </trkpt>
      <trkpt lat="38.983915" lon="-2.983367">
        <ele>831.097</ele>
        <time>2019-06-25T02:17:04Z</time>
      </trkpt>
      <trkpt lat="38.983807" lon="-2.983711">
        <ele>832.123</ele>
        <time>2019-06-25T02:17:24Z</time>
      </trkpt>
      <trkpt lat="38.983540" lon="-2.983915">
        <ele>831.925</ele>
        <time>2019-06-25T02:17:44Z</time>
      </trkpt>
      <trkpt lat="38.983373" lon="-2.984805">
        <ele>836.008</ele>
        <time>2019-06-25T02:18:04Z</time>
      </trkpt>
      <trkpt lat="38.983407" lon="-2.985277">
        <ele>840.522</ele>
        <time>2019-06-25T02:18:24Z</time>
      </trkpt>
      <trkpt lat="38.983548" lon="-2.985857">
        <ele>845.737</ele>
        <time>2019-06-25T02:18:44Z</time>
      </trkpt>
      <trkpt lat="38.983607" lon="-2.986479">
        <ele>850.669</ele>
        <time>2019-06-25T02:19:04Z</time>
      </trkpt>
      <trkpt lat="38.983498" lon="-2.987133">
        <ele>854.319</ele>
        <time>2019-06-25T02:19:24Z</time>
      </trkpt>
      <trkpt lat="38.983323" lon="-2.987691">
        <ele>854.689</ele>
        <time>2019-06-25T02:19:44Z</time>
      </trkpt>
      <trkpt lat="38.983073" lon="-2.988367">
        <ele>854.135</ele>
        <time>2019-06-25T02:20:04Z</time>
      </trkpt>
      <trkpt lat="38.982906" lon="-2.988678">
        <ele>853.944</ele>
        <time>2019-06-25T02:20:24Z</time>
      </trkpt>
      <trkpt lat="38.982764" lon="-2.988818">
        <ele>854.488</ele>
        <time>2019-06-25T02:20:44Z</time>
      </trkpt>
      <trkpt lat="38.982581" lon="-2.989429">
        <ele>855.377</ele>
        <time>2019-06-25T02:21:04Z</time>
      </trkpt>
      <trkpt lat="38.982514" lon="-2.989687">
        <ele>855.061</ele>
        <time>2019-06-25T02:21:24Z</time>
      </trkpt>
      <trkpt lat="38.981764" lon="-2.990094">
        <ele>850.227</ele>
        <time>2019-06-25T02:21:44Z</time>
      </trkpt>
      <trkpt lat="38.981105" lon="-2.989998">
        <ele>849.008</ele>
        <time>2019-06-25T02:22:04Z</time>
      </trkpt>
      <trkpt lat="38.980287" lon="-2.989891">
        <ele>848.080</ele>
        <time>2019-06-25T02:22:24Z</time>
      </trkpt>
      <trkpt lat="38.979161" lon="-2.989826">
        <ele>851.015</ele>
        <time>2019-06-25T02:22:44Z</time>
      </trkpt>
      <trkpt lat="38.978711" lon="-2.989140">
        <ele>846.277</ele>
        <time>2019-06-25T02:23:04Z</time>
      </trkpt>
      <trkpt lat="38.978219" lon="-2.988410">
        <ele>838.697</ele>
        <time>2019-06-25T02:23:24Z</time>
      </trkpt>
      <trkpt lat="38.977935" lon="-2.987981">
        <ele>836.197</ele>
        <time>2019-06-25T02:23:44Z</time>
      </trkpt>
      <trkpt lat="38.977635" lon="-2.987809">
        <ele>837.913</ele>
        <time>2019-06-25T02:24:04Z</time>
      </trkpt>
      <trkpt lat="38.976701" lon="-2.987841">
        <ele>840.552</ele>
        <time>2019-06-25T02:24:24Z</time>
      </trkpt>
      <trkpt lat="38.975341" lon="-2.987884">
        <ele>837.856</ele>
        <time>2019-06-25T02:24:44Z</time>
      </trkpt>
      <trkpt lat="38.974874" lon="-2.987895">
        <ele>841.473</ele>
        <time>2019-06-25T02:25:04Z</time>
      </trkpt>
      <trkpt lat="38.974382" lon="-2.988153">
        <ele>843.485</ele>
        <time>2019-06-25T02:25:24Z</time>
      </trkpt>
      <trkpt lat="38.973949" lon="-2.988292">
        <ele>843.013</ele>
        <time>2019-06-25T02:25:44Z</time>
      </trkpt>
      <trkpt lat="38.973523" lon="-2.988088">
        <ele>843.508</ele>
        <time>2019-06-25T02:26:04Z</time>
      </trkpt>
      <trkpt lat="38.973181" lon="-2.987520">
        <ele>844.430</ele>
        <time>2019-06-25T02:26:24Z</time>
      </trkpt>
      <trkpt lat="38.972497" lon="-2.987133">
        <ele>842.625</ele>
        <time>2019-06-25T02:26:44Z</time>
      </trkpt>
      <trkpt lat="38.971780" lon="-2.986822">
        <ele>844.447</ele>
        <time>2019-06-25T02:27:04Z</time>
      </trkpt>
      <trkpt lat="38.971805" lon="-2.986286">
        <ele>846.237</ele>
        <time>2019-06-25T02:27:24Z</time>
      </trkpt>
      <trkpt lat="38.971730" lon="-2.985674">
        <ele>847.737</ele>
        <time>2019-06-25T02:27:44Z</time>
      </trkpt>
      <trkpt lat="38.971530" lon="-2.984945">
        <ele>849.763</ele>
        <time>2019-06-25T02:28:04Z</time>
      </trkpt>
      <trkpt lat="38.970971" lon="-2.984666">
        <ele>845.872</ele>
        <time>2019-06-25T02:28:24Z</time>
      </trkpt>
      <trkpt lat="38.970287" lon="-2.984365">
        <ele>847.326</ele>
        <time>2019-06-25T02:28:44Z</time>
      </trkpt>
      <trkpt lat="38.969586" lon="-2.984312">
        <ele>846.518</ele>
        <time>2019-06-25T02:29:04Z</time>
      </trkpt>
      <trkpt lat="38.969277" lon="-2.984419">
        <ele>846.698</ele>
        <time>2019-06-25T02:29:24Z</time>
      </trkpt>
      <trkpt lat="38.968960" lon="-2.984397">
        <ele>847.017</ele>
        <time>2019-06-25T02:29:44Z</time>
      </trkpt>
      <trkpt lat="38.968318" lon="-2.984483">
        <ele>848.208</ele>
        <time>2019-06-25T02:30:04Z</time>
      </trkpt>
      <trkpt lat="38.968018" lon="-2.984515">
        <ele>849.454</ele>
        <time>2019-06-25T02:30:24Z</time>
      </trkpt>
      <trkpt lat="38.967142" lon="-2.984344">
        <ele>854.269</ele>
        <time>2019-06-25T02:30:44Z</time>
      </trkpt>
      <trkpt lat="38.966667" lon="-2.984194">
        <ele>857.241</ele>
        <time>2019-06-25T02:31:04Z</time>
      </trkpt>
      <trkpt lat="38.965924" lon="-2.984247">
        <ele>861.521</ele>
        <time>2019-06-25T02:31:24Z</time>
      </trkpt>
      <trkpt lat="38.965365" lon="-2.984462">
        <ele>862.151</ele>
        <time>2019-06-25T02:31:44Z</time>
      </trkpt>
      <trkpt lat="38.964639" lon="-2.984848">
        <ele>865.327</ele>
        <time>2019-06-25T02:32:04Z</time>
      </trkpt>
      <trkpt lat="38.963847" lon="-2.984987">
        <ele>866.846</ele>
        <time>2019-06-25T02:32:24Z</time>
      </trkpt>
      <trkpt lat="38.963497" lon="-2.985095">
        <ele>866.010</ele>
        <time>2019-06-25T02:32:44Z</time>
      </trkpt>
      <trkpt lat="38.963088" lon="-2.985438">
        <ele>866.983</ele>
        <time>2019-06-25T02:33:04Z</time>
      </trkpt>
      <trkpt lat="38.962704" lon="-2.985578">
        <ele>869.825</ele>
        <time>2019-06-25T02:33:24Z</time>
      </trkpt>
      <trkpt lat="38.962470" lon="-2.985674">
        <ele>872.217</ele>
        <time>2019-06-25T02:33:44Z</time>
      </trkpt>
      <trkpt lat="38.961845" lon="-2.986318">
        <ele>877.408</ele>
        <time>2019-06-25T02:34:04Z</time>
      </trkpt>
      <trkpt lat="38.961011" lon="-2.986693">
        <ele>881.721</ele>
        <time>2019-06-25T02:34:24Z</time>
      </trkpt>
      <trkpt lat="38.960660" lon="-2.986608">
        <ele>883.856</ele>
        <time>2019-06-25T02:34:44Z</time>
      </trkpt>
      <trkpt lat="38.959843" lon="-2.986200">
        <ele>888.248</ele>
        <time>2019-06-25T02:35:04Z</time>
      </trkpt>
      <trkpt lat="38.958675" lon="-2.985964">
        <ele>895.098</ele>
        <time>2019-06-25T02:35:24Z</time>
      </trkpt>
      <trkpt lat="38.957757" lon="-2.985792">
        <ele>901.378</ele>
        <time>2019-06-25T02:35:44Z</time>
      </trkpt>
      <trkpt lat="38.956964" lon="-2.985663">
        <ele>906.914</ele>
        <time>2019-06-25T02:36:04Z</time>
      </trkpt>
      <trkpt lat="38.956589" lon="-2.985116">
        <ele>907.953</ele>
        <time>2019-06-25T02:36:24Z</time>
      </trkpt>
      <trkpt lat="38.956122" lon="-2.984236">
        <ele>909.917</ele>
        <time>2019-06-25T02:36:44Z</time>
      </trkpt>
      <trkpt lat="38.955438" lon="-2.983207">
        <ele>911.327</ele>
        <time>2019-06-25T02:37:04Z</time>
      </trkpt>
      <trkpt lat="38.955045" lon="-2.982402">
        <ele>915.968</ele>
        <time>2019-06-25T02:37:24Z</time>
      </trkpt>
      <trkpt lat="38.954320" lon="-2.981898">
        <ele>912.814</ele>
        <time>2019-06-25T02:37:44Z</time>
      </trkpt>
      <trkpt lat="38.953886" lon="-2.981640">
        <ele>911.908</ele>
        <time>2019-06-25T02:38:04Z</time>
      </trkpt>
      <trkpt lat="38.952951" lon="-2.981704">
        <ele>906.845</ele>
        <time>2019-06-25T02:38:24Z</time>
      </trkpt>
      <trkpt lat="38.951641" lon="-2.981715">
        <ele>904.860</ele>
        <time>2019-06-25T02:38:44Z</time>
      </trkpt>
      <trkpt lat="38.951449" lon="-2.982659">
        <ele>903.922</ele>
        <time>2019-06-25T02:39:04Z</time>
      </trkpt>
      <trkpt lat="38.951174" lon="-2.983797">
        <ele>907.612</ele>
        <time>2019-06-25T02:39:24Z</time>
      </trkpt>
      <trkpt lat="38.950899" lon="-2.984966">
        <ele>910.422</ele>
        <time>2019-06-25T02:39:44Z</time>
      </trkpt>
      <trkpt lat="38.950198" lon="-2.986811">
        <ele>915.338</ele>
        <time>2019-06-25T02:40:04Z</time>
      </trkpt>
      <trkpt lat="38.949347" lon="-2.988431">
        <ele>910.347</ele>
        <time>2019-06-25T02:40:24Z</time>
      </trkpt>
      <trkpt lat="38.948546" lon="-2.989944">
        <ele>908.871</ele>
        <time>2019-06-25T02:40:44Z</time>
      </trkpt>
      <trkpt lat="38.947887" lon="-2.991189">
        <ele>911.414</ele>
        <time>2019-06-25T02:41:04Z</time>
      </trkpt>
      <trkpt lat="38.947586" lon="-2.992015">
        <ele>910.854</ele>
        <time>2019-06-25T02:41:24Z</time>
      </trkpt>
      <trkpt lat="38.947052" lon="-2.993689">
        <ele>911.609</ele>
        <time>2019-06-25T02:41:44Z</time>
      </trkpt>
      <trkpt lat="38.946218" lon="-2.996253">
        <ele>915.808</ele>
        <time>2019-06-25T02:42:04Z</time>
      </trkpt>
      <trkpt lat="38.945809" lon="-2.997433">
        <ele>913.984</ele>
        <time>2019-06-25T02:42:24Z</time>
      </trkpt>
      <trkpt lat="38.945275" lon="-2.998838">
        <ele>913.049</ele>
        <time>2019-06-25T02:42:44Z</time>
      </trkpt>
      <trkpt lat="38.944607" lon="-3.000705">
        <ele>910.681</ele>
        <time>2019-06-25T02:43:04Z</time>
      </trkpt>
      <trkpt lat="38.943848" lon="-3.002862">
        <ele>913.571</ele>
        <time>2019-06-25T02:43:24Z</time>
      </trkpt>
      <trkpt lat="38.943331" lon="-3.003495">
        <ele>916.611</ele>
        <time>2019-06-25T02:43:44Z</time>
      </trkpt>
      <trkpt lat="38.943331" lon="-3.004460">
        <ele>914.137</ele>
        <time>2019-06-25T02:44:04Z</time>
      </trkpt>
      <trkpt lat="38.943806" lon="-3.005834">
        <ele>916.316</ele>
        <time>2019-06-25T02:44:24Z</time>
      </trkpt>
      <trkpt lat="38.944007" lon="-3.006424">
        <ele>915.770</ele>
        <time>2019-06-25T02:44:44Z</time>
      </trkpt>
      <trkpt lat="38.944140" lon="-3.007303">
        <ele>909.572</ele>
        <time>2019-06-25T02:45:04Z</time>
      </trkpt>
      <trkpt lat="38.944199" lon="-3.007582">
        <ele>907.713</ele>
        <time>2019-06-25T02:45:24Z</time>
      </trkpt>
      <trkpt lat="38.943865" lon="-3.008687">
        <ele>903.814</ele>
        <time>2019-06-25T02:45:44Z</time>
      </trkpt>
      <trkpt lat="38.943831" lon="-3.009213">
        <ele>904.408</ele>
        <time>2019-06-25T02:46:04Z</time>
      </trkpt>
      <trkpt lat="38.943915" lon="-3.009664">
        <ele>904.660</ele>
        <time>2019-06-25T02:46:24Z</time>
      </trkpt>
      <trkpt lat="38.944449" lon="-3.010576">
        <ele>901.925</ele>
        <time>2019-06-25T02:46:44Z</time>
      </trkpt>
      <trkpt lat="38.944641" lon="-3.011177">
        <ele>899.477</ele>
        <time>2019-06-25T02:47:04Z</time>
      </trkpt>
      <trkpt lat="38.944749" lon="-3.011681">
        <ele>900.177</ele>
        <time>2019-06-25T02:47:24Z</time>
      </trkpt>
      <trkpt lat="38.944733" lon="-3.011928">
        <ele>900.997</ele>
        <time>2019-06-25T02:47:44Z</time>
      </trkpt>
      <trkpt lat="38.945091" lon="-3.012968">
        <ele>900.513</ele>
        <time>2019-06-25T02:48:04Z</time>
      </trkpt>
      <trkpt lat="38.945217" lon="-3.013397">
        <ele>898.722</ele>
        <time>2019-06-25T02:48:24Z</time>
      </trkpt>
      <trkpt lat="38.945442" lon="-3.014299">
        <ele>898.416</ele>
        <time>2019-06-25T02:48:44Z</time>
      </trkpt>
      <trkpt lat="38.945442" lon="-3.014524">
        <ele>898.183</ele>
        <time>2019-06-25T02:49:04Z</time>
      </trkpt>
      <trkpt lat="38.945667" lon="-3.015232">
        <ele>895.225</ele>
        <time>2019-06-25T02:49:24Z</time>
      </trkpt>
      <trkpt lat="38.945717" lon="-3.015608">
        <ele>893.917</ele>
        <time>2019-06-25T02:49:44Z</time>
      </trkpt>
      <trkpt lat="38.945575" lon="-3.016498">
        <ele>892.908</ele>
        <time>2019-06-25T02:50:04Z</time>
      </trkpt>
      <trkpt lat="38.945534" lon="-3.017195">
        <ele>893.171</ele>
        <time>2019-06-25T02:50:24Z</time>
      </trkpt>
      <trkpt lat="38.945584" lon="-3.017721">
        <ele>889.556</ele>
        <time>2019-06-25T02:50:44Z</time>
      </trkpt>
      <trkpt lat="38.945617" lon="-3.018397">
        <ele>889.578</ele>
        <time>2019-06-25T02:51:04Z</time>
      </trkpt>
      <trkpt lat="38.945700" lon="-3.018912">
        <ele>891.028</ele>
        <time>2019-06-25T02:51:24Z</time>
      </trkpt>
      <trkpt lat="38.945901" lon="-3.019363">
        <ele>890.758</ele>
        <time>2019-06-25T02:51:44Z</time>
      </trkpt>
      <trkpt lat="38.946260" lon="-3.019760">
        <ele>891.344</ele>
        <time>2019-06-25T02:52:04Z</time>
      </trkpt>
      <trkpt lat="38.946368" lon="-3.020318">
        <ele>886.963</ele>
        <time>2019-06-25T02:52:24Z</time>
      </trkpt>
      <trkpt lat="38.946460" lon="-3.021755">
        <ele>886.077</ele>
        <time>2019-06-25T02:52:44Z</time>
      </trkpt>
      <trkpt lat="38.946485" lon="-3.022163">
        <ele>885.242</ele>
        <time>2019-06-25T02:53:04Z</time>
      </trkpt>
      <trkpt lat="38.946460" lon="-3.022753">
        <ele>882.222</ele>
        <time>2019-06-25T02:53:24Z</time>
      </trkpt>
      <trkpt lat="38.946451" lon="-3.023515">
        <ele>880.514</ele>
        <time>2019-06-25T02:53:44Z</time>
      </trkpt>
      <trkpt lat="38.946585" lon="-3.024030">
        <ele>880.208</ele>
        <time>2019-06-25T02:54:04Z</time>
      </trkpt>
      <trkpt lat="38.946735" lon="-3.024706">
        <ele>879.057</ele>
        <time>2019-06-25T02:54:24Z</time>
      </trkpt>
      <trkpt lat="38.946735" lon="-3.025382">
        <ele>879.322</ele>
        <time>2019-06-25T02:54:44Z</time>
      </trkpt>
      <trkpt lat="38.946735" lon="-3.026251">
        <ele>878.624</ele>
        <time>2019-06-25T02:55:04Z</time>
      </trkpt>
      <trkpt lat="38.946819" lon="-3.027560">
        <ele>875.044</ele>
        <time>2019-06-25T02:55:24Z</time>
      </trkpt>
      <trkpt lat="38.947002" lon="-3.027978">
        <ele>874.254</ele>
        <time>2019-06-25T02:55:44Z</time>
      </trkpt>
      <trkpt lat="38.947069" lon="-3.028568">
        <ele>873.640</ele>
        <time>2019-06-25T02:56:04Z</time>
      </trkpt>
      <trkpt lat="38.947161" lon="-3.028890">
        <ele>872.279</ele>
        <time>2019-06-25T02:56:24Z</time>
      </trkpt>
      <trkpt lat="38.947528" lon="-3.029104">
        <ele>871.533</ele>
        <time>2019-06-25T02:56:44Z</time>
      </trkpt>
      <trkpt lat="38.947795" lon="-3.029587">
        <ele>869.282</ele>
        <time>2019-06-25T02:57:04Z</time>
      </trkpt>
      <trkpt lat="38.947887" lon="-3.029898">
        <ele>871.043</ele>
        <time>2019-06-25T02:57:24Z</time>
      </trkpt>
      <trkpt lat="38.947828" lon="-3.030467">
        <ele>868.417</ele>
        <time>2019-06-25T02:57:44Z</time>
      </trkpt>
      <trkpt lat="38.947837" lon="-3.031240">
        <ele>868.108</ele>
        <time>2019-06-25T02:58:04Z</time>
      </trkpt>
      <trkpt lat="38.947903" lon="-3.031561">
        <ele>868.841</ele>
        <time>2019-06-25T02:58:24Z</time>
      </trkpt>
      <trkpt lat="38.948304" lon="-3.032570">
        <ele>868.776</ele>
        <time>2019-06-25T02:58:44Z</time>
      </trkpt>
      <trkpt lat="38.948596" lon="-3.032935">
        <ele>867.558</ele>
        <time>2019-06-25T02:59:04Z</time>
      </trkpt>
      <trkpt lat="38.948754" lon="-3.033417">
        <ele>867.588</ele>
        <time>2019-06-25T02:59:24Z</time>
      </trkpt>
      <trkpt lat="38.948863" lon="-3.033804">
        <ele>867.788</ele>
        <time>2019-06-25T02:59:44Z</time>
      </trkpt>
      <trkpt lat="38.948729" lon="-3.034201">
        <ele>867.694</ele>
        <time>2019-06-25T03:00:04Z</time>
      </trkpt>
      <trkpt lat="38.948788" lon="-3.034866">
        <ele>866.833</ele>
        <time>2019-06-25T03:00:24Z</time>
      </trkpt>
      <trkpt lat="38.948830" lon="-3.035209">
        <ele>865.437</ele>
        <time>2019-06-25T03:00:44Z</time>
      </trkpt>
      <trkpt lat="38.948771" lon="-3.035649">
        <ele>862.922</ele>
        <time>2019-06-25T03:01:04Z</time>
      </trkpt>
      <trkpt lat="38.948830" lon="-3.036507">
        <ele>858.762</ele>
        <time>2019-06-25T03:01:24Z</time>
      </trkpt>
      <trkpt lat="38.948721" lon="-3.037248">
        <ele>857.208</ele>
        <time>2019-06-25T03:01:44Z</time>
      </trkpt>
      <trkpt lat="38.948579" lon="-3.038020">
        <ele>858.008</ele>
        <time>2019-06-25T03:02:04Z</time>
      </trkpt>
      <trkpt lat="38.948471" lon="-3.038481">
        <ele>857.565</ele>
        <time>2019-06-25T03:02:24Z</time>
      </trkpt>
      <trkpt lat="38.948254" lon="-3.039694">
        <ele>854.560</ele>
        <time>2019-06-25T03:02:44Z</time>
      </trkpt>
      <trkpt lat="38.948179" lon="-3.040316">
        <ele>852.512</ele>
        <time>2019-06-25T03:03:04Z</time>
      </trkpt>
      <trkpt lat="38.948229" lon="-3.040799">
        <ele>852.912</ele>
        <time>2019-06-25T03:03:24Z</time>
      </trkpt>
      <trkpt lat="38.948095" lon="-3.041421">
        <ele>852.812</ele>
        <time>2019-06-25T03:03:44Z</time>
      </trkpt>
      <trkpt lat="38.948045" lon="-3.041893">
        <ele>853.048</ele>
        <time>2019-06-25T03:04:04Z</time>
      </trkpt>
      <trkpt lat="38.948003" lon="-3.043631">
        <ele>851.317</ele>
        <time>2019-06-25T03:04:24Z</time>
      </trkpt>
      <trkpt lat="38.948037" lon="-3.044189">
        <ele>853.021</ele>
        <time>2019-06-25T03:04:44Z</time>
      </trkpt>
      <trkpt lat="38.948179" lon="-3.045294">
        <ele>848.615</ele>
        <time>2019-06-25T03:05:04Z</time>
      </trkpt>
      <trkpt lat="38.947987" lon="-3.046088">
        <ele>848.665</ele>
        <time>2019-06-25T03:05:24Z</time>
      </trkpt>
      <trkpt lat="38.947736" lon="-3.046818">
        <ele>847.211</ele>
        <time>2019-06-25T03:05:44Z</time>
      </trkpt>
      <trkpt lat="38.947645" lon="-3.047333">
        <ele>845.708</ele>
        <time>2019-06-25T03:06:04Z</time>
      </trkpt>
      <trkpt lat="38.947686" lon="-3.047730">
        <ele>846.084</ele>
        <time>2019-06-25T03:06:24Z</time>
      </trkpt>
      <trkpt lat="38.947803" lon="-3.048009">
        <ele>846.179</ele>
        <time>2019-06-25T03:06:44Z</time>
      </trkpt>
      <trkpt lat="38.948029" lon="-3.048577">
        <ele>846.041</ele>
        <time>2019-06-25T03:07:04Z</time>
      </trkpt>
      <trkpt lat="38.948054" lon="-3.048813">
        <ele>846.741</ele>
        <time>2019-06-25T03:07:24Z</time>
      </trkpt>
      <trkpt lat="38.948029" lon="-3.049082">
        <ele>845.571</ele>
        <time>2019-06-25T03:07:44Z</time>
      </trkpt>
      <trkpt lat="38.948062" lon="-3.049382">
        <ele>844.247</ele>
        <time>2019-06-25T03:08:04Z</time>
      </trkpt>
      <trkpt lat="38.948187" lon="-3.049800">
        <ele>843.396</ele>
        <time>2019-06-25T03:08:24Z</time>
      </trkpt>
      <trkpt lat="38.948479" lon="-3.050305">
        <ele>843.030</ele>
        <time>2019-06-25T03:08:44Z</time>
      </trkpt>
      <trkpt lat="38.947895" lon="-3.050047">
        <ele>843.889</ele>
        <time>2019-06-25T03:09:04Z</time>
      </trkpt>
      <trkpt lat="38.946602" lon="-3.049865">
        <ele>845.406</ele>
        <time>2019-06-25T03:09:24Z</time>
      </trkpt>
      <trkpt lat="38.945734" lon="-3.049736">
        <ele>848.426</ele>
        <time>2019-06-25T03:09:44Z</time>
      </trkpt>
      <trkpt lat="38.944449" lon="-3.049157">
        <ele>851.908</ele>
        <time>2019-06-25T03:10:04Z</time>
      </trkpt>
      <trkpt lat="38.944015" lon="-3.048974">
        <ele>852.541</ele>
        <time>2019-06-25T03:10:24Z</time>
      </trkpt>
      <trkpt lat="38.942630" lon="-3.048738">
        <ele>853.816</ele>
        <time>2019-06-25T03:10:44Z</time>
      </trkpt>
      <trkpt lat="38.942204" lon="-3.048738">
        <ele>855.298</ele>
        <time>2019-06-25T03:11:04Z</time>
      </trkpt>
      <trkpt lat="38.941737" lon="-3.048728">
        <ele>856.988</ele>
        <time>2019-06-25T03:11:24Z</time>
      </trkpt>
      <trkpt lat="38.941003" lon="-3.048373">
        <ele>855.518</ele>
        <time>2019-06-25T03:11:44Z</time>
      </trkpt>
      <trkpt lat="38.940610" lon="-3.047998">
        <ele>857.014</ele>
        <time>2019-06-25T03:12:04Z</time>
      </trkpt>
      <trkpt lat="38.939951" lon="-3.047311">
        <ele>856.163</ele>
        <time>2019-06-25T03:12:24Z</time>
      </trkpt>
      <trkpt lat="38.939167" lon="-3.046904">
        <ele>859.087</ele>
        <time>2019-06-25T03:12:44Z</time>
      </trkpt>
      <trkpt lat="38.938858" lon="-3.046753">
        <ele>858.599</ele>
        <time>2019-06-25T03:13:04Z</time>
      </trkpt>
      <trkpt lat="38.938374" lon="-3.046335">
        <ele>859.407</ele>
        <time>2019-06-25T03:13:24Z</time>
      </trkpt>
      <trkpt lat="38.938082" lon="-3.046131">
        <ele>860.027</ele>
        <time>2019-06-25T03:13:44Z</time>
      </trkpt>
      <trkpt lat="38.937272" lon="-3.044736">
        <ele>867.708</ele>
        <time>2019-06-25T03:14:04Z</time>
      </trkpt>
      <trkpt lat="38.936496" lon="-3.043363">
        <ele>867.422</ele>
        <time>2019-06-25T03:14:24Z</time>
      </trkpt>
      <trkpt lat="38.935945" lon="-3.042612">
        <ele>864.217</ele>
        <time>2019-06-25T03:14:44Z</time>
      </trkpt>
      <trkpt lat="38.934827" lon="-3.041421">
        <ele>866.649</ele>
        <time>2019-06-25T03:15:04Z</time>
      </trkpt>
      <trkpt lat="38.934293" lon="-3.040960">
        <ele>868.899</ele>
        <time>2019-06-25T03:15:24Z</time>
      </trkpt>
      <trkpt lat="38.933809" lon="-3.040767">
        <ele>873.089</ele>
        <time>2019-06-25T03:15:44Z</time>
      </trkpt>
      <trkpt lat="38.933333" lon="-3.040702">
        <ele>873.025</ele>
        <time>2019-06-25T03:16:04Z</time>
      </trkpt>
      <trkpt lat="38.932916" lon="-3.040799">
        <ele>876.474</ele>
        <time>2019-06-25T03:16:24Z</time>
      </trkpt>
      <trkpt lat="38.932323" lon="-3.040702">
        <ele>877.448</ele>
        <time>2019-06-25T03:16:44Z</time>
      </trkpt>
      <trkpt lat="38.931789" lon="-3.040563">
        <ele>873.994</ele>
        <time>2019-06-25T03:17:04Z</time>
      </trkpt>
      <trkpt lat="38.931455" lon="-3.040595">
        <ele>874.457</ele>
        <time>2019-06-25T03:17:24Z</time>
      </trkpt>
      <trkpt lat="38.931355" lon="-3.040713">
        <ele>874.922</ele>
        <time>2019-06-25T03:17:44Z</time>
      </trkpt>
      <trkpt lat="38.931205" lon="-3.040971">
        <ele>877.508</ele>
        <time>2019-06-25T03:18:04Z</time>
      </trkpt>
      <trkpt lat="38.931063" lon="-3.041153">
        <ele>880.042</ele>
        <time>2019-06-25T03:18:24Z</time>
      </trkpt>
      <trkpt lat="38.930262" lon="-3.041185">
        <ele>888.827</ele>
        <time>2019-06-25T03:18:44Z</time>
      </trkpt>
      <trkpt lat="38.929377" lon="-3.041003">
        <ele>886.439</ele>
        <time>2019-06-25T03:19:04Z</time>
      </trkpt>
      <trkpt lat="38.928776" lon="-3.040917">
        <ele>883.299</ele>
        <time>2019-06-25T03:19:24Z</time>
      </trkpt>
      <trkpt lat="38.928426" lon="-3.041067">
        <ele>879.919</ele>
        <time>2019-06-25T03:19:44Z</time>
      </trkpt>
      <trkpt lat="38.928192" lon="-3.041314">
        <ele>879.955</ele>
        <time>2019-06-25T03:20:04Z</time>
      </trkpt>
      <trkpt lat="38.927967" lon="-3.041636">
        <ele>877.224</ele>
        <time>2019-06-25T03:20:24Z</time>
      </trkpt>
      <trkpt lat="38.927466" lon="-3.041625">
        <ele>871.788</ele>
        <time>2019-06-25T03:20:44Z</time>
      </trkpt>
      <trkpt lat="38.926948" lon="-3.041883">
        <ele>869.032</ele>
        <time>2019-06-25T03:21:04Z</time>
      </trkpt>
      <trkpt lat="38.926197" lon="-3.042215">
        <ele>864.392</ele>
        <time>2019-06-25T03:21:24Z</time>
      </trkpt>
      <trkpt lat="38.925863" lon="-3.042269">
        <ele>862.411</ele>
        <time>2019-06-25T03:21:44Z</time>
      </trkpt>
      <trkpt lat="38.925454" lon="-3.042279">
        <ele>859.808</ele>
        <time>2019-06-25T03:22:04Z</time>
      </trkpt>
      <trkpt lat="38.925187" lon="-3.042387">
        <ele>858.766</ele>
        <time>2019-06-25T03:22:24Z</time>
      </trkpt>
      <trkpt lat="38.924920" lon="-3.042752">
        <ele>856.861</ele>
        <time>2019-06-25T03:22:44Z</time>
      </trkpt>
      <trkpt lat="38.924586" lon="-3.043127">
        <ele>854.443</ele>
        <time>2019-06-25T03:23:04Z</time>
      </trkpt>
      <trkpt lat="38.923710" lon="-3.043234">
        <ele>852.443</ele>
        <time>2019-06-25T03:23:24Z</time>
      </trkpt>
      <trkpt lat="38.922642" lon="-3.043277">
        <ele>849.513</ele>
        <time>2019-06-25T03:23:44Z</time>
      </trkpt>
      <trkpt lat="38.921965" lon="-3.043288">
        <ele>849.299</ele>
        <time>2019-06-25T03:24:04Z</time>
      </trkpt>
      <trkpt lat="38.921548" lon="-3.043116">
        <ele>849.288</ele>
        <time>2019-06-25T03:24:24Z</time>
      </trkpt>
      <trkpt lat="38.920872" lon="-3.043288">
        <ele>847.312</ele>
        <time>2019-06-25T03:24:44Z</time>
      </trkpt>
      <trkpt lat="38.920513" lon="-3.043374">
        <ele>843.428</ele>
        <time>2019-06-25T03:25:04Z</time>
      </trkpt>
      <trkpt lat="38.920046" lon="-3.043406">
        <ele>838.289</ele>
        <time>2019-06-25T03:25:24Z</time>
      </trkpt>
      <trkpt lat="38.918485" lon="-3.043814">
        <ele>828.717</ele>
        <time>2019-06-25T03:25:44Z</time>
      </trkpt>
      <trkpt lat="38.917925" lon="-3.043953">
        <ele>827.108</ele>
        <time>2019-06-25T03:26:04Z</time>
      </trkpt>
      <trkpt lat="38.916932" lon="-3.044554">
        <ele>823.015</ele>
        <time>2019-06-25T03:26:24Z</time>
      </trkpt>
      <trkpt lat="38.915930" lon="-3.045123">
        <ele>818.680</ele>
        <time>2019-06-25T03:26:44Z</time>
      </trkpt>
      <trkpt lat="38.915738" lon="-3.045284">
        <ele>818.742</ele>
        <time>2019-06-25T03:27:04Z</time>
      </trkpt>
      <trkpt lat="38.915196" lon="-3.045487">
        <ele>817.562</ele>
        <time>2019-06-25T03:27:24Z</time>
      </trkpt>
      <trkpt lat="38.914753" lon="-3.045552">
        <ele>816.182</ele>
        <time>2019-06-25T03:27:44Z</time>
      </trkpt>
      <trkpt lat="38.914494" lon="-3.045723">
        <ele>815.288</ele>
        <time>2019-06-25T03:28:04Z</time>
      </trkpt>
      <trkpt lat="38.913743" lon="-3.046464">
        <ele>814.157</ele>
        <time>2019-06-25T03:28:24Z</time>
      </trkpt>
      <trkpt lat="38.913209" lon="-3.046764">
        <ele>813.021</ele>
        <time>2019-06-25T03:28:44Z</time>
      </trkpt>
      <trkpt lat="38.912633" lon="-3.046914">
        <ele>811.395</ele>
        <time>2019-06-25T03:29:04Z</time>
      </trkpt>
      <trkpt lat="38.912048" lon="-3.047032">
        <ele>807.849</ele>
        <time>2019-06-25T03:29:24Z</time>
      </trkpt>
      <trkpt lat="38.911247" lon="-3.047515">
        <ele>807.523</ele>
        <time>2019-06-25T03:29:44Z</time>
      </trkpt>
      <trkpt lat="38.910921" lon="-3.047891">
        <ele>805.308</ele>
        <time>2019-06-25T03:30:04Z</time>
      </trkpt>
      <trkpt lat="38.910604" lon="-3.048159">
        <ele>805.142</ele>
        <time>2019-06-25T03:30:24Z</time>
      </trkpt>
      <trkpt lat="38.910045" lon="-3.048298">
        <ele>803.387</ele>
        <time>2019-06-25T03:30:44Z</time>
      </trkpt>
      <trkpt lat="38.909536" lon="-3.048255">
        <ele>801.159</ele>
        <time>2019-06-25T03:31:04Z</time>
      </trkpt>
      <trkpt lat="38.908726" lon="-3.048545">
        <ele>800.449</ele>
        <time>2019-06-25T03:31:24Z</time>
      </trkpt>
      <trkpt lat="38.908434" lon="-3.048717">
        <ele>799.129</ele>
        <time>2019-06-25T03:31:44Z</time>
      </trkpt>
      <trkpt lat="38.908300" lon="-3.048824">
        <ele>798.135</ele>
        <time>2019-06-25T03:32:04Z</time>
      </trkpt>
      <trkpt lat="38.907832" lon="-3.048770">
        <ele>795.914</ele>
        <time>2019-06-25T03:32:24Z</time>
      </trkpt>
      <trkpt lat="38.907390" lon="-3.048867">
        <ele>795.638</ele>
        <time>2019-06-25T03:32:44Z</time>
      </trkpt>
      <trkpt lat="38.906764" lon="-3.049103">
        <ele>792.071</ele>
        <time>2019-06-25T03:33:04Z</time>
      </trkpt>
      <trkpt lat="38.905887" lon="-3.049414">
        <ele>792.241</ele>
        <time>2019-06-25T03:33:24Z</time>
      </trkpt>
      <trkpt lat="38.905278" lon="-3.049779">
        <ele>790.015</ele>
        <time>2019-06-25T03:33:44Z</time>
      </trkpt>
      <trkpt lat="38.904768" lon="-3.049854">
        <ele>787.608</ele>
        <time>2019-06-25T03:34:04Z</time>
      </trkpt>
      <trkpt lat="38.903641" lon="-3.049328">
        <ele>789.960</ele>
        <time>2019-06-25T03:34:24Z</time>
      </trkpt>
      <trkpt lat="38.903458" lon="-3.049371">
        <ele>790.015</ele>
        <time>2019-06-25T03:34:44Z</time>
      </trkpt>
      <trkpt lat="38.902414" lon="-3.048245">
        <ele>789.277</ele>
        <time>2019-06-25T03:35:04Z</time>
      </trkpt>
      <trkpt lat="38.902230" lon="-3.047848">
        <ele>790.977</ele>
        <time>2019-06-25T03:35:24Z</time>
      </trkpt>
      <trkpt lat="38.902239" lon="-3.048717">
        <ele>791.927</ele>
        <time>2019-06-25T03:35:44Z</time>
      </trkpt>
      <trkpt lat="38.902172" lon="-3.049983">
        <ele>791.983</ele>
        <time>2019-06-25T03:36:04Z</time>
      </trkpt>
      <trkpt lat="38.902230" lon="-3.050852">
        <ele>788.942</ele>
        <time>2019-06-25T03:36:24Z</time>
      </trkpt>
      <trkpt lat="38.902247" lon="-3.051925">
        <ele>789.876</ele>
        <time>2019-06-25T03:36:44Z</time>
      </trkpt>
      <trkpt lat="38.902188" lon="-3.052375">
        <ele>792.692</ele>
        <time>2019-06-25T03:37:04Z</time>
      </trkpt>
      <trkpt lat="38.902264" lon="-3.052815">
        <ele>791.673</ele>
        <time>2019-06-25T03:37:24Z</time>
      </trkpt>
      <trkpt lat="38.902322" lon="-3.053534">
        <ele>790.420</ele>
        <time>2019-06-25T03:37:44Z</time>
      </trkpt>
      <trkpt lat="38.902514" lon="-3.054178">
        <ele>790.008</ele>
        <time>2019-06-25T03:38:04Z</time>
      </trkpt>
      <trkpt lat="38.902497" lon="-3.054510">
        <ele>792.032</ele>
        <time>2019-06-25T03:38:24Z</time>
      </trkpt>
      <trkpt lat="38.902439" lon="-3.054918">
        <ele>791.567</ele>
        <time>2019-06-25T03:38:44Z</time>
      </trkpt>
      <trkpt lat="38.902431" lon="-3.055573">
        <ele>790.259</ele>
        <time>2019-06-25T03:39:04Z</time>
      </trkpt>
      <trkpt lat="38.902397" lon="-3.056034">
        <ele>789.689</ele>
        <time>2019-06-25T03:39:24Z</time>
      </trkpt>
      <trkpt lat="38.902439" lon="-3.056399">
        <ele>788.599</ele>
        <time>2019-06-25T03:39:44Z</time>
      </trkpt>
      <trkpt lat="38.902414" lon="-3.057311">
        <ele>788.115</ele>
        <time>2019-06-25T03:40:04Z</time>
      </trkpt>
      <trkpt lat="38.902364" lon="-3.057600">
        <ele>788.294</ele>
        <time>2019-06-25T03:40:24Z</time>
      </trkpt>
      <trkpt lat="38.902756" lon="-3.058813">
        <ele>784.668</ele>
        <time>2019-06-25T03:40:44Z</time>
      </trkpt>
      <trkpt lat="38.901387" lon="-3.058791">
        <ele>789.839</ele>
        <time>2019-06-25T03:41:04Z</time>
      </trkpt>
      <trkpt lat="38.901145" lon="-3.058941">
        <ele>790.401</ele>
        <time>2019-06-25T03:41:24Z</time>
      </trkpt>
      <trkpt lat="38.900510" lon="-3.059381">
        <ele>795.321</ele>
        <time>2019-06-25T03:41:44Z</time>
      </trkpt>
      <trkpt lat="38.900135" lon="-3.059564">
        <ele>795.608</ele>
        <time>2019-06-25T03:42:04Z</time>
      </trkpt>
      <trkpt lat="38.899842" lon="-3.059456">
        <ele>798.316</ele>
        <time>2019-06-25T03:42:24Z</time>
      </trkpt>
      <trkpt lat="38.898807" lon="-3.058877">
        <ele>801.621</ele>
        <time>2019-06-25T03:42:44Z</time>
      </trkpt>
      <trkpt lat="38.898114" lon="-3.058684">
        <ele>802.623</ele>
        <time>2019-06-25T03:43:04Z</time>
      </trkpt>
      <trkpt lat="38.897905" lon="-3.058416">
        <ele>803.963</ele>
        <time>2019-06-25T03:43:24Z</time>
      </trkpt>
      <trkpt lat="38.897696" lon="-3.058029">
        <ele>805.963</ele>
        <time>2019-06-25T03:43:44Z</time>
      </trkpt>
      <trkpt lat="38.897412" lon="-3.057525">
        <ele>807.569</ele>
        <time>2019-06-25T03:44:04Z</time>
      </trkpt>
      <trkpt lat="38.897304" lon="-3.057150">
        <ele>808.798</ele>
        <time>2019-06-25T03:44:24Z</time>
      </trkpt>
      <trkpt lat="38.897237" lon="-3.056860">
        <ele>808.242</ele>
        <time>2019-06-25T03:44:44Z</time>
      </trkpt>
      <trkpt lat="38.897162" lon="-3.056849">
        <ele>807.469</ele>
        <time>2019-06-25T03:45:04Z</time>
      </trkpt>
      <trkpt lat="38.897187" lon="-3.055315">
        <ele>814.204</ele>
        <time>2019-06-25T03:45:24Z</time>
      </trkpt>
      <trkpt lat="38.897187" lon="-3.054500">
        <ele>818.324</ele>
        <time>2019-06-25T03:45:44Z</time>
      </trkpt>
      <trkpt lat="38.897145" lon="-3.053609">
        <ele>817.408</ele>
        <time>2019-06-25T03:46:04Z</time>
      </trkpt>
      <trkpt lat="38.897112" lon="-3.053051">
        <ele>818.279</ele>
        <time>2019-06-25T03:46:24Z</time>
      </trkpt>
      <trkpt lat="38.896260" lon="-3.052998">
        <ele>817.674</ele>
        <time>2019-06-25T03:46:44Z</time>
      </trkpt>
      <trkpt lat="38.895843" lon="-3.052965">
        <ele>818.346</ele>
        <time>2019-06-25T03:47:04Z</time>
      </trkpt>
      <trkpt lat="38.894916" lon="-3.052504">
        <ele>823.646</ele>
        <time>2019-06-25T03:47:24Z</time>
      </trkpt>
      <trkpt lat="38.894390" lon="-3.052279">
        <ele>824.426</ele>
        <time>2019-06-25T03:47:44Z</time>
      </trkpt>
      <trkpt lat="38.894022" lon="-3.052107">
        <ele>826.392</ele>
        <time>2019-06-25T03:48:04Z</time>
      </trkpt>
      <trkpt lat="38.893797" lon="-3.052139">
        <ele>827.961</ele>
        <time>2019-06-25T03:48:24Z</time>
      </trkpt>
      <trkpt lat="38.893505" lon="-3.052322">
        <ele>830.745</ele>
        <time>2019-06-25T03:48:44Z</time>
      </trkpt>
      <trkpt lat="38.893104" lon="-3.052375">
        <ele>832.459</ele>
        <time>2019-06-25T03:49:04Z</time>
      </trkpt>
      <trkpt lat="38.892912" lon="-3.052343">
        <ele>832.403</ele>
        <time>2019-06-25T03:49:24Z</time>
      </trkpt>
      <trkpt lat="38.892678" lon="-3.052429">
        <ele>832.523</ele>
        <time>2019-06-25T03:49:44Z</time>
      </trkpt>
      <trkpt lat="38.891935" lon="-3.052568">
        <ele>829.808</ele>
        <time>2019-06-25T03:50:04Z</time>
      </trkpt>
      <trkpt lat="38.891175" lon="-3.052633">
        <ele>831.298</ele>
        <time>2019-06-25T03:50:24Z</time>
      </trkpt>
      <trkpt lat="38.890640" lon="-3.052633">
        <ele>829.363</ele>
        <time>2019-06-25T03:50:44Z</time>
      </trkpt>
      <trkpt lat="38.890248" lon="-3.052547">
        <ele>828.915</ele>
        <time>2019-06-25T03:51:04Z</time>
      </trkpt>
      <trkpt lat="38.889062" lon="-3.052654">
        <ele>830.745</ele>
        <time>2019-06-25T03:51:24Z</time>
      </trkpt>
      <trkpt lat="38.888628" lon="-3.052729">
        <ele>833.895</ele>
        <time>2019-06-25T03:51:44Z</time>
      </trkpt>
      <trkpt lat="38.887551" lon="-3.052901">
        <ele>843.181</ele>
        <time>2019-06-25T03:52:04Z</time>
      </trkpt>
      <trkpt lat="38.887116" lon="-3.053062">
        <ele>844.040</ele>
        <time>2019-06-25T03:52:24Z</time>
      </trkpt>
      <trkpt lat="38.886765" lon="-3.053373">
        <ele>841.484</ele>
        <time>2019-06-25T03:52:44Z</time>
      </trkpt>
      <trkpt lat="38.885947" lon="-3.053545">
        <ele>841.081</ele>
        <time>2019-06-25T03:53:04Z</time>
      </trkpt>
      <trkpt lat="38.884628" lon="-3.054070">
        <ele>832.061</ele>
        <time>2019-06-25T03:53:24Z</time>
      </trkpt>
      <trkpt lat="38.883959" lon="-3.054382">
        <ele>829.617</ele>
        <time>2019-06-25T03:53:44Z</time>
      </trkpt>
      <trkpt lat="38.882941" lon="-3.055068">
        <ele>829.008</ele>
        <time>2019-06-25T03:54:04Z</time>
      </trkpt>
      <trkpt lat="38.882306" lon="-3.055454">
        <ele>825.671</ele>
        <time>2019-06-25T03:54:24Z</time>
      </trkpt>
      <trkpt lat="38.881830" lon="-3.055229">
        <ele>828.786</ele>
        <time>2019-06-25T03:54:44Z</time>
      </trkpt>
      <trkpt lat="38.880452" lon="-3.054478">
        <ele>829.338</ele>
        <time>2019-06-25T03:55:04Z</time>
      </trkpt>
      <trkpt lat="38.880109" lon="-3.054575">
        <ele>831.238</ele>
        <time>2019-06-25T03:55:24Z</time>
      </trkpt>
      <trkpt lat="38.879575" lon="-3.054982">
        <ele>833.568</ele>
        <time>2019-06-25T03:55:44Z</time>
      </trkpt>
      <trkpt lat="38.879140" lon="-3.055015">
        <ele>832.954</ele>
        <time>2019-06-25T03:56:04Z</time>
      </trkpt>
      <trkpt lat="38.877512" lon="-3.054864">
        <ele>831.463</ele>
        <time>2019-06-25T03:56:24Z</time>
      </trkpt>
      <trkpt lat="38.876000" lon="-3.054725">
        <ele>828.027</ele>
        <time>2019-06-25T03:56:44Z</time>
      </trkpt>
      <trkpt lat="38.875541" lon="-3.054768">
        <ele>827.074</ele>
        <time>2019-06-25T03:57:04Z</time>
      </trkpt>
      <trkpt lat="38.874889" lon="-3.054950">
        <ele>823.956</ele>
        <time>2019-06-25T03:57:24Z</time>
      </trkpt>
      <trkpt lat="38.873645" lon="-3.055218">
        <ele>819.221</ele>
        <time>2019-06-25T03:57:44Z</time>
      </trkpt>
      <trkpt lat="38.873235" lon="-3.055133">
        <ele>821.208</ele>
        <time>2019-06-25T03:58:04Z</time>
      </trkpt>
      <trkpt lat="38.872492" lon="-3.054940">
        <ele>821.430</ele>
        <time>2019-06-25T03:58:24Z</time>
      </trkpt>
      <trkpt lat="38.871598" lon="-3.054982">
        <ele>821.955</ele>
        <time>2019-06-25T03:58:44Z</time>
      </trkpt>
      <trkpt lat="38.870704" lon="-3.055004">
        <ele>819.517</ele>
        <time>2019-06-25T03:59:04Z</time>
      </trkpt>
      <trkpt lat="38.870028" lon="-3.055047">
        <ele>818.327</ele>
        <time>2019-06-25T03:59:24Z</time>
      </trkpt>
      <trkpt lat="38.868215" lon="-3.055143">
        <ele>817.617</ele>
        <time>2019-06-25T03:59:44Z</time>
      </trkpt>
      <trkpt lat="38.867864" lon="-3.055176">
        <ele>815.593</ele>
        <time>2019-06-25T04:00:04Z</time>
      </trkpt>
      <trkpt lat="38.866436" lon="-3.055573">
        <ele>813.022</ele>
        <time>2019-06-25T04:00:24Z</time>
      </trkpt>
      <trkpt lat="38.865818" lon="-3.055691">
        <ele>812.966</ele>
        <time>2019-06-25T04:00:44Z</time>
      </trkpt>
      <trkpt lat="38.865617" lon="-3.055615">
        <ele>811.625</ele>
        <time>2019-06-25T04:01:04Z</time>
      </trkpt>
      <trkpt lat="38.865191" lon="-3.055658">
        <ele>808.626</ele>
        <time>2019-06-25T04:01:24Z</time>
      </trkpt>
      <trkpt lat="38.864281" lon="-3.055937">
        <ele>812.008</ele>
        <time>2019-06-25T04:01:44Z</time>
      </trkpt>
      <trkpt lat="38.863838" lon="-3.056034">
        <ele>811.108</ele>
        <time>2019-06-25T04:02:04Z</time>
      </trkpt>
      <trkpt lat="38.863637" lon="-3.056002">
        <ele>809.895</ele>
        <time>2019-06-25T04:02:24Z</time>
      </trkpt>
      <trkpt lat="38.862551" lon="-3.055433">
        <ele>806.660</ele>
        <time>2019-06-25T04:02:44Z</time>
      </trkpt>
      <trkpt lat="38.861039" lon="-3.054661">
        <ele>805.032</ele>
        <time>2019-06-25T04:03:04Z</time>
      </trkpt>
      <trkpt lat="38.859669" lon="-3.053920">
        <ele>803.272</ele>
        <time>2019-06-25T04:03:24Z</time>
      </trkpt>
      <trkpt lat="38.858934" lon="-3.053566">
        <ele>802.342</ele>
        <time>2019-06-25T04:03:44Z</time>
      </trkpt>
      <trkpt lat="38.858299" lon="-3.053223">
        <ele>806.098</ele>
        <time>2019-06-25T04:04:04Z</time>
      </trkpt>
      <trkpt lat="38.857781" lon="-3.053051">
        <ele>806.017</ele>
        <time>2019-06-25T04:04:24Z</time>
      </trkpt>
      <trkpt lat="38.857388" lon="-3.053051">
        <ele>807.481</ele>
        <time>2019-06-25T04:04:44Z</time>
      </trkpt>
      <trkpt lat="38.856979" lon="-3.052826">
        <ele>809.041</ele>
        <time>2019-06-25T04:05:04Z</time>
      </trkpt>
      <trkpt lat="38.856035" lon="-3.052461">
        <ele>814.281</ele>
        <time>2019-06-25T04:05:24Z</time>
      </trkpt>
      <trkpt lat="38.855734" lon="-3.052397">
        <ele>815.709</ele>
        <time>2019-06-25T04:05:44Z</time>
      </trkpt>
      <trkpt lat="38.855249" lon="-3.052257">
        <ele>818.208</ele>
        <time>2019-06-25T04:06:04Z</time>
      </trkpt>
      <trkpt lat="38.854823" lon="-3.051957">
        <ele>818.647</ele>
        <time>2019-06-25T04:06:24Z</time>
      </trkpt>
      <trkpt lat="38.854464" lon="-3.051753">
        <ele>820.762</ele>
        <time>2019-06-25T04:06:44Z</time>
      </trkpt>
      <trkpt lat="38.853954" lon="-3.051356">
        <ele>823.974</ele>
        <time>2019-06-25T04:07:04Z</time>
      </trkpt>
      <trkpt lat="38.853787" lon="-3.051270">
        <ele>824.814</ele>
        <time>2019-06-25T04:07:24Z</time>
      </trkpt>
      <trkpt lat="38.853562" lon="-3.051217">
        <ele>825.364</ele>
        <time>2019-06-25T04:07:44Z</time>
      </trkpt>
      <trkpt lat="38.853010" lon="-3.051249">
        <ele>821.720</ele>
        <time>2019-06-25T04:08:04Z</time>
      </trkpt>
      <trkpt lat="38.852593" lon="-3.051313">
        <ele>819.879</ele>
        <time>2019-06-25T04:08:24Z</time>
      </trkpt>
      <trkpt lat="38.852250" lon="-3.051420">
        <ele>820.013</ele>
        <time>2019-06-25T04:08:44Z</time>
      </trkpt>
      <trkpt lat="38.851657" lon="-3.051453">
        <ele>817.281</ele>
        <time>2019-06-25T04:09:04Z</time>
      </trkpt>
      <trkpt lat="38.851206" lon="-3.051603">
        <ele>816.361</ele>
        <time>2019-06-25T04:09:24Z</time>
      </trkpt>
      <trkpt lat="38.850704" lon="-3.051624">
        <ele>814.517</ele>
        <time>2019-06-25T04:09:44Z</time>
      </trkpt>
      <trkpt lat="38.849986" lon="-3.051850">
        <ele>813.908</ele>
        <time>2019-06-25T04:10:04Z</time>
      </trkpt>
      <trkpt lat="38.849476" lon="-3.052107">
        <ele>811.261</ele>
        <time>2019-06-25T04:10:24Z</time>
      </trkpt>
      <trkpt lat="38.848557" lon="-3.052300">
        <ele>811.096</ele>
        <time>2019-06-25T04:10:44Z</time>
      </trkpt>
      <trkpt lat="38.847763" lon="-3.052343">
        <ele>811.058</ele>
        <time>2019-06-25T04:11:04Z</time>
      </trkpt>
      <trkpt lat="38.846894" lon="-3.052279">
        <ele>811.848</ele>
        <time>2019-06-25T04:11:24Z</time>
      </trkpt>
      <trkpt lat="38.846025" lon="-3.052193">
        <ele>810.858</ele>
        <time>2019-06-25T04:11:44Z</time>
      </trkpt>
      <trkpt lat="38.845206" lon="-3.052182">
        <ele>811.414</ele>
        <time>2019-06-25T04:12:04Z</time>
      </trkpt>
      <trkpt lat="38.844638" lon="-3.052225">
        <ele>813.693</ele>
        <time>2019-06-25T04:12:24Z</time>
      </trkpt>
      <trkpt lat="38.844329" lon="-3.052268">
        <ele>814.797</ele>
        <time>2019-06-25T04:12:44Z</time>
      </trkpt>
      <trkpt lat="38.844061" lon="-3.052386">
        <ele>814.829</ele>
        <time>2019-06-25T04:13:04Z</time>
      </trkpt>
      <trkpt lat="38.842616" lon="-3.052000">
        <ele>819.700</ele>
        <time>2019-06-25T04:13:24Z</time>
      </trkpt>
      <trkpt lat="38.842106" lon="-3.051935">
        <ele>821.020</ele>
        <time>2019-06-25T04:13:44Z</time>
      </trkpt>
      <trkpt lat="38.841396" lon="-3.051882">
        <ele>823.008</ele>
        <time>2019-06-25T04:14:04Z</time>
      </trkpt>
      <trkpt lat="38.841028" lon="-3.052000">
        <ele>824.285</ele>
        <time>2019-06-25T04:14:24Z</time>
      </trkpt>
      <trkpt lat="38.840593" lon="-3.051978">
        <ele>824.110</ele>
        <time>2019-06-25T04:14:44Z</time>
      </trkpt>
      <trkpt lat="38.840234" lon="-3.052129">
        <ele>823.512</ele>
        <time>2019-06-25T04:15:04Z</time>
      </trkpt>
      <trkpt lat="38.839825" lon="-3.051957">
        <ele>822.042</ele>
        <time>2019-06-25T04:15:24Z</time>
      </trkpt>
      <trkpt lat="38.839499" lon="-3.051882">
        <ele>821.842</ele>
        <time>2019-06-25T04:15:44Z</time>
      </trkpt>
      <trkpt lat="38.838671" lon="-3.051678">
        <ele>816.588</ele>
        <time>2019-06-25T04:16:04Z</time>
      </trkpt>
      <trkpt lat="38.838095" lon="-3.051678">
        <ele>814.157</ele>
        <time>2019-06-25T04:16:24Z</time>
      </trkpt>
      <trkpt lat="38.837560" lon="-3.051678">
        <ele>811.221</ele>
        <time>2019-06-25T04:16:44Z</time>
      </trkpt>
      <trkpt lat="38.836607" lon="-3.051538">
        <ele>808.616</ele>
        <time>2019-06-25T04:17:04Z</time>
      </trkpt>
      <trkpt lat="38.836223" lon="-3.051667">
        <ele>805.876</ele>
        <time>2019-06-25T04:17:24Z</time>
      </trkpt>
      <trkpt lat="38.835379" lon="-3.051603">
        <ele>803.713</ele>
        <time>2019-06-25T04:17:44Z</time>
      </trkpt>
      <trkpt lat="38.834576" lon="-3.051367">
        <ele>802.008</ele>
        <time>2019-06-25T04:18:04Z</time>
      </trkpt>
      <trkpt lat="38.833716" lon="-3.051217">
        <ele>797.864</ele>
        <time>2019-06-25T04:18:24Z</time>
      </trkpt>
      <trkpt lat="38.833356" lon="-3.050916">
        <ele>795.559</ele>
        <time>2019-06-25T04:18:44Z</time>
      </trkpt>
      <trkpt lat="38.832947" lon="-3.050820">
        <ele>795.141</ele>
        <time>2019-06-25T04:19:04Z</time>
      </trkpt>
      <trkpt lat="38.832637" lon="-3.050777">
        <ele>794.851</ele>
        <time>2019-06-25T04:19:24Z</time>
      </trkpt>
      <trkpt lat="38.832044" lon="-3.050551">
        <ele>790.731</ele>
        <time>2019-06-25T04:19:44Z</time>
      </trkpt>
      <trkpt lat="38.831760" lon="-3.050272">
        <ele>788.727</ele>
        <time>2019-06-25T04:20:04Z</time>
      </trkpt>
      <trkpt lat="38.831509" lon="-3.049843">
        <ele>787.616</ele>
        <time>2019-06-25T04:20:24Z</time>
      </trkpt>
      <trkpt lat="38.831250" lon="-3.049253">
        <ele>784.090</ele>
        <time>2019-06-25T04:20:44Z</time>
      </trkpt>
      <trkpt lat="38.830790" lon="-3.049232">
        <ele>784.471</ele>
        <time>2019-06-25T04:21:04Z</time>
      </trkpt>
      <trkpt lat="38.830389" lon="-3.049071">
        <ele>783.741</ele>
        <time>2019-06-25T04:21:24Z</time>
      </trkpt>
      <trkpt lat="38.830222" lon="-3.048942">
        <ele>782.115</ele>
        <time>2019-06-25T04:21:44Z</time>
      </trkpt>
      <trkpt lat="38.830139" lon="-3.048620">
        <ele>781.008</ele>
        <time>2019-06-25T04:22:04Z</time>
      </trkpt>
      <trkpt lat="38.829821" lon="-3.048234">
        <ele>781.010</ele>
        <time>2019-06-25T04:22:24Z</time>
      </trkpt>
      <trkpt lat="38.829545" lon="-3.048041">
        <ele>782.755</ele>
        <time>2019-06-25T04:22:44Z</time>
      </trkpt>
      <trkpt lat="38.829428" lon="-3.047783">
        <ele>785.087</ele>
        <time>2019-06-25T04:23:04Z</time>
      </trkpt>
      <trkpt lat="38.828918" lon="-3.047901">
        <ele>784.117</ele>
        <time>2019-06-25T04:23:24Z</time>
      </trkpt>
      <trkpt lat="38.828634" lon="-3.048137">
        <ele>783.467</ele>
        <time>2019-06-25T04:23:44Z</time>
      </trkpt>
      <trkpt lat="38.828225" lon="-3.048234">
        <ele>783.943</ele>
        <time>2019-06-25T04:24:04Z</time>
      </trkpt>
      <trkpt lat="38.827840" lon="-3.048341">
        <ele>784.742</ele>
        <time>2019-06-25T04:24:24Z</time>
      </trkpt>
      <trkpt lat="38.827564" lon="-3.048524">
        <ele>784.446</ele>
        <time>2019-06-25T04:24:44Z</time>
      </trkpt>
      <trkpt lat="38.827130" lon="-3.048577">
        <ele>786.035</ele>
        <time>2019-06-25T04:25:04Z</time>
      </trkpt>
      <trkpt lat="38.826570" lon="-3.048728">
        <ele>789.286</ele>
        <time>2019-06-25T04:25:24Z</time>
      </trkpt>
      <trkpt lat="38.825851" lon="-3.048588">
        <ele>793.014</ele>
        <time>2019-06-25T04:25:44Z</time>
      </trkpt>
      <trkpt lat="38.824948" lon="-3.048416">
        <ele>792.908</ele>
        <time>2019-06-25T04:26:04Z</time>
      </trkpt>
      <trkpt lat="38.824104" lon="-3.048331">
        <ele>799.286</ele>
        <time>2019-06-25T04:26:24Z</time>
      </trkpt>
      <trkpt lat="38.823151" lon="-3.048331">
        <ele>803.091</ele>
        <time>2019-06-25T04:26:44Z</time>
      </trkpt>
      <trkpt lat="38.822767" lon="-3.048127">
        <ele>801.093</ele>
        <time>2019-06-25T04:27:04Z</time>
      </trkpt>
      <trkpt lat="38.822273" lon="-3.048019">
        <ele>798.423</ele>
        <time>2019-06-25T04:27:24Z</time>
      </trkpt>
      <trkpt lat="38.821421" lon="-3.047880">
        <ele>790.263</ele>
        <time>2019-06-25T04:27:44Z</time>
      </trkpt>
      <trkpt lat="38.820610" lon="-3.047740">
        <ele>784.129</ele>
        <time>2019-06-25T04:28:04Z</time>
      </trkpt>
      <trkpt lat="38.820000" lon="-3.047794">
        <ele>784.098</ele>
        <time>2019-06-25T04:28:24Z</time>
      </trkpt>
      <trkpt lat="38.819849" lon="-3.047880">
        <ele>784.392</ele>
        <time>2019-06-25T04:28:44Z</time>
      </trkpt>
      <trkpt lat="38.819640" lon="-3.047912">
        <ele>784.849</ele>
        <time>2019-06-25T04:29:04Z</time>
      </trkpt>
      <trkpt lat="38.819515" lon="-3.047504">
        <ele>785.502</ele>
        <time>2019-06-25T04:29:24Z</time>
      </trkpt>
      <trkpt lat="38.819164" lon="-3.047054">
        <ele>787.422</ele>
        <time>2019-06-25T04:29:44Z</time>
      </trkpt>
      <trkpt lat="38.818587" lon="-3.046603">
        <ele>787.808</ele>
        <time>2019-06-25T04:30:04Z</time>
      </trkpt>
      <trkpt lat="38.818328" lon="-3.046281">
        <ele>789.767</ele>
        <time>2019-06-25T04:30:24Z</time>
      </trkpt>
      <trkpt lat="38.818194" lon="-3.045681">
        <ele>793.132</ele>
        <time>2019-06-25T04:30:44Z</time>
      </trkpt>
      <trkpt lat="38.818077" lon="-3.045273">
        <ele>792.974</ele>
        <time>2019-06-25T04:31:04Z</time>
      </trkpt>
      <trkpt lat="38.817584" lon="-3.044640">
        <ele>795.024</ele>
        <time>2019-06-25T04:31:24Z</time>
      </trkpt>
      <trkpt lat="38.816656" lon="-3.043985">
        <ele>801.054</ele>
        <time>2019-06-25T04:31:44Z</time>
      </trkpt>
      <trkpt lat="38.815803" lon="-3.043245">
        <ele>803.890</ele>
        <time>2019-06-25T04:32:04Z</time>
      </trkpt>
      <trkpt lat="38.815327" lon="-3.042569">
        <ele>804.089</ele>
        <time>2019-06-25T04:32:24Z</time>
      </trkpt>
      <trkpt lat="38.814884" lon="-3.042183">
        <ele>805.863</ele>
        <time>2019-06-25T04:32:44Z</time>
      </trkpt>
      <trkpt lat="38.814608" lon="-3.041872">
        <ele>807.466</ele>
        <time>2019-06-25T04:33:04Z</time>
      </trkpt>
      <trkpt lat="38.814274" lon="-3.041453">
        <ele>809.129</ele>
        <time>2019-06-25T04:33:24Z</time>
      </trkpt>
      <trkpt lat="38.813438" lon="-3.040713">
        <ele>813.121</ele>
        <time>2019-06-25T04:33:44Z</time>
      </trkpt>
      <trkpt lat="38.812844" lon="-3.040198">
        <ele>814.308</ele>
        <time>2019-06-25T04:34:04Z</time>
      </trkpt>
      <trkpt lat="38.812267" lon="-3.039726">
        <ele>812.289</ele>
        <time>2019-06-25T04:34:24Z</time>
      </trkpt>
      <trkpt lat="38.811532" lon="-3.038836">
        <ele>811.254</ele>
        <time>2019-06-25T04:34:44Z</time>
      </trkpt>
      <trkpt lat="38.811314" lon="-3.038535">
        <ele>812.556</ele>
        <time>2019-06-25T04:35:04Z</time>
      </trkpt>
      <trkpt lat="38.810645" lon="-3.038127">
        <ele>813.956</ele>
        <time>2019-06-25T04:35:24Z</time>
      </trkpt>
      <trkpt lat="38.809642" lon="-3.037398">
        <ele>819.366</ele>
        <time>2019-06-25T04:35:44Z</time>
      </trkpt>
      <trkpt lat="38.809232" lon="-3.036979">
        <ele>822.452</ele>
        <time>2019-06-25T04:36:04Z</time>
      </trkpt>
      <trkpt lat="38.808940" lon="-3.036722">
        <ele>824.011</ele>
        <time>2019-06-25T04:36:24Z</time>
      </trkpt>
      <trkpt lat="38.808070" lon="-3.036078">
        <ele>823.275</ele>
        <time>2019-06-25T04:36:44Z</time>
      </trkpt>
      <trkpt lat="38.807251" lon="-3.035703">
        <ele>822.495</ele>
        <time>2019-06-25T04:37:04Z</time>
      </trkpt>
      <trkpt lat="38.806114" lon="-3.035327">
        <ele>824.449</ele>
        <time>2019-06-25T04:37:24Z</time>
      </trkpt>
      <trkpt lat="38.805596" lon="-3.035188">
        <ele>825.023</ele>
        <time>2019-06-25T04:37:44Z</time>
      </trkpt>
      <trkpt lat="38.805127" lon="-3.034952">
        <ele>825.008</ele>
        <time>2019-06-25T04:38:04Z</time>
      </trkpt>
      <trkpt lat="38.804500" lon="-3.034565">
        <ele>821.422</ele>
        <time>2019-06-25T04:38:24Z</time>
      </trkpt>
      <trkpt lat="38.803999" lon="-3.034276">
        <ele>817.877</ele>
        <time>2019-06-25T04:38:44Z</time>
      </trkpt>
      <trkpt lat="38.803539" lon="-3.034147">
        <ele>814.429</ele>
        <time>2019-06-25T04:39:04Z</time>
      </trkpt>
      <trkpt lat="38.803163" lon="-3.034147">
        <ele>813.049</ele>
        <time>2019-06-25T04:39:24Z</time>
      </trkpt>
      <trkpt lat="38.802527" lon="-3.034179">
        <ele>813.929</ele>
        <time>2019-06-25T04:39:44Z</time>
      </trkpt>
      <trkpt lat="38.801875" lon="-3.033986">
        <ele>814.885</ele>
        <time>2019-06-25T04:40:04Z</time>
      </trkpt>
      <trkpt lat="38.801214" lon="-3.033611">
        <ele>814.664</ele>
        <time>2019-06-25T04:40:24Z</time>
      </trkpt>
      <trkpt lat="38.800713" lon="-3.033396">
        <ele>813.938</ele>
        <time>2019-06-25T04:40:44Z</time>
      </trkpt>
      <trkpt lat="38.800236" lon="-3.032956">
        <ele>814.265</ele>
        <time>2019-06-25T04:41:04Z</time>
      </trkpt>
      <trkpt lat="38.799325" lon="-3.032581">
        <ele>812.068</ele>
        <time>2019-06-25T04:41:24Z</time>
      </trkpt>
      <trkpt lat="38.798280" lon="-3.032302">
        <ele>810.214</ele>
        <time>2019-06-25T04:41:44Z</time>
      </trkpt>
      <trkpt lat="38.798037" lon="-3.032506">
        <ele>811.008</ele>
        <time>2019-06-25T04:42:04Z</time>
      </trkpt>
      <trkpt lat="38.797761" lon="-3.032591">
        <ele>811.029</ele>
        <time>2019-06-25T04:42:24Z</time>
      </trkpt>
      <trkpt lat="38.797050" lon="-3.032355">
        <ele>811.684</ele>
        <time>2019-06-25T04:42:44Z</time>
      </trkpt>
      <trkpt lat="38.796549" lon="-3.032259">
        <ele>810.156</ele>
        <time>2019-06-25T04:43:04Z</time>
      </trkpt>
      <trkpt lat="38.796315" lon="-3.032151">
        <ele>810.896</ele>
        <time>2019-06-25T04:43:24Z</time>
      </trkpt>
      <trkpt lat="38.796156" lon="-3.032098">
        <ele>810.996</ele>
        <time>2019-06-25T04:43:44Z</time>
      </trkpt>
      <trkpt lat="38.795161" lon="-3.031830">
        <ele>815.282</ele>
        <time>2019-06-25T04:44:04Z</time>
      </trkpt>
      <trkpt lat="38.793982" lon="-3.031583">
        <ele>816.881</ele>
        <time>2019-06-25T04:44:24Z</time>
      </trkpt>
      <trkpt lat="38.793246" lon="-3.031411">
        <ele>818.115</ele>
        <time>2019-06-25T04:44:44Z</time>
      </trkpt>
      <trkpt lat="38.792527" lon="-3.031272">
        <ele>818.416</ele>
        <time>2019-06-25T04:45:04Z</time>
      </trkpt>
      <trkpt lat="38.791799" lon="-3.031240">
        <ele>820.576</ele>
        <time>2019-06-25T04:45:24Z</time>
      </trkpt>
      <trkpt lat="38.791473" lon="-3.031240">
        <ele>821.713</ele>
        <time>2019-06-25T04:45:44Z</time>
      </trkpt>
      <trkpt lat="38.790403" lon="-3.030939">
        <ele>823.308</ele>
        <time>2019-06-25T04:46:04Z</time>
      </trkpt>
      <trkpt lat="38.789725" lon="-3.030821">
        <ele>827.054</ele>
        <time>2019-06-25T04:46:24Z</time>
      </trkpt>
      <trkpt lat="38.789207" lon="-3.030660">
        <ele>830.329</ele>
        <time>2019-06-25T04:46:44Z</time>
      </trkpt>
      <trkpt lat="38.788270" lon="-3.030113">
        <ele>832.061</ele>
        <time>2019-06-25T04:47:04Z</time>
      </trkpt>
      <trkpt lat="38.787618" lon="-3.029673">
        <ele>834.561</ele>
        <time>2019-06-25T04:47:24Z</time>
      </trkpt>
      <trkpt lat="38.786915" lon="-3.029308">
        <ele>835.081</ele>
        <time>2019-06-25T04:47:44Z</time>
      </trkpt>
      <trkpt lat="38.786104" lon="-3.029147">
        <ele>838.097</ele>
        <time>2019-06-25T04:48:04Z</time>
      </trkpt>
      <trkpt lat="38.785209" lon="-3.028986">
        <ele>836.946</ele>
        <time>2019-06-25T04:48:24Z</time>
      </trkpt>
      <trkpt lat="38.784624" lon="-3.028933">
        <ele>839.890</ele>
        <time>2019-06-25T04:48:44Z</time>
      </trkpt>
      <trkpt lat="38.783788" lon="-3.028740">
        <ele>839.734</ele>
        <time>2019-06-25T04:49:04Z</time>
      </trkpt>
      <trkpt lat="38.783110" lon="-3.028429">
        <ele>842.155</ele>
        <time>2019-06-25T04:49:24Z</time>
      </trkpt>
      <trkpt lat="38.782023" lon="-3.028010">
        <ele>841.610</ele>
        <time>2019-06-25T04:49:44Z</time>
      </trkpt>
      <trkpt lat="38.780810" lon="-3.027645">
        <ele>845.008</ele>
        <time>2019-06-25T04:50:04Z</time>
      </trkpt>
      <trkpt lat="38.780241" lon="-3.027409">
        <ele>845.376</ele>
        <time>2019-06-25T04:50:24Z</time>
      </trkpt>
      <trkpt lat="38.779572" lon="-3.027023">
        <ele>844.191</ele>
        <time>2019-06-25T04:50:44Z</time>
      </trkpt>
      <trkpt lat="38.778728" lon="-3.026766">
        <ele>845.493</ele>
        <time>2019-06-25T04:51:04Z</time>
      </trkpt>
      <trkpt lat="38.777983" lon="-3.026519">
        <ele>845.963</ele>
        <time>2019-06-25T04:51:24Z</time>
      </trkpt>
      <trkpt lat="38.777314" lon="-3.026336">
        <ele>848.233</ele>
        <time>2019-06-25T04:51:44Z</time>
      </trkpt>
      <trkpt lat="38.776745" lon="-3.026218">
        <ele>848.999</ele>
        <time>2019-06-25T04:52:04Z</time>
      </trkpt>
      <trkpt lat="38.776344" lon="-3.025768">
        <ele>850.088</ele>
        <time>2019-06-25T04:52:24Z</time>
      </trkpt>
      <trkpt lat="38.775524" lon="-3.025328">
        <ele>850.162</ele>
        <time>2019-06-25T04:52:44Z</time>
      </trkpt>
      <trkpt lat="38.774596" lon="-3.024952">
        <ele>851.669</ele>
        <time>2019-06-25T04:53:04Z</time>
      </trkpt>
      <trkpt lat="38.774052" lon="-3.024641">
        <ele>850.404</ele>
        <time>2019-06-25T04:53:24Z</time>
      </trkpt>
      <trkpt lat="38.773391" lon="-3.024105">
        <ele>852.224</ele>
        <time>2019-06-25T04:53:44Z</time>
      </trkpt>
      <trkpt lat="38.773140" lon="-3.023987">
        <ele>852.208</ele>
        <time>2019-06-25T04:54:04Z</time>
      </trkpt>
      <trkpt lat="38.772329" lon="-3.023504">
        <ele>850.869</ele>
        <time>2019-06-25T04:54:24Z</time>
      </trkpt>
      <trkpt lat="38.771200" lon="-3.023000">
        <ele>851.214</ele>
        <time>2019-06-25T04:54:44Z</time>
      </trkpt>
      <trkpt lat="38.770246" lon="-3.022785">
        <ele>852.986</ele>
        <time>2019-06-25T04:55:04Z</time>
      </trkpt>
      <trkpt lat="38.769083" lon="-3.022581">
        <ele>852.836</ele>
        <time>2019-06-25T04:55:24Z</time>
      </trkpt>
      <trkpt lat="38.767318" lon="-3.022410">
        <ele>853.346</ele>
        <time>2019-06-25T04:55:44Z</time>
      </trkpt>
      <trkpt lat="38.766657" lon="-3.022249">
        <ele>854.992</ele>
        <time>2019-06-25T04:56:04Z</time>
      </trkpt>
      <trkpt lat="38.766130" lon="-3.022131">
        <ele>856.071</ele>
        <time>2019-06-25T04:56:24Z</time>
      </trkpt>
      <trkpt lat="38.765545" lon="-3.022034">
        <ele>855.715</ele>
        <time>2019-06-25T04:56:44Z</time>
      </trkpt>
      <trkpt lat="38.764692" lon="-3.021755">
        <ele>858.479</ele>
        <time>2019-06-25T04:57:04Z</time>
      </trkpt>
      <trkpt lat="38.764089" lon="-3.021927">
        <ele>859.705</ele>
        <time>2019-06-25T04:57:24Z</time>
      </trkpt>
      <trkpt lat="38.763629" lon="-3.021841">
        <ele>858.725</ele>
        <time>2019-06-25T04:57:44Z</time>
      </trkpt>
      <trkpt lat="38.763169" lon="-3.021712">
        <ele>856.608</ele>
        <time>2019-06-25T04:58:04Z</time>
      </trkpt>
      <trkpt lat="38.761931" lon="-3.021605">
        <ele>852.230</ele>
        <time>2019-06-25T04:58:24Z</time>
      </trkpt>
      <trkpt lat="38.761253" lon="-3.021444">
        <ele>853.275</ele>
        <time>2019-06-25T04:58:44Z</time>
      </trkpt>
      <trkpt lat="38.760509" lon="-3.021240">
        <ele>855.157</ele>
        <time>2019-06-25T04:59:04Z</time>
      </trkpt>
      <trkpt lat="38.759078" lon="-3.020961">
        <ele>853.917</ele>
        <time>2019-06-25T04:59:24Z</time>
      </trkpt>
      <trkpt lat="38.757363" lon="-3.020682">
        <ele>856.337</ele>
        <time>2019-06-25T04:59:44Z</time>
      </trkpt>
      <trkpt lat="38.756702" lon="-3.020554">
        <ele>857.193</ele>
        <time>2019-06-25T05:00:04Z</time>
      </trkpt>
      <trkpt lat="38.755414" lon="-3.020468">
        <ele>859.332</ele>
        <time>2019-06-25T05:00:24Z</time>
      </trkpt>
      <trkpt lat="38.754384" lon="-3.020135">
        <ele>861.896</ele>
        <time>2019-06-25T05:00:44Z</time>
      </trkpt>
      <trkpt lat="38.753665" lon="-3.019878">
        <ele>864.498</ele>
        <time>2019-06-25T05:01:04Z</time>
      </trkpt>
      <trkpt lat="38.753029" lon="-3.019652">
        <ele>864.215</ele>
        <time>2019-06-25T05:01:24Z</time>
      </trkpt>
      <trkpt lat="38.752611" lon="-3.019663">
        <ele>864.126</ele>
        <time>2019-06-25T05:01:44Z</time>
      </trkpt>
      <trkpt lat="38.752326" lon="-3.019770">
        <ele>864.508</ele>
        <time>2019-06-25T05:02:04Z</time>
      </trkpt>
      <trkpt lat="38.752025" lon="-3.019931">
        <ele>865.582</ele>
        <time>2019-06-25T05:02:24Z</time>
      </trkpt>
      <trkpt lat="38.751138" lon="-3.019395">
        <ele>870.157</ele>
        <time>2019-06-25T05:02:44Z</time>
      </trkpt>
      <trkpt lat="38.750519" lon="-3.018966">
        <ele>872.149</ele>
        <time>2019-06-25T05:03:04Z</time>
      </trkpt>
      <trkpt lat="38.749381" lon="-3.018236">
        <ele>873.049</ele>
        <time>2019-06-25T05:03:24Z</time>
      </trkpt>
      <trkpt lat="38.748143" lon="-3.017496">
        <ele>873.099</ele>
        <time>2019-06-25T05:03:44Z</time>
      </trkpt>
      <trkpt lat="38.747097" lon="-3.016852">
        <ele>872.085</ele>
        <time>2019-06-25T05:04:04Z</time>
      </trkpt>
      <trkpt lat="38.746093" lon="-3.016348">
        <ele>871.034</ele>
        <time>2019-06-25T05:04:24Z</time>
      </trkpt>
      <trkpt lat="38.744787" lon="-3.015769">
        <ele>868.358</ele>
        <time>2019-06-25T05:04:44Z</time>
      </trkpt>
      <trkpt lat="38.744134" lon="-3.015425">
        <ele>867.647</ele>
        <time>2019-06-25T05:05:04Z</time>
      </trkpt>
      <trkpt lat="38.743423" lon="-3.015189">
        <ele>869.329</ele>
        <time>2019-06-25T05:05:24Z</time>
      </trkpt>
      <trkpt lat="38.742578" lon="-3.014964">
        <ele>866.421</ele>
        <time>2019-06-25T05:05:44Z</time>
      </trkpt>
    </trkseg>
  </trk>
</gpx>
